<?xml version="1.0" encoding="UTF-8" ?>
<gpx version="1.1" 
creator="Memory-Map 6.4.3.1278 https://memory-map.com"
 xmlns:xsi="http://www.w3.org/2001/XMLSchema-instance"
 xmlns="http://www.topografix.com/GPX/1/1"
 xmlns:xstyle="http://www.topografix.com/GPX/gpx_style/0/2"
 xmlns:xgarmin="http://www.garmin.com/xmlschemas/GpxExtensions/v3"
 xsi:schemaLocation="http://www.topografix.com/GPX/1/1 http://www.topografix.com/GPX/1/1/gpx.xsd http://www.topografix.com/GPX/gpx_style/0/2 http://www.topografix.com/GPX/gpx_style/0/2/gpx_style.xsd http://www.garmin.com/xmlschemas/GpxExtensions/v3 https://www8.garmin.com/xmlschemas/GpxExtensionsv3.xsd">
<trk>
<name>1456 Saroberri</name>
<src>mmid:5BFAC553152BB677</src>
<type>Track</type>
<extensions> <xstyle:line>
<xstyle:color>0000ff</xstyle:color>
<xstyle:opacity>1.0</xstyle:opacity>
<xstyle:width>2.0</xstyle:width>
<xstyle:pattern>Solid</xstyle:pattern>
</xstyle:line></extensions>
<trkseg>
<trkpt lat="43.0888370000" lon="-1.1097600000"><ele>780</ele><time>2026-04-09T06:23:10Z</time></trkpt>
<trkpt lat="43.0888370000" lon="-1.1097600000"><ele>780</ele></trkpt>
<trkpt lat="43.0888470000" lon="-1.1097370000"><ele>780</ele><time>2026-04-09T06:23:12Z</time></trkpt>
<trkpt lat="43.0888620000" lon="-1.1097120000"><ele>780</ele><time>2026-04-09T06:23:14Z</time></trkpt>
<trkpt lat="43.0888750000" lon="-1.1096900000"><ele>780</ele><time>2026-04-09T06:23:16Z</time></trkpt>
<trkpt lat="43.0888850000" lon="-1.1096650000"><ele>780</ele><time>2026-04-09T06:23:18Z</time></trkpt>
<trkpt lat="43.0888950000" lon="-1.1096370000"><ele>780</ele><time>2026-04-09T06:23:20Z</time></trkpt>
<trkpt lat="43.0889120000" lon="-1.1096120000"><ele>780</ele><time>2026-04-09T06:23:23Z</time></trkpt>
<trkpt lat="43.0889220000" lon="-1.1095850000"><ele>780</ele><time>2026-04-09T06:23:25Z</time></trkpt>
<trkpt lat="43.0889200000" lon="-1.1095570000"><ele>780</ele><time>2026-04-09T06:23:27Z</time></trkpt>
<trkpt lat="43.0889120000" lon="-1.1095300000"><ele>780</ele><time>2026-04-09T06:23:36Z</time></trkpt>
<trkpt lat="43.0889100000" lon="-1.1095050000"><ele>780</ele><time>2026-04-09T06:23:38Z</time></trkpt>
<trkpt lat="43.0888970000" lon="-1.1094720000"><ele>780</ele><time>2026-04-09T06:23:40Z</time></trkpt>
<trkpt lat="43.0888800000" lon="-1.1094420000"><ele>781</ele><time>2026-04-09T06:23:42Z</time></trkpt>
<trkpt lat="43.0888670000" lon="-1.1094120000"><ele>781</ele><time>2026-04-09T06:23:44Z</time></trkpt>
<trkpt lat="43.0888770000" lon="-1.1093900000"><ele>781</ele><time>2026-04-09T06:23:46Z</time></trkpt>
<trkpt lat="43.0888920000" lon="-1.1093700000"><ele>781</ele><time>2026-04-09T06:23:48Z</time></trkpt>
<trkpt lat="43.0889020000" lon="-1.1093420000"><ele>781</ele><time>2026-04-09T06:23:50Z</time></trkpt>
<trkpt lat="43.0888870000" lon="-1.1093220000"><ele>781</ele><time>2026-04-09T06:23:53Z</time></trkpt>
<trkpt lat="43.0888650000" lon="-1.1093170000"><ele>781</ele><time>2026-04-09T06:23:56Z</time></trkpt>
<trkpt lat="43.0888470000" lon="-1.1093120000"><ele>782</ele><time>2026-04-09T06:23:59Z</time></trkpt>
<trkpt lat="43.0888270000" lon="-1.1093100000"><ele>782</ele><time>2026-04-09T06:24:02Z</time></trkpt>
<trkpt lat="43.0888170000" lon="-1.1092850000"><ele>782</ele><time>2026-04-09T06:24:13Z</time></trkpt>
<trkpt lat="43.0887920000" lon="-1.1092620000"><ele>782</ele><time>2026-04-09T06:24:18Z</time></trkpt>
<trkpt lat="43.0887670000" lon="-1.1092350000"><ele>783</ele><time>2026-04-09T06:24:20Z</time></trkpt>
<trkpt lat="43.0887470000" lon="-1.1092220000"><ele>783</ele><time>2026-04-09T06:24:28Z</time></trkpt>
<trkpt lat="43.0887170000" lon="-1.1092070000"><ele>783</ele><time>2026-04-09T06:24:30Z</time></trkpt>
<trkpt lat="43.0886920000" lon="-1.1091920000"><ele>783</ele><time>2026-04-09T06:24:32Z</time></trkpt>
<trkpt lat="43.0886770000" lon="-1.1091670000"><ele>784</ele><time>2026-04-09T06:24:34Z</time></trkpt>
<trkpt lat="43.0886820000" lon="-1.1091420000"><ele>784</ele><time>2026-04-09T06:24:36Z</time></trkpt>
<trkpt lat="43.0886820000" lon="-1.1091170000"><ele>785</ele><time>2026-04-09T06:24:40Z</time></trkpt>
<trkpt lat="43.0886650000" lon="-1.1091020000"><ele>785</ele><time>2026-04-09T06:24:43Z</time></trkpt>
<trkpt lat="43.0886500000" lon="-1.1090850000"><ele>785</ele><time>2026-04-09T06:24:45Z</time></trkpt>
<trkpt lat="43.0886300000" lon="-1.1090700000"><ele>785</ele><time>2026-04-09T06:24:47Z</time></trkpt>
<trkpt lat="43.0886070000" lon="-1.1090620000"><ele>786</ele><time>2026-04-09T06:24:50Z</time></trkpt>
<trkpt lat="43.0885900000" lon="-1.1090420000"><ele>786</ele><time>2026-04-09T06:24:53Z</time></trkpt>
<trkpt lat="43.0885700000" lon="-1.1090300000"><ele>787</ele><time>2026-04-09T06:24:56Z</time></trkpt>
<trkpt lat="43.0885570000" lon="-1.1090100000"><ele>787</ele><time>2026-04-09T06:25:00Z</time></trkpt>
<trkpt lat="43.0885350000" lon="-1.1089950000"><ele>788</ele><time>2026-04-09T06:25:03Z</time></trkpt>
<trkpt lat="43.0885170000" lon="-1.1089920000"><ele>788</ele><time>2026-04-09T06:25:06Z</time></trkpt>
<trkpt lat="43.0884970000" lon="-1.1089970000"><ele>788</ele><time>2026-04-09T06:25:08Z</time></trkpt>
<trkpt lat="43.0884770000" lon="-1.1090000000"><ele>789</ele><time>2026-04-09T06:25:10Z</time></trkpt>
<trkpt lat="43.0884600000" lon="-1.1089870000"><ele>789</ele><time>2026-04-09T06:25:13Z</time></trkpt>
<trkpt lat="43.0884520000" lon="-1.1089580000"><ele>789</ele><time>2026-04-09T06:25:15Z</time></trkpt>
<trkpt lat="43.0884420000" lon="-1.1089320000"><ele>790</ele><time>2026-04-09T06:25:19Z</time></trkpt>
<trkpt lat="43.0884370000" lon="-1.1089070000"><ele>790</ele><time>2026-04-09T06:25:22Z</time></trkpt>
<trkpt lat="43.0884200000" lon="-1.1088870000"><ele>790</ele><time>2026-04-09T06:25:25Z</time></trkpt>
<trkpt lat="43.0884120000" lon="-1.1088570000"><ele>791</ele><time>2026-04-09T06:25:29Z</time></trkpt>
<trkpt lat="43.0884020000" lon="-1.1088350000"><ele>791</ele><time>2026-04-09T06:25:32Z</time></trkpt>
<trkpt lat="43.0883920000" lon="-1.1088100000"><ele>792</ele><time>2026-04-09T06:25:35Z</time></trkpt>
<trkpt lat="43.0883770000" lon="-1.1087970000"><ele>792</ele><time>2026-04-09T06:25:38Z</time></trkpt>
<trkpt lat="43.0883650000" lon="-1.1087720000"><ele>792</ele><time>2026-04-09T06:25:41Z</time></trkpt>
<trkpt lat="43.0883620000" lon="-1.1087400000"><ele>793</ele><time>2026-04-09T06:25:45Z</time></trkpt>
<trkpt lat="43.0883520000" lon="-1.1087120000"><ele>793</ele><time>2026-04-09T06:25:48Z</time></trkpt>
<trkpt lat="43.0883370000" lon="-1.1086920000"><ele>794</ele><time>2026-04-09T06:25:54Z</time></trkpt>
<trkpt lat="43.0883370000" lon="-1.1086670000"><ele>794</ele><time>2026-04-09T06:25:58Z</time></trkpt>
<trkpt lat="43.0883370000" lon="-1.1086400000"><ele>794</ele><time>2026-04-09T06:26:01Z</time></trkpt>
<trkpt lat="43.0883520000" lon="-1.1086270000"><ele>795</ele><time>2026-04-09T06:26:03Z</time></trkpt>
<trkpt lat="43.0883500000" lon="-1.1085970000"><ele>795</ele><time>2026-04-09T06:26:07Z</time></trkpt>
<trkpt lat="43.0883470000" lon="-1.1085600000"><ele>796</ele><time>2026-04-09T06:26:11Z</time></trkpt>
<trkpt lat="43.0883350000" lon="-1.1085370000"><ele>795</ele><time>2026-04-09T06:26:14Z</time></trkpt>
<trkpt lat="43.0883170000" lon="-1.1085270000"><ele>796</ele><time>2026-04-09T06:26:18Z</time></trkpt>
<trkpt lat="43.0882970000" lon="-1.1085350000"><ele>796</ele><time>2026-04-09T06:26:21Z</time></trkpt>
<trkpt lat="43.0882850000" lon="-1.1085070000"><ele>797</ele><time>2026-04-09T06:26:26Z</time></trkpt>
<trkpt lat="43.0882720000" lon="-1.1084770000"><ele>797</ele><time>2026-04-09T06:26:28Z</time></trkpt>
<trkpt lat="43.0882600000" lon="-1.1084450000"><ele>797</ele><time>2026-04-09T06:26:30Z</time></trkpt>
<trkpt lat="43.0882420000" lon="-1.1084170000"><ele>798</ele><time>2026-04-09T06:26:32Z</time></trkpt>
<trkpt lat="43.0882220000" lon="-1.1084020000"><ele>798</ele><time>2026-04-09T06:26:34Z</time></trkpt>
<trkpt lat="43.0882020000" lon="-1.1084020000"><ele>798</ele><time>2026-04-09T06:26:35Z</time></trkpt>
<trkpt lat="43.0882070000" lon="-1.1083720000"><ele>798</ele><time>2026-04-09T06:26:37Z</time></trkpt>
<trkpt lat="43.0881900000" lon="-1.1083600000"><ele>798</ele><time>2026-04-09T06:26:39Z</time></trkpt>
<trkpt lat="43.0881720000" lon="-1.1083620000"><ele>799</ele><time>2026-04-09T06:26:41Z</time></trkpt>
<trkpt lat="43.0881650000" lon="-1.1083320000"><ele>799</ele><time>2026-04-09T06:26:49Z</time></trkpt>
<trkpt lat="43.0881570000" lon="-1.1082920000"><ele>799</ele><time>2026-04-09T06:26:54Z</time></trkpt>
<trkpt lat="43.0881570000" lon="-1.1082670000"><ele>800</ele><time>2026-04-09T06:26:59Z</time></trkpt>
<trkpt lat="43.0881520000" lon="-1.1082370000"><ele>800</ele><time>2026-04-09T06:27:02Z</time></trkpt>
<trkpt lat="43.0881400000" lon="-1.1082120000"><ele>800</ele><time>2026-04-09T06:27:05Z</time></trkpt>
<trkpt lat="43.0881170000" lon="-1.1081900000"><ele>800</ele><time>2026-04-09T06:27:08Z</time></trkpt>
<trkpt lat="43.0881070000" lon="-1.1081620000"><ele>801</ele><time>2026-04-09T06:27:11Z</time></trkpt>
<trkpt lat="43.0880870000" lon="-1.1081570000"><ele>801</ele><time>2026-04-09T06:27:14Z</time></trkpt>
<trkpt lat="43.0880650000" lon="-1.1081420000"><ele>801</ele><time>2026-04-09T06:27:17Z</time></trkpt>
<trkpt lat="43.0880500000" lon="-1.1081270000"><ele>801</ele><time>2026-04-09T06:27:19Z</time></trkpt>
<trkpt lat="43.0880350000" lon="-1.1081020000"><ele>801</ele><time>2026-04-09T06:27:22Z</time></trkpt>
<trkpt lat="43.0880120000" lon="-1.1080800000"><ele>802</ele><time>2026-04-09T06:27:25Z</time></trkpt>
<trkpt lat="43.0879920000" lon="-1.1080570000"><ele>802</ele><time>2026-04-09T06:27:28Z</time></trkpt>
<trkpt lat="43.0879720000" lon="-1.1080450000"><ele>802</ele><time>2026-04-09T06:27:31Z</time></trkpt>
<trkpt lat="43.0879620000" lon="-1.1080220000"><ele>802</ele><time>2026-04-09T06:27:34Z</time></trkpt>
<trkpt lat="43.0879420000" lon="-1.1079970000"><ele>802</ele><time>2026-04-09T06:27:37Z</time></trkpt>
<trkpt lat="43.0879220000" lon="-1.1079870000"><ele>802</ele><time>2026-04-09T06:27:39Z</time></trkpt>
<trkpt lat="43.0879020000" lon="-1.1079720000"><ele>802</ele><time>2026-04-09T06:27:42Z</time></trkpt>
<trkpt lat="43.0878770000" lon="-1.1079550000"><ele>802</ele><time>2026-04-09T06:27:46Z</time></trkpt>
<trkpt lat="43.0878570000" lon="-1.1079320000"><ele>801</ele><time>2026-04-09T06:27:49Z</time></trkpt>
<trkpt lat="43.0878450000" lon="-1.1079070000"><ele>801</ele><time>2026-04-09T06:27:51Z</time></trkpt>
<trkpt lat="43.0878350000" lon="-1.1078700000"><ele>801</ele><time>2026-04-09T06:27:53Z</time></trkpt>
<trkpt lat="43.0878250000" lon="-1.1078370000"><ele>801</ele><time>2026-04-09T06:27:55Z</time></trkpt>
<trkpt lat="43.0878020000" lon="-1.1078220000"><ele>801</ele><time>2026-04-09T06:27:58Z</time></trkpt>
<trkpt lat="43.0877800000" lon="-1.1078020000"><ele>800</ele><time>2026-04-09T06:28:00Z</time></trkpt>
<trkpt lat="43.0877520000" lon="-1.1077900000"><ele>800</ele><time>2026-04-09T06:28:02Z</time></trkpt>
<trkpt lat="43.0877270000" lon="-1.1077850000"><ele>799</ele><time>2026-04-09T06:28:18Z</time></trkpt>
<trkpt lat="43.0877070000" lon="-1.1077600000"><ele>799</ele><time>2026-04-09T06:28:20Z</time></trkpt>
<trkpt lat="43.0876820000" lon="-1.1077300000"><ele>798</ele><time>2026-04-09T06:28:22Z</time></trkpt>
<trkpt lat="43.0876620000" lon="-1.1077170000"><ele>798</ele><time>2026-04-09T06:28:24Z</time></trkpt>
<trkpt lat="43.0876470000" lon="-1.1077030000"><ele>798</ele><time>2026-04-09T06:28:26Z</time></trkpt>
<trkpt lat="43.0876320000" lon="-1.1076900000"><ele>797</ele><time>2026-04-09T06:28:28Z</time></trkpt>
<trkpt lat="43.0876170000" lon="-1.1076700000"><ele>797</ele><time>2026-04-09T06:28:30Z</time></trkpt>
<trkpt lat="43.0875970000" lon="-1.1076470000"><ele>797</ele><time>2026-04-09T06:28:32Z</time></trkpt>
<trkpt lat="43.0875800000" lon="-1.1076300000"><ele>796</ele><time>2026-04-09T06:28:34Z</time></trkpt>
<trkpt lat="43.0875620000" lon="-1.1076150000"><ele>796</ele><time>2026-04-09T06:28:36Z</time></trkpt>
<trkpt lat="43.0875420000" lon="-1.1076020000"><ele>796</ele><time>2026-04-09T06:28:38Z</time></trkpt>
<trkpt lat="43.0875270000" lon="-1.1075870000"><ele>796</ele><time>2026-04-09T06:28:40Z</time></trkpt>
<trkpt lat="43.0875120000" lon="-1.1075720000"><ele>795</ele><time>2026-04-09T06:28:42Z</time></trkpt>
<trkpt lat="43.0874930000" lon="-1.1075520000"><ele>795</ele><time>2026-04-09T06:28:44Z</time></trkpt>
<trkpt lat="43.0874720000" lon="-1.1075370000"><ele>795</ele><time>2026-04-09T06:28:46Z</time></trkpt>
<trkpt lat="43.0874550000" lon="-1.1075220000"><ele>794</ele><time>2026-04-09T06:28:48Z</time></trkpt>
<trkpt lat="43.0874370000" lon="-1.1075070000"><ele>794</ele><time>2026-04-09T06:28:50Z</time></trkpt>
<trkpt lat="43.0874220000" lon="-1.1074920000"><ele>794</ele><time>2026-04-09T06:28:52Z</time></trkpt>
<trkpt lat="43.0873970000" lon="-1.1074770000"><ele>793</ele><time>2026-04-09T06:28:55Z</time></trkpt>
<trkpt lat="43.0873770000" lon="-1.1074620000"><ele>793</ele><time>2026-04-09T06:28:57Z</time></trkpt>
<trkpt lat="43.0873570000" lon="-1.1074520000"><ele>793</ele><time>2026-04-09T06:28:59Z</time></trkpt>
<trkpt lat="43.0873420000" lon="-1.1074370000"><ele>793</ele><time>2026-04-09T06:29:01Z</time></trkpt>
<trkpt lat="43.0873250000" lon="-1.1074120000"><ele>792</ele><time>2026-04-09T06:29:03Z</time></trkpt>
<trkpt lat="43.0873070000" lon="-1.1073900000"><ele>792</ele><time>2026-04-09T06:29:05Z</time></trkpt>
<trkpt lat="43.0872870000" lon="-1.1073670000"><ele>792</ele><time>2026-04-09T06:29:07Z</time></trkpt>
<trkpt lat="43.0872650000" lon="-1.1073500000"><ele>792</ele><time>2026-04-09T06:29:09Z</time></trkpt>
<trkpt lat="43.0872470000" lon="-1.1073300000"><ele>792</ele><time>2026-04-09T06:29:11Z</time></trkpt>
<trkpt lat="43.0872300000" lon="-1.1073150000"><ele>791</ele><time>2026-04-09T06:29:13Z</time></trkpt>
<trkpt lat="43.0872120000" lon="-1.1072980000"><ele>791</ele><time>2026-04-09T06:29:15Z</time></trkpt>
<trkpt lat="43.0871920000" lon="-1.1072870000"><ele>791</ele><time>2026-04-09T06:29:17Z</time></trkpt>
<trkpt lat="43.0871770000" lon="-1.1072720000"><ele>791</ele><time>2026-04-09T06:29:19Z</time></trkpt>
<trkpt lat="43.0871670000" lon="-1.1072470000"><ele>790</ele><time>2026-04-09T06:29:25Z</time></trkpt>
<trkpt lat="43.0871470000" lon="-1.1072420000"><ele>790</ele><time>2026-04-09T06:29:27Z</time></trkpt>
<trkpt lat="43.0871270000" lon="-1.1072320000"><ele>790</ele><time>2026-04-09T06:29:29Z</time></trkpt>
<trkpt lat="43.0871100000" lon="-1.1072170000"><ele>790</ele><time>2026-04-09T06:29:31Z</time></trkpt>
<trkpt lat="43.0870920000" lon="-1.1072020000"><ele>790</ele><time>2026-04-09T06:29:33Z</time></trkpt>
<trkpt lat="43.0870770000" lon="-1.1071820000"><ele>790</ele><time>2026-04-09T06:29:35Z</time></trkpt>
<trkpt lat="43.0870600000" lon="-1.1071620000"><ele>790</ele><time>2026-04-09T06:29:37Z</time></trkpt>
<trkpt lat="43.0870420000" lon="-1.1071420000"><ele>790</ele><time>2026-04-09T06:29:39Z</time></trkpt>
<trkpt lat="43.0870220000" lon="-1.1071200000"><ele>789</ele><time>2026-04-09T06:29:41Z</time></trkpt>
<trkpt lat="43.0870070000" lon="-1.1070970000"><ele>789</ele><time>2026-04-09T06:29:43Z</time></trkpt>
<trkpt lat="43.0869900000" lon="-1.1070770000"><ele>789</ele><time>2026-04-09T06:29:45Z</time></trkpt>
<trkpt lat="43.0869720000" lon="-1.1070550000"><ele>789</ele><time>2026-04-09T06:29:47Z</time></trkpt>
<trkpt lat="43.0869570000" lon="-1.1070300000"><ele>789</ele><time>2026-04-09T06:29:49Z</time></trkpt>
<trkpt lat="43.0869420000" lon="-1.1070100000"><ele>789</ele><time>2026-04-09T06:29:51Z</time></trkpt>
<trkpt lat="43.0869220000" lon="-1.1069920000"><ele>789</ele><time>2026-04-09T06:29:53Z</time></trkpt>
<trkpt lat="43.0869070000" lon="-1.1069720000"><ele>789</ele><time>2026-04-09T06:29:55Z</time></trkpt>
<trkpt lat="43.0868950000" lon="-1.1069520000"><ele>789</ele><time>2026-04-09T06:29:57Z</time></trkpt>
<trkpt lat="43.0868820000" lon="-1.1069320000"><ele>788</ele><time>2026-04-09T06:29:59Z</time></trkpt>
<trkpt lat="43.0868720000" lon="-1.1069050000"><ele>788</ele><time>2026-04-09T06:30:01Z</time></trkpt>
<trkpt lat="43.0868570000" lon="-1.1068820000"><ele>788</ele><time>2026-04-09T06:30:03Z</time></trkpt>
<trkpt lat="43.0868470000" lon="-1.1068600000"><ele>788</ele><time>2026-04-09T06:30:05Z</time></trkpt>
<trkpt lat="43.0868370000" lon="-1.1068320000"><ele>788</ele><time>2026-04-09T06:30:07Z</time></trkpt>
<trkpt lat="43.0868270000" lon="-1.1068070000"><ele>788</ele><time>2026-04-09T06:30:09Z</time></trkpt>
<trkpt lat="43.0868100000" lon="-1.1067820000"><ele>788</ele><time>2026-04-09T06:30:11Z</time></trkpt>
<trkpt lat="43.0867970000" lon="-1.1067600000"><ele>788</ele><time>2026-04-09T06:30:13Z</time></trkpt>
<trkpt lat="43.0867850000" lon="-1.1067320000"><ele>788</ele><time>2026-04-09T06:30:15Z</time></trkpt>
<trkpt lat="43.0867720000" lon="-1.1067100000"><ele>788</ele><time>2026-04-09T06:30:17Z</time></trkpt>
<trkpt lat="43.0867620000" lon="-1.1066870000"><ele>788</ele><time>2026-04-09T06:30:19Z</time></trkpt>
<trkpt lat="43.0867500000" lon="-1.1066620000"><ele>788</ele><time>2026-04-09T06:30:21Z</time></trkpt>
<trkpt lat="43.0867400000" lon="-1.1066420000"><ele>787</ele><time>2026-04-09T06:30:23Z</time></trkpt>
<trkpt lat="43.0867250000" lon="-1.1066220000"><ele>787</ele><time>2026-04-09T06:30:25Z</time></trkpt>
<trkpt lat="43.0867100000" lon="-1.1066020000"><ele>787</ele><time>2026-04-09T06:30:27Z</time></trkpt>
<trkpt lat="43.0866950000" lon="-1.1065820000"><ele>787</ele><time>2026-04-09T06:30:29Z</time></trkpt>
<trkpt lat="43.0866850000" lon="-1.1065600000"><ele>787</ele><time>2026-04-09T06:30:31Z</time></trkpt>
<trkpt lat="43.0866700000" lon="-1.1065320000"><ele>786</ele><time>2026-04-09T06:30:34Z</time></trkpt>
<trkpt lat="43.0866570000" lon="-1.1065120000"><ele>786</ele><time>2026-04-09T06:30:36Z</time></trkpt>
<trkpt lat="43.0866470000" lon="-1.1064920000"><ele>786</ele><time>2026-04-09T06:30:38Z</time></trkpt>
<trkpt lat="43.0866370000" lon="-1.1064670000"><ele>786</ele><time>2026-04-09T06:30:40Z</time></trkpt>
<trkpt lat="43.0866270000" lon="-1.1064420000"><ele>785</ele><time>2026-04-09T06:30:42Z</time></trkpt>
<trkpt lat="43.0866120000" lon="-1.1064200000"><ele>785</ele><time>2026-04-09T06:30:44Z</time></trkpt>
<trkpt lat="43.0865970000" lon="-1.1063970000"><ele>785</ele><time>2026-04-09T06:30:46Z</time></trkpt>
<trkpt lat="43.0865820000" lon="-1.1063800000"><ele>785</ele><time>2026-04-09T06:30:48Z</time></trkpt>
<trkpt lat="43.0865650000" lon="-1.1063620000"><ele>785</ele><time>2026-04-09T06:30:50Z</time></trkpt>
<trkpt lat="43.0865500000" lon="-1.1063420000"><ele>784</ele><time>2026-04-09T06:30:52Z</time></trkpt>
<trkpt lat="43.0865320000" lon="-1.1063200000"><ele>784</ele><time>2026-04-09T06:30:54Z</time></trkpt>
<trkpt lat="43.0865170000" lon="-1.1062950000"><ele>784</ele><time>2026-04-09T06:30:56Z</time></trkpt>
<trkpt lat="43.0865000000" lon="-1.1062700000"><ele>784</ele><time>2026-04-09T06:30:58Z</time></trkpt>
<trkpt lat="43.0864870000" lon="-1.1062470000"><ele>784</ele><time>2026-04-09T06:31:00Z</time></trkpt>
<trkpt lat="43.0864720000" lon="-1.1062270000"><ele>784</ele><time>2026-04-09T06:31:02Z</time></trkpt>
<trkpt lat="43.0864620000" lon="-1.1062020000"><ele>784</ele><time>2026-04-09T06:31:04Z</time></trkpt>
<trkpt lat="43.0864520000" lon="-1.1061780000"><ele>784</ele><time>2026-04-09T06:31:06Z</time></trkpt>
<trkpt lat="43.0864350000" lon="-1.1061650000"><ele>784</ele><time>2026-04-09T06:31:08Z</time></trkpt>
<trkpt lat="43.0864150000" lon="-1.1061520000"><ele>783</ele><time>2026-04-09T06:31:10Z</time></trkpt>
<trkpt lat="43.0863970000" lon="-1.1061320000"><ele>783</ele><time>2026-04-09T06:31:12Z</time></trkpt>
<trkpt lat="43.0863800000" lon="-1.1061120000"><ele>783</ele><time>2026-04-09T06:31:14Z</time></trkpt>
<trkpt lat="43.0863600000" lon="-1.1060950000"><ele>783</ele><time>2026-04-09T06:31:16Z</time></trkpt>
<trkpt lat="43.0863450000" lon="-1.1060750000"><ele>783</ele><time>2026-04-09T06:31:18Z</time></trkpt>
<trkpt lat="43.0863270000" lon="-1.1060570000"><ele>783</ele><time>2026-04-09T06:31:20Z</time></trkpt>
<trkpt lat="43.0863120000" lon="-1.1060350000"><ele>783</ele><time>2026-04-09T06:31:22Z</time></trkpt>
<trkpt lat="43.0862970000" lon="-1.1060120000"><ele>783</ele><time>2026-04-09T06:31:24Z</time></trkpt>
<trkpt lat="43.0862820000" lon="-1.1059920000"><ele>783</ele><time>2026-04-09T06:31:26Z</time></trkpt>
<trkpt lat="43.0862670000" lon="-1.1059700000"><ele>783</ele><time>2026-04-09T06:31:28Z</time></trkpt>
<trkpt lat="43.0862470000" lon="-1.1059520000"><ele>783</ele><time>2026-04-09T06:31:30Z</time></trkpt>
<trkpt lat="43.0862300000" lon="-1.1059350000"><ele>783</ele><time>2026-04-09T06:31:32Z</time></trkpt>
<trkpt lat="43.0862170000" lon="-1.1059150000"><ele>783</ele><time>2026-04-09T06:31:34Z</time></trkpt>
<trkpt lat="43.0862020000" lon="-1.1058920000"><ele>783</ele><time>2026-04-09T06:31:36Z</time></trkpt>
<trkpt lat="43.0861870000" lon="-1.1058720000"><ele>783</ele><time>2026-04-09T06:31:38Z</time></trkpt>
<trkpt lat="43.0861720000" lon="-1.1058520000"><ele>783</ele><time>2026-04-09T06:31:40Z</time></trkpt>
<trkpt lat="43.0861550000" lon="-1.1058270000"><ele>783</ele><time>2026-04-09T06:31:42Z</time></trkpt>
<trkpt lat="43.0861400000" lon="-1.1058050000"><ele>783</ele><time>2026-04-09T06:31:44Z</time></trkpt>
<trkpt lat="43.0861220000" lon="-1.1057870000"><ele>783</ele><time>2026-04-09T06:31:46Z</time></trkpt>
<trkpt lat="43.0861100000" lon="-1.1057720000"><ele>783</ele><time>2026-04-09T06:31:48Z</time></trkpt>
<trkpt lat="43.0860950000" lon="-1.1057520000"><ele>783</ele><time>2026-04-09T06:31:50Z</time></trkpt>
<trkpt lat="43.0860800000" lon="-1.1057320000"><ele>783</ele><time>2026-04-09T06:31:52Z</time></trkpt>
<trkpt lat="43.0860570000" lon="-1.1057170000"><ele>784</ele><time>2026-04-09T06:31:55Z</time></trkpt>
<trkpt lat="43.0860370000" lon="-1.1057020000"><ele>784</ele><time>2026-04-09T06:31:57Z</time></trkpt>
<trkpt lat="43.0860220000" lon="-1.1056870000"><ele>784</ele><time>2026-04-09T06:31:59Z</time></trkpt>
<trkpt lat="43.0860070000" lon="-1.1056670000"><ele>784</ele><time>2026-04-09T06:32:01Z</time></trkpt>
<trkpt lat="43.0859920000" lon="-1.1056470000"><ele>784</ele><time>2026-04-09T06:32:03Z</time></trkpt>
<trkpt lat="43.0859770000" lon="-1.1056270000"><ele>785</ele><time>2026-04-09T06:32:05Z</time></trkpt>
<trkpt lat="43.0859650000" lon="-1.1056050000"><ele>785</ele><time>2026-04-09T06:32:07Z</time></trkpt>
<trkpt lat="43.0859570000" lon="-1.1055770000"><ele>785</ele><time>2026-04-09T06:32:09Z</time></trkpt>
<trkpt lat="43.0859470000" lon="-1.1055550000"><ele>785</ele><time>2026-04-09T06:32:11Z</time></trkpt>
<trkpt lat="43.0859350000" lon="-1.1055320000"><ele>785</ele><time>2026-04-09T06:32:13Z</time></trkpt>
<trkpt lat="43.0859170000" lon="-1.1055020000"><ele>785</ele><time>2026-04-09T06:32:16Z</time></trkpt>
<trkpt lat="43.0859020000" lon="-1.1054770000"><ele>785</ele><time>2026-04-09T06:32:19Z</time></trkpt>
<trkpt lat="43.0858820000" lon="-1.1054550000"><ele>786</ele><time>2026-04-09T06:32:22Z</time></trkpt>
<trkpt lat="43.0858620000" lon="-1.1054420000"><ele>786</ele><time>2026-04-09T06:32:25Z</time></trkpt>
<trkpt lat="43.0858400000" lon="-1.1054320000"><ele>786</ele><time>2026-04-09T06:32:28Z</time></trkpt>
<trkpt lat="43.0858150000" lon="-1.1054100000"><ele>787</ele><time>2026-04-09T06:32:43Z</time></trkpt>
<trkpt lat="43.0857970000" lon="-1.1053820000"><ele>788</ele><time>2026-04-09T06:32:45Z</time></trkpt>
<trkpt lat="43.0857800000" lon="-1.1053520000"><ele>788</ele><time>2026-04-09T06:32:47Z</time></trkpt>
<trkpt lat="43.0857670000" lon="-1.1053280000"><ele>788</ele><time>2026-04-09T06:32:49Z</time></trkpt>
<trkpt lat="43.0857570000" lon="-1.1052970000"><ele>788</ele><time>2026-04-09T06:32:52Z</time></trkpt>
<trkpt lat="43.0857350000" lon="-1.1052620000"><ele>788</ele><time>2026-04-09T06:32:54Z</time></trkpt>
<trkpt lat="43.0857120000" lon="-1.1052370000"><ele>789</ele><time>2026-04-09T06:32:56Z</time></trkpt>
<trkpt lat="43.0857020000" lon="-1.1052100000"><ele>789</ele><time>2026-04-09T06:32:58Z</time></trkpt>
<trkpt lat="43.0856850000" lon="-1.1051920000"><ele>789</ele><time>2026-04-09T06:33:00Z</time></trkpt>
<trkpt lat="43.0856670000" lon="-1.1051770000"><ele>789</ele><time>2026-04-09T06:33:02Z</time></trkpt>
<trkpt lat="43.0856500000" lon="-1.1051470000"><ele>789</ele><time>2026-04-09T06:33:05Z</time></trkpt>
<trkpt lat="43.0856350000" lon="-1.1051320000"><ele>789</ele><time>2026-04-09T06:33:08Z</time></trkpt>
<trkpt lat="43.0856250000" lon="-1.1051070000"><ele>790</ele><time>2026-04-09T06:33:13Z</time></trkpt>
<trkpt lat="43.0856150000" lon="-1.1050800000"><ele>791</ele><time>2026-04-09T06:33:18Z</time></trkpt>
<trkpt lat="43.0856120000" lon="-1.1050520000"><ele>791</ele><time>2026-04-09T06:33:22Z</time></trkpt>
<trkpt lat="43.0856270000" lon="-1.1050300000"><ele>792</ele><time>2026-04-09T06:33:25Z</time></trkpt>
<trkpt lat="43.0856100000" lon="-1.1050100000"><ele>792</ele><time>2026-04-09T06:33:28Z</time></trkpt>
<trkpt lat="43.0855920000" lon="-1.1049970000"><ele>792</ele><time>2026-04-09T06:33:30Z</time></trkpt>
<trkpt lat="43.0855770000" lon="-1.1049700000"><ele>793</ele><time>2026-04-09T06:33:33Z</time></trkpt>
<trkpt lat="43.0855600000" lon="-1.1049550000"><ele>793</ele><time>2026-04-09T06:33:37Z</time></trkpt>
<trkpt lat="43.0855470000" lon="-1.1049370000"><ele>794</ele><time>2026-04-09T06:33:41Z</time></trkpt>
<trkpt lat="43.0855320000" lon="-1.1049220000"><ele>794</ele><time>2026-04-09T06:33:44Z</time></trkpt>
<trkpt lat="43.0855220000" lon="-1.1049000000"><ele>795</ele><time>2026-04-09T06:33:47Z</time></trkpt>
<trkpt lat="43.0855100000" lon="-1.1048770000"><ele>795</ele><time>2026-04-09T06:33:50Z</time></trkpt>
<trkpt lat="43.0854900000" lon="-1.1048620000"><ele>795</ele><time>2026-04-09T06:33:53Z</time></trkpt>
<trkpt lat="43.0854720000" lon="-1.1048520000"><ele>795</ele><time>2026-04-09T06:33:57Z</time></trkpt>
<trkpt lat="43.0854520000" lon="-1.1048400000"><ele>796</ele><time>2026-04-09T06:34:03Z</time></trkpt>
<trkpt lat="43.0854350000" lon="-1.1048070000"><ele>797</ele><time>2026-04-09T06:34:06Z</time></trkpt>
<trkpt lat="43.0854150000" lon="-1.1047850000"><ele>797</ele><time>2026-04-09T06:34:08Z</time></trkpt>
<trkpt lat="43.0853920000" lon="-1.1047670000"><ele>797</ele><time>2026-04-09T06:34:11Z</time></trkpt>
<trkpt lat="43.0853770000" lon="-1.1047520000"><ele>798</ele><time>2026-04-09T06:34:14Z</time></trkpt>
<trkpt lat="43.0853570000" lon="-1.1047320000"><ele>798</ele><time>2026-04-09T06:34:17Z</time></trkpt>
<trkpt lat="43.0853420000" lon="-1.1047120000"><ele>798</ele><time>2026-04-09T06:34:21Z</time></trkpt>
<trkpt lat="43.0853220000" lon="-1.1047020000"><ele>799</ele><time>2026-04-09T06:34:24Z</time></trkpt>
<trkpt lat="43.0852980000" lon="-1.1046950000"><ele>799</ele><time>2026-04-09T06:34:26Z</time></trkpt>
<trkpt lat="43.0852800000" lon="-1.1046920000"><ele>799</ele><time>2026-04-09T06:34:30Z</time></trkpt>
<trkpt lat="43.0852600000" lon="-1.1046750000"><ele>800</ele><time>2026-04-09T06:34:35Z</time></trkpt>
<trkpt lat="43.0852400000" lon="-1.1046520000"><ele>800</ele><time>2026-04-09T06:34:38Z</time></trkpt>
<trkpt lat="43.0852200000" lon="-1.1046370000"><ele>801</ele><time>2026-04-09T06:34:41Z</time></trkpt>
<trkpt lat="43.0852020000" lon="-1.1046320000"><ele>801</ele><time>2026-04-09T06:34:44Z</time></trkpt>
<trkpt lat="43.0851820000" lon="-1.1046170000"><ele>801</ele><time>2026-04-09T06:34:47Z</time></trkpt>
<trkpt lat="43.0851620000" lon="-1.1046050000"><ele>801</ele><time>2026-04-09T06:34:50Z</time></trkpt>
<trkpt lat="43.0851430000" lon="-1.1045920000"><ele>802</ele><time>2026-04-09T06:34:53Z</time></trkpt>
<trkpt lat="43.0851320000" lon="-1.1045670000"><ele>802</ele><time>2026-04-09T06:34:56Z</time></trkpt>
<trkpt lat="43.0851170000" lon="-1.1045420000"><ele>802</ele><time>2026-04-09T06:34:59Z</time></trkpt>
<trkpt lat="43.0851000000" lon="-1.1045270000"><ele>803</ele><time>2026-04-09T06:35:02Z</time></trkpt>
<trkpt lat="43.0850770000" lon="-1.1045180000"><ele>803</ele><time>2026-04-09T06:35:05Z</time></trkpt>
<trkpt lat="43.0850570000" lon="-1.1045250000"><ele>804</ele><time>2026-04-09T06:35:07Z</time></trkpt>
<trkpt lat="43.0850320000" lon="-1.1045220000"><ele>804</ele><time>2026-04-09T06:35:10Z</time></trkpt>
<trkpt lat="43.0850170000" lon="-1.1045020000"><ele>805</ele><time>2026-04-09T06:35:14Z</time></trkpt>
<trkpt lat="43.0850050000" lon="-1.1044870000"><ele>805</ele><time>2026-04-09T06:35:18Z</time></trkpt>
<trkpt lat="43.0849880000" lon="-1.1044650000"><ele>805</ele><time>2026-04-09T06:35:20Z</time></trkpt>
<trkpt lat="43.0849670000" lon="-1.1044470000"><ele>806</ele><time>2026-04-09T06:35:23Z</time></trkpt>
<trkpt lat="43.0849520000" lon="-1.1044200000"><ele>806</ele><time>2026-04-09T06:35:26Z</time></trkpt>
<trkpt lat="43.0849350000" lon="-1.1044000000"><ele>806</ele><time>2026-04-09T06:35:29Z</time></trkpt>
<trkpt lat="43.0849250000" lon="-1.1043770000"><ele>807</ele><time>2026-04-09T06:35:34Z</time></trkpt>
<trkpt lat="43.0849070000" lon="-1.1043620000"><ele>807</ele><time>2026-04-09T06:35:38Z</time></trkpt>
<trkpt lat="43.0848920000" lon="-1.1043470000"><ele>808</ele><time>2026-04-09T06:35:41Z</time></trkpt>
<trkpt lat="43.0848800000" lon="-1.1043270000"><ele>808</ele><time>2026-04-09T06:35:44Z</time></trkpt>
<trkpt lat="43.0848670000" lon="-1.1043020000"><ele>809</ele><time>2026-04-09T06:35:48Z</time></trkpt>
<trkpt lat="43.0848500000" lon="-1.1042820000"><ele>809</ele><time>2026-04-09T06:35:51Z</time></trkpt>
<trkpt lat="43.0848320000" lon="-1.1042720000"><ele>810</ele><time>2026-04-09T06:35:54Z</time></trkpt>
<trkpt lat="43.0848250000" lon="-1.1042420000"><ele>811</ele><time>2026-04-09T06:35:59Z</time></trkpt>
<trkpt lat="43.0848170000" lon="-1.1042200000"><ele>811</ele><time>2026-04-09T06:36:03Z</time></trkpt>
<trkpt lat="43.0848070000" lon="-1.1041950000"><ele>812</ele><time>2026-04-09T06:36:07Z</time></trkpt>
<trkpt lat="43.0847950000" lon="-1.1041670000"><ele>812</ele><time>2026-04-09T06:36:10Z</time></trkpt>
<trkpt lat="43.0847800000" lon="-1.1041520000"><ele>812</ele><time>2026-04-09T06:36:12Z</time></trkpt>
<trkpt lat="43.0847670000" lon="-1.1041300000"><ele>813</ele><time>2026-04-09T06:36:15Z</time></trkpt>
<trkpt lat="43.0847570000" lon="-1.1041020000"><ele>813</ele><time>2026-04-09T06:36:18Z</time></trkpt>
<trkpt lat="43.0847420000" lon="-1.1040800000"><ele>814</ele><time>2026-04-09T06:36:22Z</time></trkpt>
<trkpt lat="43.0847270000" lon="-1.1040620000"><ele>814</ele><time>2026-04-09T06:36:26Z</time></trkpt>
<trkpt lat="43.0847050000" lon="-1.1040520000"><ele>814</ele><time>2026-04-09T06:36:29Z</time></trkpt>
<trkpt lat="43.0846870000" lon="-1.1040370000"><ele>815</ele><time>2026-04-09T06:36:32Z</time></trkpt>
<trkpt lat="43.0846700000" lon="-1.1040220000"><ele>815</ele><time>2026-04-09T06:36:36Z</time></trkpt>
<trkpt lat="43.0846520000" lon="-1.1040120000"><ele>816</ele><time>2026-04-09T06:36:40Z</time></trkpt>
<trkpt lat="43.0846350000" lon="-1.1040000000"><ele>817</ele><time>2026-04-09T06:36:44Z</time></trkpt>
<trkpt lat="43.0846200000" lon="-1.1039770000"><ele>817</ele><time>2026-04-09T06:36:48Z</time></trkpt>
<trkpt lat="43.0846050000" lon="-1.1039600000"><ele>818</ele><time>2026-04-09T06:36:52Z</time></trkpt>
<trkpt lat="43.0845920000" lon="-1.1039380000"><ele>818</ele><time>2026-04-09T06:36:56Z</time></trkpt>
<trkpt lat="43.0845720000" lon="-1.1039200000"><ele>819</ele><time>2026-04-09T06:37:01Z</time></trkpt>
<trkpt lat="43.0845570000" lon="-1.1038970000"><ele>819</ele><time>2026-04-09T06:37:05Z</time></trkpt>
<trkpt lat="43.0845500000" lon="-1.1038750000"><ele>820</ele><time>2026-04-09T06:37:10Z</time></trkpt>
<trkpt lat="43.0845380000" lon="-1.1038500000"><ele>820</ele><time>2026-04-09T06:37:14Z</time></trkpt>
<trkpt lat="43.0845220000" lon="-1.1038320000"><ele>821</ele><time>2026-04-09T06:37:18Z</time></trkpt>
<trkpt lat="43.0845070000" lon="-1.1038070000"><ele>822</ele><time>2026-04-09T06:37:21Z</time></trkpt>
<trkpt lat="43.0844920000" lon="-1.1037870000"><ele>822</ele><time>2026-04-09T06:37:25Z</time></trkpt>
<trkpt lat="43.0844770000" lon="-1.1037720000"><ele>823</ele><time>2026-04-09T06:37:30Z</time></trkpt>
<trkpt lat="43.0844700000" lon="-1.1037470000"><ele>823</ele><time>2026-04-09T06:37:34Z</time></trkpt>
<trkpt lat="43.0844570000" lon="-1.1037300000"><ele>824</ele><time>2026-04-09T06:37:37Z</time></trkpt>
<trkpt lat="43.0844420000" lon="-1.1037120000"><ele>824</ele><time>2026-04-09T06:37:42Z</time></trkpt>
<trkpt lat="43.0844270000" lon="-1.1036970000"><ele>825</ele><time>2026-04-09T06:37:47Z</time></trkpt>
<trkpt lat="43.0844120000" lon="-1.1036800000"><ele>826</ele><time>2026-04-09T06:37:51Z</time></trkpt>
<trkpt lat="43.0844070000" lon="-1.1036500000"><ele>826</ele><time>2026-04-09T06:37:56Z</time></trkpt>
<trkpt lat="43.0844070000" lon="-1.1036220000"><ele>827</ele><time>2026-04-09T06:37:59Z</time></trkpt>
<trkpt lat="43.0843950000" lon="-1.1035970000"><ele>827</ele><time>2026-04-09T06:38:03Z</time></trkpt>
<trkpt lat="43.0843770000" lon="-1.1035870000"><ele>828</ele><time>2026-04-09T06:38:06Z</time></trkpt>
<trkpt lat="43.0843620000" lon="-1.1035720000"><ele>828</ele><time>2026-04-09T06:38:10Z</time></trkpt>
<trkpt lat="43.0843420000" lon="-1.1035670000"><ele>830</ele><time>2026-04-09T06:38:41Z</time></trkpt>
<trkpt lat="43.0843250000" lon="-1.1035420000"><ele>830</ele><time>2026-04-09T06:38:43Z</time></trkpt>
<trkpt lat="43.0843070000" lon="-1.1035170000"><ele>831</ele><time>2026-04-09T06:38:45Z</time></trkpt>
<trkpt lat="43.0842920000" lon="-1.1034920000"><ele>831</ele><time>2026-04-09T06:38:48Z</time></trkpt>
<trkpt lat="43.0842750000" lon="-1.1034770000"><ele>831</ele><time>2026-04-09T06:38:51Z</time></trkpt>
<trkpt lat="43.0842620000" lon="-1.1034500000"><ele>832</ele><time>2026-04-09T06:38:55Z</time></trkpt>
<trkpt lat="43.0842470000" lon="-1.1034320000"><ele>832</ele><time>2026-04-09T06:38:58Z</time></trkpt>
<trkpt lat="43.0842270000" lon="-1.1034120000"><ele>833</ele><time>2026-04-09T06:39:02Z</time></trkpt>
<trkpt lat="43.0842120000" lon="-1.1033970000"><ele>834</ele><time>2026-04-09T06:39:11Z</time></trkpt>
<trkpt lat="43.0842020000" lon="-1.1033750000"><ele>835</ele><time>2026-04-09T06:39:58Z</time></trkpt>
<trkpt lat="43.0841900000" lon="-1.1033550000"><ele>836</ele><time>2026-04-09T06:39:59Z</time></trkpt>
<trkpt lat="43.0841670000" lon="-1.1033170000"><ele>836</ele><time>2026-04-09T06:40:01Z</time></trkpt>
<trkpt lat="43.0841520000" lon="-1.1032920000"><ele>836</ele><time>2026-04-09T06:40:03Z</time></trkpt>
<trkpt lat="43.0841370000" lon="-1.1032700000"><ele>837</ele><time>2026-04-09T06:40:06Z</time></trkpt>
<trkpt lat="43.0841300000" lon="-1.1032370000"><ele>837</ele><time>2026-04-09T06:40:09Z</time></trkpt>
<trkpt lat="43.0841170000" lon="-1.1032170000"><ele>838</ele><time>2026-04-09T06:40:12Z</time></trkpt>
<trkpt lat="43.0841020000" lon="-1.1031900000"><ele>838</ele><time>2026-04-09T06:40:17Z</time></trkpt>
<trkpt lat="43.0840900000" lon="-1.1031670000"><ele>839</ele><time>2026-04-09T06:40:20Z</time></trkpt>
<trkpt lat="43.0840770000" lon="-1.1031450000"><ele>839</ele><time>2026-04-09T06:40:22Z</time></trkpt>
<trkpt lat="43.0840620000" lon="-1.1031100000"><ele>839</ele><time>2026-04-09T06:40:25Z</time></trkpt>
<trkpt lat="43.0840470000" lon="-1.1030970000"><ele>840</ele><time>2026-04-09T06:40:29Z</time></trkpt>
<trkpt lat="43.0840320000" lon="-1.1030720000"><ele>841</ele><time>2026-04-09T06:40:59Z</time></trkpt>
<trkpt lat="43.0840200000" lon="-1.1030450000"><ele>841</ele><time>2026-04-09T06:41:00Z</time></trkpt>
<trkpt lat="43.0840070000" lon="-1.1030170000"><ele>842</ele><time>2026-04-09T06:41:01Z</time></trkpt>
<trkpt lat="43.0839970000" lon="-1.1029920000"><ele>842</ele><time>2026-04-09T06:41:02Z</time></trkpt>
<trkpt lat="43.0839850000" lon="-1.1029570000"><ele>842</ele><time>2026-04-09T06:41:04Z</time></trkpt>
<trkpt lat="43.0839700000" lon="-1.1029350000"><ele>842</ele><time>2026-04-09T06:41:06Z</time></trkpt>
<trkpt lat="43.0839570000" lon="-1.1029100000"><ele>843</ele><time>2026-04-09T06:41:10Z</time></trkpt>
<trkpt lat="43.0839470000" lon="-1.1028870000"><ele>843</ele><time>2026-04-09T06:41:12Z</time></trkpt>
<trkpt lat="43.0839320000" lon="-1.1028620000"><ele>844</ele><time>2026-04-09T06:41:15Z</time></trkpt>
<trkpt lat="43.0839250000" lon="-1.1028350000"><ele>844</ele><time>2026-04-09T06:41:18Z</time></trkpt>
<trkpt lat="43.0839170000" lon="-1.1028100000"><ele>844</ele><time>2026-04-09T06:41:22Z</time></trkpt>
<trkpt lat="43.0839020000" lon="-1.1027920000"><ele>845</ele><time>2026-04-09T06:41:25Z</time></trkpt>
<trkpt lat="43.0838950000" lon="-1.1027670000"><ele>845</ele><time>2026-04-09T06:41:27Z</time></trkpt>
<trkpt lat="43.0838820000" lon="-1.1027470000"><ele>846</ele><time>2026-04-09T06:41:30Z</time></trkpt>
<trkpt lat="43.0838750000" lon="-1.1027170000"><ele>846</ele><time>2026-04-09T06:41:35Z</time></trkpt>
<trkpt lat="43.0838570000" lon="-1.1027000000"><ele>847</ele><time>2026-04-09T06:41:38Z</time></trkpt>
<trkpt lat="43.0838480000" lon="-1.1026750000"><ele>847</ele><time>2026-04-09T06:41:41Z</time></trkpt>
<trkpt lat="43.0838420000" lon="-1.1026500000"><ele>848</ele><time>2026-04-09T06:41:44Z</time></trkpt>
<trkpt lat="43.0838420000" lon="-1.1026200000"><ele>848</ele><time>2026-04-09T06:41:47Z</time></trkpt>
<trkpt lat="43.0838370000" lon="-1.1025900000"><ele>848</ele><time>2026-04-09T06:41:51Z</time></trkpt>
<trkpt lat="43.0838220000" lon="-1.1025620000"><ele>849</ele><time>2026-04-09T06:41:55Z</time></trkpt>
<trkpt lat="43.0838100000" lon="-1.1025420000"><ele>849</ele><time>2026-04-09T06:41:58Z</time></trkpt>
<trkpt lat="43.0837950000" lon="-1.1025220000"><ele>850</ele><time>2026-04-09T06:42:03Z</time></trkpt>
<trkpt lat="43.0837850000" lon="-1.1025000000"><ele>851</ele><time>2026-04-09T06:42:07Z</time></trkpt>
<trkpt lat="43.0837750000" lon="-1.1024770000"><ele>851</ele><time>2026-04-09T06:42:10Z</time></trkpt>
<trkpt lat="43.0837650000" lon="-1.1024520000"><ele>852</ele><time>2026-04-09T06:42:13Z</time></trkpt>
<trkpt lat="43.0837550000" lon="-1.1024270000"><ele>852</ele><time>2026-04-09T06:42:16Z</time></trkpt>
<trkpt lat="43.0837420000" lon="-1.1024020000"><ele>852</ele><time>2026-04-09T06:42:20Z</time></trkpt>
<trkpt lat="43.0837350000" lon="-1.1023750000"><ele>853</ele><time>2026-04-09T06:42:24Z</time></trkpt>
<trkpt lat="43.0837270000" lon="-1.1023450000"><ele>853</ele><time>2026-04-09T06:42:28Z</time></trkpt>
<trkpt lat="43.0837220000" lon="-1.1023170000"><ele>854</ele><time>2026-04-09T06:42:32Z</time></trkpt>
<trkpt lat="43.0837150000" lon="-1.1022870000"><ele>854</ele><time>2026-04-09T06:42:36Z</time></trkpt>
<trkpt lat="43.0837070000" lon="-1.1022600000"><ele>855</ele><time>2026-04-09T06:42:39Z</time></trkpt>
<trkpt lat="43.0836950000" lon="-1.1022300000"><ele>855</ele><time>2026-04-09T06:42:43Z</time></trkpt>
<trkpt lat="43.0836850000" lon="-1.1022020000"><ele>856</ele><time>2026-04-09T06:42:47Z</time></trkpt>
<trkpt lat="43.0836750000" lon="-1.1021770000"><ele>856</ele><time>2026-04-09T06:42:50Z</time></trkpt>
<trkpt lat="43.0836670000" lon="-1.1021470000"><ele>856</ele><time>2026-04-09T06:42:54Z</time></trkpt>
<trkpt lat="43.0836550000" lon="-1.1021250000"><ele>857</ele><time>2026-04-09T06:42:57Z</time></trkpt>
<trkpt lat="43.0836470000" lon="-1.1021000000"><ele>857</ele><time>2026-04-09T06:42:59Z</time></trkpt>
<trkpt lat="43.0836420000" lon="-1.1020670000"><ele>857</ele><time>2026-04-09T06:43:02Z</time></trkpt>
<trkpt lat="43.0836370000" lon="-1.1020400000"><ele>858</ele><time>2026-04-09T06:43:05Z</time></trkpt>
<trkpt lat="43.0836270000" lon="-1.1020080000"><ele>858</ele><time>2026-04-09T06:43:10Z</time></trkpt>
<trkpt lat="43.0836220000" lon="-1.1019820000"><ele>859</ele><time>2026-04-09T06:43:14Z</time></trkpt>
<trkpt lat="43.0836170000" lon="-1.1019570000"><ele>859</ele><time>2026-04-09T06:43:18Z</time></trkpt>
<trkpt lat="43.0836020000" lon="-1.1019370000"><ele>860</ele><time>2026-04-09T06:43:22Z</time></trkpt>
<trkpt lat="43.0835920000" lon="-1.1019070000"><ele>860</ele><time>2026-04-09T06:43:26Z</time></trkpt>
<trkpt lat="43.0835800000" lon="-1.1018870000"><ele>861</ele><time>2026-04-09T06:43:29Z</time></trkpt>
<trkpt lat="43.0835700000" lon="-1.1018620000"><ele>861</ele><time>2026-04-09T06:43:33Z</time></trkpt>
<trkpt lat="43.0835570000" lon="-1.1018330000"><ele>862</ele><time>2026-04-09T06:43:37Z</time></trkpt>
<trkpt lat="43.0835500000" lon="-1.1018070000"><ele>862</ele><time>2026-04-09T06:43:41Z</time></trkpt>
<trkpt lat="43.0835470000" lon="-1.1017820000"><ele>863</ele><time>2026-04-09T06:43:45Z</time></trkpt>
<trkpt lat="43.0835370000" lon="-1.1017600000"><ele>864</ele><time>2026-04-09T06:43:48Z</time></trkpt>
<trkpt lat="43.0835300000" lon="-1.1017320000"><ele>865</ele><time>2026-04-09T06:43:54Z</time></trkpt>
<trkpt lat="43.0835120000" lon="-1.1017120000"><ele>865</ele><time>2026-04-09T06:43:58Z</time></trkpt>
<trkpt lat="43.0835050000" lon="-1.1016800000"><ele>865</ele><time>2026-04-09T06:44:02Z</time></trkpt>
<trkpt lat="43.0835000000" lon="-1.1016550000"><ele>866</ele><time>2026-04-09T06:44:05Z</time></trkpt>
<trkpt lat="43.0834870000" lon="-1.1016350000"><ele>866</ele><time>2026-04-09T06:44:08Z</time></trkpt>
<trkpt lat="43.0834770000" lon="-1.1016120000"><ele>867</ele><time>2026-04-09T06:44:11Z</time></trkpt>
<trkpt lat="43.0834720000" lon="-1.1015870000"><ele>867</ele><time>2026-04-09T06:44:14Z</time></trkpt>
<trkpt lat="43.0834570000" lon="-1.1015700000"><ele>868</ele><time>2026-04-09T06:44:17Z</time></trkpt>
<trkpt lat="43.0834420000" lon="-1.1015470000"><ele>868</ele><time>2026-04-09T06:44:20Z</time></trkpt>
<trkpt lat="43.0834320000" lon="-1.1015220000"><ele>868</ele><time>2026-04-09T06:44:23Z</time></trkpt>
<trkpt lat="43.0834270000" lon="-1.1014920000"><ele>869</ele><time>2026-04-09T06:44:27Z</time></trkpt>
<trkpt lat="43.0834170000" lon="-1.1014670000"><ele>870</ele><time>2026-04-09T06:44:31Z</time></trkpt>
<trkpt lat="43.0834050000" lon="-1.1014400000"><ele>870</ele><time>2026-04-09T06:44:35Z</time></trkpt>
<trkpt lat="43.0833970000" lon="-1.1014100000"><ele>871</ele><time>2026-04-09T06:44:39Z</time></trkpt>
<trkpt lat="43.0833870000" lon="-1.1013870000"><ele>871</ele><time>2026-04-09T06:44:42Z</time></trkpt>
<trkpt lat="43.0833670000" lon="-1.1013670000"><ele>872</ele><time>2026-04-09T06:44:46Z</time></trkpt>
<trkpt lat="43.0833570000" lon="-1.1013450000"><ele>872</ele><time>2026-04-09T06:44:49Z</time></trkpt>
<trkpt lat="43.0833450000" lon="-1.1013250000"><ele>872</ele><time>2026-04-09T06:44:52Z</time></trkpt>
<trkpt lat="43.0833320000" lon="-1.1013020000"><ele>873</ele><time>2026-04-09T06:44:55Z</time></trkpt>
<trkpt lat="43.0833220000" lon="-1.1012720000"><ele>873</ele><time>2026-04-09T06:44:59Z</time></trkpt>
<trkpt lat="43.0833220000" lon="-1.1012400000"><ele>874</ele><time>2026-04-09T06:45:02Z</time></trkpt>
<trkpt lat="43.0833220000" lon="-1.1012120000"><ele>874</ele><time>2026-04-09T06:45:05Z</time></trkpt>
<trkpt lat="43.0833200000" lon="-1.1011820000"><ele>875</ele><time>2026-04-09T06:45:09Z</time></trkpt>
<trkpt lat="43.0833170000" lon="-1.1011550000"><ele>875</ele><time>2026-04-09T06:45:12Z</time></trkpt>
<trkpt lat="43.0833270000" lon="-1.1011320000"><ele>875</ele><time>2026-04-09T06:45:14Z</time></trkpt>
<trkpt lat="43.0833350000" lon="-1.1011050000"><ele>875</ele><time>2026-04-09T06:45:16Z</time></trkpt>
<trkpt lat="43.0833250000" lon="-1.1010770000"><ele>876</ele><time>2026-04-09T06:45:19Z</time></trkpt>
<trkpt lat="43.0833150000" lon="-1.1010550000"><ele>876</ele><time>2026-04-09T06:45:22Z</time></trkpt>
<trkpt lat="43.0833050000" lon="-1.1010320000"><ele>876</ele><time>2026-04-09T06:45:24Z</time></trkpt>
<trkpt lat="43.0832820000" lon="-1.1010400000"><ele>877</ele><time>2026-04-09T06:45:27Z</time></trkpt>
<trkpt lat="43.0832870000" lon="-1.1010670000"><ele>877</ele><time>2026-04-09T06:46:52Z</time></trkpt>
<trkpt lat="43.0832870000" lon="-1.1010420000"><ele>878</ele><time>2026-04-09T06:49:10Z</time></trkpt>
<trkpt lat="43.0832650000" lon="-1.1010420000"><ele>879</ele><time>2026-04-09T06:49:31Z</time></trkpt>
<trkpt lat="43.0832370000" lon="-1.1010400000"><ele>879</ele><time>2026-04-09T06:49:33Z</time></trkpt>
<trkpt lat="43.0832170000" lon="-1.1010120000"><ele>879</ele><time>2026-04-09T06:49:35Z</time></trkpt>
<trkpt lat="43.0832050000" lon="-1.1009800000"><ele>879</ele><time>2026-04-09T06:49:37Z</time></trkpt>
<trkpt lat="43.0832020000" lon="-1.1009520000"><ele>879</ele><time>2026-04-09T06:49:40Z</time></trkpt>
<trkpt lat="43.0831970000" lon="-1.1009220000"><ele>879</ele><time>2026-04-09T06:49:57Z</time></trkpt>
<trkpt lat="43.0831870000" lon="-1.1008870000"><ele>880</ele><time>2026-04-09T06:49:59Z</time></trkpt>
<trkpt lat="43.0831820000" lon="-1.1008470000"><ele>880</ele><time>2026-04-09T06:50:01Z</time></trkpt>
<trkpt lat="43.0831800000" lon="-1.1008150000"><ele>880</ele><time>2026-04-09T06:50:03Z</time></trkpt>
<trkpt lat="43.0831730000" lon="-1.1007900000"><ele>880</ele><time>2026-04-09T06:50:05Z</time></trkpt>
<trkpt lat="43.0831620000" lon="-1.1007670000"><ele>879</ele><time>2026-04-09T06:50:07Z</time></trkpt>
<trkpt lat="43.0831470000" lon="-1.1007500000"><ele>879</ele><time>2026-04-09T06:50:12Z</time></trkpt>
<trkpt lat="43.0831420000" lon="-1.1007220000"><ele>879</ele><time>2026-04-09T06:50:14Z</time></trkpt>
<trkpt lat="43.0831270000" lon="-1.1007050000"><ele>879</ele><time>2026-04-09T06:50:16Z</time></trkpt>
<trkpt lat="43.0831070000" lon="-1.1006920000"><ele>879</ele><time>2026-04-09T06:50:18Z</time></trkpt>
<trkpt lat="43.0830870000" lon="-1.1006870000"><ele>880</ele><time>2026-04-09T06:50:20Z</time></trkpt>
<trkpt lat="43.0830620000" lon="-1.1006870000"><ele>880</ele><time>2026-04-09T06:50:22Z</time></trkpt>
<trkpt lat="43.0830450000" lon="-1.1006820000"><ele>880</ele><time>2026-04-09T06:50:24Z</time></trkpt>
<trkpt lat="43.0830220000" lon="-1.1006720000"><ele>880</ele><time>2026-04-09T06:50:26Z</time></trkpt>
<trkpt lat="43.0830070000" lon="-1.1006620000"><ele>880</ele><time>2026-04-09T06:50:30Z</time></trkpt>
<trkpt lat="43.0829900000" lon="-1.1006500000"><ele>880</ele><time>2026-04-09T06:50:33Z</time></trkpt>
<trkpt lat="43.0829670000" lon="-1.1006370000"><ele>881</ele><time>2026-04-09T06:50:37Z</time></trkpt>
<trkpt lat="43.0829520000" lon="-1.1006170000"><ele>881</ele><time>2026-04-09T06:50:40Z</time></trkpt>
<trkpt lat="43.0829370000" lon="-1.1005970000"><ele>881</ele><time>2026-04-09T06:50:42Z</time></trkpt>
<trkpt lat="43.0829220000" lon="-1.1005670000"><ele>881</ele><time>2026-04-09T06:50:44Z</time></trkpt>
<trkpt lat="43.0829120000" lon="-1.1005420000"><ele>881</ele><time>2026-04-09T06:50:45Z</time></trkpt>
<trkpt lat="43.0829020000" lon="-1.1005100000"><ele>881</ele><time>2026-04-09T06:50:47Z</time></trkpt>
<trkpt lat="43.0828920000" lon="-1.1004820000"><ele>881</ele><time>2026-04-09T06:50:49Z</time></trkpt>
<trkpt lat="43.0828970000" lon="-1.1004550000"><ele>882</ele><time>2026-04-09T06:51:00Z</time></trkpt>
<trkpt lat="43.0828900000" lon="-1.1004300000"><ele>882</ele><time>2026-04-09T06:51:02Z</time></trkpt>
<trkpt lat="43.0828720000" lon="-1.1004100000"><ele>882</ele><time>2026-04-09T06:51:04Z</time></trkpt>
<trkpt lat="43.0828570000" lon="-1.1003920000"><ele>882</ele><time>2026-04-09T06:51:06Z</time></trkpt>
<trkpt lat="43.0828420000" lon="-1.1003720000"><ele>882</ele><time>2026-04-09T06:51:08Z</time></trkpt>
<trkpt lat="43.0828320000" lon="-1.1003470000"><ele>882</ele><time>2026-04-09T06:51:10Z</time></trkpt>
<trkpt lat="43.0828150000" lon="-1.1003220000"><ele>883</ele><time>2026-04-09T06:51:13Z</time></trkpt>
<trkpt lat="43.0827970000" lon="-1.1003120000"><ele>883</ele><time>2026-04-09T06:51:42Z</time></trkpt>
<trkpt lat="43.0827850000" lon="-1.1002820000"><ele>883</ele><time>2026-04-09T06:51:44Z</time></trkpt>
<trkpt lat="43.0827720000" lon="-1.1002570000"><ele>883</ele><time>2026-04-09T06:51:46Z</time></trkpt>
<trkpt lat="43.0827620000" lon="-1.1002320000"><ele>883</ele><time>2026-04-09T06:51:48Z</time></trkpt>
<trkpt lat="43.0827500000" lon="-1.1002020000"><ele>883</ele><time>2026-04-09T06:51:51Z</time></trkpt>
<trkpt lat="43.0827370000" lon="-1.1001730000"><ele>884</ele><time>2026-04-09T06:51:54Z</time></trkpt>
<trkpt lat="43.0827270000" lon="-1.1001370000"><ele>884</ele><time>2026-04-09T06:51:57Z</time></trkpt>
<trkpt lat="43.0827170000" lon="-1.1001120000"><ele>884</ele><time>2026-04-09T06:51:59Z</time></trkpt>
<trkpt lat="43.0827050000" lon="-1.1000920000"><ele>884</ele><time>2026-04-09T06:52:01Z</time></trkpt>
<trkpt lat="43.0826920000" lon="-1.1000750000"><ele>885</ele><time>2026-04-09T06:52:03Z</time></trkpt>
<trkpt lat="43.0826770000" lon="-1.1000500000"><ele>885</ele><time>2026-04-09T06:52:06Z</time></trkpt>
<trkpt lat="43.0826570000" lon="-1.1000320000"><ele>885</ele><time>2026-04-09T06:52:09Z</time></trkpt>
<trkpt lat="43.0826450000" lon="-1.1000150000"><ele>885</ele><time>2026-04-09T06:52:11Z</time></trkpt>
<trkpt lat="43.0826370000" lon="-1.0999820000"><ele>886</ele><time>2026-04-09T06:52:14Z</time></trkpt>
<trkpt lat="43.0826300000" lon="-1.0999550000"><ele>886</ele><time>2026-04-09T06:52:17Z</time></trkpt>
<trkpt lat="43.0826170000" lon="-1.0999220000"><ele>886</ele><time>2026-04-09T06:52:20Z</time></trkpt>
<trkpt lat="43.0826020000" lon="-1.0998950000"><ele>886</ele><time>2026-04-09T06:52:23Z</time></trkpt>
<trkpt lat="43.0825950000" lon="-1.0998650000"><ele>887</ele><time>2026-04-09T06:52:26Z</time></trkpt>
<trkpt lat="43.0825920000" lon="-1.0998370000"><ele>887</ele><time>2026-04-09T06:52:29Z</time></trkpt>
<trkpt lat="43.0825870000" lon="-1.0998120000"><ele>887</ele><time>2026-04-09T06:52:32Z</time></trkpt>
<trkpt lat="43.0825820000" lon="-1.0997870000"><ele>888</ele><time>2026-04-09T06:52:35Z</time></trkpt>
<trkpt lat="43.0825770000" lon="-1.0997550000"><ele>888</ele><time>2026-04-09T06:52:39Z</time></trkpt>
<trkpt lat="43.0825820000" lon="-1.0997300000"><ele>888</ele><time>2026-04-09T06:52:42Z</time></trkpt>
<trkpt lat="43.0825770000" lon="-1.0997020000"><ele>889</ele><time>2026-04-09T06:52:45Z</time></trkpt>
<trkpt lat="43.0825720000" lon="-1.0996720000"><ele>889</ele><time>2026-04-09T06:52:49Z</time></trkpt>
<trkpt lat="43.0825670000" lon="-1.0996420000"><ele>890</ele><time>2026-04-09T06:52:53Z</time></trkpt>
<trkpt lat="43.0825670000" lon="-1.0996170000"><ele>891</ele><time>2026-04-09T06:52:57Z</time></trkpt>
<trkpt lat="43.0825720000" lon="-1.0995850000"><ele>891</ele><time>2026-04-09T06:53:01Z</time></trkpt>
<trkpt lat="43.0825680000" lon="-1.0995520000"><ele>892</ele><time>2026-04-09T06:53:05Z</time></trkpt>
<trkpt lat="43.0825570000" lon="-1.0995220000"><ele>892</ele><time>2026-04-09T06:53:08Z</time></trkpt>
<trkpt lat="43.0825620000" lon="-1.0994870000"><ele>893</ele><time>2026-04-09T06:53:11Z</time></trkpt>
<trkpt lat="43.0825620000" lon="-1.0994550000"><ele>893</ele><time>2026-04-09T06:53:14Z</time></trkpt>
<trkpt lat="43.0825500000" lon="-1.0994270000"><ele>893</ele><time>2026-04-09T06:53:17Z</time></trkpt>
<trkpt lat="43.0825320000" lon="-1.0994070000"><ele>894</ele><time>2026-04-09T06:53:20Z</time></trkpt>
<trkpt lat="43.0825170000" lon="-1.0993920000"><ele>894</ele><time>2026-04-09T06:53:24Z</time></trkpt>
<trkpt lat="43.0825150000" lon="-1.0993630000"><ele>894</ele><time>2026-04-09T06:53:29Z</time></trkpt>
<trkpt lat="43.0825100000" lon="-1.0993370000"><ele>895</ele><time>2026-04-09T06:53:33Z</time></trkpt>
<trkpt lat="43.0824970000" lon="-1.0993200000"><ele>895</ele><time>2026-04-09T06:53:36Z</time></trkpt>
<trkpt lat="43.0824820000" lon="-1.0993020000"><ele>896</ele><time>2026-04-09T06:53:39Z</time></trkpt>
<trkpt lat="43.0824670000" lon="-1.0992800000"><ele>896</ele><time>2026-04-09T06:53:43Z</time></trkpt>
<trkpt lat="43.0824620000" lon="-1.0992500000"><ele>896</ele><time>2026-04-09T06:53:47Z</time></trkpt>
<trkpt lat="43.0824600000" lon="-1.0992220000"><ele>897</ele><time>2026-04-09T06:53:50Z</time></trkpt>
<trkpt lat="43.0824500000" lon="-1.0991970000"><ele>897</ele><time>2026-04-09T06:53:54Z</time></trkpt>
<trkpt lat="43.0824400000" lon="-1.0991750000"><ele>898</ele><time>2026-04-09T06:53:58Z</time></trkpt>
<trkpt lat="43.0824350000" lon="-1.0991500000"><ele>898</ele><time>2026-04-09T06:54:01Z</time></trkpt>
<trkpt lat="43.0824200000" lon="-1.0991320000"><ele>899</ele><time>2026-04-09T06:54:05Z</time></trkpt>
<trkpt lat="43.0824070000" lon="-1.0991100000"><ele>899</ele><time>2026-04-09T06:54:09Z</time></trkpt>
<trkpt lat="43.0823970000" lon="-1.0990850000"><ele>900</ele><time>2026-04-09T06:54:12Z</time></trkpt>
<trkpt lat="43.0823870000" lon="-1.0990620000"><ele>900</ele><time>2026-04-09T06:54:15Z</time></trkpt>
<trkpt lat="43.0823820000" lon="-1.0990370000"><ele>900</ele><time>2026-04-09T06:54:19Z</time></trkpt>
<trkpt lat="43.0823750000" lon="-1.0990120000"><ele>901</ele><time>2026-04-09T06:54:22Z</time></trkpt>
<trkpt lat="43.0823620000" lon="-1.0989900000"><ele>901</ele><time>2026-04-09T06:54:26Z</time></trkpt>
<trkpt lat="43.0823600000" lon="-1.0989620000"><ele>902</ele><time>2026-04-09T06:54:30Z</time></trkpt>
<trkpt lat="43.0823430000" lon="-1.0989370000"><ele>902</ele><time>2026-04-09T06:54:33Z</time></trkpt>
<trkpt lat="43.0823300000" lon="-1.0989180000"><ele>903</ele><time>2026-04-09T06:54:35Z</time></trkpt>
<trkpt lat="43.0823170000" lon="-1.0988970000"><ele>903</ele><time>2026-04-09T06:54:40Z</time></trkpt>
<trkpt lat="43.0823120000" lon="-1.0988720000"><ele>904</ele><time>2026-04-09T06:54:45Z</time></trkpt>
<trkpt lat="43.0823070000" lon="-1.0988420000"><ele>905</ele><time>2026-04-09T06:54:51Z</time></trkpt>
<trkpt lat="43.0822870000" lon="-1.0988020000"><ele>911</ele><time>2026-04-09T06:55:40Z</time></trkpt>
<trkpt lat="43.0822570000" lon="-1.0987720000"><ele>911</ele><time>2026-04-09T06:55:41Z</time></trkpt>
<trkpt lat="43.0822220000" lon="-1.0987320000"><ele>911</ele><time>2026-04-09T06:55:42Z</time></trkpt>
<trkpt lat="43.0821870000" lon="-1.0986950000"><ele>912</ele><time>2026-04-09T06:55:43Z</time></trkpt>
<trkpt lat="43.0821570000" lon="-1.0986620000"><ele>912</ele><time>2026-04-09T06:55:44Z</time></trkpt>
<trkpt lat="43.0821420000" lon="-1.0986370000"><ele>912</ele><time>2026-04-09T06:55:45Z</time></trkpt>
<trkpt lat="43.0821320000" lon="-1.0986020000"><ele>912</ele><time>2026-04-09T06:55:47Z</time></trkpt>
<trkpt lat="43.0821370000" lon="-1.0985700000"><ele>913</ele><time>2026-04-09T06:55:50Z</time></trkpt>
<trkpt lat="43.0821320000" lon="-1.0985420000"><ele>913</ele><time>2026-04-09T06:55:54Z</time></trkpt>
<trkpt lat="43.0821250000" lon="-1.0985130000"><ele>914</ele><time>2026-04-09T06:55:59Z</time></trkpt>
<trkpt lat="43.0821100000" lon="-1.0984970000"><ele>914</ele><time>2026-04-09T06:56:03Z</time></trkpt>
<trkpt lat="43.0820920000" lon="-1.0984870000"><ele>915</ele><time>2026-04-09T06:56:07Z</time></trkpt>
<trkpt lat="43.0820720000" lon="-1.0984770000"><ele>915</ele><time>2026-04-09T06:56:11Z</time></trkpt>
<trkpt lat="43.0820520000" lon="-1.0984600000"><ele>916</ele><time>2026-04-09T06:56:15Z</time></trkpt>
<trkpt lat="43.0820330000" lon="-1.0984450000"><ele>917</ele><time>2026-04-09T06:56:20Z</time></trkpt>
<trkpt lat="43.0820370000" lon="-1.0984100000"><ele>918</ele><time>2026-04-09T06:56:24Z</time></trkpt>
<trkpt lat="43.0820330000" lon="-1.0983770000"><ele>918</ele><time>2026-04-09T06:56:28Z</time></trkpt>
<trkpt lat="43.0820170000" lon="-1.0983620000"><ele>918</ele><time>2026-04-09T06:56:31Z</time></trkpt>
<trkpt lat="43.0819950000" lon="-1.0983520000"><ele>919</ele><time>2026-04-09T06:56:35Z</time></trkpt>
<trkpt lat="43.0819800000" lon="-1.0983300000"><ele>920</ele><time>2026-04-09T06:56:40Z</time></trkpt>
<trkpt lat="43.0819800000" lon="-1.0982970000"><ele>920</ele><time>2026-04-09T06:56:44Z</time></trkpt>
<trkpt lat="43.0819620000" lon="-1.0982820000"><ele>921</ele><time>2026-04-09T06:56:48Z</time></trkpt>
<trkpt lat="43.0819450000" lon="-1.0982670000"><ele>921</ele><time>2026-04-09T06:56:52Z</time></trkpt>
<trkpt lat="43.0819420000" lon="-1.0982320000"><ele>922</ele><time>2026-04-09T06:56:56Z</time></trkpt>
<trkpt lat="43.0819250000" lon="-1.0982120000"><ele>922</ele><time>2026-04-09T06:56:59Z</time></trkpt>
<trkpt lat="43.0819270000" lon="-1.0981870000"><ele>923</ele><time>2026-04-09T06:57:02Z</time></trkpt>
<trkpt lat="43.0819250000" lon="-1.0981600000"><ele>924</ele><time>2026-04-09T06:57:06Z</time></trkpt>
<trkpt lat="43.0819050000" lon="-1.0981520000"><ele>924</ele><time>2026-04-09T06:57:10Z</time></trkpt>
<trkpt lat="43.0818870000" lon="-1.0981470000"><ele>924</ele><time>2026-04-09T06:57:13Z</time></trkpt>
<trkpt lat="43.0818670000" lon="-1.0981420000"><ele>925</ele><time>2026-04-09T06:57:16Z</time></trkpt>
<trkpt lat="43.0818470000" lon="-1.0981350000"><ele>925</ele><time>2026-04-09T06:57:20Z</time></trkpt>
<trkpt lat="43.0818270000" lon="-1.0981300000"><ele>926</ele><time>2026-04-09T06:57:24Z</time></trkpt>
<trkpt lat="43.0818200000" lon="-1.0981050000"><ele>927</ele><time>2026-04-09T06:57:29Z</time></trkpt>
<trkpt lat="43.0818220000" lon="-1.0980770000"><ele>927</ele><time>2026-04-09T06:57:33Z</time></trkpt>
<trkpt lat="43.0818250000" lon="-1.0980520000"><ele>928</ele><time>2026-04-09T06:57:37Z</time></trkpt>
<trkpt lat="43.0818070000" lon="-1.0980720000"><ele>928</ele><time>2026-04-09T06:58:21Z</time></trkpt>
<trkpt lat="43.0817870000" lon="-1.0980920000"><ele>928</ele><time>2026-04-09T06:58:24Z</time></trkpt>
<trkpt lat="43.0817670000" lon="-1.0981120000"><ele>928</ele><time>2026-04-09T06:58:27Z</time></trkpt>
<trkpt lat="43.0817470000" lon="-1.0981150000"><ele>929</ele><time>2026-04-09T06:59:19Z</time></trkpt>
<trkpt lat="43.0817270000" lon="-1.0981080000"><ele>929</ele><time>2026-04-09T06:59:22Z</time></trkpt>
<trkpt lat="43.0817250000" lon="-1.0980820000"><ele>928</ele><time>2026-04-09T06:59:40Z</time></trkpt>
<trkpt lat="43.0817070000" lon="-1.0980720000"><ele>928</ele><time>2026-04-09T06:59:43Z</time></trkpt>
<trkpt lat="43.0816820000" lon="-1.0980720000"><ele>928</ele><time>2026-04-09T06:59:46Z</time></trkpt>
<trkpt lat="43.0816620000" lon="-1.0980570000"><ele>927</ele><time>2026-04-09T06:59:49Z</time></trkpt>
<trkpt lat="43.0816420000" lon="-1.0980620000"><ele>927</ele><time>2026-04-09T06:59:52Z</time></trkpt>
<trkpt lat="43.0816220000" lon="-1.0980600000"><ele>926</ele><time>2026-04-09T06:59:55Z</time></trkpt>
<trkpt lat="43.0816050000" lon="-1.0980450000"><ele>925</ele><time>2026-04-09T06:59:58Z</time></trkpt>
<trkpt lat="43.0815870000" lon="-1.0980400000"><ele>925</ele><time>2026-04-09T07:00:01Z</time></trkpt>
<trkpt lat="43.0815700000" lon="-1.0980570000"><ele>924</ele><time>2026-04-09T07:00:04Z</time></trkpt>
<trkpt lat="43.0815500000" lon="-1.0980700000"><ele>923</ele><time>2026-04-09T07:00:07Z</time></trkpt>
<trkpt lat="43.0815250000" lon="-1.0980620000"><ele>922</ele><time>2026-04-09T07:00:10Z</time></trkpt>
<trkpt lat="43.0815020000" lon="-1.0980720000"><ele>921</ele><time>2026-04-09T07:00:13Z</time></trkpt>
<trkpt lat="43.0814770000" lon="-1.0980670000"><ele>920</ele><time>2026-04-09T07:00:16Z</time></trkpt>
<trkpt lat="43.0814600000" lon="-1.0980620000"><ele>920</ele><time>2026-04-09T07:00:18Z</time></trkpt>
<trkpt lat="43.0814320000" lon="-1.0980520000"><ele>919</ele><time>2026-04-09T07:00:21Z</time></trkpt>
<trkpt lat="43.0814120000" lon="-1.0980420000"><ele>918</ele><time>2026-04-09T07:00:23Z</time></trkpt>
<trkpt lat="43.0813920000" lon="-1.0980470000"><ele>918</ele><time>2026-04-09T07:00:25Z</time></trkpt>
<trkpt lat="43.0813750000" lon="-1.0980470000"><ele>918</ele><time>2026-04-09T07:00:27Z</time></trkpt>
<trkpt lat="43.0813570000" lon="-1.0980500000"><ele>917</ele><time>2026-04-09T07:00:29Z</time></trkpt>
<trkpt lat="43.0813370000" lon="-1.0980520000"><ele>917</ele><time>2026-04-09T07:00:31Z</time></trkpt>
<trkpt lat="43.0813170000" lon="-1.0980570000"><ele>917</ele><time>2026-04-09T07:00:33Z</time></trkpt>
<trkpt lat="43.0812970000" lon="-1.0980620000"><ele>916</ele><time>2026-04-09T07:00:35Z</time></trkpt>
<trkpt lat="43.0812770000" lon="-1.0980620000"><ele>916</ele><time>2026-04-09T07:00:37Z</time></trkpt>
<trkpt lat="43.0812520000" lon="-1.0980720000"><ele>916</ele><time>2026-04-09T07:00:40Z</time></trkpt>
<trkpt lat="43.0812300000" lon="-1.0980800000"><ele>915</ele><time>2026-04-09T07:00:43Z</time></trkpt>
<trkpt lat="43.0812070000" lon="-1.0980670000"><ele>914</ele><time>2026-04-09T07:00:46Z</time></trkpt>
<trkpt lat="43.0811870000" lon="-1.0980470000"><ele>914</ele><time>2026-04-09T07:00:49Z</time></trkpt>
<trkpt lat="43.0811720000" lon="-1.0980270000"><ele>913</ele><time>2026-04-09T07:00:51Z</time></trkpt>
<trkpt lat="43.0811520000" lon="-1.0980120000"><ele>913</ele><time>2026-04-09T07:00:53Z</time></trkpt>
<trkpt lat="43.0811350000" lon="-1.0980100000"><ele>912</ele><time>2026-04-09T07:00:55Z</time></trkpt>
<trkpt lat="43.0811120000" lon="-1.0980120000"><ele>912</ele><time>2026-04-09T07:00:57Z</time></trkpt>
<trkpt lat="43.0810920000" lon="-1.0980150000"><ele>911</ele><time>2026-04-09T07:00:59Z</time></trkpt>
<trkpt lat="43.0810720000" lon="-1.0980070000"><ele>911</ele><time>2026-04-09T07:01:02Z</time></trkpt>
<trkpt lat="43.0810550000" lon="-1.0979950000"><ele>910</ele><time>2026-04-09T07:01:04Z</time></trkpt>
<trkpt lat="43.0810300000" lon="-1.0979920000"><ele>909</ele><time>2026-04-09T07:01:07Z</time></trkpt>
<trkpt lat="43.0810120000" lon="-1.0979900000"><ele>909</ele><time>2026-04-09T07:01:09Z</time></trkpt>
<trkpt lat="43.0809920000" lon="-1.0979950000"><ele>908</ele><time>2026-04-09T07:01:11Z</time></trkpt>
<trkpt lat="43.0809720000" lon="-1.0979970000"><ele>908</ele><time>2026-04-09T07:01:13Z</time></trkpt>
<trkpt lat="43.0809470000" lon="-1.0979970000"><ele>907</ele><time>2026-04-09T07:01:16Z</time></trkpt>
<trkpt lat="43.0809220000" lon="-1.0980020000"><ele>907</ele><time>2026-04-09T07:01:19Z</time></trkpt>
<trkpt lat="43.0808970000" lon="-1.0980000000"><ele>906</ele><time>2026-04-09T07:01:21Z</time></trkpt>
<trkpt lat="43.0808770000" lon="-1.0979970000"><ele>906</ele><time>2026-04-09T07:01:23Z</time></trkpt>
<trkpt lat="43.0808570000" lon="-1.0979970000"><ele>906</ele><time>2026-04-09T07:01:25Z</time></trkpt>
<trkpt lat="43.0808400000" lon="-1.0979870000"><ele>905</ele><time>2026-04-09T07:01:27Z</time></trkpt>
<trkpt lat="43.0808170000" lon="-1.0979870000"><ele>905</ele><time>2026-04-09T07:01:29Z</time></trkpt>
<trkpt lat="43.0807970000" lon="-1.0979950000"><ele>905</ele><time>2026-04-09T07:01:31Z</time></trkpt>
<trkpt lat="43.0807770000" lon="-1.0980020000"><ele>904</ele><time>2026-04-09T07:01:33Z</time></trkpt>
<trkpt lat="43.0807570000" lon="-1.0980070000"><ele>904</ele><time>2026-04-09T07:01:35Z</time></trkpt>
<trkpt lat="43.0807370000" lon="-1.0980020000"><ele>904</ele><time>2026-04-09T07:01:37Z</time></trkpt>
<trkpt lat="43.0807170000" lon="-1.0980020000"><ele>904</ele><time>2026-04-09T07:01:39Z</time></trkpt>
<trkpt lat="43.0806950000" lon="-1.0980020000"><ele>903</ele><time>2026-04-09T07:01:41Z</time></trkpt>
<trkpt lat="43.0806720000" lon="-1.0980100000"><ele>903</ele><time>2026-04-09T07:01:56Z</time></trkpt>
<trkpt lat="43.0806500000" lon="-1.0980020000"><ele>903</ele><time>2026-04-09T07:01:58Z</time></trkpt>
<trkpt lat="43.0806170000" lon="-1.0980020000"><ele>903</ele><time>2026-04-09T07:02:00Z</time></trkpt>
<trkpt lat="43.0805870000" lon="-1.0980100000"><ele>903</ele><time>2026-04-09T07:02:02Z</time></trkpt>
<trkpt lat="43.0805570000" lon="-1.0980070000"><ele>902</ele><time>2026-04-09T07:02:04Z</time></trkpt>
<trkpt lat="43.0805350000" lon="-1.0979970000"><ele>902</ele><time>2026-04-09T07:02:06Z</time></trkpt>
<trkpt lat="43.0805100000" lon="-1.0979920000"><ele>902</ele><time>2026-04-09T07:02:08Z</time></trkpt>
<trkpt lat="43.0804870000" lon="-1.0979900000"><ele>902</ele><time>2026-04-09T07:02:10Z</time></trkpt>
<trkpt lat="43.0804650000" lon="-1.0979900000"><ele>902</ele><time>2026-04-09T07:02:12Z</time></trkpt>
<trkpt lat="43.0804470000" lon="-1.0979970000"><ele>901</ele><time>2026-04-09T07:02:14Z</time></trkpt>
<trkpt lat="43.0804250000" lon="-1.0980050000"><ele>901</ele><time>2026-04-09T07:02:16Z</time></trkpt>
<trkpt lat="43.0804020000" lon="-1.0980000000"><ele>901</ele><time>2026-04-09T07:02:18Z</time></trkpt>
<trkpt lat="43.0803800000" lon="-1.0979920000"><ele>901</ele><time>2026-04-09T07:02:20Z</time></trkpt>
<trkpt lat="43.0803570000" lon="-1.0979870000"><ele>901</ele><time>2026-04-09T07:02:22Z</time></trkpt>
<trkpt lat="43.0803370000" lon="-1.0979770000"><ele>901</ele><time>2026-04-09T07:02:24Z</time></trkpt>
<trkpt lat="43.0803170000" lon="-1.0979670000"><ele>901</ele><time>2026-04-09T07:02:26Z</time></trkpt>
<trkpt lat="43.0802970000" lon="-1.0979650000"><ele>901</ele><time>2026-04-09T07:02:28Z</time></trkpt>
<trkpt lat="43.0802720000" lon="-1.0979620000"><ele>900</ele><time>2026-04-09T07:02:30Z</time></trkpt>
<trkpt lat="43.0802500000" lon="-1.0979700000"><ele>900</ele><time>2026-04-09T07:02:32Z</time></trkpt>
<trkpt lat="43.0802250000" lon="-1.0979720000"><ele>900</ele><time>2026-04-09T07:02:34Z</time></trkpt>
<trkpt lat="43.0802020000" lon="-1.0979770000"><ele>900</ele><time>2026-04-09T07:02:36Z</time></trkpt>
<trkpt lat="43.0801800000" lon="-1.0979770000"><ele>899</ele><time>2026-04-09T07:02:38Z</time></trkpt>
<trkpt lat="43.0801570000" lon="-1.0979770000"><ele>899</ele><time>2026-04-09T07:02:40Z</time></trkpt>
<trkpt lat="43.0801320000" lon="-1.0979730000"><ele>899</ele><time>2026-04-09T07:02:42Z</time></trkpt>
<trkpt lat="43.0801100000" lon="-1.0979670000"><ele>899</ele><time>2026-04-09T07:02:44Z</time></trkpt>
<trkpt lat="43.0800820000" lon="-1.0979600000"><ele>899</ele><time>2026-04-09T07:02:47Z</time></trkpt>
<trkpt lat="43.0800600000" lon="-1.0979570000"><ele>899</ele><time>2026-04-09T07:02:49Z</time></trkpt>
<trkpt lat="43.0800370000" lon="-1.0979500000"><ele>899</ele><time>2026-04-09T07:02:51Z</time></trkpt>
<trkpt lat="43.0800170000" lon="-1.0979470000"><ele>898</ele><time>2026-04-09T07:02:53Z</time></trkpt>
<trkpt lat="43.0799870000" lon="-1.0979470000"><ele>898</ele><time>2026-04-09T07:02:55Z</time></trkpt>
<trkpt lat="43.0799650000" lon="-1.0979470000"><ele>898</ele><time>2026-04-09T07:02:57Z</time></trkpt>
<trkpt lat="43.0799420000" lon="-1.0979420000"><ele>898</ele><time>2026-04-09T07:02:59Z</time></trkpt>
<trkpt lat="43.0799220000" lon="-1.0979500000"><ele>898</ele><time>2026-04-09T07:03:01Z</time></trkpt>
<trkpt lat="43.0799000000" lon="-1.0979500000"><ele>898</ele><time>2026-04-09T07:03:03Z</time></trkpt>
<trkpt lat="43.0798750000" lon="-1.0979470000"><ele>898</ele><time>2026-04-09T07:03:05Z</time></trkpt>
<trkpt lat="43.0798520000" lon="-1.0979470000"><ele>898</ele><time>2026-04-09T07:03:07Z</time></trkpt>
<trkpt lat="43.0798270000" lon="-1.0979420000"><ele>898</ele><time>2026-04-09T07:03:09Z</time></trkpt>
<trkpt lat="43.0798020000" lon="-1.0979320000"><ele>898</ele><time>2026-04-09T07:03:11Z</time></trkpt>
<trkpt lat="43.0797800000" lon="-1.0979220000"><ele>898</ele><time>2026-04-09T07:03:13Z</time></trkpt>
<trkpt lat="43.0797570000" lon="-1.0979200000"><ele>898</ele><time>2026-04-09T07:03:15Z</time></trkpt>
<trkpt lat="43.0797320000" lon="-1.0979070000"><ele>898</ele><time>2026-04-09T07:03:17Z</time></trkpt>
<trkpt lat="43.0797070000" lon="-1.0978970000"><ele>898</ele><time>2026-04-09T07:03:19Z</time></trkpt>
<trkpt lat="43.0796870000" lon="-1.0978900000"><ele>898</ele><time>2026-04-09T07:03:21Z</time></trkpt>
<trkpt lat="43.0796620000" lon="-1.0978750000"><ele>898</ele><time>2026-04-09T07:03:24Z</time></trkpt>
<trkpt lat="43.0796420000" lon="-1.0978750000"><ele>898</ele><time>2026-04-09T07:03:26Z</time></trkpt>
<trkpt lat="43.0796200000" lon="-1.0978750000"><ele>898</ele><time>2026-04-09T07:03:28Z</time></trkpt>
<trkpt lat="43.0796000000" lon="-1.0978720000"><ele>898</ele><time>2026-04-09T07:03:30Z</time></trkpt>
<trkpt lat="43.0795770000" lon="-1.0978720000"><ele>898</ele><time>2026-04-09T07:03:32Z</time></trkpt>
<trkpt lat="43.0795550000" lon="-1.0978670000"><ele>898</ele><time>2026-04-09T07:03:34Z</time></trkpt>
<trkpt lat="43.0795350000" lon="-1.0978520000"><ele>898</ele><time>2026-04-09T07:03:36Z</time></trkpt>
<trkpt lat="43.0795170000" lon="-1.0978320000"><ele>898</ele><time>2026-04-09T07:03:38Z</time></trkpt>
<trkpt lat="43.0794970000" lon="-1.0978120000"><ele>898</ele><time>2026-04-09T07:03:40Z</time></trkpt>
<trkpt lat="43.0794750000" lon="-1.0977970000"><ele>898</ele><time>2026-04-09T07:03:42Z</time></trkpt>
<trkpt lat="43.0794520000" lon="-1.0977920000"><ele>898</ele><time>2026-04-09T07:03:44Z</time></trkpt>
<trkpt lat="43.0794320000" lon="-1.0977900000"><ele>898</ele><time>2026-04-09T07:03:46Z</time></trkpt>
<trkpt lat="43.0794120000" lon="-1.0977870000"><ele>898</ele><time>2026-04-09T07:03:48Z</time></trkpt>
<trkpt lat="43.0793920000" lon="-1.0977770000"><ele>898</ele><time>2026-04-09T07:03:50Z</time></trkpt>
<trkpt lat="43.0793700000" lon="-1.0977750000"><ele>898</ele><time>2026-04-09T07:03:52Z</time></trkpt>
<trkpt lat="43.0793450000" lon="-1.0977720000"><ele>898</ele><time>2026-04-09T07:03:54Z</time></trkpt>
<trkpt lat="43.0793250000" lon="-1.0977700000"><ele>898</ele><time>2026-04-09T07:03:56Z</time></trkpt>
<trkpt lat="43.0793020000" lon="-1.0977620000"><ele>898</ele><time>2026-04-09T07:03:58Z</time></trkpt>
<trkpt lat="43.0792820000" lon="-1.0977600000"><ele>898</ele><time>2026-04-09T07:04:00Z</time></trkpt>
<trkpt lat="43.0792570000" lon="-1.0977570000"><ele>898</ele><time>2026-04-09T07:04:02Z</time></trkpt>
<trkpt lat="43.0792320000" lon="-1.0977470000"><ele>897</ele><time>2026-04-09T07:04:04Z</time></trkpt>
<trkpt lat="43.0792120000" lon="-1.0977400000"><ele>897</ele><time>2026-04-09T07:04:06Z</time></trkpt>
<trkpt lat="43.0791900000" lon="-1.0977320000"><ele>897</ele><time>2026-04-09T07:04:08Z</time></trkpt>
<trkpt lat="43.0791670000" lon="-1.0977370000"><ele>897</ele><time>2026-04-09T07:04:10Z</time></trkpt>
<trkpt lat="43.0791470000" lon="-1.0977350000"><ele>897</ele><time>2026-04-09T07:04:12Z</time></trkpt>
<trkpt lat="43.0791270000" lon="-1.0977320000"><ele>897</ele><time>2026-04-09T07:04:14Z</time></trkpt>
<trkpt lat="43.0791020000" lon="-1.0977270000"><ele>897</ele><time>2026-04-09T07:04:16Z</time></trkpt>
<trkpt lat="43.0790770000" lon="-1.0977170000"><ele>897</ele><time>2026-04-09T07:04:18Z</time></trkpt>
<trkpt lat="43.0790550000" lon="-1.0977120000"><ele>897</ele><time>2026-04-09T07:04:20Z</time></trkpt>
<trkpt lat="43.0790320000" lon="-1.0977170000"><ele>897</ele><time>2026-04-09T07:04:22Z</time></trkpt>
<trkpt lat="43.0790080000" lon="-1.0977220000"><ele>897</ele><time>2026-04-09T07:04:24Z</time></trkpt>
<trkpt lat="43.0789920000" lon="-1.0977270000"><ele>897</ele><time>2026-04-09T07:04:33Z</time></trkpt>
<trkpt lat="43.0789720000" lon="-1.0977320000"><ele>897</ele><time>2026-04-09T07:04:35Z</time></trkpt>
<trkpt lat="43.0789500000" lon="-1.0977350000"><ele>897</ele><time>2026-04-09T07:04:37Z</time></trkpt>
<trkpt lat="43.0789270000" lon="-1.0977220000"><ele>896</ele><time>2026-04-09T07:04:39Z</time></trkpt>
<trkpt lat="43.0789020000" lon="-1.0977120000"><ele>896</ele><time>2026-04-09T07:04:41Z</time></trkpt>
<trkpt lat="43.0788800000" lon="-1.0977120000"><ele>896</ele><time>2026-04-09T07:04:43Z</time></trkpt>
<trkpt lat="43.0788600000" lon="-1.0977070000"><ele>896</ele><time>2026-04-09T07:04:45Z</time></trkpt>
<trkpt lat="43.0788370000" lon="-1.0977070000"><ele>896</ele><time>2026-04-09T07:04:47Z</time></trkpt>
<trkpt lat="43.0788170000" lon="-1.0977120000"><ele>896</ele><time>2026-04-09T07:04:49Z</time></trkpt>
<trkpt lat="43.0787970000" lon="-1.0977220000"><ele>896</ele><time>2026-04-09T07:04:51Z</time></trkpt>
<trkpt lat="43.0787750000" lon="-1.0977300000"><ele>896</ele><time>2026-04-09T07:04:53Z</time></trkpt>
<trkpt lat="43.0787570000" lon="-1.0977320000"><ele>896</ele><time>2026-04-09T07:04:55Z</time></trkpt>
<trkpt lat="43.0787370000" lon="-1.0977320000"><ele>896</ele><time>2026-04-09T07:04:57Z</time></trkpt>
<trkpt lat="43.0787170000" lon="-1.0977270000"><ele>896</ele><time>2026-04-09T07:04:59Z</time></trkpt>
<trkpt lat="43.0786970000" lon="-1.0977250000"><ele>896</ele><time>2026-04-09T07:05:01Z</time></trkpt>
<trkpt lat="43.0786770000" lon="-1.0977370000"><ele>896</ele><time>2026-04-09T07:05:04Z</time></trkpt>
<trkpt lat="43.0786620000" lon="-1.0977550000"><ele>896</ele><time>2026-04-09T07:05:06Z</time></trkpt>
<trkpt lat="43.0786370000" lon="-1.0977750000"><ele>895</ele><time>2026-04-09T07:05:09Z</time></trkpt>
<trkpt lat="43.0786200000" lon="-1.0977900000"><ele>895</ele><time>2026-04-09T07:05:11Z</time></trkpt>
<trkpt lat="43.0786050000" lon="-1.0978100000"><ele>896</ele><time>2026-04-09T07:05:14Z</time></trkpt>
<trkpt lat="43.0785850000" lon="-1.0977770000"><ele>895</ele><time>2026-04-09T07:05:34Z</time></trkpt>
<trkpt lat="43.0785570000" lon="-1.0977520000"><ele>895</ele><time>2026-04-09T07:05:36Z</time></trkpt>
<trkpt lat="43.0785320000" lon="-1.0977370000"><ele>895</ele><time>2026-04-09T07:05:38Z</time></trkpt>
<trkpt lat="43.0785100000" lon="-1.0977270000"><ele>895</ele><time>2026-04-09T07:05:40Z</time></trkpt>
<trkpt lat="43.0784870000" lon="-1.0977150000"><ele>895</ele><time>2026-04-09T07:05:42Z</time></trkpt>
<trkpt lat="43.0784670000" lon="-1.0977020000"><ele>895</ele><time>2026-04-09T07:05:44Z</time></trkpt>
<trkpt lat="43.0784470000" lon="-1.0976920000"><ele>895</ele><time>2026-04-09T07:05:46Z</time></trkpt>
<trkpt lat="43.0784270000" lon="-1.0976920000"><ele>895</ele><time>2026-04-09T07:05:48Z</time></trkpt>
<trkpt lat="43.0784070000" lon="-1.0976920000"><ele>895</ele><time>2026-04-09T07:05:51Z</time></trkpt>
<trkpt lat="43.0783870000" lon="-1.0976800000"><ele>895</ele><time>2026-04-09T07:05:53Z</time></trkpt>
<trkpt lat="43.0783620000" lon="-1.0976720000"><ele>895</ele><time>2026-04-09T07:05:55Z</time></trkpt>
<trkpt lat="43.0783400000" lon="-1.0976670000"><ele>895</ele><time>2026-04-09T07:05:57Z</time></trkpt>
<trkpt lat="43.0783150000" lon="-1.0976620000"><ele>895</ele><time>2026-04-09T07:05:59Z</time></trkpt>
<trkpt lat="43.0782920000" lon="-1.0976620000"><ele>895</ele><time>2026-04-09T07:06:01Z</time></trkpt>
<trkpt lat="43.0782720000" lon="-1.0976620000"><ele>896</ele><time>2026-04-09T07:06:03Z</time></trkpt>
<trkpt lat="43.0782520000" lon="-1.0976570000"><ele>896</ele><time>2026-04-09T07:06:05Z</time></trkpt>
<trkpt lat="43.0782300000" lon="-1.0976550000"><ele>896</ele><time>2026-04-09T07:06:07Z</time></trkpt>
<trkpt lat="43.0782070000" lon="-1.0976500000"><ele>896</ele><time>2026-04-09T07:06:09Z</time></trkpt>
<trkpt lat="43.0781870000" lon="-1.0976420000"><ele>896</ele><time>2026-04-09T07:06:11Z</time></trkpt>
<trkpt lat="43.0781670000" lon="-1.0976350000"><ele>896</ele><time>2026-04-09T07:06:13Z</time></trkpt>
<trkpt lat="43.0781470000" lon="-1.0976350000"><ele>896</ele><time>2026-04-09T07:06:15Z</time></trkpt>
<trkpt lat="43.0781300000" lon="-1.0976400000"><ele>896</ele><time>2026-04-09T07:06:17Z</time></trkpt>
<trkpt lat="43.0781070000" lon="-1.0976400000"><ele>896</ele><time>2026-04-09T07:06:19Z</time></trkpt>
<trkpt lat="43.0780920000" lon="-1.0976150000"><ele>896</ele><time>2026-04-09T07:06:22Z</time></trkpt>
<trkpt lat="43.0780920000" lon="-1.0975870000"><ele>896</ele><time>2026-04-09T07:06:24Z</time></trkpt>
<trkpt lat="43.0780920000" lon="-1.0975550000"><ele>896</ele><time>2026-04-09T07:06:26Z</time></trkpt>
<trkpt lat="43.0780820000" lon="-1.0975270000"><ele>896</ele><time>2026-04-09T07:06:28Z</time></trkpt>
<trkpt lat="43.0780720000" lon="-1.0975050000"><ele>896</ele><time>2026-04-09T07:06:30Z</time></trkpt>
<trkpt lat="43.0780620000" lon="-1.0974770000"><ele>895</ele><time>2026-04-09T07:06:33Z</time></trkpt>
<trkpt lat="43.0780800000" lon="-1.0974620000"><ele>895</ele><time>2026-04-09T07:06:52Z</time></trkpt>
<trkpt lat="43.0780650000" lon="-1.0974470000"><ele>895</ele><time>2026-04-09T07:07:08Z</time></trkpt>
<trkpt lat="43.0780570000" lon="-1.0974220000"><ele>895</ele><time>2026-04-09T07:07:11Z</time></trkpt>
<trkpt lat="43.0780570000" lon="-1.0974620000"><ele>897</ele><time>2026-04-09T07:15:05Z</time></trkpt>
<trkpt lat="43.0780350000" lon="-1.0974770000"><ele>896</ele><time>2026-04-09T07:15:08Z</time></trkpt>
<trkpt lat="43.0780100000" lon="-1.0974900000"><ele>896</ele><time>2026-04-09T07:15:10Z</time></trkpt>
<trkpt lat="43.0779920000" lon="-1.0974970000"><ele>896</ele><time>2026-04-09T07:15:13Z</time></trkpt>
<trkpt lat="43.0780120000" lon="-1.0974870000"><ele>896</ele><time>2026-04-09T07:15:19Z</time></trkpt>
<trkpt lat="43.0780300000" lon="-1.0974820000"><ele>896</ele><time>2026-04-09T07:15:21Z</time></trkpt>
<trkpt lat="43.0780470000" lon="-1.0974800000"><ele>896</ele><time>2026-04-09T07:15:23Z</time></trkpt>
<trkpt lat="43.0780400000" lon="-1.0975170000"><ele>897</ele><time>2026-04-09T07:15:30Z</time></trkpt>
<trkpt lat="43.0780230000" lon="-1.0975470000"><ele>896</ele><time>2026-04-09T07:15:32Z</time></trkpt>
<trkpt lat="43.0780100000" lon="-1.0975750000"><ele>897</ele><time>2026-04-09T07:15:34Z</time></trkpt>
<trkpt lat="43.0779920000" lon="-1.0975950000"><ele>897</ele><time>2026-04-09T07:15:37Z</time></trkpt>
<trkpt lat="43.0779700000" lon="-1.0975970000"><ele>897</ele><time>2026-04-09T07:15:40Z</time></trkpt>
<trkpt lat="43.0779450000" lon="-1.0975970000"><ele>897</ele><time>2026-04-09T07:15:43Z</time></trkpt>
<trkpt lat="43.0779650000" lon="-1.0976120000"><ele>897</ele><time>2026-04-09T07:15:52Z</time></trkpt>
<trkpt lat="43.0779750000" lon="-1.0976320000"><ele>898</ele><time>2026-04-09T07:16:09Z</time></trkpt>
<trkpt lat="43.0779470000" lon="-1.0976150000"><ele>897</ele><time>2026-04-09T07:16:18Z</time></trkpt>
<trkpt lat="43.0779300000" lon="-1.0976070000"><ele>897</ele><time>2026-04-09T07:16:19Z</time></trkpt>
<trkpt lat="43.0778970000" lon="-1.0975970000"><ele>897</ele><time>2026-04-09T07:16:21Z</time></trkpt>
<trkpt lat="43.0778820000" lon="-1.0975820000"><ele>897</ele><time>2026-04-09T07:16:23Z</time></trkpt>
<trkpt lat="43.0778820000" lon="-1.0975520000"><ele>897</ele><time>2026-04-09T07:16:27Z</time></trkpt>
<trkpt lat="43.0778820000" lon="-1.0975270000"><ele>897</ele><time>2026-04-09T07:16:30Z</time></trkpt>
<trkpt lat="43.0778800000" lon="-1.0974970000"><ele>896</ele><time>2026-04-09T07:16:34Z</time></trkpt>
<trkpt lat="43.0778750000" lon="-1.0974700000"><ele>896</ele><time>2026-04-09T07:16:57Z</time></trkpt>
<trkpt lat="43.0778650000" lon="-1.0974270000"><ele>896</ele><time>2026-04-09T07:16:59Z</time></trkpt>
<trkpt lat="43.0778600000" lon="-1.0974000000"><ele>896</ele><time>2026-04-09T07:17:00Z</time></trkpt>
<trkpt lat="43.0778600000" lon="-1.0973670000"><ele>895</ele><time>2026-04-09T07:17:02Z</time></trkpt>
<trkpt lat="43.0778400000" lon="-1.0973750000"><ele>895</ele><time>2026-04-09T07:17:27Z</time></trkpt>
<trkpt lat="43.0778350000" lon="-1.0974070000"><ele>895</ele><time>2026-04-09T07:17:30Z</time></trkpt>
<trkpt lat="43.0778400000" lon="-1.0974370000"><ele>895</ele><time>2026-04-09T07:17:32Z</time></trkpt>
<trkpt lat="43.0778570000" lon="-1.0974650000"><ele>896</ele><time>2026-04-09T07:17:37Z</time></trkpt>
<trkpt lat="43.0778620000" lon="-1.0974950000"><ele>896</ele><time>2026-04-09T07:17:40Z</time></trkpt>
<trkpt lat="43.0778680000" lon="-1.0975270000"><ele>896</ele><time>2026-04-09T07:17:43Z</time></trkpt>
<trkpt lat="43.0778800000" lon="-1.0975520000"><ele>896</ele><time>2026-04-09T07:17:46Z</time></trkpt>
<trkpt lat="43.0778870000" lon="-1.0975870000"><ele>897</ele><time>2026-04-09T07:17:49Z</time></trkpt>
<trkpt lat="43.0778970000" lon="-1.0976120000"><ele>897</ele><time>2026-04-09T07:17:51Z</time></trkpt>
<trkpt lat="43.0779200000" lon="-1.0976350000"><ele>897</ele><time>2026-04-09T07:17:54Z</time></trkpt>
<trkpt lat="43.0779350000" lon="-1.0976520000"><ele>898</ele><time>2026-04-09T07:17:57Z</time></trkpt>
<trkpt lat="43.0779470000" lon="-1.0976720000"><ele>898</ele><time>2026-04-09T07:18:00Z</time></trkpt>
<trkpt lat="43.0779370000" lon="-1.0977000000"><ele>899</ele><time>2026-04-09T07:18:06Z</time></trkpt>
<trkpt lat="43.0779120000" lon="-1.0977020000"><ele>899</ele><time>2026-04-09T07:18:09Z</time></trkpt>
<trkpt lat="43.0778920000" lon="-1.0977030000"><ele>899</ele><time>2026-04-09T07:18:11Z</time></trkpt>
<trkpt lat="43.0778720000" lon="-1.0977070000"><ele>900</ele><time>2026-04-09T07:18:13Z</time></trkpt>
<trkpt lat="43.0778520000" lon="-1.0977070000"><ele>900</ele><time>2026-04-09T07:18:15Z</time></trkpt>
<trkpt lat="43.0778320000" lon="-1.0977120000"><ele>900</ele><time>2026-04-09T07:18:17Z</time></trkpt>
<trkpt lat="43.0778070000" lon="-1.0977120000"><ele>900</ele><time>2026-04-09T07:18:19Z</time></trkpt>
<trkpt lat="43.0777900000" lon="-1.0977150000"><ele>900</ele><time>2026-04-09T07:18:21Z</time></trkpt>
<trkpt lat="43.0777700000" lon="-1.0977170000"><ele>901</ele><time>2026-04-09T07:18:23Z</time></trkpt>
<trkpt lat="43.0777520000" lon="-1.0977150000"><ele>901</ele><time>2026-04-09T07:18:25Z</time></trkpt>
<trkpt lat="43.0777250000" lon="-1.0977120000"><ele>901</ele><time>2026-04-09T07:18:31Z</time></trkpt>
<trkpt lat="43.0777050000" lon="-1.0977100000"><ele>901</ele><time>2026-04-09T07:18:33Z</time></trkpt>
<trkpt lat="43.0776820000" lon="-1.0977070000"><ele>902</ele><time>2026-04-09T07:18:35Z</time></trkpt>
<trkpt lat="43.0776650000" lon="-1.0977120000"><ele>902</ele><time>2026-04-09T07:18:37Z</time></trkpt>
<trkpt lat="43.0776370000" lon="-1.0977120000"><ele>902</ele><time>2026-04-09T07:18:40Z</time></trkpt>
<trkpt lat="43.0776200000" lon="-1.0977170000"><ele>902</ele><time>2026-04-09T07:18:42Z</time></trkpt>
<trkpt lat="43.0775970000" lon="-1.0977150000"><ele>902</ele><time>2026-04-09T07:18:44Z</time></trkpt>
<trkpt lat="43.0775770000" lon="-1.0977200000"><ele>903</ele><time>2026-04-09T07:18:46Z</time></trkpt>
<trkpt lat="43.0775570000" lon="-1.0977220000"><ele>903</ele><time>2026-04-09T07:18:48Z</time></trkpt>
<trkpt lat="43.0775400000" lon="-1.0977300000"><ele>903</ele><time>2026-04-09T07:18:50Z</time></trkpt>
<trkpt lat="43.0775200000" lon="-1.0977370000"><ele>903</ele><time>2026-04-09T07:18:52Z</time></trkpt>
<trkpt lat="43.0774950000" lon="-1.0977470000"><ele>903</ele><time>2026-04-09T07:18:55Z</time></trkpt>
<trkpt lat="43.0774720000" lon="-1.0977520000"><ele>903</ele><time>2026-04-09T07:18:57Z</time></trkpt>
<trkpt lat="43.0774520000" lon="-1.0977600000"><ele>903</ele><time>2026-04-09T07:18:59Z</time></trkpt>
<trkpt lat="43.0774320000" lon="-1.0977700000"><ele>903</ele><time>2026-04-09T07:19:01Z</time></trkpt>
<trkpt lat="43.0774150000" lon="-1.0977820000"><ele>903</ele><time>2026-04-09T07:19:03Z</time></trkpt>
<trkpt lat="43.0773970000" lon="-1.0977850000"><ele>903</ele><time>2026-04-09T07:19:05Z</time></trkpt>
<trkpt lat="43.0773750000" lon="-1.0977870000"><ele>903</ele><time>2026-04-09T07:19:07Z</time></trkpt>
<trkpt lat="43.0773520000" lon="-1.0977970000"><ele>903</ele><time>2026-04-09T07:19:09Z</time></trkpt>
<trkpt lat="43.0773400000" lon="-1.0978220000"><ele>903</ele><time>2026-04-09T07:19:17Z</time></trkpt>
<trkpt lat="43.0773200000" lon="-1.0978220000"><ele>903</ele><time>2026-04-09T07:19:19Z</time></trkpt>
<trkpt lat="43.0772950000" lon="-1.0978270000"><ele>902</ele><time>2026-04-09T07:19:21Z</time></trkpt>
<trkpt lat="43.0772700000" lon="-1.0978300000"><ele>902</ele><time>2026-04-09T07:19:23Z</time></trkpt>
<trkpt lat="43.0772500000" lon="-1.0978270000"><ele>902</ele><time>2026-04-09T07:19:25Z</time></trkpt>
<trkpt lat="43.0772270000" lon="-1.0978270000"><ele>902</ele><time>2026-04-09T07:19:27Z</time></trkpt>
<trkpt lat="43.0772050000" lon="-1.0978270000"><ele>902</ele><time>2026-04-09T07:19:29Z</time></trkpt>
<trkpt lat="43.0771820000" lon="-1.0978270000"><ele>902</ele><time>2026-04-09T07:19:31Z</time></trkpt>
<trkpt lat="43.0771620000" lon="-1.0978300000"><ele>902</ele><time>2026-04-09T07:19:33Z</time></trkpt>
<trkpt lat="43.0771420000" lon="-1.0978370000"><ele>902</ele><time>2026-04-09T07:19:35Z</time></trkpt>
<trkpt lat="43.0771220000" lon="-1.0978520000"><ele>902</ele><time>2026-04-09T07:19:38Z</time></trkpt>
<trkpt lat="43.0770970000" lon="-1.0978570000"><ele>902</ele><time>2026-04-09T07:19:41Z</time></trkpt>
<trkpt lat="43.0770720000" lon="-1.0978520000"><ele>902</ele><time>2026-04-09T07:19:43Z</time></trkpt>
<trkpt lat="43.0770470000" lon="-1.0978450000"><ele>901</ele><time>2026-04-09T07:19:45Z</time></trkpt>
<trkpt lat="43.0770250000" lon="-1.0978420000"><ele>902</ele><time>2026-04-09T07:19:47Z</time></trkpt>
<trkpt lat="43.0770020000" lon="-1.0978420000"><ele>901</ele><time>2026-04-09T07:19:49Z</time></trkpt>
<trkpt lat="43.0769820000" lon="-1.0978420000"><ele>901</ele><time>2026-04-09T07:19:51Z</time></trkpt>
<trkpt lat="43.0769570000" lon="-1.0978350000"><ele>901</ele><time>2026-04-09T07:19:53Z</time></trkpt>
<trkpt lat="43.0769320000" lon="-1.0978270000"><ele>901</ele><time>2026-04-09T07:19:55Z</time></trkpt>
<trkpt lat="43.0769120000" lon="-1.0978220000"><ele>901</ele><time>2026-04-09T07:19:57Z</time></trkpt>
<trkpt lat="43.0768920000" lon="-1.0978200000"><ele>902</ele><time>2026-04-09T07:19:59Z</time></trkpt>
<trkpt lat="43.0768670000" lon="-1.0978200000"><ele>901</ele><time>2026-04-09T07:20:01Z</time></trkpt>
<trkpt lat="43.0768450000" lon="-1.0978200000"><ele>901</ele><time>2026-04-09T07:20:03Z</time></trkpt>
<trkpt lat="43.0768200000" lon="-1.0978220000"><ele>901</ele><time>2026-04-09T07:20:05Z</time></trkpt>
<trkpt lat="43.0767920000" lon="-1.0978250000"><ele>901</ele><time>2026-04-09T07:20:07Z</time></trkpt>
<trkpt lat="43.0767700000" lon="-1.0978270000"><ele>901</ele><time>2026-04-09T07:20:09Z</time></trkpt>
<trkpt lat="43.0767450000" lon="-1.0978270000"><ele>902</ele><time>2026-04-09T07:20:11Z</time></trkpt>
<trkpt lat="43.0767220000" lon="-1.0978250000"><ele>902</ele><time>2026-04-09T07:20:13Z</time></trkpt>
<trkpt lat="43.0767000000" lon="-1.0978220000"><ele>902</ele><time>2026-04-09T07:20:15Z</time></trkpt>
<trkpt lat="43.0766800000" lon="-1.0978150000"><ele>902</ele><time>2026-04-09T07:20:17Z</time></trkpt>
<trkpt lat="43.0766570000" lon="-1.0978100000"><ele>902</ele><time>2026-04-09T07:20:19Z</time></trkpt>
<trkpt lat="43.0766320000" lon="-1.0978050000"><ele>902</ele><time>2026-04-09T07:20:21Z</time></trkpt>
<trkpt lat="43.0766100000" lon="-1.0978020000"><ele>902</ele><time>2026-04-09T07:20:23Z</time></trkpt>
<trkpt lat="43.0765870000" lon="-1.0978020000"><ele>902</ele><time>2026-04-09T07:20:25Z</time></trkpt>
<trkpt lat="43.0765620000" lon="-1.0977970000"><ele>902</ele><time>2026-04-09T07:20:27Z</time></trkpt>
<trkpt lat="43.0765400000" lon="-1.0977870000"><ele>902</ele><time>2026-04-09T07:20:29Z</time></trkpt>
<trkpt lat="43.0765170000" lon="-1.0977820000"><ele>902</ele><time>2026-04-09T07:20:31Z</time></trkpt>
<trkpt lat="43.0764920000" lon="-1.0977750000"><ele>902</ele><time>2026-04-09T07:20:33Z</time></trkpt>
<trkpt lat="43.0764670000" lon="-1.0977800000"><ele>902</ele><time>2026-04-09T07:20:35Z</time></trkpt>
<trkpt lat="43.0764470000" lon="-1.0977920000"><ele>902</ele><time>2026-04-09T07:20:37Z</time></trkpt>
<trkpt lat="43.0764320000" lon="-1.0978170000"><ele>902</ele><time>2026-04-09T07:20:39Z</time></trkpt>
<trkpt lat="43.0764170000" lon="-1.0978470000"><ele>902</ele><time>2026-04-09T07:20:42Z</time></trkpt>
<trkpt lat="43.0763970000" lon="-1.0978700000"><ele>902</ele><time>2026-04-09T07:20:44Z</time></trkpt>
<trkpt lat="43.0763770000" lon="-1.0978870000"><ele>902</ele><time>2026-04-09T07:20:46Z</time></trkpt>
<trkpt lat="43.0763620000" lon="-1.0979050000"><ele>903</ele><time>2026-04-09T07:20:49Z</time></trkpt>
<trkpt lat="43.0763370000" lon="-1.0979120000"><ele>903</ele><time>2026-04-09T07:21:03Z</time></trkpt>
<trkpt lat="43.0763220000" lon="-1.0979220000"><ele>903</ele><time>2026-04-09T07:21:05Z</time></trkpt>
<trkpt lat="43.0762970000" lon="-1.0979150000"><ele>903</ele><time>2026-04-09T07:21:07Z</time></trkpt>
<trkpt lat="43.0762750000" lon="-1.0979020000"><ele>903</ele><time>2026-04-09T07:21:09Z</time></trkpt>
<trkpt lat="43.0762500000" lon="-1.0979000000"><ele>903</ele><time>2026-04-09T07:21:11Z</time></trkpt>
<trkpt lat="43.0762300000" lon="-1.0978970000"><ele>903</ele><time>2026-04-09T07:21:13Z</time></trkpt>
<trkpt lat="43.0762120000" lon="-1.0979050000"><ele>904</ele><time>2026-04-09T07:21:16Z</time></trkpt>
<trkpt lat="43.0761920000" lon="-1.0979070000"><ele>904</ele><time>2026-04-09T07:21:19Z</time></trkpt>
<trkpt lat="43.0761670000" lon="-1.0979120000"><ele>905</ele><time>2026-04-09T07:21:23Z</time></trkpt>
<trkpt lat="43.0761450000" lon="-1.0979120000"><ele>905</ele><time>2026-04-09T07:21:26Z</time></trkpt>
<trkpt lat="43.0761200000" lon="-1.0979150000"><ele>905</ele><time>2026-04-09T07:21:29Z</time></trkpt>
<trkpt lat="43.0760970000" lon="-1.0979120000"><ele>906</ele><time>2026-04-09T07:21:32Z</time></trkpt>
<trkpt lat="43.0760800000" lon="-1.0979150000"><ele>906</ele><time>2026-04-09T07:21:35Z</time></trkpt>
<trkpt lat="43.0760570000" lon="-1.0979120000"><ele>906</ele><time>2026-04-09T07:21:38Z</time></trkpt>
<trkpt lat="43.0760350000" lon="-1.0979100000"><ele>907</ele><time>2026-04-09T07:21:41Z</time></trkpt>
<trkpt lat="43.0760170000" lon="-1.0979020000"><ele>907</ele><time>2026-04-09T07:21:44Z</time></trkpt>
<trkpt lat="43.0759920000" lon="-1.0979050000"><ele>908</ele><time>2026-04-09T07:21:49Z</time></trkpt>
<trkpt lat="43.0759720000" lon="-1.0978970000"><ele>908</ele><time>2026-04-09T07:21:52Z</time></trkpt>
<trkpt lat="43.0759500000" lon="-1.0978870000"><ele>909</ele><time>2026-04-09T07:21:56Z</time></trkpt>
<trkpt lat="43.0759320000" lon="-1.0978770000"><ele>909</ele><time>2026-04-09T07:21:59Z</time></trkpt>
<trkpt lat="43.0759070000" lon="-1.0978750000"><ele>909</ele><time>2026-04-09T07:22:03Z</time></trkpt>
<trkpt lat="43.0758870000" lon="-1.0978720000"><ele>909</ele><time>2026-04-09T07:22:06Z</time></trkpt>
<trkpt lat="43.0758700000" lon="-1.0978670000"><ele>910</ele><time>2026-04-09T07:22:10Z</time></trkpt>
<trkpt lat="43.0758600000" lon="-1.0978900000"><ele>910</ele><time>2026-04-09T07:22:13Z</time></trkpt>
<trkpt lat="43.0758470000" lon="-1.0979070000"><ele>911</ele><time>2026-04-09T07:22:17Z</time></trkpt>
<trkpt lat="43.0758270000" lon="-1.0978870000"><ele>911</ele><time>2026-04-09T07:22:21Z</time></trkpt>
<trkpt lat="43.0758070000" lon="-1.0978670000"><ele>912</ele><time>2026-04-09T07:22:24Z</time></trkpt>
<trkpt lat="43.0757900000" lon="-1.0978550000"><ele>912</ele><time>2026-04-09T07:22:26Z</time></trkpt>
<trkpt lat="43.0757670000" lon="-1.0978470000"><ele>913</ele><time>2026-04-09T07:22:29Z</time></trkpt>
<trkpt lat="43.0757500000" lon="-1.0978350000"><ele>913</ele><time>2026-04-09T07:22:32Z</time></trkpt>
<trkpt lat="43.0757320000" lon="-1.0978380000"><ele>914</ele><time>2026-04-09T07:22:36Z</time></trkpt>
<trkpt lat="43.0757100000" lon="-1.0978320000"><ele>915</ele><time>2026-04-09T07:22:40Z</time></trkpt>
<trkpt lat="43.0756900000" lon="-1.0978270000"><ele>915</ele><time>2026-04-09T07:22:45Z</time></trkpt>
<trkpt lat="43.0756700000" lon="-1.0978320000"><ele>916</ele><time>2026-04-09T07:22:50Z</time></trkpt>
<trkpt lat="43.0756520000" lon="-1.0978300000"><ele>916</ele><time>2026-04-09T07:22:53Z</time></trkpt>
<trkpt lat="43.0756320000" lon="-1.0978250000"><ele>916</ele><time>2026-04-09T07:22:56Z</time></trkpt>
<trkpt lat="43.0756120000" lon="-1.0978220000"><ele>917</ele><time>2026-04-09T07:23:00Z</time></trkpt>
<trkpt lat="43.0756070000" lon="-1.0978500000"><ele>917</ele><time>2026-04-09T07:23:29Z</time></trkpt>
<trkpt lat="43.0756070000" lon="-1.0978170000"><ele>916</ele><time>2026-04-09T07:24:54Z</time></trkpt>
<trkpt lat="43.0755870000" lon="-1.0978020000"><ele>916</ele><time>2026-04-09T07:24:56Z</time></trkpt>
<trkpt lat="43.0755570000" lon="-1.0977920000"><ele>916</ele><time>2026-04-09T07:24:58Z</time></trkpt>
<trkpt lat="43.0755320000" lon="-1.0977950000"><ele>916</ele><time>2026-04-09T07:25:00Z</time></trkpt>
<trkpt lat="43.0755070000" lon="-1.0977900000"><ele>917</ele><time>2026-04-09T07:25:03Z</time></trkpt>
<trkpt lat="43.0754870000" lon="-1.0977800000"><ele>917</ele><time>2026-04-09T07:25:06Z</time></trkpt>
<trkpt lat="43.0754670000" lon="-1.0977720000"><ele>918</ele><time>2026-04-09T07:25:09Z</time></trkpt>
<trkpt lat="43.0754450000" lon="-1.0977620000"><ele>918</ele><time>2026-04-09T07:25:12Z</time></trkpt>
<trkpt lat="43.0754220000" lon="-1.0977550000"><ele>919</ele><time>2026-04-09T07:25:15Z</time></trkpt>
<trkpt lat="43.0754020000" lon="-1.0977450000"><ele>919</ele><time>2026-04-09T07:25:18Z</time></trkpt>
<trkpt lat="43.0753820000" lon="-1.0977320000"><ele>920</ele><time>2026-04-09T07:25:21Z</time></trkpt>
<trkpt lat="43.0753620000" lon="-1.0977170000"><ele>920</ele><time>2026-04-09T07:25:24Z</time></trkpt>
<trkpt lat="43.0753420000" lon="-1.0977020000"><ele>921</ele><time>2026-04-09T07:25:27Z</time></trkpt>
<trkpt lat="43.0753270000" lon="-1.0976870000"><ele>921</ele><time>2026-04-09T07:25:30Z</time></trkpt>
<trkpt lat="43.0753070000" lon="-1.0976700000"><ele>922</ele><time>2026-04-09T07:25:33Z</time></trkpt>
<trkpt lat="43.0752870000" lon="-1.0976600000"><ele>922</ele><time>2026-04-09T07:25:36Z</time></trkpt>
<trkpt lat="43.0752670000" lon="-1.0976520000"><ele>923</ele><time>2026-04-09T07:25:39Z</time></trkpt>
<trkpt lat="43.0752420000" lon="-1.0976420000"><ele>923</ele><time>2026-04-09T07:25:42Z</time></trkpt>
<trkpt lat="43.0752170000" lon="-1.0976320000"><ele>923</ele><time>2026-04-09T07:25:45Z</time></trkpt>
<trkpt lat="43.0751950000" lon="-1.0976220000"><ele>924</ele><time>2026-04-09T07:25:48Z</time></trkpt>
<trkpt lat="43.0751770000" lon="-1.0976220000"><ele>924</ele><time>2026-04-09T07:25:50Z</time></trkpt>
<trkpt lat="43.0751570000" lon="-1.0976120000"><ele>924</ele><time>2026-04-09T07:25:53Z</time></trkpt>
<trkpt lat="43.0751370000" lon="-1.0976220000"><ele>925</ele><time>2026-04-09T07:25:57Z</time></trkpt>
<trkpt lat="43.0751170000" lon="-1.0976270000"><ele>925</ele><time>2026-04-09T07:27:06Z</time></trkpt>
<trkpt lat="43.0750970000" lon="-1.0976000000"><ele>926</ele><time>2026-04-09T07:27:08Z</time></trkpt>
<trkpt lat="43.0750720000" lon="-1.0975870000"><ele>926</ele><time>2026-04-09T07:27:10Z</time></trkpt>
<trkpt lat="43.0750520000" lon="-1.0975820000"><ele>926</ele><time>2026-04-09T07:27:12Z</time></trkpt>
<trkpt lat="43.0750470000" lon="-1.0976070000"><ele>926</ele><time>2026-04-09T07:27:19Z</time></trkpt>
<trkpt lat="43.0750350000" lon="-1.0975820000"><ele>926</ele><time>2026-04-09T07:27:28Z</time></trkpt>
<trkpt lat="43.0750220000" lon="-1.0975620000"><ele>926</ele><time>2026-04-09T07:27:47Z</time></trkpt>
<trkpt lat="43.0750020000" lon="-1.0975470000"><ele>926</ele><time>2026-04-09T07:27:49Z</time></trkpt>
<trkpt lat="43.0749720000" lon="-1.0975420000"><ele>925</ele><time>2026-04-09T07:27:51Z</time></trkpt>
<trkpt lat="43.0749470000" lon="-1.0975420000"><ele>925</ele><time>2026-04-09T07:27:53Z</time></trkpt>
<trkpt lat="43.0749250000" lon="-1.0975280000"><ele>925</ele><time>2026-04-09T07:27:56Z</time></trkpt>
<trkpt lat="43.0749120000" lon="-1.0975070000"><ele>925</ele><time>2026-04-09T07:28:02Z</time></trkpt>
<trkpt lat="43.0748950000" lon="-1.0974820000"><ele>926</ele><time>2026-04-09T07:28:17Z</time></trkpt>
<trkpt lat="43.0748920000" lon="-1.0974520000"><ele>926</ele><time>2026-04-09T07:28:19Z</time></trkpt>
<trkpt lat="43.0748970000" lon="-1.0974220000"><ele>926</ele><time>2026-04-09T07:28:21Z</time></trkpt>
<trkpt lat="43.0749100000" lon="-1.0974020000"><ele>926</ele><time>2026-04-09T07:28:23Z</time></trkpt>
<trkpt lat="43.0749200000" lon="-1.0973750000"><ele>927</ele><time>2026-04-09T07:28:26Z</time></trkpt>
<trkpt lat="43.0749120000" lon="-1.0973420000"><ele>927</ele><time>2026-04-09T07:28:29Z</time></trkpt>
<trkpt lat="43.0749000000" lon="-1.0973170000"><ele>927</ele><time>2026-04-09T07:28:32Z</time></trkpt>
<trkpt lat="43.0748820000" lon="-1.0972970000"><ele>928</ele><time>2026-04-09T07:28:35Z</time></trkpt>
<trkpt lat="43.0748670000" lon="-1.0972820000"><ele>928</ele><time>2026-04-09T07:28:37Z</time></trkpt>
<trkpt lat="43.0748550000" lon="-1.0972520000"><ele>928</ele><time>2026-04-09T07:28:39Z</time></trkpt>
<trkpt lat="43.0748420000" lon="-1.0972170000"><ele>928</ele><time>2026-04-09T07:28:41Z</time></trkpt>
<trkpt lat="43.0748300000" lon="-1.0971800000"><ele>929</ele><time>2026-04-09T07:28:43Z</time></trkpt>
<trkpt lat="43.0748220000" lon="-1.0971500000"><ele>929</ele><time>2026-04-09T07:28:45Z</time></trkpt>
<trkpt lat="43.0748070000" lon="-1.0971270000"><ele>929</ele><time>2026-04-09T07:28:47Z</time></trkpt>
<trkpt lat="43.0747920000" lon="-1.0970970000"><ele>929</ele><time>2026-04-09T07:28:50Z</time></trkpt>
<trkpt lat="43.0747750000" lon="-1.0970770000"><ele>929</ele><time>2026-04-09T07:28:52Z</time></trkpt>
<trkpt lat="43.0747620000" lon="-1.0970620000"><ele>929</ele><time>2026-04-09T07:28:54Z</time></trkpt>
<trkpt lat="43.0747420000" lon="-1.0970420000"><ele>930</ele><time>2026-04-09T07:28:57Z</time></trkpt>
<trkpt lat="43.0747220000" lon="-1.0970370000"><ele>930</ele><time>2026-04-09T07:28:59Z</time></trkpt>
<trkpt lat="43.0747020000" lon="-1.0970370000"><ele>930</ele><time>2026-04-09T07:29:01Z</time></trkpt>
<trkpt lat="43.0746820000" lon="-1.0970400000"><ele>931</ele><time>2026-04-09T07:29:06Z</time></trkpt>
<trkpt lat="43.0746600000" lon="-1.0970250000"><ele>931</ele><time>2026-04-09T07:29:09Z</time></trkpt>
<trkpt lat="43.0746370000" lon="-1.0970120000"><ele>931</ele><time>2026-04-09T07:29:12Z</time></trkpt>
<trkpt lat="43.0746170000" lon="-1.0969920000"><ele>932</ele><time>2026-04-09T07:29:15Z</time></trkpt>
<trkpt lat="43.0746000000" lon="-1.0969750000"><ele>932</ele><time>2026-04-09T07:29:17Z</time></trkpt>
<trkpt lat="43.0745770000" lon="-1.0969570000"><ele>932</ele><time>2026-04-09T07:29:20Z</time></trkpt>
<trkpt lat="43.0745520000" lon="-1.0969370000"><ele>932</ele><time>2026-04-09T07:29:23Z</time></trkpt>
<trkpt lat="43.0745320000" lon="-1.0969200000"><ele>932</ele><time>2026-04-09T07:29:26Z</time></trkpt>
<trkpt lat="43.0745170000" lon="-1.0969050000"><ele>932</ele><time>2026-04-09T07:29:28Z</time></trkpt>
<trkpt lat="43.0745000000" lon="-1.0968920000"><ele>932</ele><time>2026-04-09T07:29:30Z</time></trkpt>
<trkpt lat="43.0744750000" lon="-1.0968720000"><ele>932</ele><time>2026-04-09T07:29:33Z</time></trkpt>
<trkpt lat="43.0744520000" lon="-1.0968520000"><ele>933</ele><time>2026-04-09T07:29:36Z</time></trkpt>
<trkpt lat="43.0744370000" lon="-1.0968370000"><ele>933</ele><time>2026-04-09T07:29:38Z</time></trkpt>
<trkpt lat="43.0744170000" lon="-1.0968220000"><ele>933</ele><time>2026-04-09T07:29:41Z</time></trkpt>
<trkpt lat="43.0744000000" lon="-1.0968170000"><ele>933</ele><time>2026-04-09T07:29:44Z</time></trkpt>
<trkpt lat="43.0743750000" lon="-1.0968070000"><ele>933</ele><time>2026-04-09T07:29:48Z</time></trkpt>
<trkpt lat="43.0743570000" lon="-1.0967920000"><ele>933</ele><time>2026-04-09T07:29:50Z</time></trkpt>
<trkpt lat="43.0743370000" lon="-1.0967670000"><ele>933</ele><time>2026-04-09T07:29:53Z</time></trkpt>
<trkpt lat="43.0743220000" lon="-1.0967520000"><ele>934</ele><time>2026-04-09T07:29:55Z</time></trkpt>
<trkpt lat="43.0743050000" lon="-1.0967400000"><ele>934</ele><time>2026-04-09T07:29:57Z</time></trkpt>
<trkpt lat="43.0742870000" lon="-1.0967300000"><ele>934</ele><time>2026-04-09T07:29:59Z</time></trkpt>
<trkpt lat="43.0742700000" lon="-1.0967170000"><ele>934</ele><time>2026-04-09T07:30:01Z</time></trkpt>
<trkpt lat="43.0742520000" lon="-1.0966870000"><ele>934</ele><time>2026-04-09T07:30:03Z</time></trkpt>
<trkpt lat="43.0742350000" lon="-1.0966570000"><ele>935</ele><time>2026-04-09T07:30:05Z</time></trkpt>
<trkpt lat="43.0742170000" lon="-1.0966170000"><ele>935</ele><time>2026-04-09T07:30:07Z</time></trkpt>
<trkpt lat="43.0742020000" lon="-1.0965820000"><ele>935</ele><time>2026-04-09T07:30:09Z</time></trkpt>
<trkpt lat="43.0741850000" lon="-1.0965620000"><ele>935</ele><time>2026-04-09T07:30:11Z</time></trkpt>
<trkpt lat="43.0741620000" lon="-1.0965420000"><ele>935</ele><time>2026-04-09T07:30:14Z</time></trkpt>
<trkpt lat="43.0741470000" lon="-1.0965270000"><ele>935</ele><time>2026-04-09T07:30:16Z</time></trkpt>
<trkpt lat="43.0741250000" lon="-1.0965100000"><ele>936</ele><time>2026-04-09T07:30:19Z</time></trkpt>
<trkpt lat="43.0741020000" lon="-1.0964970000"><ele>936</ele><time>2026-04-09T07:30:22Z</time></trkpt>
<trkpt lat="43.0740770000" lon="-1.0964970000"><ele>936</ele><time>2026-04-09T07:30:25Z</time></trkpt>
<trkpt lat="43.0740570000" lon="-1.0964920000"><ele>937</ele><time>2026-04-09T07:30:27Z</time></trkpt>
<trkpt lat="43.0740370000" lon="-1.0964870000"><ele>937</ele><time>2026-04-09T07:30:29Z</time></trkpt>
<trkpt lat="43.0740200000" lon="-1.0964700000"><ele>937</ele><time>2026-04-09T07:30:32Z</time></trkpt>
<trkpt lat="43.0740020000" lon="-1.0964470000"><ele>937</ele><time>2026-04-09T07:30:35Z</time></trkpt>
<trkpt lat="43.0739870000" lon="-1.0964270000"><ele>938</ele><time>2026-04-09T07:30:38Z</time></trkpt>
<trkpt lat="43.0739670000" lon="-1.0964120000"><ele>938</ele><time>2026-04-09T07:30:41Z</time></trkpt>
<trkpt lat="43.0739520000" lon="-1.0964020000"><ele>938</ele><time>2026-04-09T07:30:44Z</time></trkpt>
<trkpt lat="43.0739280000" lon="-1.0963900000"><ele>939</ele><time>2026-04-09T07:30:48Z</time></trkpt>
<trkpt lat="43.0739120000" lon="-1.0963800000"><ele>939</ele><time>2026-04-09T07:30:51Z</time></trkpt>
<trkpt lat="43.0738950000" lon="-1.0963670000"><ele>940</ele><time>2026-04-09T07:30:54Z</time></trkpt>
<trkpt lat="43.0738850000" lon="-1.0963450000"><ele>941</ele><time>2026-04-09T07:31:23Z</time></trkpt>
<trkpt lat="43.0738670000" lon="-1.0963320000"><ele>941</ele><time>2026-04-09T07:31:26Z</time></trkpt>
<trkpt lat="43.0738470000" lon="-1.0963170000"><ele>941</ele><time>2026-04-09T07:31:28Z</time></trkpt>
<trkpt lat="43.0738300000" lon="-1.0963100000"><ele>941</ele><time>2026-04-09T07:31:30Z</time></trkpt>
<trkpt lat="43.0738120000" lon="-1.0962920000"><ele>942</ele><time>2026-04-09T07:31:33Z</time></trkpt>
<trkpt lat="43.0737950000" lon="-1.0962750000"><ele>942</ele><time>2026-04-09T07:31:36Z</time></trkpt>
<trkpt lat="43.0737770000" lon="-1.0962570000"><ele>943</ele><time>2026-04-09T07:31:39Z</time></trkpt>
<trkpt lat="43.0737570000" lon="-1.0962470000"><ele>943</ele><time>2026-04-09T07:31:42Z</time></trkpt>
<trkpt lat="43.0737370000" lon="-1.0962350000"><ele>943</ele><time>2026-04-09T07:31:45Z</time></trkpt>
<trkpt lat="43.0737170000" lon="-1.0962270000"><ele>944</ele><time>2026-04-09T07:31:48Z</time></trkpt>
<trkpt lat="43.0736970000" lon="-1.0962100000"><ele>944</ele><time>2026-04-09T07:31:52Z</time></trkpt>
<trkpt lat="43.0736750000" lon="-1.0961920000"><ele>945</ele><time>2026-04-09T07:31:56Z</time></trkpt>
<trkpt lat="43.0736570000" lon="-1.0961820000"><ele>945</ele><time>2026-04-09T07:31:59Z</time></trkpt>
<trkpt lat="43.0736420000" lon="-1.0961620000"><ele>946</ele><time>2026-04-09T07:32:02Z</time></trkpt>
<trkpt lat="43.0736220000" lon="-1.0961420000"><ele>946</ele><time>2026-04-09T07:32:05Z</time></trkpt>
<trkpt lat="43.0736050000" lon="-1.0961370000"><ele>946</ele><time>2026-04-09T07:32:08Z</time></trkpt>
<trkpt lat="43.0735820000" lon="-1.0961270000"><ele>947</ele><time>2026-04-09T07:32:12Z</time></trkpt>
<trkpt lat="43.0735670000" lon="-1.0961150000"><ele>947</ele><time>2026-04-09T07:32:15Z</time></trkpt>
<trkpt lat="43.0735420000" lon="-1.0961170000"><ele>948</ele><time>2026-04-09T07:32:19Z</time></trkpt>
<trkpt lat="43.0735170000" lon="-1.0961120000"><ele>948</ele><time>2026-04-09T07:32:22Z</time></trkpt>
<trkpt lat="43.0734970000" lon="-1.0961100000"><ele>948</ele><time>2026-04-09T07:32:25Z</time></trkpt>
<trkpt lat="43.0734720000" lon="-1.0961120000"><ele>949</ele><time>2026-04-09T07:32:28Z</time></trkpt>
<trkpt lat="43.0734520000" lon="-1.0961020000"><ele>949</ele><time>2026-04-09T07:32:30Z</time></trkpt>
<trkpt lat="43.0734400000" lon="-1.0960850000"><ele>949</ele><time>2026-04-09T07:32:32Z</time></trkpt>
<trkpt lat="43.0734220000" lon="-1.0960600000"><ele>950</ele><time>2026-04-09T07:32:35Z</time></trkpt>
<trkpt lat="43.0734050000" lon="-1.0960470000"><ele>950</ele><time>2026-04-09T07:32:38Z</time></trkpt>
<trkpt lat="43.0733870000" lon="-1.0960370000"><ele>950</ele><time>2026-04-09T07:32:41Z</time></trkpt>
<trkpt lat="43.0733700000" lon="-1.0960170000"><ele>951</ele><time>2026-04-09T07:32:45Z</time></trkpt>
<trkpt lat="43.0733500000" lon="-1.0960070000"><ele>951</ele><time>2026-04-09T07:32:49Z</time></trkpt>
<trkpt lat="43.0733270000" lon="-1.0959970000"><ele>952</ele><time>2026-04-09T07:32:53Z</time></trkpt>
<trkpt lat="43.0733120000" lon="-1.0959820000"><ele>953</ele><time>2026-04-09T07:32:58Z</time></trkpt>
<trkpt lat="43.0733070000" lon="-1.0959570000"><ele>954</ele><time>2026-04-09T07:33:04Z</time></trkpt>
<trkpt lat="43.0732800000" lon="-1.0959350000"><ele>959</ele><time>2026-04-09T07:33:40Z</time></trkpt>
<trkpt lat="43.0732520000" lon="-1.0959170000"><ele>959</ele><time>2026-04-09T07:33:41Z</time></trkpt>
<trkpt lat="43.0732150000" lon="-1.0958920000"><ele>959</ele><time>2026-04-09T07:33:42Z</time></trkpt>
<trkpt lat="43.0731770000" lon="-1.0958670000"><ele>959</ele><time>2026-04-09T07:33:43Z</time></trkpt>
<trkpt lat="43.0731420000" lon="-1.0958400000"><ele>959</ele><time>2026-04-09T07:33:44Z</time></trkpt>
<trkpt lat="43.0731170000" lon="-1.0958170000"><ele>959</ele><time>2026-04-09T07:33:45Z</time></trkpt>
<trkpt lat="43.0731020000" lon="-1.0957970000"><ele>960</ele><time>2026-04-09T07:33:46Z</time></trkpt>
<trkpt lat="43.0730850000" lon="-1.0957670000"><ele>960</ele><time>2026-04-09T07:33:48Z</time></trkpt>
<trkpt lat="43.0730700000" lon="-1.0957470000"><ele>961</ele><time>2026-04-09T07:33:53Z</time></trkpt>
<trkpt lat="43.0730520000" lon="-1.0957250000"><ele>961</ele><time>2026-04-09T07:33:56Z</time></trkpt>
<trkpt lat="43.0730520000" lon="-1.0957520000"><ele>961</ele><time>2026-04-09T07:33:59Z</time></trkpt>
<trkpt lat="43.0730320000" lon="-1.0957670000"><ele>963</ele><time>2026-04-09T07:34:37Z</time></trkpt>
<trkpt lat="43.0730070000" lon="-1.0957670000"><ele>963</ele><time>2026-04-09T07:34:39Z</time></trkpt>
<trkpt lat="43.0729850000" lon="-1.0957520000"><ele>964</ele><time>2026-04-09T07:34:42Z</time></trkpt>
<trkpt lat="43.0729770000" lon="-1.0957250000"><ele>964</ele><time>2026-04-09T07:34:45Z</time></trkpt>
<trkpt lat="43.0729650000" lon="-1.0957070000"><ele>965</ele><time>2026-04-09T07:34:49Z</time></trkpt>
<trkpt lat="43.0729520000" lon="-1.0956870000"><ele>965</ele><time>2026-04-09T07:34:52Z</time></trkpt>
<trkpt lat="43.0729420000" lon="-1.0956550000"><ele>966</ele><time>2026-04-09T07:34:55Z</time></trkpt>
<trkpt lat="43.0729250000" lon="-1.0956320000"><ele>966</ele><time>2026-04-09T07:34:58Z</time></trkpt>
<trkpt lat="43.0729070000" lon="-1.0956300000"><ele>966</ele><time>2026-04-09T07:35:01Z</time></trkpt>
<trkpt lat="43.0728920000" lon="-1.0956120000"><ele>967</ele><time>2026-04-09T07:35:06Z</time></trkpt>
<trkpt lat="43.0728750000" lon="-1.0955970000"><ele>968</ele><time>2026-04-09T07:35:10Z</time></trkpt>
<trkpt lat="43.0728520000" lon="-1.0955920000"><ele>969</ele><time>2026-04-09T07:35:14Z</time></trkpt>
<trkpt lat="43.0728320000" lon="-1.0955820000"><ele>970</ele><time>2026-04-09T07:35:20Z</time></trkpt>
<trkpt lat="43.0728020000" lon="-1.0955570000"><ele>977</ele><time>2026-04-09T07:36:10Z</time></trkpt>
<trkpt lat="43.0727770000" lon="-1.0955470000"><ele>978</ele><time>2026-04-09T07:36:11Z</time></trkpt>
<trkpt lat="43.0727470000" lon="-1.0955350000"><ele>978</ele><time>2026-04-09T07:36:12Z</time></trkpt>
<trkpt lat="43.0727180000" lon="-1.0955270000"><ele>978</ele><time>2026-04-09T07:36:13Z</time></trkpt>
<trkpt lat="43.0726970000" lon="-1.0955250000"><ele>978</ele><time>2026-04-09T07:36:14Z</time></trkpt>
<trkpt lat="43.0726750000" lon="-1.0955270000"><ele>978</ele><time>2026-04-09T07:36:16Z</time></trkpt>
<trkpt lat="43.0726570000" lon="-1.0955170000"><ele>978</ele><time>2026-04-09T07:36:18Z</time></trkpt>
<trkpt lat="43.0726670000" lon="-1.0954850000"><ele>979</ele><time>2026-04-09T07:36:20Z</time></trkpt>
<trkpt lat="43.0726820000" lon="-1.0954520000"><ele>979</ele><time>2026-04-09T07:36:23Z</time></trkpt>
<trkpt lat="43.0726720000" lon="-1.0954250000"><ele>979</ele><time>2026-04-09T07:36:25Z</time></trkpt>
<trkpt lat="43.0726520000" lon="-1.0954050000"><ele>980</ele><time>2026-04-09T07:36:27Z</time></trkpt>
<trkpt lat="43.0726370000" lon="-1.0953850000"><ele>980</ele><time>2026-04-09T07:36:30Z</time></trkpt>
<trkpt lat="43.0726250000" lon="-1.0953620000"><ele>981</ele><time>2026-04-09T07:36:34Z</time></trkpt>
<trkpt lat="43.0726070000" lon="-1.0953520000"><ele>982</ele><time>2026-04-09T07:36:40Z</time></trkpt>
<trkpt lat="43.0725870000" lon="-1.0953470000"><ele>982</ele><time>2026-04-09T07:36:44Z</time></trkpt>
<trkpt lat="43.0725720000" lon="-1.0953320000"><ele>987</ele><time>2026-04-09T07:37:25Z</time></trkpt>
<trkpt lat="43.0725520000" lon="-1.0953170000"><ele>987</ele><time>2026-04-09T07:37:26Z</time></trkpt>
<trkpt lat="43.0725270000" lon="-1.0953020000"><ele>987</ele><time>2026-04-09T07:37:27Z</time></trkpt>
<trkpt lat="43.0725020000" lon="-1.0952870000"><ele>987</ele><time>2026-04-09T07:37:28Z</time></trkpt>
<trkpt lat="43.0724870000" lon="-1.0952750000"><ele>987</ele><time>2026-04-09T07:37:29Z</time></trkpt>
<trkpt lat="43.0724720000" lon="-1.0952600000"><ele>987</ele><time>2026-04-09T07:37:31Z</time></trkpt>
<trkpt lat="43.0724870000" lon="-1.0952250000"><ele>987</ele><time>2026-04-09T07:37:34Z</time></trkpt>
<trkpt lat="43.0725020000" lon="-1.0952020000"><ele>987</ele><time>2026-04-09T07:37:36Z</time></trkpt>
<trkpt lat="43.0724900000" lon="-1.0951820000"><ele>988</ele><time>2026-04-09T07:37:40Z</time></trkpt>
<trkpt lat="43.0724720000" lon="-1.0951920000"><ele>989</ele><time>2026-04-09T07:37:43Z</time></trkpt>
<trkpt lat="43.0724520000" lon="-1.0951900000"><ele>989</ele><time>2026-04-09T07:37:47Z</time></trkpt>
<trkpt lat="43.0724370000" lon="-1.0951750000"><ele>991</ele><time>2026-04-09T07:38:03Z</time></trkpt>
<trkpt lat="43.0724220000" lon="-1.0951420000"><ele>992</ele><time>2026-04-09T07:38:05Z</time></trkpt>
<trkpt lat="43.0724070000" lon="-1.0951120000"><ele>992</ele><time>2026-04-09T07:38:07Z</time></trkpt>
<trkpt lat="43.0723920000" lon="-1.0950920000"><ele>993</ele><time>2026-04-09T07:38:19Z</time></trkpt>
<trkpt lat="43.0723800000" lon="-1.0950750000"><ele>993</ele><time>2026-04-09T07:38:31Z</time></trkpt>
<trkpt lat="43.0723570000" lon="-1.0950650000"><ele>993</ele><time>2026-04-09T07:38:34Z</time></trkpt>
<trkpt lat="43.0723370000" lon="-1.0950650000"><ele>993</ele><time>2026-04-09T07:38:37Z</time></trkpt>
<trkpt lat="43.0723170000" lon="-1.0950670000"><ele>994</ele><time>2026-04-09T07:38:41Z</time></trkpt>
<trkpt lat="43.0722950000" lon="-1.0950620000"><ele>995</ele><time>2026-04-09T07:38:45Z</time></trkpt>
<trkpt lat="43.0722820000" lon="-1.0950400000"><ele>995</ele><time>2026-04-09T07:38:47Z</time></trkpt>
<trkpt lat="43.0722720000" lon="-1.0950120000"><ele>995</ele><time>2026-04-09T07:38:49Z</time></trkpt>
<trkpt lat="43.0722570000" lon="-1.0949920000"><ele>995</ele><time>2026-04-09T07:38:52Z</time></trkpt>
<trkpt lat="43.0722450000" lon="-1.0949770000"><ele>996</ele><time>2026-04-09T07:39:20Z</time></trkpt>
<trkpt lat="43.0722300000" lon="-1.0949600000"><ele>996</ele><time>2026-04-09T07:39:22Z</time></trkpt>
<trkpt lat="43.0722100000" lon="-1.0949370000"><ele>996</ele><time>2026-04-09T07:39:24Z</time></trkpt>
<trkpt lat="43.0721900000" lon="-1.0949170000"><ele>996</ele><time>2026-04-09T07:39:26Z</time></trkpt>
<trkpt lat="43.0721720000" lon="-1.0948950000"><ele>996</ele><time>2026-04-09T07:39:28Z</time></trkpt>
<trkpt lat="43.0721570000" lon="-1.0948770000"><ele>996</ele><time>2026-04-09T07:39:30Z</time></trkpt>
<trkpt lat="43.0721370000" lon="-1.0948570000"><ele>995</ele><time>2026-04-09T07:39:32Z</time></trkpt>
<trkpt lat="43.0721170000" lon="-1.0948400000"><ele>995</ele><time>2026-04-09T07:39:34Z</time></trkpt>
<trkpt lat="43.0721020000" lon="-1.0948250000"><ele>995</ele><time>2026-04-09T07:39:36Z</time></trkpt>
<trkpt lat="43.0720820000" lon="-1.0948070000"><ele>995</ele><time>2026-04-09T07:39:38Z</time></trkpt>
<trkpt lat="43.0720670000" lon="-1.0947920000"><ele>995</ele><time>2026-04-09T07:39:40Z</time></trkpt>
<trkpt lat="43.0720470000" lon="-1.0947720000"><ele>995</ele><time>2026-04-09T07:39:43Z</time></trkpt>
<trkpt lat="43.0720270000" lon="-1.0947600000"><ele>995</ele><time>2026-04-09T07:39:45Z</time></trkpt>
<trkpt lat="43.0720120000" lon="-1.0947420000"><ele>996</ele><time>2026-04-09T07:39:47Z</time></trkpt>
<trkpt lat="43.0719900000" lon="-1.0947270000"><ele>996</ele><time>2026-04-09T07:39:50Z</time></trkpt>
<trkpt lat="43.0719700000" lon="-1.0947070000"><ele>996</ele><time>2026-04-09T07:39:53Z</time></trkpt>
<trkpt lat="43.0719470000" lon="-1.0946900000"><ele>996</ele><time>2026-04-09T07:39:56Z</time></trkpt>
<trkpt lat="43.0719320000" lon="-1.0946720000"><ele>996</ele><time>2026-04-09T07:39:58Z</time></trkpt>
<trkpt lat="43.0719200000" lon="-1.0946470000"><ele>996</ele><time>2026-04-09T07:40:00Z</time></trkpt>
<trkpt lat="43.0719050000" lon="-1.0946270000"><ele>996</ele><time>2026-04-09T07:40:02Z</time></trkpt>
<trkpt lat="43.0718870000" lon="-1.0946070000"><ele>997</ele><time>2026-04-09T07:40:05Z</time></trkpt>
<trkpt lat="43.0718650000" lon="-1.0945720000"><ele>997</ele><time>2026-04-09T07:40:08Z</time></trkpt>
<trkpt lat="43.0718520000" lon="-1.0945520000"><ele>997</ele><time>2026-04-09T07:40:09Z</time></trkpt>
<trkpt lat="43.0718320000" lon="-1.0945300000"><ele>997</ele><time>2026-04-09T07:40:11Z</time></trkpt>
<trkpt lat="43.0718200000" lon="-1.0945070000"><ele>997</ele><time>2026-04-09T07:40:13Z</time></trkpt>
<trkpt lat="43.0718020000" lon="-1.0944750000"><ele>998</ele><time>2026-04-09T07:40:15Z</time></trkpt>
<trkpt lat="43.0717870000" lon="-1.0944470000"><ele>998</ele><time>2026-04-09T07:40:17Z</time></trkpt>
<trkpt lat="43.0717750000" lon="-1.0944220000"><ele>998</ele><time>2026-04-09T07:40:19Z</time></trkpt>
<trkpt lat="43.0717650000" lon="-1.0944000000"><ele>998</ele><time>2026-04-09T07:40:21Z</time></trkpt>
<trkpt lat="43.0717470000" lon="-1.0943770000"><ele>999</ele><time>2026-04-09T07:40:24Z</time></trkpt>
<trkpt lat="43.0717300000" lon="-1.0943620000"><ele>999</ele><time>2026-04-09T07:40:28Z</time></trkpt>
<trkpt lat="43.0717070000" lon="-1.0943700000"><ele>1000</ele><time>2026-04-09T07:40:33Z</time></trkpt>
<trkpt lat="43.0716950000" lon="-1.0943520000"><ele>1000</ele><time>2026-04-09T07:40:36Z</time></trkpt>
<trkpt lat="43.0716800000" lon="-1.0943370000"><ele>1001</ele><time>2026-04-09T07:40:39Z</time></trkpt>
<trkpt lat="43.0716620000" lon="-1.0943200000"><ele>1001</ele><time>2026-04-09T07:40:43Z</time></trkpt>
<trkpt lat="43.0716470000" lon="-1.0943000000"><ele>1002</ele><time>2026-04-09T07:40:46Z</time></trkpt>
<trkpt lat="43.0716320000" lon="-1.0942850000"><ele>1003</ele><time>2026-04-09T07:40:49Z</time></trkpt>
<trkpt lat="43.0716200000" lon="-1.0942670000"><ele>1003</ele><time>2026-04-09T07:40:52Z</time></trkpt>
<trkpt lat="43.0716100000" lon="-1.0942450000"><ele>1004</ele><time>2026-04-09T07:40:55Z</time></trkpt>
<trkpt lat="43.0715920000" lon="-1.0942270000"><ele>1005</ele><time>2026-04-09T07:40:59Z</time></trkpt>
<trkpt lat="43.0715770000" lon="-1.0942070000"><ele>1005</ele><time>2026-04-09T07:41:04Z</time></trkpt>
<trkpt lat="43.0715620000" lon="-1.0941870000"><ele>1006</ele><time>2026-04-09T07:41:08Z</time></trkpt>
<trkpt lat="43.0715420000" lon="-1.0941770000"><ele>1007</ele><time>2026-04-09T07:41:14Z</time></trkpt>
<trkpt lat="43.0715250000" lon="-1.0941670000"><ele>1008</ele><time>2026-04-09T07:41:22Z</time></trkpt>
<trkpt lat="43.0715120000" lon="-1.0941400000"><ele>1009</ele><time>2026-04-09T07:41:25Z</time></trkpt>
<trkpt lat="43.0715000000" lon="-1.0941170000"><ele>1009</ele><time>2026-04-09T07:41:29Z</time></trkpt>
<trkpt lat="43.0714770000" lon="-1.0941000000"><ele>1016</ele><time>2026-04-09T07:42:30Z</time></trkpt>
<trkpt lat="43.0714620000" lon="-1.0940820000"><ele>1016</ele><time>2026-04-09T07:42:31Z</time></trkpt>
<trkpt lat="43.0714450000" lon="-1.0940670000"><ele>1016</ele><time>2026-04-09T07:42:32Z</time></trkpt>
<trkpt lat="43.0714170000" lon="-1.0940450000"><ele>1016</ele><time>2026-04-09T07:42:34Z</time></trkpt>
<trkpt lat="43.0713950000" lon="-1.0940170000"><ele>1016</ele><time>2026-04-09T07:42:46Z</time></trkpt>
<trkpt lat="43.0713750000" lon="-1.0939950000"><ele>1017</ele><time>2026-04-09T07:42:48Z</time></trkpt>
<trkpt lat="43.0713570000" lon="-1.0939770000"><ele>1017</ele><time>2026-04-09T07:42:51Z</time></trkpt>
<trkpt lat="43.0713470000" lon="-1.0939500000"><ele>1017</ele><time>2026-04-09T07:42:57Z</time></trkpt>
<trkpt lat="43.0713270000" lon="-1.0939350000"><ele>1022</ele><time>2026-04-09T07:43:40Z</time></trkpt>
<trkpt lat="43.0712950000" lon="-1.0939300000"><ele>1022</ele><time>2026-04-09T07:43:42Z</time></trkpt>
<trkpt lat="43.0712720000" lon="-1.0939270000"><ele>1022</ele><time>2026-04-09T07:43:44Z</time></trkpt>
<trkpt lat="43.0712470000" lon="-1.0939100000"><ele>1029</ele><time>2026-04-09T07:44:53Z</time></trkpt>
<trkpt lat="43.0712370000" lon="-1.0938900000"><ele>1029</ele><time>2026-04-09T07:44:54Z</time></trkpt>
<trkpt lat="43.0712220000" lon="-1.0938700000"><ele>1029</ele><time>2026-04-09T07:44:55Z</time></trkpt>
<trkpt lat="43.0711970000" lon="-1.0938450000"><ele>1029</ele><time>2026-04-09T07:44:57Z</time></trkpt>
<trkpt lat="43.0711770000" lon="-1.0938220000"><ele>1030</ele><time>2026-04-09T07:45:15Z</time></trkpt>
<trkpt lat="43.0711650000" lon="-1.0937920000"><ele>1030</ele><time>2026-04-09T07:45:17Z</time></trkpt>
<trkpt lat="43.0711520000" lon="-1.0937620000"><ele>1030</ele><time>2026-04-09T07:45:19Z</time></trkpt>
<trkpt lat="43.0711370000" lon="-1.0937370000"><ele>1031</ele><time>2026-04-09T07:45:22Z</time></trkpt>
<trkpt lat="43.0711220000" lon="-1.0937200000"><ele>1031</ele><time>2026-04-09T07:45:26Z</time></trkpt>
<trkpt lat="43.0711000000" lon="-1.0937470000"><ele>1037</ele><time>2026-04-09T07:46:19Z</time></trkpt>
<trkpt lat="43.0710820000" lon="-1.0937720000"><ele>1037</ele><time>2026-04-09T07:46:21Z</time></trkpt>
<trkpt lat="43.0710620000" lon="-1.0937750000"><ele>1037</ele><time>2026-04-09T07:46:24Z</time></trkpt>
<trkpt lat="43.0710370000" lon="-1.0937770000"><ele>1042</ele><time>2026-04-09T07:47:14Z</time></trkpt>
<trkpt lat="43.0710100000" lon="-1.0937820000"><ele>1042</ele><time>2026-04-09T07:47:16Z</time></trkpt>
<trkpt lat="43.0709950000" lon="-1.0937970000"><ele>1043</ele><time>2026-04-09T07:47:19Z</time></trkpt>
<trkpt lat="43.0710170000" lon="-1.0938020000"><ele>1043</ele><time>2026-04-09T07:47:23Z</time></trkpt>
<trkpt lat="43.0710070000" lon="-1.0937720000"><ele>1044</ele><time>2026-04-09T07:47:44Z</time></trkpt>
<trkpt lat="43.0709920000" lon="-1.0937570000"><ele>1044</ele><time>2026-04-09T07:47:46Z</time></trkpt>
<trkpt lat="43.0709730000" lon="-1.0937470000"><ele>1044</ele><time>2026-04-09T07:47:49Z</time></trkpt>
<trkpt lat="43.0709850000" lon="-1.0937700000"><ele>1044</ele><time>2026-04-09T07:48:53Z</time></trkpt>
<trkpt lat="43.0710100000" lon="-1.0937870000"><ele>1044</ele><time>2026-04-09T07:48:56Z</time></trkpt>
<trkpt lat="43.0710270000" lon="-1.0937870000"><ele>1044</ele><time>2026-04-09T07:48:58Z</time></trkpt>
<trkpt lat="43.0709900000" lon="-1.0937770000"><ele>1046</ele><time>2026-04-09T07:50:07Z</time></trkpt>
<trkpt lat="43.0709620000" lon="-1.0937720000"><ele>1046</ele><time>2026-04-09T07:50:08Z</time></trkpt>
<trkpt lat="43.0709350000" lon="-1.0937650000"><ele>1046</ele><time>2026-04-09T07:50:09Z</time></trkpt>
<trkpt lat="43.0709120000" lon="-1.0937570000"><ele>1046</ele><time>2026-04-09T07:50:10Z</time></trkpt>
<trkpt lat="43.0708870000" lon="-1.0937420000"><ele>1046</ele><time>2026-04-09T07:50:12Z</time></trkpt>
<trkpt lat="43.0708750000" lon="-1.0937220000"><ele>1046</ele><time>2026-04-09T07:50:14Z</time></trkpt>
<trkpt lat="43.0708620000" lon="-1.0937000000"><ele>1046</ele><time>2026-04-09T07:50:16Z</time></trkpt>
<trkpt lat="43.0708420000" lon="-1.0936670000"><ele>1046</ele><time>2026-04-09T07:50:18Z</time></trkpt>
<trkpt lat="43.0708320000" lon="-1.0936370000"><ele>1046</ele><time>2026-04-09T07:50:20Z</time></trkpt>
<trkpt lat="43.0708180000" lon="-1.0936150000"><ele>1046</ele><time>2026-04-09T07:50:22Z</time></trkpt>
<trkpt lat="43.0708020000" lon="-1.0935970000"><ele>1047</ele><time>2026-04-09T07:50:24Z</time></trkpt>
<trkpt lat="43.0707850000" lon="-1.0935970000"><ele>1047</ele><time>2026-04-09T07:50:26Z</time></trkpt>
<trkpt lat="43.0707670000" lon="-1.0936220000"><ele>1047</ele><time>2026-04-09T07:50:30Z</time></trkpt>
<trkpt lat="43.0707650000" lon="-1.0936470000"><ele>1048</ele><time>2026-04-09T07:50:33Z</time></trkpt>
<trkpt lat="43.0707600000" lon="-1.0936720000"><ele>1048</ele><time>2026-04-09T07:50:36Z</time></trkpt>
<trkpt lat="43.0707400000" lon="-1.0936770000"><ele>1051</ele><time>2026-04-09T07:51:24Z</time></trkpt>
<trkpt lat="43.0707570000" lon="-1.0937070000"><ele>1051</ele><time>2026-04-09T07:51:31Z</time></trkpt>
<trkpt lat="43.0707370000" lon="-1.0937000000"><ele>1051</ele><time>2026-04-09T07:51:47Z</time></trkpt>
<trkpt lat="43.0707170000" lon="-1.0936770000"><ele>1051</ele><time>2026-04-09T07:51:49Z</time></trkpt>
<trkpt lat="43.0706970000" lon="-1.0936650000"><ele>1051</ele><time>2026-04-09T07:51:51Z</time></trkpt>
<trkpt lat="43.0706770000" lon="-1.0936520000"><ele>1051</ele><time>2026-04-09T07:51:54Z</time></trkpt>
<trkpt lat="43.0706570000" lon="-1.0936400000"><ele>1051</ele><time>2026-04-09T07:51:57Z</time></trkpt>
<trkpt lat="43.0706470000" lon="-1.0936170000"><ele>1050</ele><time>2026-04-09T07:52:00Z</time></trkpt>
<trkpt lat="43.0706320000" lon="-1.0936000000"><ele>1050</ele><time>2026-04-09T07:52:03Z</time></trkpt>
<trkpt lat="43.0706150000" lon="-1.0935750000"><ele>1050</ele><time>2026-04-09T07:52:06Z</time></trkpt>
<trkpt lat="43.0705970000" lon="-1.0935620000"><ele>1050</ele><time>2026-04-09T07:52:10Z</time></trkpt>
<trkpt lat="43.0705770000" lon="-1.0935620000"><ele>1050</ele><time>2026-04-09T07:52:13Z</time></trkpt>
<trkpt lat="43.0705620000" lon="-1.0935500000"><ele>1050</ele><time>2026-04-09T07:52:16Z</time></trkpt>
<trkpt lat="43.0705400000" lon="-1.0935370000"><ele>1051</ele><time>2026-04-09T07:52:20Z</time></trkpt>
<trkpt lat="43.0705170000" lon="-1.0935220000"><ele>1051</ele><time>2026-04-09T07:52:23Z</time></trkpt>
<trkpt lat="43.0704970000" lon="-1.0935070000"><ele>1052</ele><time>2026-04-09T07:52:26Z</time></trkpt>
<trkpt lat="43.0704770000" lon="-1.0934970000"><ele>1052</ele><time>2026-04-09T07:52:29Z</time></trkpt>
<trkpt lat="43.0704570000" lon="-1.0934800000"><ele>1052</ele><time>2026-04-09T07:52:32Z</time></trkpt>
<trkpt lat="43.0704380000" lon="-1.0934670000"><ele>1051</ele><time>2026-04-09T07:52:35Z</time></trkpt>
<trkpt lat="43.0704220000" lon="-1.0934770000"><ele>1051</ele><time>2026-04-09T07:52:38Z</time></trkpt>
<trkpt lat="43.0704000000" lon="-1.0934770000"><ele>1051</ele><time>2026-04-09T07:52:41Z</time></trkpt>
<trkpt lat="43.0703850000" lon="-1.0934520000"><ele>1052</ele><time>2026-04-09T07:52:45Z</time></trkpt>
<trkpt lat="43.0703720000" lon="-1.0934250000"><ele>1052</ele><time>2026-04-09T07:52:48Z</time></trkpt>
<trkpt lat="43.0703520000" lon="-1.0934320000"><ele>1053</ele><time>2026-04-09T07:52:53Z</time></trkpt>
<trkpt lat="43.0703270000" lon="-1.0934500000"><ele>1056</ele><time>2026-04-09T07:53:48Z</time></trkpt>
<trkpt lat="43.0703120000" lon="-1.0934620000"><ele>1056</ele><time>2026-04-09T07:53:49Z</time></trkpt>
<trkpt lat="43.0702970000" lon="-1.0934800000"><ele>1056</ele><time>2026-04-09T07:53:50Z</time></trkpt>
<trkpt lat="43.0702830000" lon="-1.0935070000"><ele>1056</ele><time>2026-04-09T07:53:52Z</time></trkpt>
<trkpt lat="43.0702670000" lon="-1.0934920000"><ele>1056</ele><time>2026-04-09T07:53:56Z</time></trkpt>
<trkpt lat="43.0702650000" lon="-1.0934670000"><ele>1056</ele><time>2026-04-09T07:53:58Z</time></trkpt>
<trkpt lat="43.0702650000" lon="-1.0934420000"><ele>1056</ele><time>2026-04-09T07:54:00Z</time></trkpt>
<trkpt lat="43.0702520000" lon="-1.0934170000"><ele>1056</ele><time>2026-04-09T07:54:06Z</time></trkpt>
<trkpt lat="43.0702400000" lon="-1.0933980000"><ele>1056</ele><time>2026-04-09T07:54:08Z</time></trkpt>
<trkpt lat="43.0702220000" lon="-1.0933820000"><ele>1056</ele><time>2026-04-09T07:54:11Z</time></trkpt>
<trkpt lat="43.0702020000" lon="-1.0933870000"><ele>1059</ele><time>2026-04-09T07:55:02Z</time></trkpt>
<trkpt lat="43.0701820000" lon="-1.0933870000"><ele>1059</ele><time>2026-04-09T07:55:04Z</time></trkpt>
<trkpt lat="43.0701570000" lon="-1.0933850000"><ele>1059</ele><time>2026-04-09T07:55:06Z</time></trkpt>
<trkpt lat="43.0701770000" lon="-1.0933700000"><ele>1059</ele><time>2026-04-09T07:55:25Z</time></trkpt>
<trkpt lat="43.0701970000" lon="-1.0933800000"><ele>1059</ele><time>2026-04-09T07:55:27Z</time></trkpt>
<trkpt lat="43.0701820000" lon="-1.0933970000"><ele>1058</ele><time>2026-04-09T07:56:31Z</time></trkpt>
<trkpt lat="43.0701570000" lon="-1.0933920000"><ele>1058</ele><time>2026-04-09T07:56:34Z</time></trkpt>
<trkpt lat="43.0701430000" lon="-1.0933670000"><ele>1057</ele><time>2026-04-09T07:56:37Z</time></trkpt>
<trkpt lat="43.0701270000" lon="-1.0933470000"><ele>1056</ele><time>2026-04-09T07:57:02Z</time></trkpt>
<trkpt lat="43.0700970000" lon="-1.0933220000"><ele>1056</ele><time>2026-04-09T07:57:04Z</time></trkpt>
<trkpt lat="43.0700820000" lon="-1.0933050000"><ele>1056</ele><time>2026-04-09T07:57:05Z</time></trkpt>
<trkpt lat="43.0700570000" lon="-1.0932800000"><ele>1056</ele><time>2026-04-09T07:57:07Z</time></trkpt>
<trkpt lat="43.0700350000" lon="-1.0932670000"><ele>1057</ele><time>2026-04-09T07:57:11Z</time></trkpt>
<trkpt lat="43.0700120000" lon="-1.0932550000"><ele>1057</ele><time>2026-04-09T07:57:14Z</time></trkpt>
<trkpt lat="43.0699950000" lon="-1.0932370000"><ele>1058</ele><time>2026-04-09T07:57:17Z</time></trkpt>
<trkpt lat="43.0699770000" lon="-1.0932300000"><ele>1058</ele><time>2026-04-09T07:57:20Z</time></trkpt>
<trkpt lat="43.0699570000" lon="-1.0932270000"><ele>1058</ele><time>2026-04-09T07:57:23Z</time></trkpt>
<trkpt lat="43.0699370000" lon="-1.0932150000"><ele>1058</ele><time>2026-04-09T07:57:26Z</time></trkpt>
<trkpt lat="43.0699200000" lon="-1.0932170000"><ele>1058</ele><time>2026-04-09T07:57:28Z</time></trkpt>
<trkpt lat="43.0698970000" lon="-1.0932100000"><ele>1058</ele><time>2026-04-09T07:57:31Z</time></trkpt>
<trkpt lat="43.0698770000" lon="-1.0932100000"><ele>1059</ele><time>2026-04-09T07:57:34Z</time></trkpt>
<trkpt lat="43.0698570000" lon="-1.0932170000"><ele>1059</ele><time>2026-04-09T07:57:37Z</time></trkpt>
<trkpt lat="43.0698370000" lon="-1.0932270000"><ele>1059</ele><time>2026-04-09T07:57:40Z</time></trkpt>
<trkpt lat="43.0698220000" lon="-1.0932450000"><ele>1059</ele><time>2026-04-09T07:57:44Z</time></trkpt>
<trkpt lat="43.0698020000" lon="-1.0932270000"><ele>1061</ele><time>2026-04-09T07:57:50Z</time></trkpt>
<trkpt lat="43.0697770000" lon="-1.0932200000"><ele>1063</ele><time>2026-04-09T07:58:10Z</time></trkpt>
<trkpt lat="43.0697520000" lon="-1.0932270000"><ele>1063</ele><time>2026-04-09T07:58:12Z</time></trkpt>
<trkpt lat="43.0697350000" lon="-1.0932350000"><ele>1063</ele><time>2026-04-09T07:58:14Z</time></trkpt>
<trkpt lat="43.0697170000" lon="-1.0932150000"><ele>1063</ele><time>2026-04-09T07:58:38Z</time></trkpt>
<trkpt lat="43.0696870000" lon="-1.0931870000"><ele>1063</ele><time>2026-04-09T07:58:40Z</time></trkpt>
<trkpt lat="43.0696720000" lon="-1.0931700000"><ele>1063</ele><time>2026-04-09T07:58:41Z</time></trkpt>
<trkpt lat="43.0696570000" lon="-1.0931550000"><ele>1063</ele><time>2026-04-09T07:58:42Z</time></trkpt>
<trkpt lat="43.0696370000" lon="-1.0931270000"><ele>1063</ele><time>2026-04-09T07:58:45Z</time></trkpt>
<trkpt lat="43.0696520000" lon="-1.0931070000"><ele>1062</ele><time>2026-04-09T07:59:05Z</time></trkpt>
<trkpt lat="43.0696670000" lon="-1.0930970000"><ele>1061</ele><time>2026-04-09T08:00:13Z</time></trkpt>
<trkpt lat="43.0696450000" lon="-1.0930770000"><ele>1062</ele><time>2026-04-09T08:00:27Z</time></trkpt>
<trkpt lat="43.0696220000" lon="-1.0930470000"><ele>1063</ele><time>2026-04-09T08:00:29Z</time></trkpt>
<trkpt lat="43.0696020000" lon="-1.0930220000"><ele>1063</ele><time>2026-04-09T08:00:31Z</time></trkpt>
<trkpt lat="43.0695770000" lon="-1.0930120000"><ele>1063</ele><time>2026-04-09T08:00:33Z</time></trkpt>
<trkpt lat="43.0695570000" lon="-1.0930170000"><ele>1064</ele><time>2026-04-09T08:00:36Z</time></trkpt>
<trkpt lat="43.0695400000" lon="-1.0930250000"><ele>1065</ele><time>2026-04-09T08:00:43Z</time></trkpt>
<trkpt lat="43.0695200000" lon="-1.0930120000"><ele>1074</ele><time>2026-04-09T08:02:56Z</time></trkpt>
<trkpt lat="43.0694870000" lon="-1.0930000000"><ele>1074</ele><time>2026-04-09T08:02:58Z</time></trkpt>
<trkpt lat="43.0694570000" lon="-1.0929970000"><ele>1074</ele><time>2026-04-09T08:03:00Z</time></trkpt>
<trkpt lat="43.0694400000" lon="-1.0929920000"><ele>1074</ele><time>2026-04-09T08:04:11Z</time></trkpt>
<trkpt lat="43.0694270000" lon="-1.0929700000"><ele>1074</ele><time>2026-04-09T08:04:47Z</time></trkpt>
<trkpt lat="43.0694050000" lon="-1.0929500000"><ele>1074</ele><time>2026-04-09T08:04:49Z</time></trkpt>
<trkpt lat="43.0693870000" lon="-1.0929400000"><ele>1074</ele><time>2026-04-09T08:04:51Z</time></trkpt>
<trkpt lat="43.0693700000" lon="-1.0929250000"><ele>1073</ele><time>2026-04-09T08:04:54Z</time></trkpt>
<trkpt lat="43.0693520000" lon="-1.0929120000"><ele>1073</ele><time>2026-04-09T08:04:56Z</time></trkpt>
<trkpt lat="43.0693350000" lon="-1.0928970000"><ele>1072</ele><time>2026-04-09T08:04:58Z</time></trkpt>
<trkpt lat="43.0693170000" lon="-1.0928800000"><ele>1072</ele><time>2026-04-09T08:05:00Z</time></trkpt>
<trkpt lat="43.0692970000" lon="-1.0928620000"><ele>1072</ele><time>2026-04-09T08:05:02Z</time></trkpt>
<trkpt lat="43.0692770000" lon="-1.0928420000"><ele>1071</ele><time>2026-04-09T08:05:05Z</time></trkpt>
<trkpt lat="43.0692520000" lon="-1.0928320000"><ele>1072</ele><time>2026-04-09T08:05:08Z</time></trkpt>
<trkpt lat="43.0692350000" lon="-1.0928180000"><ele>1072</ele><time>2026-04-09T08:05:10Z</time></trkpt>
<trkpt lat="43.0692150000" lon="-1.0928070000"><ele>1072</ele><time>2026-04-09T08:05:13Z</time></trkpt>
<trkpt lat="43.0691920000" lon="-1.0928000000"><ele>1072</ele><time>2026-04-09T08:05:16Z</time></trkpt>
<trkpt lat="43.0691720000" lon="-1.0928020000"><ele>1073</ele><time>2026-04-09T08:05:20Z</time></trkpt>
<trkpt lat="43.0691570000" lon="-1.0927870000"><ele>1073</ele><time>2026-04-09T08:05:24Z</time></trkpt>
<trkpt lat="43.0691400000" lon="-1.0927770000"><ele>1074</ele><time>2026-04-09T08:05:28Z</time></trkpt>
<trkpt lat="43.0691220000" lon="-1.0927650000"><ele>1075</ele><time>2026-04-09T08:05:32Z</time></trkpt>
<trkpt lat="43.0691050000" lon="-1.0927820000"><ele>1076</ele><time>2026-04-09T08:05:36Z</time></trkpt>
<trkpt lat="43.0690900000" lon="-1.0927620000"><ele>1082</ele><time>2026-04-09T08:06:48Z</time></trkpt>
<trkpt lat="43.0690600000" lon="-1.0927450000"><ele>1083</ele><time>2026-04-09T08:06:50Z</time></trkpt>
<trkpt lat="43.0690370000" lon="-1.0927420000"><ele>1083</ele><time>2026-04-09T08:06:52Z</time></trkpt>
<trkpt lat="43.0690070000" lon="-1.0927320000"><ele>1086</ele><time>2026-04-09T08:08:04Z</time></trkpt>
<trkpt lat="43.0689870000" lon="-1.0927300000"><ele>1086</ele><time>2026-04-09T08:08:05Z</time></trkpt>
<trkpt lat="43.0689700000" lon="-1.0927270000"><ele>1086</ele><time>2026-04-09T08:08:06Z</time></trkpt>
<trkpt lat="43.0689420000" lon="-1.0927120000"><ele>1088</ele><time>2026-04-09T08:09:39Z</time></trkpt>
<trkpt lat="43.0689120000" lon="-1.0926800000"><ele>1088</ele><time>2026-04-09T08:09:41Z</time></trkpt>
<trkpt lat="43.0688920000" lon="-1.0926650000"><ele>1088</ele><time>2026-04-09T08:09:42Z</time></trkpt>
<trkpt lat="43.0688720000" lon="-1.0926520000"><ele>1088</ele><time>2026-04-09T08:09:43Z</time></trkpt>
<trkpt lat="43.0688450000" lon="-1.0926450000"><ele>1087</ele><time>2026-04-09T08:09:45Z</time></trkpt>
<trkpt lat="43.0688220000" lon="-1.0926420000"><ele>1088</ele><time>2026-04-09T08:09:48Z</time></trkpt>
<trkpt lat="43.0688070000" lon="-1.0926650000"><ele>1088</ele><time>2026-04-09T08:09:51Z</time></trkpt>
<trkpt lat="43.0687950000" lon="-1.0926920000"><ele>1092</ele><time>2026-04-09T08:10:41Z</time></trkpt>
<trkpt lat="43.0687820000" lon="-1.0927120000"><ele>1092</ele><time>2026-04-09T08:10:42Z</time></trkpt>
<trkpt lat="43.0687620000" lon="-1.0927300000"><ele>1092</ele><time>2026-04-09T08:10:43Z</time></trkpt>
<trkpt lat="43.0687400000" lon="-1.0927470000"><ele>1092</ele><time>2026-04-09T08:10:44Z</time></trkpt>
<trkpt lat="43.0687200000" lon="-1.0927600000"><ele>1092</ele><time>2026-04-09T08:10:45Z</time></trkpt>
<trkpt lat="43.0686970000" lon="-1.0927770000"><ele>1092</ele><time>2026-04-09T08:10:47Z</time></trkpt>
<trkpt lat="43.0686870000" lon="-1.0927550000"><ele>1094</ele><time>2026-04-09T08:11:36Z</time></trkpt>
<trkpt lat="43.0686670000" lon="-1.0927350000"><ele>1094</ele><time>2026-04-09T08:11:38Z</time></trkpt>
<trkpt lat="43.0686420000" lon="-1.0927150000"><ele>1094</ele><time>2026-04-09T08:11:40Z</time></trkpt>
<trkpt lat="43.0686220000" lon="-1.0927220000"><ele>1094</ele><time>2026-04-09T08:11:56Z</time></trkpt>
<trkpt lat="43.0686020000" lon="-1.0927070000"><ele>1094</ele><time>2026-04-09T08:11:59Z</time></trkpt>
<trkpt lat="43.0685800000" lon="-1.0926830000"><ele>1091</ele><time>2026-04-09T08:12:57Z</time></trkpt>
<trkpt lat="43.0685570000" lon="-1.0926570000"><ele>1091</ele><time>2026-04-09T08:12:59Z</time></trkpt>
<trkpt lat="43.0685320000" lon="-1.0926420000"><ele>1091</ele><time>2026-04-09T08:13:01Z</time></trkpt>
<trkpt lat="43.0685120000" lon="-1.0926300000"><ele>1091</ele><time>2026-04-09T08:13:03Z</time></trkpt>
<trkpt lat="43.0684920000" lon="-1.0926170000"><ele>1091</ele><time>2026-04-09T08:13:06Z</time></trkpt>
<trkpt lat="43.0685100000" lon="-1.0926270000"><ele>1091</ele><time>2026-04-09T08:13:09Z</time></trkpt>
<trkpt lat="43.0685250000" lon="-1.0926500000"><ele>1091</ele><time>2026-04-09T08:13:12Z</time></trkpt>
<trkpt lat="43.0685420000" lon="-1.0926720000"><ele>1091</ele><time>2026-04-09T08:13:16Z</time></trkpt>
<trkpt lat="43.0685120000" lon="-1.0926520000"><ele>1095</ele><time>2026-04-09T08:14:27Z</time></trkpt>
<trkpt lat="43.0684920000" lon="-1.0926320000"><ele>1093</ele><time>2026-04-09T08:15:06Z</time></trkpt>
<trkpt lat="43.0684770000" lon="-1.0926100000"><ele>1092</ele><time>2026-04-09T08:15:07Z</time></trkpt>
<trkpt lat="43.0684570000" lon="-1.0925870000"><ele>1092</ele><time>2026-04-09T08:15:08Z</time></trkpt>
<trkpt lat="43.0684420000" lon="-1.0925670000"><ele>1092</ele><time>2026-04-09T08:15:09Z</time></trkpt>
<trkpt lat="43.0684270000" lon="-1.0925520000"><ele>1092</ele><time>2026-04-09T08:15:10Z</time></trkpt>
<trkpt lat="43.0684070000" lon="-1.0925300000"><ele>1092</ele><time>2026-04-09T08:15:12Z</time></trkpt>
<trkpt lat="43.0683850000" lon="-1.0925220000"><ele>1091</ele><time>2026-04-09T08:15:15Z</time></trkpt>
<trkpt lat="43.0683620000" lon="-1.0924970000"><ele>1094</ele><time>2026-04-09T08:15:53Z</time></trkpt>
<trkpt lat="43.0683370000" lon="-1.0924800000"><ele>1094</ele><time>2026-04-09T08:15:55Z</time></trkpt>
<trkpt lat="43.0683200000" lon="-1.0924750000"><ele>1094</ele><time>2026-04-09T08:15:57Z</time></trkpt>
<trkpt lat="43.0683020000" lon="-1.0924650000"><ele>1094</ele><time>2026-04-09T08:15:59Z</time></trkpt>
<trkpt lat="43.0682820000" lon="-1.0924600000"><ele>1094</ele><time>2026-04-09T08:16:02Z</time></trkpt>
<trkpt lat="43.0682670000" lon="-1.0924470000"><ele>1094</ele><time>2026-04-09T08:16:05Z</time></trkpt>
<trkpt lat="43.0682500000" lon="-1.0924350000"><ele>1094</ele><time>2026-04-09T08:16:08Z</time></trkpt>
<trkpt lat="43.0682320000" lon="-1.0924170000"><ele>1094</ele><time>2026-04-09T08:16:11Z</time></trkpt>
<trkpt lat="43.0682170000" lon="-1.0924020000"><ele>1094</ele><time>2026-04-09T08:16:13Z</time></trkpt>
<trkpt lat="43.0681920000" lon="-1.0923900000"><ele>1094</ele><time>2026-04-09T08:16:16Z</time></trkpt>
<trkpt lat="43.0681730000" lon="-1.0923750000"><ele>1094</ele><time>2026-04-09T08:16:18Z</time></trkpt>
<trkpt lat="43.0681570000" lon="-1.0923650000"><ele>1094</ele><time>2026-04-09T08:16:22Z</time></trkpt>
<trkpt lat="43.0681370000" lon="-1.0923520000"><ele>1094</ele><time>2026-04-09T08:16:25Z</time></trkpt>
<trkpt lat="43.0681350000" lon="-1.0923770000"><ele>1094</ele><time>2026-04-09T08:17:06Z</time></trkpt>
<trkpt lat="43.0681520000" lon="-1.0923920000"><ele>1095</ele><time>2026-04-09T08:18:22Z</time></trkpt>
<trkpt lat="43.0681320000" lon="-1.0923900000"><ele>1096</ele><time>2026-04-09T08:20:57Z</time></trkpt>
<trkpt lat="43.0681200000" lon="-1.0923700000"><ele>1096</ele><time>2026-04-09T08:23:28Z</time></trkpt>
<trkpt lat="43.0680970000" lon="-1.0923770000"><ele>1096</ele><time>2026-04-09T08:24:31Z</time></trkpt>
<trkpt lat="43.0680770000" lon="-1.0923770000"><ele>1095</ele><time>2026-04-09T08:24:34Z</time></trkpt>
<trkpt lat="43.0680970000" lon="-1.0923700000"><ele>1095</ele><time>2026-04-09T08:25:43Z</time></trkpt>
<trkpt lat="43.0680770000" lon="-1.0923470000"><ele>1095</ele><time>2026-04-09T08:27:09Z</time></trkpt>
<trkpt lat="43.0680600000" lon="-1.0923320000"><ele>1095</ele><time>2026-04-09T08:27:11Z</time></trkpt>
<trkpt lat="43.0680420000" lon="-1.0923120000"><ele>1095</ele><time>2026-04-09T08:27:15Z</time></trkpt>
<trkpt lat="43.0680320000" lon="-1.0922850000"><ele>1095</ele><time>2026-04-09T08:27:18Z</time></trkpt>
<trkpt lat="43.0680220000" lon="-1.0922600000"><ele>1096</ele><time>2026-04-09T08:27:21Z</time></trkpt>
<trkpt lat="43.0680050000" lon="-1.0922520000"><ele>1096</ele><time>2026-04-09T08:27:24Z</time></trkpt>
<trkpt lat="43.0679820000" lon="-1.0922420000"><ele>1097</ele><time>2026-04-09T08:27:29Z</time></trkpt>
<trkpt lat="43.0679670000" lon="-1.0922270000"><ele>1097</ele><time>2026-04-09T08:27:32Z</time></trkpt>
<trkpt lat="43.0679470000" lon="-1.0922170000"><ele>1098</ele><time>2026-04-09T08:27:35Z</time></trkpt>
<trkpt lat="43.0679320000" lon="-1.0922000000"><ele>1098</ele><time>2026-04-09T08:27:39Z</time></trkpt>
<trkpt lat="43.0679100000" lon="-1.0921970000"><ele>1098</ele><time>2026-04-09T08:27:43Z</time></trkpt>
<trkpt lat="43.0678870000" lon="-1.0921970000"><ele>1099</ele><time>2026-04-09T08:27:46Z</time></trkpt>
<trkpt lat="43.0678770000" lon="-1.0921750000"><ele>1099</ele><time>2026-04-09T08:27:49Z</time></trkpt>
<trkpt lat="43.0678670000" lon="-1.0921520000"><ele>1099</ele><time>2026-04-09T08:27:53Z</time></trkpt>
<trkpt lat="43.0678520000" lon="-1.0921720000"><ele>1100</ele><time>2026-04-09T08:28:22Z</time></trkpt>
<trkpt lat="43.0678320000" lon="-1.0921770000"><ele>1100</ele><time>2026-04-09T08:28:25Z</time></trkpt>
<trkpt lat="43.0678450000" lon="-1.0921570000"><ele>1099</ele><time>2026-04-09T08:28:32Z</time></trkpt>
<trkpt lat="43.0678020000" lon="-1.0921200000"><ele>1104</ele><time>2026-04-09T08:29:26Z</time></trkpt>
<trkpt lat="43.0677570000" lon="-1.0920950000"><ele>1104</ele><time>2026-04-09T08:29:27Z</time></trkpt>
<trkpt lat="43.0677120000" lon="-1.0920670000"><ele>1105</ele><time>2026-04-09T08:29:28Z</time></trkpt>
<trkpt lat="43.0676770000" lon="-1.0920450000"><ele>1105</ele><time>2026-04-09T08:29:29Z</time></trkpt>
<trkpt lat="43.0676520000" lon="-1.0920270000"><ele>1105</ele><time>2026-04-09T08:29:30Z</time></trkpt>
<trkpt lat="43.0676350000" lon="-1.0920170000"><ele>1105</ele><time>2026-04-09T08:29:31Z</time></trkpt>
<trkpt lat="43.0676120000" lon="-1.0920200000"><ele>1105</ele><time>2026-04-09T08:29:34Z</time></trkpt>
<trkpt lat="43.0675920000" lon="-1.0920300000"><ele>1105</ele><time>2026-04-09T08:29:37Z</time></trkpt>
<trkpt lat="43.0675720000" lon="-1.0920220000"><ele>1106</ele><time>2026-04-09T08:29:41Z</time></trkpt>
<trkpt lat="43.0675570000" lon="-1.0919970000"><ele>1106</ele><time>2026-04-09T08:29:44Z</time></trkpt>
<trkpt lat="43.0675470000" lon="-1.0919720000"><ele>1107</ele><time>2026-04-09T08:29:47Z</time></trkpt>
<trkpt lat="43.0675320000" lon="-1.0919520000"><ele>1107</ele><time>2026-04-09T08:29:50Z</time></trkpt>
<trkpt lat="43.0675100000" lon="-1.0919470000"><ele>1107</ele><time>2026-04-09T08:29:54Z</time></trkpt>
<trkpt lat="43.0674920000" lon="-1.0919420000"><ele>1108</ele><time>2026-04-09T08:29:58Z</time></trkpt>
<trkpt lat="43.0674720000" lon="-1.0919400000"><ele>1108</ele><time>2026-04-09T08:30:01Z</time></trkpt>
<trkpt lat="43.0674550000" lon="-1.0919300000"><ele>1109</ele><time>2026-04-09T08:30:04Z</time></trkpt>
<trkpt lat="43.0674370000" lon="-1.0919250000"><ele>1109</ele><time>2026-04-09T08:30:07Z</time></trkpt>
<trkpt lat="43.0674130000" lon="-1.0919150000"><ele>1110</ele><time>2026-04-09T08:30:12Z</time></trkpt>
<trkpt lat="43.0673950000" lon="-1.0918970000"><ele>1111</ele><time>2026-04-09T08:30:16Z</time></trkpt>
<trkpt lat="43.0673750000" lon="-1.0919000000"><ele>1111</ele><time>2026-04-09T08:30:20Z</time></trkpt>
<trkpt lat="43.0673570000" lon="-1.0918820000"><ele>1111</ele><time>2026-04-09T08:30:24Z</time></trkpt>
<trkpt lat="43.0673400000" lon="-1.0918720000"><ele>1112</ele><time>2026-04-09T08:30:27Z</time></trkpt>
<trkpt lat="43.0673220000" lon="-1.0918600000"><ele>1112</ele><time>2026-04-09T08:30:30Z</time></trkpt>
<trkpt lat="43.0673020000" lon="-1.0918500000"><ele>1113</ele><time>2026-04-09T08:30:35Z</time></trkpt>
<trkpt lat="43.0672870000" lon="-1.0918320000"><ele>1113</ele><time>2026-04-09T08:30:38Z</time></trkpt>
<trkpt lat="43.0672720000" lon="-1.0918170000"><ele>1113</ele><time>2026-04-09T08:30:42Z</time></trkpt>
<trkpt lat="43.0672520000" lon="-1.0918150000"><ele>1114</ele><time>2026-04-09T08:30:45Z</time></trkpt>
<trkpt lat="43.0672320000" lon="-1.0918300000"><ele>1115</ele><time>2026-04-09T08:30:51Z</time></trkpt>
<trkpt lat="43.0672120000" lon="-1.0918370000"><ele>1115</ele><time>2026-04-09T08:30:55Z</time></trkpt>
<trkpt lat="43.0671970000" lon="-1.0918200000"><ele>1115</ele><time>2026-04-09T08:30:58Z</time></trkpt>
<trkpt lat="43.0672200000" lon="-1.0918120000"><ele>1116</ele><time>2026-04-09T08:31:12Z</time></trkpt>
<trkpt lat="43.0672470000" lon="-1.0918120000"><ele>1116</ele><time>2026-04-09T08:31:14Z</time></trkpt>
<trkpt lat="43.0672670000" lon="-1.0918100000"><ele>1116</ele><time>2026-04-09T08:31:17Z</time></trkpt>
<trkpt lat="43.0672370000" lon="-1.0918000000"><ele>1121</ele><time>2026-04-09T08:32:23Z</time></trkpt>
<trkpt lat="43.0672020000" lon="-1.0917920000"><ele>1121</ele><time>2026-04-09T08:32:24Z</time></trkpt>
<trkpt lat="43.0671570000" lon="-1.0917850000"><ele>1121</ele><time>2026-04-09T08:32:25Z</time></trkpt>
<trkpt lat="43.0671120000" lon="-1.0917770000"><ele>1121</ele><time>2026-04-09T08:32:26Z</time></trkpt>
<trkpt lat="43.0670770000" lon="-1.0917700000"><ele>1121</ele><time>2026-04-09T08:32:27Z</time></trkpt>
<trkpt lat="43.0670550000" lon="-1.0917620000"><ele>1122</ele><time>2026-04-09T08:32:28Z</time></trkpt>
<trkpt lat="43.0670330000" lon="-1.0917470000"><ele>1122</ele><time>2026-04-09T08:32:30Z</time></trkpt>
<trkpt lat="43.0670200000" lon="-1.0917320000"><ele>1123</ele><time>2026-04-09T08:32:34Z</time></trkpt>
<trkpt lat="43.0670020000" lon="-1.0917120000"><ele>1123</ele><time>2026-04-09T08:32:38Z</time></trkpt>
<trkpt lat="43.0669870000" lon="-1.0916850000"><ele>1123</ele><time>2026-04-09T08:33:19Z</time></trkpt>
<trkpt lat="43.0669720000" lon="-1.0916600000"><ele>1123</ele><time>2026-04-09T08:33:21Z</time></trkpt>
<trkpt lat="43.0669600000" lon="-1.0916370000"><ele>1123</ele><time>2026-04-09T08:33:24Z</time></trkpt>
<trkpt lat="43.0669420000" lon="-1.0916220000"><ele>1123</ele><time>2026-04-09T08:33:28Z</time></trkpt>
<trkpt lat="43.0669200000" lon="-1.0916270000"><ele>1124</ele><time>2026-04-09T08:33:31Z</time></trkpt>
<trkpt lat="43.0669070000" lon="-1.0916020000"><ele>1125</ele><time>2026-04-09T08:33:37Z</time></trkpt>
<trkpt lat="43.0669100000" lon="-1.0915750000"><ele>1125</ele><time>2026-04-09T08:33:39Z</time></trkpt>
<trkpt lat="43.0669020000" lon="-1.0915400000"><ele>1126</ele><time>2026-04-09T08:33:43Z</time></trkpt>
<trkpt lat="43.0668950000" lon="-1.0915170000"><ele>1126</ele><time>2026-04-09T08:33:45Z</time></trkpt>
<trkpt lat="43.0668780000" lon="-1.0914970000"><ele>1126</ele><time>2026-04-09T08:33:48Z</time></trkpt>
<trkpt lat="43.0668570000" lon="-1.0914950000"><ele>1126</ele><time>2026-04-09T08:33:51Z</time></trkpt>
<trkpt lat="43.0668350000" lon="-1.0914950000"><ele>1127</ele><time>2026-04-09T08:33:57Z</time></trkpt>
<trkpt lat="43.0668120000" lon="-1.0914850000"><ele>1128</ele><time>2026-04-09T08:34:04Z</time></trkpt>
<trkpt lat="43.0667820000" lon="-1.0914720000"><ele>1131</ele><time>2026-04-09T08:34:27Z</time></trkpt>
<trkpt lat="43.0667620000" lon="-1.0914620000"><ele>1131</ele><time>2026-04-09T08:34:28Z</time></trkpt>
<trkpt lat="43.0667420000" lon="-1.0914570000"><ele>1131</ele><time>2026-04-09T08:34:29Z</time></trkpt>
<trkpt lat="43.0667120000" lon="-1.0914550000"><ele>1132</ele><time>2026-04-09T08:34:31Z</time></trkpt>
<trkpt lat="43.0666950000" lon="-1.0914570000"><ele>1132</ele><time>2026-04-09T08:34:33Z</time></trkpt>
<trkpt lat="43.0666770000" lon="-1.0914670000"><ele>1132</ele><time>2026-04-09T08:34:37Z</time></trkpt>
<trkpt lat="43.0666570000" lon="-1.0914750000"><ele>1133</ele><time>2026-04-09T08:34:43Z</time></trkpt>
<trkpt lat="43.0666520000" lon="-1.0915000000"><ele>1133</ele><time>2026-04-09T08:34:47Z</time></trkpt>
<trkpt lat="43.0666320000" lon="-1.0915070000"><ele>1134</ele><time>2026-04-09T08:34:54Z</time></trkpt>
<trkpt lat="43.0666170000" lon="-1.0914900000"><ele>1135</ele><time>2026-04-09T08:35:34Z</time></trkpt>
<trkpt lat="43.0666100000" lon="-1.0914470000"><ele>1135</ele><time>2026-04-09T08:35:37Z</time></trkpt>
<trkpt lat="43.0666120000" lon="-1.0914350000"><ele>1135</ele><time>2026-04-09T08:35:38Z</time></trkpt>
<trkpt lat="43.0666120000" lon="-1.0914050000"><ele>1136</ele><time>2026-04-09T08:35:41Z</time></trkpt>
<trkpt lat="43.0666070000" lon="-1.0913770000"><ele>1136</ele><time>2026-04-09T08:35:45Z</time></trkpt>
<trkpt lat="43.0665920000" lon="-1.0913620000"><ele>1137</ele><time>2026-04-09T08:35:49Z</time></trkpt>
<trkpt lat="43.0665770000" lon="-1.0913470000"><ele>1138</ele><time>2026-04-09T08:35:55Z</time></trkpt>
<trkpt lat="43.0665520000" lon="-1.0913300000"><ele>1139</ele><time>2026-04-09T08:35:58Z</time></trkpt>
<trkpt lat="43.0665350000" lon="-1.0913220000"><ele>1139</ele><time>2026-04-09T08:36:01Z</time></trkpt>
<trkpt lat="43.0665250000" lon="-1.0913000000"><ele>1139</ele><time>2026-04-09T08:36:06Z</time></trkpt>
<trkpt lat="43.0665220000" lon="-1.0912750000"><ele>1140</ele><time>2026-04-09T08:36:10Z</time></trkpt>
<trkpt lat="43.0665150000" lon="-1.0912470000"><ele>1141</ele><time>2026-04-09T08:36:15Z</time></trkpt>
<trkpt lat="43.0665170000" lon="-1.0912220000"><ele>1141</ele><time>2026-04-09T08:36:17Z</time></trkpt>
<trkpt lat="43.0665170000" lon="-1.0911970000"><ele>1142</ele><time>2026-04-09T08:36:20Z</time></trkpt>
<trkpt lat="43.0665250000" lon="-1.0911720000"><ele>1142</ele><time>2026-04-09T08:36:24Z</time></trkpt>
<trkpt lat="43.0665020000" lon="-1.0911720000"><ele>1143</ele><time>2026-04-09T08:36:29Z</time></trkpt>
<trkpt lat="43.0664770000" lon="-1.0911550000"><ele>1146</ele><time>2026-04-09T08:36:54Z</time></trkpt>
<trkpt lat="43.0664500000" lon="-1.0911270000"><ele>1146</ele><time>2026-04-09T08:36:56Z</time></trkpt>
<trkpt lat="43.0664280000" lon="-1.0911120000"><ele>1147</ele><time>2026-04-09T08:36:58Z</time></trkpt>
<trkpt lat="43.0664170000" lon="-1.0910820000"><ele>1147</ele><time>2026-04-09T08:37:02Z</time></trkpt>
<trkpt lat="43.0664120000" lon="-1.0911120000"><ele>1149</ele><time>2026-04-09T08:37:36Z</time></trkpt>
<trkpt lat="43.0663720000" lon="-1.0910920000"><ele>1156</ele><time>2026-04-09T08:38:36Z</time></trkpt>
<trkpt lat="43.0663420000" lon="-1.0910720000"><ele>1156</ele><time>2026-04-09T08:38:37Z</time></trkpt>
<trkpt lat="43.0662970000" lon="-1.0910450000"><ele>1156</ele><time>2026-04-09T08:38:39Z</time></trkpt>
<trkpt lat="43.0662720000" lon="-1.0910320000"><ele>1157</ele><time>2026-04-09T08:38:42Z</time></trkpt>
<trkpt lat="43.0662370000" lon="-1.0910320000"><ele>1164</ele><time>2026-04-09T08:39:57Z</time></trkpt>
<trkpt lat="43.0662120000" lon="-1.0910220000"><ele>1164</ele><time>2026-04-09T08:39:58Z</time></trkpt>
<trkpt lat="43.0661850000" lon="-1.0910070000"><ele>1164</ele><time>2026-04-09T08:39:59Z</time></trkpt>
<trkpt lat="43.0661620000" lon="-1.0909870000"><ele>1164</ele><time>2026-04-09T08:40:00Z</time></trkpt>
<trkpt lat="43.0661420000" lon="-1.0909570000"><ele>1164</ele><time>2026-04-09T08:40:02Z</time></trkpt>
<trkpt lat="43.0661220000" lon="-1.0909520000"><ele>1165</ele><time>2026-04-09T08:40:05Z</time></trkpt>
<trkpt lat="43.0661100000" lon="-1.0909300000"><ele>1171</ele><time>2026-04-09T08:41:22Z</time></trkpt>
<trkpt lat="43.0661320000" lon="-1.0908620000"><ele>1171</ele><time>2026-04-09T08:41:24Z</time></trkpt>
<trkpt lat="43.0661520000" lon="-1.0908270000"><ele>1171</ele><time>2026-04-09T08:41:25Z</time></trkpt>
<trkpt lat="43.0661650000" lon="-1.0908020000"><ele>1171</ele><time>2026-04-09T08:41:26Z</time></trkpt>
<trkpt lat="43.0661770000" lon="-1.0907800000"><ele>1171</ele><time>2026-04-09T08:41:28Z</time></trkpt>
<trkpt lat="43.0661550000" lon="-1.0907720000"><ele>1170</ele><time>2026-04-09T08:42:24Z</time></trkpt>
<trkpt lat="43.0661370000" lon="-1.0907820000"><ele>1170</ele><time>2026-04-09T08:42:25Z</time></trkpt>
<trkpt lat="43.0661170000" lon="-1.0907970000"><ele>1170</ele><time>2026-04-09T08:42:26Z</time></trkpt>
<trkpt lat="43.0660920000" lon="-1.0908150000"><ele>1170</ele><time>2026-04-09T08:42:27Z</time></trkpt>
<trkpt lat="43.0660720000" lon="-1.0908300000"><ele>1170</ele><time>2026-04-09T08:42:28Z</time></trkpt>
<trkpt lat="43.0660450000" lon="-1.0908570000"><ele>1170</ele><time>2026-04-09T08:42:30Z</time></trkpt>
<trkpt lat="43.0660370000" lon="-1.0908670000"><ele>1170</ele><time>2026-04-09T08:42:31Z</time></trkpt>
<trkpt lat="43.0660170000" lon="-1.0908820000"><ele>1170</ele><time>2026-04-09T08:42:33Z</time></trkpt>
<trkpt lat="43.0660000000" lon="-1.0908970000"><ele>1170</ele><time>2026-04-09T08:42:35Z</time></trkpt>
<trkpt lat="43.0659800000" lon="-1.0908920000"><ele>1170</ele><time>2026-04-09T08:42:38Z</time></trkpt>
<trkpt lat="43.0659670000" lon="-1.0908670000"><ele>1170</ele><time>2026-04-09T08:42:41Z</time></trkpt>
<trkpt lat="43.0659620000" lon="-1.0908450000"><ele>1171</ele><time>2026-04-09T08:42:46Z</time></trkpt>
<trkpt lat="43.0659570000" lon="-1.0907850000"><ele>1178</ele><time>2026-04-09T08:43:34Z</time></trkpt>
<trkpt lat="43.0659500000" lon="-1.0907350000"><ele>1178</ele><time>2026-04-09T08:43:35Z</time></trkpt>
<trkpt lat="43.0659420000" lon="-1.0906720000"><ele>1178</ele><time>2026-04-09T08:43:36Z</time></trkpt>
<trkpt lat="43.0659370000" lon="-1.0906100000"><ele>1178</ele><time>2026-04-09T08:43:37Z</time></trkpt>
<trkpt lat="43.0659320000" lon="-1.0905620000"><ele>1178</ele><time>2026-04-09T08:43:38Z</time></trkpt>
<trkpt lat="43.0659300000" lon="-1.0905120000"><ele>1179</ele><time>2026-04-09T08:43:40Z</time></trkpt>
<trkpt lat="43.0659000000" lon="-1.0905220000"><ele>1186</ele><time>2026-04-09T08:45:02Z</time></trkpt>
<trkpt lat="43.0658350000" lon="-1.0905050000"><ele>1186</ele><time>2026-04-09T08:45:04Z</time></trkpt>
<trkpt lat="43.0657970000" lon="-1.0904970000"><ele>1186</ele><time>2026-04-09T08:45:05Z</time></trkpt>
<trkpt lat="43.0657700000" lon="-1.0904870000"><ele>1187</ele><time>2026-04-09T08:45:06Z</time></trkpt>
<trkpt lat="43.0657380000" lon="-1.0904830000"><ele>1187</ele><time>2026-04-09T08:45:08Z</time></trkpt>
<trkpt lat="43.0657200000" lon="-1.0904820000"><ele>1190</ele><time>2026-04-09T08:46:29Z</time></trkpt>
<trkpt lat="43.0656770000" lon="-1.0904870000"><ele>1190</ele><time>2026-04-09T08:46:31Z</time></trkpt>
<trkpt lat="43.0656520000" lon="-1.0904870000"><ele>1190</ele><time>2026-04-09T08:46:32Z</time></trkpt>
<trkpt lat="43.0656300000" lon="-1.0904830000"><ele>1190</ele><time>2026-04-09T08:46:33Z</time></trkpt>
<trkpt lat="43.0656020000" lon="-1.0904830000"><ele>1191</ele><time>2026-04-09T08:46:35Z</time></trkpt>
<trkpt lat="43.0655820000" lon="-1.0904920000"><ele>1193</ele><time>2026-04-09T08:46:56Z</time></trkpt>
<trkpt lat="43.0655550000" lon="-1.0905000000"><ele>1193</ele><time>2026-04-09T08:46:58Z</time></trkpt>
<trkpt lat="43.0655270000" lon="-1.0905020000"><ele>1193</ele><time>2026-04-09T08:47:00Z</time></trkpt>
<trkpt lat="43.0655070000" lon="-1.0905020000"><ele>1193</ele><time>2026-04-09T08:47:02Z</time></trkpt>
<trkpt lat="43.0654800000" lon="-1.0905000000"><ele>1193</ele><time>2026-04-09T08:47:06Z</time></trkpt>
<trkpt lat="43.0654650000" lon="-1.0905070000"><ele>1193</ele><time>2026-04-09T08:47:12Z</time></trkpt>
<trkpt lat="43.0654420000" lon="-1.0905120000"><ele>1193</ele><time>2026-04-09T08:47:17Z</time></trkpt>
<trkpt lat="43.0654250000" lon="-1.0905120000"><ele>1192</ele><time>2026-04-09T08:47:24Z</time></trkpt>
<trkpt lat="43.0654070000" lon="-1.0905070000"><ele>1192</ele><time>2026-04-09T08:47:29Z</time></trkpt>
<trkpt lat="43.0653820000" lon="-1.0904920000"><ele>1191</ele><time>2026-04-09T08:47:46Z</time></trkpt>
<trkpt lat="43.0653570000" lon="-1.0904800000"><ele>1191</ele><time>2026-04-09T08:47:48Z</time></trkpt>
<trkpt lat="43.0653270000" lon="-1.0904720000"><ele>1191</ele><time>2026-04-09T08:48:58Z</time></trkpt>
<trkpt lat="43.0653000000" lon="-1.0904470000"><ele>1191</ele><time>2026-04-09T08:49:00Z</time></trkpt>
<trkpt lat="43.0652750000" lon="-1.0904170000"><ele>1191</ele><time>2026-04-09T08:49:02Z</time></trkpt>
<trkpt lat="43.0652520000" lon="-1.0904100000"><ele>1191</ele><time>2026-04-09T08:49:04Z</time></trkpt>
<trkpt lat="43.0652370000" lon="-1.0904370000"><ele>1191</ele><time>2026-04-09T08:49:07Z</time></trkpt>
<trkpt lat="43.0652300000" lon="-1.0904570000"><ele>1191</ele><time>2026-04-09T08:49:11Z</time></trkpt>
<trkpt lat="43.0652170000" lon="-1.0904820000"><ele>1192</ele><time>2026-04-09T08:49:16Z</time></trkpt>
<trkpt lat="43.0651870000" lon="-1.0904830000"><ele>1194</ele><time>2026-04-09T08:49:27Z</time></trkpt>
<trkpt lat="43.0651720000" lon="-1.0904870000"><ele>1194</ele><time>2026-04-09T08:49:28Z</time></trkpt>
<trkpt lat="43.0651500000" lon="-1.0904920000"><ele>1194</ele><time>2026-04-09T08:49:30Z</time></trkpt>
<trkpt lat="43.0651320000" lon="-1.0904970000"><ele>1195</ele><time>2026-04-09T08:49:33Z</time></trkpt>
<trkpt lat="43.0651100000" lon="-1.0905170000"><ele>1196</ele><time>2026-04-09T08:49:57Z</time></trkpt>
<trkpt lat="43.0650920000" lon="-1.0905350000"><ele>1196</ele><time>2026-04-09T08:49:59Z</time></trkpt>
<trkpt lat="43.0650750000" lon="-1.0905450000"><ele>1196</ele><time>2026-04-09T08:50:01Z</time></trkpt>
<trkpt lat="43.0650520000" lon="-1.0905370000"><ele>1198</ele><time>2026-04-09T08:50:30Z</time></trkpt>
<trkpt lat="43.0650320000" lon="-1.0905350000"><ele>1198</ele><time>2026-04-09T08:50:33Z</time></trkpt>
<trkpt lat="43.0650150000" lon="-1.0905470000"><ele>1199</ele><time>2026-04-09T08:53:01Z</time></trkpt>
<trkpt lat="43.0649900000" lon="-1.0905570000"><ele>1199</ele><time>2026-04-09T08:53:04Z</time></trkpt>
<trkpt lat="43.0649770000" lon="-1.0905770000"><ele>1199</ele><time>2026-04-09T08:53:23Z</time></trkpt>
<trkpt lat="43.0649500000" lon="-1.0905820000"><ele>1199</ele><time>2026-04-09T08:53:25Z</time></trkpt>
<trkpt lat="43.0649220000" lon="-1.0905850000"><ele>1199</ele><time>2026-04-09T08:53:27Z</time></trkpt>
<trkpt lat="43.0649020000" lon="-1.0905970000"><ele>1199</ele><time>2026-04-09T08:53:29Z</time></trkpt>
<trkpt lat="43.0648870000" lon="-1.0906270000"><ele>1200</ele><time>2026-04-09T08:53:32Z</time></trkpt>
<trkpt lat="43.0648720000" lon="-1.0906120000"><ele>1204</ele><time>2026-04-09T08:54:16Z</time></trkpt>
<trkpt lat="43.0648670000" lon="-1.0905820000"><ele>1204</ele><time>2026-04-09T08:54:18Z</time></trkpt>
<trkpt lat="43.0648650000" lon="-1.0905550000"><ele>1205</ele><time>2026-04-09T08:54:20Z</time></trkpt>
<trkpt lat="43.0648520000" lon="-1.0905320000"><ele>1206</ele><time>2026-04-09T08:54:25Z</time></trkpt>
<trkpt lat="43.0648620000" lon="-1.0904970000"><ele>1208</ele><time>2026-04-09T08:54:39Z</time></trkpt>
<trkpt lat="43.0648720000" lon="-1.0904720000"><ele>1208</ele><time>2026-04-09T08:54:41Z</time></trkpt>
<trkpt lat="43.0648820000" lon="-1.0904470000"><ele>1209</ele><time>2026-04-09T08:54:44Z</time></trkpt>
<trkpt lat="43.0648550000" lon="-1.0904520000"><ele>1210</ele><time>2026-04-09T08:55:31Z</time></trkpt>
<trkpt lat="43.0648370000" lon="-1.0904570000"><ele>1210</ele><time>2026-04-09T08:55:35Z</time></trkpt>
<trkpt lat="43.0648170000" lon="-1.0904620000"><ele>1210</ele><time>2026-04-09T08:55:37Z</time></trkpt>
<trkpt lat="43.0647870000" lon="-1.0904720000"><ele>1210</ele><time>2026-04-09T08:55:40Z</time></trkpt>
<trkpt lat="43.0647720000" lon="-1.0904770000"><ele>1211</ele><time>2026-04-09T08:55:42Z</time></trkpt>
<trkpt lat="43.0647520000" lon="-1.0904800000"><ele>1211</ele><time>2026-04-09T08:55:46Z</time></trkpt>
<trkpt lat="43.0647300000" lon="-1.0904830000"><ele>1212</ele><time>2026-04-09T08:55:50Z</time></trkpt>
<trkpt lat="43.0647070000" lon="-1.0904950000"><ele>1212</ele><time>2026-04-09T08:55:54Z</time></trkpt>
<trkpt lat="43.0646830000" lon="-1.0904920000"><ele>1212</ele><time>2026-04-09T08:55:58Z</time></trkpt>
<trkpt lat="43.0646620000" lon="-1.0904820000"><ele>1213</ele><time>2026-04-09T08:56:03Z</time></trkpt>
<trkpt lat="43.0646420000" lon="-1.0904800000"><ele>1213</ele><time>2026-04-09T08:56:05Z</time></trkpt>
<trkpt lat="43.0646120000" lon="-1.0904700000"><ele>1213</ele><time>2026-04-09T08:56:09Z</time></trkpt>
<trkpt lat="43.0645970000" lon="-1.0904720000"><ele>1213</ele><time>2026-04-09T08:56:11Z</time></trkpt>
<trkpt lat="43.0645720000" lon="-1.0904750000"><ele>1213</ele><time>2026-04-09T08:56:14Z</time></trkpt>
<trkpt lat="43.0645470000" lon="-1.0904720000"><ele>1213</ele><time>2026-04-09T08:56:17Z</time></trkpt>
<trkpt lat="43.0645200000" lon="-1.0904820000"><ele>1213</ele><time>2026-04-09T08:56:21Z</time></trkpt>
<trkpt lat="43.0645070000" lon="-1.0904830000"><ele>1213</ele><time>2026-04-09T08:56:23Z</time></trkpt>
<trkpt lat="43.0644850000" lon="-1.0904900000"><ele>1213</ele><time>2026-04-09T08:56:26Z</time></trkpt>
<trkpt lat="43.0644650000" lon="-1.0904920000"><ele>1213</ele><time>2026-04-09T08:56:28Z</time></trkpt>
<trkpt lat="43.0644470000" lon="-1.0904950000"><ele>1213</ele><time>2026-04-09T08:56:30Z</time></trkpt>
<trkpt lat="43.0644270000" lon="-1.0905050000"><ele>1213</ele><time>2026-04-09T08:56:33Z</time></trkpt>
<trkpt lat="43.0644070000" lon="-1.0905100000"><ele>1214</ele><time>2026-04-09T08:56:36Z</time></trkpt>
<trkpt lat="43.0643800000" lon="-1.0905200000"><ele>1214</ele><time>2026-04-09T08:56:39Z</time></trkpt>
<trkpt lat="43.0643620000" lon="-1.0905250000"><ele>1214</ele><time>2026-04-09T08:56:41Z</time></trkpt>
<trkpt lat="43.0643270000" lon="-1.0905400000"><ele>1214</ele><time>2026-04-09T08:56:45Z</time></trkpt>
<trkpt lat="43.0643200000" lon="-1.0905450000"><ele>1214</ele><time>2026-04-09T08:56:46Z</time></trkpt>
<trkpt lat="43.0642970000" lon="-1.0905600000"><ele>1214</ele><time>2026-04-09T08:56:49Z</time></trkpt>
<trkpt lat="43.0642770000" lon="-1.0905700000"><ele>1214</ele><time>2026-04-09T08:56:52Z</time></trkpt>
<trkpt lat="43.0642550000" lon="-1.0905820000"><ele>1215</ele><time>2026-04-09T08:56:55Z</time></trkpt>
<trkpt lat="43.0642270000" lon="-1.0905970000"><ele>1215</ele><time>2026-04-09T08:56:59Z</time></trkpt>
<trkpt lat="43.0642170000" lon="-1.0906070000"><ele>1215</ele><time>2026-04-09T08:57:01Z</time></trkpt>
<trkpt lat="43.0642020000" lon="-1.0906220000"><ele>1216</ele><time>2026-04-09T08:57:04Z</time></trkpt>
<trkpt lat="43.0641800000" lon="-1.0906320000"><ele>1216</ele><time>2026-04-09T08:57:07Z</time></trkpt>
<trkpt lat="43.0641620000" lon="-1.0906470000"><ele>1217</ele><time>2026-04-09T08:57:12Z</time></trkpt>
<trkpt lat="43.0641470000" lon="-1.0906350000"><ele>1217</ele><time>2026-04-09T08:57:15Z</time></trkpt>
<trkpt lat="43.0641300000" lon="-1.0906420000"><ele>1218</ele><time>2026-04-09T08:57:20Z</time></trkpt>
<trkpt lat="43.0641000000" lon="-1.0906600000"><ele>1224</ele><time>2026-04-09T08:58:06Z</time></trkpt>
<trkpt lat="43.0640770000" lon="-1.0906620000"><ele>1225</ele><time>2026-04-09T08:58:07Z</time></trkpt>
<trkpt lat="43.0640500000" lon="-1.0906700000"><ele>1225</ele><time>2026-04-09T08:58:08Z</time></trkpt>
<trkpt lat="43.0640220000" lon="-1.0906750000"><ele>1225</ele><time>2026-04-09T08:58:09Z</time></trkpt>
<trkpt lat="43.0639970000" lon="-1.0906820000"><ele>1225</ele><time>2026-04-09T08:58:10Z</time></trkpt>
<trkpt lat="43.0639700000" lon="-1.0906870000"><ele>1225</ele><time>2026-04-09T08:58:12Z</time></trkpt>
<trkpt lat="43.0639620000" lon="-1.0906920000"><ele>1226</ele><time>2026-04-09T08:58:15Z</time></trkpt>
<trkpt lat="43.0639420000" lon="-1.0906950000"><ele>1226</ele><time>2026-04-09T08:58:20Z</time></trkpt>
<trkpt lat="43.0639220000" lon="-1.0906950000"><ele>1233</ele><time>2026-04-09T08:59:20Z</time></trkpt>
<trkpt lat="43.0638570000" lon="-1.0906920000"><ele>1233</ele><time>2026-04-09T08:59:22Z</time></trkpt>
<trkpt lat="43.0638220000" lon="-1.0906900000"><ele>1233</ele><time>2026-04-09T08:59:23Z</time></trkpt>
<trkpt lat="43.0637920000" lon="-1.0906870000"><ele>1234</ele><time>2026-04-09T08:59:24Z</time></trkpt>
<trkpt lat="43.0637720000" lon="-1.0906820000"><ele>1234</ele><time>2026-04-09T08:59:25Z</time></trkpt>
<trkpt lat="43.0637550000" lon="-1.0906800000"><ele>1234</ele><time>2026-04-09T08:59:27Z</time></trkpt>
<trkpt lat="43.0637320000" lon="-1.0906820000"><ele>1234</ele><time>2026-04-09T08:59:31Z</time></trkpt>
<trkpt lat="43.0637170000" lon="-1.0907020000"><ele>1235</ele><time>2026-04-09T08:59:36Z</time></trkpt>
<trkpt lat="43.0637050000" lon="-1.0907220000"><ele>1238</ele><time>2026-04-09T09:00:02Z</time></trkpt>
<trkpt lat="43.0636700000" lon="-1.0907450000"><ele>1238</ele><time>2026-04-09T09:00:04Z</time></trkpt>
<trkpt lat="43.0636500000" lon="-1.0907570000"><ele>1238</ele><time>2026-04-09T09:00:05Z</time></trkpt>
<trkpt lat="43.0636300000" lon="-1.0907670000"><ele>1238</ele><time>2026-04-09T09:00:06Z</time></trkpt>
<trkpt lat="43.0636020000" lon="-1.0907820000"><ele>1239</ele><time>2026-04-09T09:00:08Z</time></trkpt>
<trkpt lat="43.0635820000" lon="-1.0907850000"><ele>1239</ele><time>2026-04-09T09:00:10Z</time></trkpt>
<trkpt lat="43.0635620000" lon="-1.0907920000"><ele>1239</ele><time>2026-04-09T09:00:13Z</time></trkpt>
<trkpt lat="43.0635400000" lon="-1.0908070000"><ele>1240</ele><time>2026-04-09T09:00:17Z</time></trkpt>
<trkpt lat="43.0635100000" lon="-1.0908150000"><ele>1240</ele><time>2026-04-09T09:00:22Z</time></trkpt>
<trkpt lat="43.0634970000" lon="-1.0908170000"><ele>1241</ele><time>2026-04-09T09:00:24Z</time></trkpt>
<trkpt lat="43.0634730000" lon="-1.0908200000"><ele>1241</ele><time>2026-04-09T09:00:27Z</time></trkpt>
<trkpt lat="43.0634570000" lon="-1.0908150000"><ele>1242</ele><time>2026-04-09T09:00:54Z</time></trkpt>
<trkpt lat="43.0634370000" lon="-1.0908270000"><ele>1241</ele><time>2026-04-09T09:00:56Z</time></trkpt>
<trkpt lat="43.0634120000" lon="-1.0908470000"><ele>1241</ele><time>2026-04-09T09:00:58Z</time></trkpt>
<trkpt lat="43.0633820000" lon="-1.0908720000"><ele>1241</ele><time>2026-04-09T09:01:01Z</time></trkpt>
<trkpt lat="43.0633770000" lon="-1.0908820000"><ele>1241</ele><time>2026-04-09T09:01:02Z</time></trkpt>
<trkpt lat="43.0633570000" lon="-1.0909070000"><ele>1241</ele><time>2026-04-09T09:01:05Z</time></trkpt>
<trkpt lat="43.0633450000" lon="-1.0909370000"><ele>1240</ele><time>2026-04-09T09:01:08Z</time></trkpt>
<trkpt lat="43.0633320000" lon="-1.0909620000"><ele>1240</ele><time>2026-04-09T09:01:11Z</time></trkpt>
<trkpt lat="43.0633150000" lon="-1.0909820000"><ele>1239</ele><time>2026-04-09T09:01:14Z</time></trkpt>
<trkpt lat="43.0633020000" lon="-1.0910050000"><ele>1239</ele><time>2026-04-09T09:01:17Z</time></trkpt>
<trkpt lat="43.0632870000" lon="-1.0910200000"><ele>1238</ele><time>2026-04-09T09:01:19Z</time></trkpt>
<trkpt lat="43.0632720000" lon="-1.0910400000"><ele>1238</ele><time>2026-04-09T09:01:21Z</time></trkpt>
<trkpt lat="43.0632600000" lon="-1.0910570000"><ele>1238</ele><time>2026-04-09T09:01:23Z</time></trkpt>
<trkpt lat="43.0632450000" lon="-1.0910770000"><ele>1237</ele><time>2026-04-09T09:01:25Z</time></trkpt>
<trkpt lat="43.0632320000" lon="-1.0910950000"><ele>1237</ele><time>2026-04-09T09:01:27Z</time></trkpt>
<trkpt lat="43.0632220000" lon="-1.0911170000"><ele>1237</ele><time>2026-04-09T09:01:29Z</time></trkpt>
<trkpt lat="43.0632050000" lon="-1.0911400000"><ele>1236</ele><time>2026-04-09T09:01:32Z</time></trkpt>
<trkpt lat="43.0631920000" lon="-1.0911580000"><ele>1236</ele><time>2026-04-09T09:01:34Z</time></trkpt>
<trkpt lat="43.0631770000" lon="-1.0912020000"><ele>1236</ele><time>2026-04-09T09:01:38Z</time></trkpt>
<trkpt lat="43.0631700000" lon="-1.0912220000"><ele>1235</ele><time>2026-04-09T09:01:40Z</time></trkpt>
<trkpt lat="43.0631550000" lon="-1.0912500000"><ele>1235</ele><time>2026-04-09T09:01:43Z</time></trkpt>
<trkpt lat="43.0631370000" lon="-1.0912650000"><ele>1234</ele><time>2026-04-09T09:01:45Z</time></trkpt>
<trkpt lat="43.0631300000" lon="-1.0912900000"><ele>1234</ele><time>2026-04-09T09:01:47Z</time></trkpt>
<trkpt lat="43.0631170000" lon="-1.0913120000"><ele>1234</ele><time>2026-04-09T09:01:51Z</time></trkpt>
<trkpt lat="43.0631020000" lon="-1.0913450000"><ele>1235</ele><time>2026-04-09T09:02:10Z</time></trkpt>
<trkpt lat="43.0630820000" lon="-1.0913770000"><ele>1235</ele><time>2026-04-09T09:02:12Z</time></trkpt>
<trkpt lat="43.0630550000" lon="-1.0914200000"><ele>1235</ele><time>2026-04-09T09:02:15Z</time></trkpt>
<trkpt lat="43.0630500000" lon="-1.0914320000"><ele>1235</ele><time>2026-04-09T09:02:16Z</time></trkpt>
<trkpt lat="43.0630370000" lon="-1.0914550000"><ele>1236</ele><time>2026-04-09T09:02:18Z</time></trkpt>
<trkpt lat="43.0630220000" lon="-1.0914870000"><ele>1235</ele><time>2026-04-09T09:02:21Z</time></trkpt>
<trkpt lat="43.0630080000" lon="-1.0914970000"><ele>1236</ele><time>2026-04-09T09:02:23Z</time></trkpt>
<trkpt lat="43.0629950000" lon="-1.0915170000"><ele>1236</ele><time>2026-04-09T09:02:25Z</time></trkpt>
<trkpt lat="43.0629800000" lon="-1.0915370000"><ele>1236</ele><time>2026-04-09T09:02:28Z</time></trkpt>
<trkpt lat="43.0629620000" lon="-1.0915670000"><ele>1236</ele><time>2026-04-09T09:02:31Z</time></trkpt>
<trkpt lat="43.0629470000" lon="-1.0915970000"><ele>1236</ele><time>2026-04-09T09:02:34Z</time></trkpt>
<trkpt lat="43.0629320000" lon="-1.0916200000"><ele>1236</ele><time>2026-04-09T09:02:37Z</time></trkpt>
<trkpt lat="43.0629120000" lon="-1.0916320000"><ele>1236</ele><time>2026-04-09T09:02:42Z</time></trkpt>
<trkpt lat="43.0628970000" lon="-1.0916520000"><ele>1237</ele><time>2026-04-09T09:02:45Z</time></trkpt>
<trkpt lat="43.0628820000" lon="-1.0916770000"><ele>1237</ele><time>2026-04-09T09:02:48Z</time></trkpt>
<trkpt lat="43.0628750000" lon="-1.0917020000"><ele>1237</ele><time>2026-04-09T09:02:51Z</time></trkpt>
<trkpt lat="43.0628600000" lon="-1.0917220000"><ele>1238</ele><time>2026-04-09T09:02:54Z</time></trkpt>
<trkpt lat="43.0628370000" lon="-1.0917380000"><ele>1238</ele><time>2026-04-09T09:02:57Z</time></trkpt>
<trkpt lat="43.0628220000" lon="-1.0917520000"><ele>1238</ele><time>2026-04-09T09:03:00Z</time></trkpt>
<trkpt lat="43.0627870000" lon="-1.0917750000"><ele>1239</ele><time>2026-04-09T09:03:04Z</time></trkpt>
<trkpt lat="43.0627750000" lon="-1.0917850000"><ele>1239</ele><time>2026-04-09T09:03:06Z</time></trkpt>
<trkpt lat="43.0627620000" lon="-1.0918070000"><ele>1239</ele><time>2026-04-09T09:03:10Z</time></trkpt>
<trkpt lat="43.0627420000" lon="-1.0918070000"><ele>1238</ele><time>2026-04-09T09:03:13Z</time></trkpt>
<trkpt lat="43.0627220000" lon="-1.0918120000"><ele>1238</ele><time>2026-04-09T09:03:15Z</time></trkpt>
<trkpt lat="43.0627020000" lon="-1.0918220000"><ele>1238</ele><time>2026-04-09T09:03:18Z</time></trkpt>
<trkpt lat="43.0626820000" lon="-1.0918420000"><ele>1238</ele><time>2026-04-09T09:03:24Z</time></trkpt>
<trkpt lat="43.0626720000" lon="-1.0918700000"><ele>1235</ele><time>2026-04-09T09:03:45Z</time></trkpt>
<trkpt lat="43.0626600000" lon="-1.0919070000"><ele>1235</ele><time>2026-04-09T09:03:47Z</time></trkpt>
<trkpt lat="43.0626470000" lon="-1.0919520000"><ele>1234</ele><time>2026-04-09T09:03:49Z</time></trkpt>
<trkpt lat="43.0626450000" lon="-1.0919870000"><ele>1234</ele><time>2026-04-09T09:03:51Z</time></trkpt>
<trkpt lat="43.0626470000" lon="-1.0920120000"><ele>1234</ele><time>2026-04-09T09:03:53Z</time></trkpt>
<trkpt lat="43.0626470000" lon="-1.0920520000"><ele>1234</ele><time>2026-04-09T09:03:57Z</time></trkpt>
<trkpt lat="43.0626400000" lon="-1.0920670000"><ele>1234</ele><time>2026-04-09T09:03:59Z</time></trkpt>
<trkpt lat="43.0626320000" lon="-1.0921000000"><ele>1234</ele><time>2026-04-09T09:04:02Z</time></trkpt>
<trkpt lat="43.0626220000" lon="-1.0921300000"><ele>1234</ele><time>2026-04-09T09:04:05Z</time></trkpt>
<trkpt lat="43.0626120000" lon="-1.0921520000"><ele>1235</ele><time>2026-04-09T09:04:08Z</time></trkpt>
<trkpt lat="43.0625970000" lon="-1.0921700000"><ele>1235</ele><time>2026-04-09T09:04:11Z</time></trkpt>
<trkpt lat="43.0625800000" lon="-1.0921870000"><ele>1236</ele><time>2026-04-09T09:04:16Z</time></trkpt>
<trkpt lat="43.0625670000" lon="-1.0922070000"><ele>1237</ele><time>2026-04-09T09:04:20Z</time></trkpt>
<trkpt lat="43.0625450000" lon="-1.0922020000"><ele>1239</ele><time>2026-04-09T09:04:27Z</time></trkpt>
<trkpt lat="43.0625270000" lon="-1.0922170000"><ele>1239</ele><time>2026-04-09T09:04:30Z</time></trkpt>
<trkpt lat="43.0625200000" lon="-1.0922470000"><ele>1239</ele><time>2026-04-09T09:04:33Z</time></trkpt>
<trkpt lat="43.0625070000" lon="-1.0922650000"><ele>1240</ele><time>2026-04-09T09:04:37Z</time></trkpt>
<trkpt lat="43.0624970000" lon="-1.0922900000"><ele>1241</ele><time>2026-04-09T09:04:41Z</time></trkpt>
<trkpt lat="43.0625070000" lon="-1.0923170000"><ele>1242</ele><time>2026-04-09T09:04:45Z</time></trkpt>
<trkpt lat="43.0625150000" lon="-1.0923420000"><ele>1243</ele><time>2026-04-09T09:04:50Z</time></trkpt>
<trkpt lat="43.0625170000" lon="-1.0923670000"><ele>1249</ele><time>2026-04-09T09:05:41Z</time></trkpt>
<trkpt lat="43.0625170000" lon="-1.0924220000"><ele>1249</ele><time>2026-04-09T09:05:44Z</time></trkpt>
<trkpt lat="43.0625170000" lon="-1.0924450000"><ele>1249</ele><time>2026-04-09T09:05:45Z</time></trkpt>
<trkpt lat="43.0625220000" lon="-1.0924770000"><ele>1249</ele><time>2026-04-09T09:05:47Z</time></trkpt>
<trkpt lat="43.0625220000" lon="-1.0925020000"><ele>1250</ele><time>2026-04-09T09:05:51Z</time></trkpt>
<trkpt lat="43.0625000000" lon="-1.0925120000"><ele>1252</ele><time>2026-04-09T09:06:55Z</time></trkpt>
<trkpt lat="43.0624800000" lon="-1.0925120000"><ele>1252</ele><time>2026-04-09T09:06:56Z</time></trkpt>
<trkpt lat="43.0624570000" lon="-1.0925150000"><ele>1252</ele><time>2026-04-09T09:06:57Z</time></trkpt>
<trkpt lat="43.0624320000" lon="-1.0925070000"><ele>1251</ele><time>2026-04-09T09:06:59Z</time></trkpt>
<trkpt lat="43.0624220000" lon="-1.0924770000"><ele>1251</ele><time>2026-04-09T09:07:04Z</time></trkpt>
<trkpt lat="43.0624350000" lon="-1.0925050000"><ele>1250</ele><time>2026-04-09T09:08:03Z</time></trkpt>
<trkpt lat="43.0624070000" lon="-1.0925200000"><ele>1252</ele><time>2026-04-09T09:11:58Z</time></trkpt>
<trkpt lat="43.0623770000" lon="-1.0925400000"><ele>1252</ele><time>2026-04-09T09:12:00Z</time></trkpt>
<trkpt lat="43.0623570000" lon="-1.0925620000"><ele>1251</ele><time>2026-04-09T09:12:02Z</time></trkpt>
<trkpt lat="43.0623420000" lon="-1.0925880000"><ele>1251</ele><time>2026-04-09T09:12:10Z</time></trkpt>
<trkpt lat="43.0623320000" lon="-1.0926200000"><ele>1251</ele><time>2026-04-09T09:12:13Z</time></trkpt>
<trkpt lat="43.0623100000" lon="-1.0926420000"><ele>1251</ele><time>2026-04-09T09:12:21Z</time></trkpt>
<trkpt lat="43.0622820000" lon="-1.0926470000"><ele>1251</ele><time>2026-04-09T09:12:23Z</time></trkpt>
<trkpt lat="43.0622520000" lon="-1.0926550000"><ele>1251</ele><time>2026-04-09T09:12:25Z</time></trkpt>
<trkpt lat="43.0622320000" lon="-1.0926620000"><ele>1250</ele><time>2026-04-09T09:12:27Z</time></trkpt>
<trkpt lat="43.0622170000" lon="-1.0926820000"><ele>1250</ele><time>2026-04-09T09:12:29Z</time></trkpt>
<trkpt lat="43.0622150000" lon="-1.0927170000"><ele>1250</ele><time>2026-04-09T09:12:32Z</time></trkpt>
<trkpt lat="43.0622020000" lon="-1.0927420000"><ele>1250</ele><time>2026-04-09T09:12:35Z</time></trkpt>
<trkpt lat="43.0621970000" lon="-1.0927670000"><ele>1251</ele><time>2026-04-09T09:12:38Z</time></trkpt>
<trkpt lat="43.0621820000" lon="-1.0927870000"><ele>1251</ele><time>2026-04-09T09:12:58Z</time></trkpt>
<trkpt lat="43.0621620000" lon="-1.0928020000"><ele>1251</ele><time>2026-04-09T09:13:00Z</time></trkpt>
<trkpt lat="43.0621400000" lon="-1.0928180000"><ele>1251</ele><time>2026-04-09T09:13:03Z</time></trkpt>
<trkpt lat="43.0621220000" lon="-1.0928170000"><ele>1251</ele><time>2026-04-09T09:13:06Z</time></trkpt>
<trkpt lat="43.0620970000" lon="-1.0928020000"><ele>1250</ele><time>2026-04-09T09:13:09Z</time></trkpt>
<trkpt lat="43.0620800000" lon="-1.0927920000"><ele>1249</ele><time>2026-04-09T09:13:11Z</time></trkpt>
<trkpt lat="43.0620570000" lon="-1.0927900000"><ele>1249</ele><time>2026-04-09T09:13:14Z</time></trkpt>
<trkpt lat="43.0620370000" lon="-1.0927920000"><ele>1248</ele><time>2026-04-09T09:13:17Z</time></trkpt>
<trkpt lat="43.0620120000" lon="-1.0927900000"><ele>1247</ele><time>2026-04-09T09:13:20Z</time></trkpt>
<trkpt lat="43.0619920000" lon="-1.0927820000"><ele>1247</ele><time>2026-04-09T09:13:22Z</time></trkpt>
<trkpt lat="43.0619720000" lon="-1.0927920000"><ele>1246</ele><time>2026-04-09T09:13:24Z</time></trkpt>
<trkpt lat="43.0619620000" lon="-1.0928170000"><ele>1246</ele><time>2026-04-09T09:13:26Z</time></trkpt>
<trkpt lat="43.0619530000" lon="-1.0928420000"><ele>1245</ele><time>2026-04-09T09:13:30Z</time></trkpt>
<trkpt lat="43.0619300000" lon="-1.0928500000"><ele>1245</ele><time>2026-04-09T09:13:33Z</time></trkpt>
<trkpt lat="43.0619120000" lon="-1.0928670000"><ele>1244</ele><time>2026-04-09T09:13:35Z</time></trkpt>
<trkpt lat="43.0618970000" lon="-1.0928900000"><ele>1244</ele><time>2026-04-09T09:13:37Z</time></trkpt>
<trkpt lat="43.0618870000" lon="-1.0929150000"><ele>1244</ele><time>2026-04-09T09:13:39Z</time></trkpt>
<trkpt lat="43.0618830000" lon="-1.0929400000"><ele>1244</ele><time>2026-04-09T09:13:41Z</time></trkpt>
<trkpt lat="43.0618830000" lon="-1.0929670000"><ele>1244</ele><time>2026-04-09T09:13:53Z</time></trkpt>
<trkpt lat="43.0618670000" lon="-1.0929930000"><ele>1244</ele><time>2026-04-09T09:13:56Z</time></trkpt>
<trkpt lat="43.0618450000" lon="-1.0930070000"><ele>1244</ele><time>2026-04-09T09:13:58Z</time></trkpt>
<trkpt lat="43.0618220000" lon="-1.0930120000"><ele>1245</ele><time>2026-04-09T09:14:00Z</time></trkpt>
<trkpt lat="43.0617980000" lon="-1.0930200000"><ele>1245</ele><time>2026-04-09T09:14:03Z</time></trkpt>
<trkpt lat="43.0617820000" lon="-1.0930300000"><ele>1245</ele><time>2026-04-09T09:14:06Z</time></trkpt>
<trkpt lat="43.0617670000" lon="-1.0930420000"><ele>1246</ele><time>2026-04-09T09:14:08Z</time></trkpt>
<trkpt lat="43.0617420000" lon="-1.0930550000"><ele>1246</ele><time>2026-04-09T09:14:11Z</time></trkpt>
<trkpt lat="43.0617220000" lon="-1.0930720000"><ele>1246</ele><time>2026-04-09T09:14:14Z</time></trkpt>
<trkpt lat="43.0616970000" lon="-1.0930870000"><ele>1246</ele><time>2026-04-09T09:14:17Z</time></trkpt>
<trkpt lat="43.0616800000" lon="-1.0931050000"><ele>1247</ele><time>2026-04-09T09:14:19Z</time></trkpt>
<trkpt lat="43.0616650000" lon="-1.0931250000"><ele>1247</ele><time>2026-04-09T09:14:21Z</time></trkpt>
<trkpt lat="43.0616520000" lon="-1.0931450000"><ele>1247</ele><time>2026-04-09T09:14:23Z</time></trkpt>
<trkpt lat="43.0616370000" lon="-1.0931650000"><ele>1247</ele><time>2026-04-09T09:14:26Z</time></trkpt>
<trkpt lat="43.0616370000" lon="-1.0931900000"><ele>1248</ele><time>2026-04-09T09:14:29Z</time></trkpt>
<trkpt lat="43.0616420000" lon="-1.0932170000"><ele>1248</ele><time>2026-04-09T09:14:33Z</time></trkpt>
<trkpt lat="43.0616450000" lon="-1.0932450000"><ele>1249</ele><time>2026-04-09T09:14:38Z</time></trkpt>
<trkpt lat="43.0616270000" lon="-1.0932370000"><ele>1250</ele><time>2026-04-09T09:15:35Z</time></trkpt>
<trkpt lat="43.0616100000" lon="-1.0932220000"><ele>1250</ele><time>2026-04-09T09:15:37Z</time></trkpt>
<trkpt lat="43.0615870000" lon="-1.0932120000"><ele>1250</ele><time>2026-04-09T09:15:40Z</time></trkpt>
<trkpt lat="43.0615720000" lon="-1.0931920000"><ele>1250</ele><time>2026-04-09T09:15:45Z</time></trkpt>
<trkpt lat="43.0615450000" lon="-1.0932050000"><ele>1249</ele><time>2026-04-09T09:15:48Z</time></trkpt>
<trkpt lat="43.0615250000" lon="-1.0932120000"><ele>1249</ele><time>2026-04-09T09:15:50Z</time></trkpt>
<trkpt lat="43.0615120000" lon="-1.0932300000"><ele>1249</ele><time>2026-04-09T09:15:52Z</time></trkpt>
<trkpt lat="43.0614970000" lon="-1.0932470000"><ele>1249</ele><time>2026-04-09T09:15:54Z</time></trkpt>
<trkpt lat="43.0614750000" lon="-1.0932620000"><ele>1249</ele><time>2026-04-09T09:15:57Z</time></trkpt>
<trkpt lat="43.0614520000" lon="-1.0932750000"><ele>1248</ele><time>2026-04-09T09:16:00Z</time></trkpt>
<trkpt lat="43.0614350000" lon="-1.0933020000"><ele>1248</ele><time>2026-04-09T09:16:03Z</time></trkpt>
<trkpt lat="43.0614320000" lon="-1.0933270000"><ele>1248</ele><time>2026-04-09T09:16:06Z</time></trkpt>
<trkpt lat="43.0614180000" lon="-1.0933420000"><ele>1248</ele><time>2026-04-09T09:16:09Z</time></trkpt>
<trkpt lat="43.0613970000" lon="-1.0933450000"><ele>1248</ele><time>2026-04-09T09:16:12Z</time></trkpt>
<trkpt lat="43.0613720000" lon="-1.0933520000"><ele>1247</ele><time>2026-04-09T09:16:15Z</time></trkpt>
<trkpt lat="43.0613520000" lon="-1.0933570000"><ele>1247</ele><time>2026-04-09T09:16:17Z</time></trkpt>
<trkpt lat="43.0613350000" lon="-1.0933620000"><ele>1247</ele><time>2026-04-09T09:16:19Z</time></trkpt>
<trkpt lat="43.0613150000" lon="-1.0933750000"><ele>1246</ele><time>2026-04-09T09:16:21Z</time></trkpt>
<trkpt lat="43.0612950000" lon="-1.0933800000"><ele>1246</ele><time>2026-04-09T09:16:23Z</time></trkpt>
<trkpt lat="43.0612770000" lon="-1.0933720000"><ele>1246</ele><time>2026-04-09T09:16:25Z</time></trkpt>
<trkpt lat="43.0612570000" lon="-1.0933720000"><ele>1246</ele><time>2026-04-09T09:16:27Z</time></trkpt>
<trkpt lat="43.0612400000" lon="-1.0933670000"><ele>1246</ele><time>2026-04-09T09:16:29Z</time></trkpt>
<trkpt lat="43.0612150000" lon="-1.0933750000"><ele>1245</ele><time>2026-04-09T09:16:32Z</time></trkpt>
<trkpt lat="43.0611930000" lon="-1.0933750000"><ele>1245</ele><time>2026-04-09T09:16:35Z</time></trkpt>
<trkpt lat="43.0611750000" lon="-1.0933720000"><ele>1245</ele><time>2026-04-09T09:16:37Z</time></trkpt>
<trkpt lat="43.0611550000" lon="-1.0933700000"><ele>1244</ele><time>2026-04-09T09:16:39Z</time></trkpt>
<trkpt lat="43.0611320000" lon="-1.0933720000"><ele>1244</ele><time>2026-04-09T09:16:42Z</time></trkpt>
<trkpt lat="43.0611120000" lon="-1.0933770000"><ele>1244</ele><time>2026-04-09T09:16:44Z</time></trkpt>
<trkpt lat="43.0610870000" lon="-1.0933870000"><ele>1243</ele><time>2026-04-09T09:16:47Z</time></trkpt>
<trkpt lat="43.0610670000" lon="-1.0933800000"><ele>1243</ele><time>2026-04-09T09:16:50Z</time></trkpt>
<trkpt lat="43.0610500000" lon="-1.0933770000"><ele>1242</ele><time>2026-04-09T09:16:54Z</time></trkpt>
<trkpt lat="43.0610270000" lon="-1.0933670000"><ele>1242</ele><time>2026-04-09T09:16:58Z</time></trkpt>
<trkpt lat="43.0610020000" lon="-1.0933620000"><ele>1242</ele><time>2026-04-09T09:17:01Z</time></trkpt>
<trkpt lat="43.0609770000" lon="-1.0933600000"><ele>1242</ele><time>2026-04-09T09:17:04Z</time></trkpt>
<trkpt lat="43.0609570000" lon="-1.0933520000"><ele>1241</ele><time>2026-04-09T09:17:08Z</time></trkpt>
<trkpt lat="43.0609320000" lon="-1.0933420000"><ele>1241</ele><time>2026-04-09T09:17:11Z</time></trkpt>
<trkpt lat="43.0609120000" lon="-1.0933420000"><ele>1240</ele><time>2026-04-09T09:17:14Z</time></trkpt>
<trkpt lat="43.0608920000" lon="-1.0933470000"><ele>1240</ele><time>2026-04-09T09:17:16Z</time></trkpt>
<trkpt lat="43.0608700000" lon="-1.0933520000"><ele>1240</ele><time>2026-04-09T09:17:18Z</time></trkpt>
<trkpt lat="43.0608520000" lon="-1.0933550000"><ele>1239</ele><time>2026-04-09T09:17:20Z</time></trkpt>
<trkpt lat="43.0608320000" lon="-1.0933570000"><ele>1239</ele><time>2026-04-09T09:17:22Z</time></trkpt>
<trkpt lat="43.0608120000" lon="-1.0933570000"><ele>1239</ele><time>2026-04-09T09:17:24Z</time></trkpt>
<trkpt lat="43.0607970000" lon="-1.0933450000"><ele>1239</ele><time>2026-04-09T09:17:26Z</time></trkpt>
<trkpt lat="43.0607820000" lon="-1.0933270000"><ele>1239</ele><time>2026-04-09T09:18:03Z</time></trkpt>
<trkpt lat="43.0607570000" lon="-1.0933200000"><ele>1239</ele><time>2026-04-09T09:18:05Z</time></trkpt>
<trkpt lat="43.0607270000" lon="-1.0933120000"><ele>1239</ele><time>2026-04-09T09:18:07Z</time></trkpt>
<trkpt lat="43.0607050000" lon="-1.0933150000"><ele>1239</ele><time>2026-04-09T09:18:09Z</time></trkpt>
<trkpt lat="43.0606850000" lon="-1.0933150000"><ele>1239</ele><time>2026-04-09T09:18:12Z</time></trkpt>
<trkpt lat="43.0606650000" lon="-1.0933070000"><ele>1239</ele><time>2026-04-09T09:18:15Z</time></trkpt>
<trkpt lat="43.0606420000" lon="-1.0933000000"><ele>1240</ele><time>2026-04-09T09:18:19Z</time></trkpt>
<trkpt lat="43.0606220000" lon="-1.0933220000"><ele>1241</ele><time>2026-04-09T09:18:23Z</time></trkpt>
<trkpt lat="43.0606020000" lon="-1.0933400000"><ele>1241</ele><time>2026-04-09T09:18:26Z</time></trkpt>
<trkpt lat="43.0605820000" lon="-1.0933500000"><ele>1242</ele><time>2026-04-09T09:18:29Z</time></trkpt>
<trkpt lat="43.0605620000" lon="-1.0933450000"><ele>1242</ele><time>2026-04-09T09:18:34Z</time></trkpt>
<trkpt lat="43.0605450000" lon="-1.0933370000"><ele>1243</ele><time>2026-04-09T09:18:38Z</time></trkpt>
<trkpt lat="43.0605320000" lon="-1.0933620000"><ele>1244</ele><time>2026-04-09T09:18:44Z</time></trkpt>
<trkpt lat="43.0605220000" lon="-1.0933970000"><ele>1250</ele><time>2026-04-09T09:19:36Z</time></trkpt>
<trkpt lat="43.0605050000" lon="-1.0934170000"><ele>1250</ele><time>2026-04-09T09:19:37Z</time></trkpt>
<trkpt lat="43.0604820000" lon="-1.0934420000"><ele>1250</ele><time>2026-04-09T09:19:38Z</time></trkpt>
<trkpt lat="43.0604600000" lon="-1.0934700000"><ele>1250</ele><time>2026-04-09T09:19:39Z</time></trkpt>
<trkpt lat="43.0604450000" lon="-1.0934970000"><ele>1250</ele><time>2026-04-09T09:19:40Z</time></trkpt>
<trkpt lat="43.0604400000" lon="-1.0935220000"><ele>1251</ele><time>2026-04-09T09:19:42Z</time></trkpt>
<trkpt lat="43.0604170000" lon="-1.0934920000"><ele>1251</ele><time>2026-04-09T09:20:53Z</time></trkpt>
<trkpt lat="43.0604050000" lon="-1.0934650000"><ele>1250</ele><time>2026-04-09T09:20:56Z</time></trkpt>
<trkpt lat="43.0603970000" lon="-1.0934420000"><ele>1250</ele><time>2026-04-09T09:20:58Z</time></trkpt>
<trkpt lat="43.0603870000" lon="-1.0934170000"><ele>1249</ele><time>2026-04-09T09:21:00Z</time></trkpt>
<trkpt lat="43.0603850000" lon="-1.0933850000"><ele>1250</ele><time>2026-04-09T09:21:31Z</time></trkpt>
<trkpt lat="43.0603770000" lon="-1.0933500000"><ele>1250</ele><time>2026-04-09T09:21:33Z</time></trkpt>
<trkpt lat="43.0603570000" lon="-1.0933100000"><ele>1253</ele><time>2026-04-09T09:22:04Z</time></trkpt>
<trkpt lat="43.0603200000" lon="-1.0932420000"><ele>1253</ele><time>2026-04-09T09:22:06Z</time></trkpt>
<trkpt lat="43.0602900000" lon="-1.0931900000"><ele>1254</ele><time>2026-04-09T09:22:08Z</time></trkpt>
<trkpt lat="43.0602770000" lon="-1.0931550000"><ele>1254</ele><time>2026-04-09T09:22:10Z</time></trkpt>
<trkpt lat="43.0602720000" lon="-1.0931170000"><ele>1255</ele><time>2026-04-09T09:22:14Z</time></trkpt>
<trkpt lat="43.0602770000" lon="-1.0930920000"><ele>1255</ele><time>2026-04-09T09:22:18Z</time></trkpt>
<trkpt lat="43.0602870000" lon="-1.0930720000"><ele>1256</ele><time>2026-04-09T09:22:22Z</time></trkpt>
<trkpt lat="43.0602920000" lon="-1.0930450000"><ele>1256</ele><time>2026-04-09T09:22:26Z</time></trkpt>
<trkpt lat="43.0602720000" lon="-1.0930220000"><ele>1257</ele><time>2026-04-09T09:22:30Z</time></trkpt>
<trkpt lat="43.0602520000" lon="-1.0930220000"><ele>1258</ele><time>2026-04-09T09:22:34Z</time></trkpt>
<trkpt lat="43.0602400000" lon="-1.0930220000"><ele>1258</ele><time>2026-04-09T09:22:36Z</time></trkpt>
<trkpt lat="43.0602270000" lon="-1.0929920000"><ele>1261</ele><time>2026-04-09T09:23:04Z</time></trkpt>
<trkpt lat="43.0602170000" lon="-1.0929700000"><ele>1261</ele><time>2026-04-09T09:23:05Z</time></trkpt>
<trkpt lat="43.0601950000" lon="-1.0929370000"><ele>1261</ele><time>2026-04-09T09:23:07Z</time></trkpt>
<trkpt lat="43.0601770000" lon="-1.0929320000"><ele>1261</ele><time>2026-04-09T09:23:09Z</time></trkpt>
<trkpt lat="43.0601650000" lon="-1.0929350000"><ele>1261</ele><time>2026-04-09T09:23:11Z</time></trkpt>
<trkpt lat="43.0601450000" lon="-1.0929370000"><ele>1261</ele><time>2026-04-09T09:23:14Z</time></trkpt>
<trkpt lat="43.0601170000" lon="-1.0929170000"><ele>1262</ele><time>2026-04-09T09:23:18Z</time></trkpt>
<trkpt lat="43.0600920000" lon="-1.0929120000"><ele>1262</ele><time>2026-04-09T09:23:22Z</time></trkpt>
<trkpt lat="43.0600770000" lon="-1.0928950000"><ele>1262</ele><time>2026-04-09T09:23:25Z</time></trkpt>
<trkpt lat="43.0600620000" lon="-1.0928820000"><ele>1262</ele><time>2026-04-09T09:23:27Z</time></trkpt>
<trkpt lat="43.0600420000" lon="-1.0928620000"><ele>1262</ele><time>2026-04-09T09:23:29Z</time></trkpt>
<trkpt lat="43.0600200000" lon="-1.0928470000"><ele>1262</ele><time>2026-04-09T09:23:31Z</time></trkpt>
<trkpt lat="43.0600000000" lon="-1.0928320000"><ele>1261</ele><time>2026-04-09T09:23:33Z</time></trkpt>
<trkpt lat="43.0599750000" lon="-1.0928070000"><ele>1261</ele><time>2026-04-09T09:23:37Z</time></trkpt>
<trkpt lat="43.0599600000" lon="-1.0927770000"><ele>1261</ele><time>2026-04-09T09:23:41Z</time></trkpt>
<trkpt lat="43.0599370000" lon="-1.0927720000"><ele>1262</ele><time>2026-04-09T09:23:45Z</time></trkpt>
<trkpt lat="43.0599250000" lon="-1.0927650000"><ele>1262</ele><time>2026-04-09T09:23:47Z</time></trkpt>
<trkpt lat="43.0599120000" lon="-1.0927400000"><ele>1262</ele><time>2026-04-09T09:23:51Z</time></trkpt>
<trkpt lat="43.0598950000" lon="-1.0927120000"><ele>1263</ele><time>2026-04-09T09:23:55Z</time></trkpt>
<trkpt lat="43.0598870000" lon="-1.0926870000"><ele>1263</ele><time>2026-04-09T09:23:57Z</time></trkpt>
<trkpt lat="43.0598620000" lon="-1.0926600000"><ele>1264</ele><time>2026-04-09T09:24:01Z</time></trkpt>
<trkpt lat="43.0598470000" lon="-1.0926470000"><ele>1264</ele><time>2026-04-09T09:24:03Z</time></trkpt>
<trkpt lat="43.0598350000" lon="-1.0926400000"><ele>1264</ele><time>2026-04-09T09:24:05Z</time></trkpt>
<trkpt lat="43.0598070000" lon="-1.0926120000"><ele>1264</ele><time>2026-04-09T09:24:09Z</time></trkpt>
<trkpt lat="43.0597950000" lon="-1.0926000000"><ele>1264</ele><time>2026-04-09T09:24:11Z</time></trkpt>
<trkpt lat="43.0597870000" lon="-1.0925870000"><ele>1264</ele><time>2026-04-09T09:24:13Z</time></trkpt>
<trkpt lat="43.0597720000" lon="-1.0925570000"><ele>1264</ele><time>2026-04-09T09:24:17Z</time></trkpt>
<trkpt lat="43.0597580000" lon="-1.0925450000"><ele>1264</ele><time>2026-04-09T09:24:19Z</time></trkpt>
<trkpt lat="43.0597320000" lon="-1.0925320000"><ele>1264</ele><time>2026-04-09T09:24:23Z</time></trkpt>
<trkpt lat="43.0597220000" lon="-1.0925170000"><ele>1265</ele><time>2026-04-09T09:24:25Z</time></trkpt>
<trkpt lat="43.0597000000" lon="-1.0924900000"><ele>1265</ele><time>2026-04-09T09:24:29Z</time></trkpt>
<trkpt lat="43.0596870000" lon="-1.0924770000"><ele>1265</ele><time>2026-04-09T09:24:31Z</time></trkpt>
<trkpt lat="43.0596670000" lon="-1.0924370000"><ele>1265</ele><time>2026-04-09T09:24:35Z</time></trkpt>
<trkpt lat="43.0596570000" lon="-1.0924220000"><ele>1265</ele><time>2026-04-09T09:24:37Z</time></trkpt>
<trkpt lat="43.0596470000" lon="-1.0923920000"><ele>1266</ele><time>2026-04-09T09:24:41Z</time></trkpt>
<trkpt lat="43.0596400000" lon="-1.0923570000"><ele>1266</ele><time>2026-04-09T09:24:45Z</time></trkpt>
<trkpt lat="43.0596270000" lon="-1.0923400000"><ele>1267</ele><time>2026-04-09T09:24:49Z</time></trkpt>
<trkpt lat="43.0596100000" lon="-1.0923220000"><ele>1267</ele><time>2026-04-09T09:24:55Z</time></trkpt>
<trkpt lat="43.0596020000" lon="-1.0923020000"><ele>1268</ele><time>2026-04-09T09:24:59Z</time></trkpt>
<trkpt lat="43.0595970000" lon="-1.0922750000"><ele>1269</ele><time>2026-04-09T09:25:03Z</time></trkpt>
<trkpt lat="43.0595950000" lon="-1.0921900000"><ele>1276</ele><time>2026-04-09T09:25:55Z</time></trkpt>
<trkpt lat="43.0595820000" lon="-1.0920820000"><ele>1276</ele><time>2026-04-09T09:25:57Z</time></trkpt>
<trkpt lat="43.0595620000" lon="-1.0920200000"><ele>1277</ele><time>2026-04-09T09:25:59Z</time></trkpt>
<trkpt lat="43.0595470000" lon="-1.0920020000"><ele>1277</ele><time>2026-04-09T09:26:01Z</time></trkpt>
<trkpt lat="43.0595220000" lon="-1.0919670000"><ele>1286</ele><time>2026-04-09T09:27:07Z</time></trkpt>
<trkpt lat="43.0594970000" lon="-1.0918570000"><ele>1286</ele><time>2026-04-09T09:27:09Z</time></trkpt>
<trkpt lat="43.0594850000" lon="-1.0917970000"><ele>1286</ele><time>2026-04-09T09:27:10Z</time></trkpt>
<trkpt lat="43.0594750000" lon="-1.0917450000"><ele>1287</ele><time>2026-04-09T09:27:11Z</time></trkpt>
<trkpt lat="43.0594670000" lon="-1.0916920000"><ele>1287</ele><time>2026-04-09T09:27:13Z</time></trkpt>
<trkpt lat="43.0594620000" lon="-1.0916670000"><ele>1290</ele><time>2026-04-09T09:28:33Z</time></trkpt>
<trkpt lat="43.0594520000" lon="-1.0916270000"><ele>1290</ele><time>2026-04-09T09:28:34Z</time></trkpt>
<trkpt lat="43.0594400000" lon="-1.0915820000"><ele>1291</ele><time>2026-04-09T09:28:35Z</time></trkpt>
<trkpt lat="43.0594070000" lon="-1.0914970000"><ele>1291</ele><time>2026-04-09T09:28:37Z</time></trkpt>
<trkpt lat="43.0593770000" lon="-1.0914600000"><ele>1291</ele><time>2026-04-09T09:28:39Z</time></trkpt>
<trkpt lat="43.0593520000" lon="-1.0914520000"><ele>1291</ele><time>2026-04-09T09:28:41Z</time></trkpt>
<trkpt lat="43.0593370000" lon="-1.0914470000"><ele>1291</ele><time>2026-04-09T09:28:43Z</time></trkpt>
<trkpt lat="43.0593200000" lon="-1.0914370000"><ele>1292</ele><time>2026-04-09T09:28:47Z</time></trkpt>
<trkpt lat="43.0593000000" lon="-1.0914270000"><ele>1292</ele><time>2026-04-09T09:28:51Z</time></trkpt>
<trkpt lat="43.0592850000" lon="-1.0914170000"><ele>1293</ele><time>2026-04-09T09:28:54Z</time></trkpt>
<trkpt lat="43.0592670000" lon="-1.0914070000"><ele>1293</ele><time>2026-04-09T09:28:57Z</time></trkpt>
<trkpt lat="43.0592420000" lon="-1.0913950000"><ele>1294</ele><time>2026-04-09T09:29:01Z</time></trkpt>
<trkpt lat="43.0592320000" lon="-1.0913870000"><ele>1294</ele><time>2026-04-09T09:29:03Z</time></trkpt>
<trkpt lat="43.0592150000" lon="-1.0913770000"><ele>1294</ele><time>2026-04-09T09:29:06Z</time></trkpt>
<trkpt lat="43.0591970000" lon="-1.0913620000"><ele>1295</ele><time>2026-04-09T09:29:09Z</time></trkpt>
<trkpt lat="43.0591770000" lon="-1.0913370000"><ele>1295</ele><time>2026-04-09T09:29:12Z</time></trkpt>
<trkpt lat="43.0591570000" lon="-1.0913220000"><ele>1296</ele><time>2026-04-09T09:29:15Z</time></trkpt>
<trkpt lat="43.0591270000" lon="-1.0913120000"><ele>1296</ele><time>2026-04-09T09:29:19Z</time></trkpt>
<trkpt lat="43.0591150000" lon="-1.0913070000"><ele>1296</ele><time>2026-04-09T09:29:21Z</time></trkpt>
<trkpt lat="43.0590920000" lon="-1.0913020000"><ele>1296</ele><time>2026-04-09T09:29:24Z</time></trkpt>
<trkpt lat="43.0590720000" lon="-1.0912870000"><ele>1296</ele><time>2026-04-09T09:29:27Z</time></trkpt>
<trkpt lat="43.0590470000" lon="-1.0912750000"><ele>1296</ele><time>2026-04-09T09:29:31Z</time></trkpt>
<trkpt lat="43.0590270000" lon="-1.0912600000"><ele>1296</ele><time>2026-04-09T09:29:35Z</time></trkpt>
<trkpt lat="43.0590070000" lon="-1.0912650000"><ele>1296</ele><time>2026-04-09T09:29:37Z</time></trkpt>
<trkpt lat="43.0589870000" lon="-1.0912600000"><ele>1296</ele><time>2026-04-09T09:29:39Z</time></trkpt>
<trkpt lat="43.0589670000" lon="-1.0912370000"><ele>1295</ele><time>2026-04-09T09:29:41Z</time></trkpt>
<trkpt lat="43.0589520000" lon="-1.0912120000"><ele>1295</ele><time>2026-04-09T09:29:44Z</time></trkpt>
<trkpt lat="43.0589280000" lon="-1.0911770000"><ele>1296</ele><time>2026-04-09T09:29:47Z</time></trkpt>
<trkpt lat="43.0589170000" lon="-1.0911570000"><ele>1296</ele><time>2026-04-09T09:29:49Z</time></trkpt>
<trkpt lat="43.0589070000" lon="-1.0911300000"><ele>1296</ele><time>2026-04-09T09:29:51Z</time></trkpt>
<trkpt lat="43.0588950000" lon="-1.0911120000"><ele>1296</ele><time>2026-04-09T09:29:53Z</time></trkpt>
<trkpt lat="43.0588820000" lon="-1.0910870000"><ele>1296</ele><time>2026-04-09T09:29:56Z</time></trkpt>
<trkpt lat="43.0588670000" lon="-1.0910620000"><ele>1297</ele><time>2026-04-09T09:29:59Z</time></trkpt>
<trkpt lat="43.0588470000" lon="-1.0910470000"><ele>1298</ele><time>2026-04-09T09:30:03Z</time></trkpt>
<trkpt lat="43.0588300000" lon="-1.0910270000"><ele>1298</ele><time>2026-04-09T09:30:07Z</time></trkpt>
<trkpt lat="43.0588150000" lon="-1.0910000000"><ele>1299</ele><time>2026-04-09T09:30:11Z</time></trkpt>
<trkpt lat="43.0587920000" lon="-1.0909770000"><ele>1300</ele><time>2026-04-09T09:30:15Z</time></trkpt>
<trkpt lat="43.0587800000" lon="-1.0909620000"><ele>1300</ele><time>2026-04-09T09:30:17Z</time></trkpt>
<trkpt lat="43.0587620000" lon="-1.0909500000"><ele>1300</ele><time>2026-04-09T09:30:20Z</time></trkpt>
<trkpt lat="43.0587420000" lon="-1.0909350000"><ele>1301</ele><time>2026-04-09T09:30:23Z</time></trkpt>
<trkpt lat="43.0587370000" lon="-1.0909070000"><ele>1301</ele><time>2026-04-09T09:30:26Z</time></trkpt>
<trkpt lat="43.0587270000" lon="-1.0908770000"><ele>1301</ele><time>2026-04-09T09:30:29Z</time></trkpt>
<trkpt lat="43.0587120000" lon="-1.0908420000"><ele>1301</ele><time>2026-04-09T09:30:33Z</time></trkpt>
<trkpt lat="43.0587050000" lon="-1.0908250000"><ele>1301</ele><time>2026-04-09T09:30:35Z</time></trkpt>
<trkpt lat="43.0586920000" lon="-1.0908020000"><ele>1302</ele><time>2026-04-09T09:30:38Z</time></trkpt>
<trkpt lat="43.0586820000" lon="-1.0907820000"><ele>1302</ele><time>2026-04-09T09:30:41Z</time></trkpt>
<trkpt lat="43.0586650000" lon="-1.0907670000"><ele>1303</ele><time>2026-04-09T09:30:45Z</time></trkpt>
<trkpt lat="43.0586570000" lon="-1.0907420000"><ele>1304</ele><time>2026-04-09T09:30:50Z</time></trkpt>
<trkpt lat="43.0586520000" lon="-1.0907170000"><ele>1304</ele><time>2026-04-09T09:30:54Z</time></trkpt>
<trkpt lat="43.0586370000" lon="-1.0907320000"><ele>1305</ele><time>2026-04-09T09:31:01Z</time></trkpt>
<trkpt lat="43.0586520000" lon="-1.0906920000"><ele>1305</ele><time>2026-04-09T09:31:13Z</time></trkpt>
<trkpt lat="43.0586620000" lon="-1.0906570000"><ele>1305</ele><time>2026-04-09T09:31:15Z</time></trkpt>
<trkpt lat="43.0586620000" lon="-1.0906450000"><ele>1305</ele><time>2026-04-09T09:31:16Z</time></trkpt>
<trkpt lat="43.0586620000" lon="-1.0906120000"><ele>1306</ele><time>2026-04-09T09:31:19Z</time></trkpt>
<trkpt lat="43.0586700000" lon="-1.0905770000"><ele>1306</ele><time>2026-04-09T09:31:23Z</time></trkpt>
<trkpt lat="43.0586520000" lon="-1.0905600000"><ele>1307</ele><time>2026-04-09T09:31:26Z</time></trkpt>
<trkpt lat="43.0586350000" lon="-1.0905450000"><ele>1307</ele><time>2026-04-09T09:31:30Z</time></trkpt>
<trkpt lat="43.0586150000" lon="-1.0905200000"><ele>1308</ele><time>2026-04-09T09:31:35Z</time></trkpt>
<trkpt lat="43.0586050000" lon="-1.0904970000"><ele>1309</ele><time>2026-04-09T09:31:38Z</time></trkpt>
<trkpt lat="43.0585920000" lon="-1.0904770000"><ele>1309</ele><time>2026-04-09T09:31:41Z</time></trkpt>
<trkpt lat="43.0585770000" lon="-1.0904620000"><ele>1310</ele><time>2026-04-09T09:31:44Z</time></trkpt>
<trkpt lat="43.0585620000" lon="-1.0904400000"><ele>1310</ele><time>2026-04-09T09:31:48Z</time></trkpt>
<trkpt lat="43.0585470000" lon="-1.0904120000"><ele>1311</ele><time>2026-04-09T09:31:53Z</time></trkpt>
<trkpt lat="43.0585370000" lon="-1.0903970000"><ele>1312</ele><time>2026-04-09T09:31:56Z</time></trkpt>
<trkpt lat="43.0585220000" lon="-1.0903750000"><ele>1312</ele><time>2026-04-09T09:32:01Z</time></trkpt>
<trkpt lat="43.0585070000" lon="-1.0903800000"><ele>1313</ele><time>2026-04-09T09:32:07Z</time></trkpt>
<trkpt lat="43.0584900000" lon="-1.0903520000"><ele>1314</ele><time>2026-04-09T09:32:15Z</time></trkpt>
<trkpt lat="43.0584770000" lon="-1.0903220000"><ele>1315</ele><time>2026-04-09T09:32:17Z</time></trkpt>
<trkpt lat="43.0584670000" lon="-1.0902920000"><ele>1315</ele><time>2026-04-09T09:32:19Z</time></trkpt>
<trkpt lat="43.0584520000" lon="-1.0902620000"><ele>1315</ele><time>2026-04-09T09:32:23Z</time></trkpt>
<trkpt lat="43.0584420000" lon="-1.0902420000"><ele>1316</ele><time>2026-04-09T09:32:27Z</time></trkpt>
<trkpt lat="43.0584250000" lon="-1.0902300000"><ele>1317</ele><time>2026-04-09T09:32:31Z</time></trkpt>
<trkpt lat="43.0584070000" lon="-1.0902170000"><ele>1317</ele><time>2026-04-09T09:32:35Z</time></trkpt>
<trkpt lat="43.0583930000" lon="-1.0901900000"><ele>1318</ele><time>2026-04-09T09:32:40Z</time></trkpt>
<trkpt lat="43.0583820000" lon="-1.0901570000"><ele>1322</ele><time>2026-04-09T09:33:14Z</time></trkpt>
<trkpt lat="43.0583770000" lon="-1.0901300000"><ele>1322</ele><time>2026-04-09T09:33:15Z</time></trkpt>
<trkpt lat="43.0583670000" lon="-1.0900600000"><ele>1322</ele><time>2026-04-09T09:33:17Z</time></trkpt>
<trkpt lat="43.0583650000" lon="-1.0900300000"><ele>1322</ele><time>2026-04-09T09:33:18Z</time></trkpt>
<trkpt lat="43.0583670000" lon="-1.0899820000"><ele>1323</ele><time>2026-04-09T09:33:21Z</time></trkpt>
<trkpt lat="43.0583720000" lon="-1.0899620000"><ele>1323</ele><time>2026-04-09T09:33:23Z</time></trkpt>
<trkpt lat="43.0583820000" lon="-1.0899320000"><ele>1323</ele><time>2026-04-09T09:33:27Z</time></trkpt>
<trkpt lat="43.0583700000" lon="-1.0898970000"><ele>1324</ele><time>2026-04-09T09:33:41Z</time></trkpt>
<trkpt lat="43.0583550000" lon="-1.0898770000"><ele>1325</ele><time>2026-04-09T09:33:43Z</time></trkpt>
<trkpt lat="43.0583450000" lon="-1.0898650000"><ele>1325</ele><time>2026-04-09T09:33:45Z</time></trkpt>
<trkpt lat="43.0583200000" lon="-1.0898570000"><ele>1325</ele><time>2026-04-09T09:33:49Z</time></trkpt>
<trkpt lat="43.0583020000" lon="-1.0898420000"><ele>1326</ele><time>2026-04-09T09:33:53Z</time></trkpt>
<trkpt lat="43.0583070000" lon="-1.0898170000"><ele>1327</ele><time>2026-04-09T09:33:57Z</time></trkpt>
<trkpt lat="43.0583170000" lon="-1.0897970000"><ele>1327</ele><time>2026-04-09T09:34:01Z</time></trkpt>
<trkpt lat="43.0583250000" lon="-1.0897720000"><ele>1328</ele><time>2026-04-09T09:34:05Z</time></trkpt>
<trkpt lat="43.0583300000" lon="-1.0897470000"><ele>1328</ele><time>2026-04-09T09:34:09Z</time></trkpt>
<trkpt lat="43.0583170000" lon="-1.0897320000"><ele>1329</ele><time>2026-04-09T09:34:12Z</time></trkpt>
<trkpt lat="43.0582920000" lon="-1.0897000000"><ele>1333</ele><time>2026-04-09T09:34:41Z</time></trkpt>
<trkpt lat="43.0582820000" lon="-1.0896470000"><ele>1333</ele><time>2026-04-09T09:34:43Z</time></trkpt>
<trkpt lat="43.0582750000" lon="-1.0896120000"><ele>1333</ele><time>2026-04-09T09:34:45Z</time></trkpt>
<trkpt lat="43.0582570000" lon="-1.0896120000"><ele>1334</ele><time>2026-04-09T09:34:56Z</time></trkpt>
<trkpt lat="43.0582370000" lon="-1.0896050000"><ele>1334</ele><time>2026-04-09T09:34:58Z</time></trkpt>
<trkpt lat="43.0582200000" lon="-1.0895920000"><ele>1334</ele><time>2026-04-09T09:35:00Z</time></trkpt>
<trkpt lat="43.0582020000" lon="-1.0895720000"><ele>1334</ele><time>2026-04-09T09:35:03Z</time></trkpt>
<trkpt lat="43.0581970000" lon="-1.0895420000"><ele>1335</ele><time>2026-04-09T09:35:07Z</time></trkpt>
<trkpt lat="43.0581920000" lon="-1.0894980000"><ele>1335</ele><time>2026-04-09T09:35:11Z</time></trkpt>
<trkpt lat="43.0581920000" lon="-1.0894820000"><ele>1335</ele><time>2026-04-09T09:35:13Z</time></trkpt>
<trkpt lat="43.0581950000" lon="-1.0894570000"><ele>1336</ele><time>2026-04-09T09:35:16Z</time></trkpt>
<trkpt lat="43.0581750000" lon="-1.0894550000"><ele>1337</ele><time>2026-04-09T09:36:01Z</time></trkpt>
<trkpt lat="43.0582020000" lon="-1.0894570000"><ele>1337</ele><time>2026-04-09T09:36:09Z</time></trkpt>
<trkpt lat="43.0582270000" lon="-1.0894600000"><ele>1337</ele><time>2026-04-09T09:36:11Z</time></trkpt>
<trkpt lat="43.0582420000" lon="-1.0894400000"><ele>1337</ele><time>2026-04-09T09:37:24Z</time></trkpt>
<trkpt lat="43.0582470000" lon="-1.0894670000"><ele>1337</ele><time>2026-04-09T09:42:19Z</time></trkpt>
<trkpt lat="43.0582270000" lon="-1.0894770000"><ele>1337</ele><time>2026-04-09T09:53:58Z</time></trkpt>
<trkpt lat="43.0582170000" lon="-1.0895020000"><ele>1337</ele><time>2026-04-09T09:55:10Z</time></trkpt>
<trkpt lat="43.0582300000" lon="-1.0894750000"><ele>1337</ele><time>2026-04-09T09:56:22Z</time></trkpt>
<trkpt lat="43.0582420000" lon="-1.0894500000"><ele>1337</ele><time>2026-04-09T09:56:24Z</time></trkpt>
<trkpt lat="43.0582570000" lon="-1.0894270000"><ele>1336</ele><time>2026-04-09T10:06:19Z</time></trkpt>
<trkpt lat="43.0582700000" lon="-1.0894070000"><ele>1335</ele><time>2026-04-09T10:06:21Z</time></trkpt>
<trkpt lat="43.0582900000" lon="-1.0893820000"><ele>1335</ele><time>2026-04-09T10:06:24Z</time></trkpt>
<trkpt lat="43.0583100000" lon="-1.0893670000"><ele>1334</ele><time>2026-04-09T10:06:27Z</time></trkpt>
<trkpt lat="43.0583200000" lon="-1.0893450000"><ele>1333</ele><time>2026-04-09T10:06:30Z</time></trkpt>
<trkpt lat="43.0583270000" lon="-1.0893220000"><ele>1332</ele><time>2026-04-09T10:06:33Z</time></trkpt>
<trkpt lat="43.0583420000" lon="-1.0892970000"><ele>1332</ele><time>2026-04-09T10:06:36Z</time></trkpt>
<trkpt lat="43.0583550000" lon="-1.0892770000"><ele>1331</ele><time>2026-04-09T10:06:39Z</time></trkpt>
<trkpt lat="43.0583720000" lon="-1.0892570000"><ele>1330</ele><time>2026-04-09T10:06:42Z</time></trkpt>
<trkpt lat="43.0583870000" lon="-1.0892420000"><ele>1329</ele><time>2026-04-09T10:06:45Z</time></trkpt>
<trkpt lat="43.0583920000" lon="-1.0892070000"><ele>1329</ele><time>2026-04-09T10:06:48Z</time></trkpt>
<trkpt lat="43.0583850000" lon="-1.0891820000"><ele>1328</ele><time>2026-04-09T10:06:50Z</time></trkpt>
<trkpt lat="43.0583720000" lon="-1.0891620000"><ele>1328</ele><time>2026-04-09T10:06:52Z</time></trkpt>
<trkpt lat="43.0583670000" lon="-1.0891350000"><ele>1327</ele><time>2026-04-09T10:06:56Z</time></trkpt>
<trkpt lat="43.0583770000" lon="-1.0891120000"><ele>1327</ele><time>2026-04-09T10:06:59Z</time></trkpt>
<trkpt lat="43.0584020000" lon="-1.0891070000"><ele>1326</ele><time>2026-04-09T10:07:02Z</time></trkpt>
<trkpt lat="43.0584220000" lon="-1.0891070000"><ele>1326</ele><time>2026-04-09T10:07:04Z</time></trkpt>
<trkpt lat="43.0584400000" lon="-1.0891050000"><ele>1326</ele><time>2026-04-09T10:07:06Z</time></trkpt>
<trkpt lat="43.0584520000" lon="-1.0890850000"><ele>1326</ele><time>2026-04-09T10:07:08Z</time></trkpt>
<trkpt lat="43.0584570000" lon="-1.0890570000"><ele>1325</ele><time>2026-04-09T10:07:10Z</time></trkpt>
<trkpt lat="43.0584520000" lon="-1.0890320000"><ele>1325</ele><time>2026-04-09T10:07:12Z</time></trkpt>
<trkpt lat="43.0584570000" lon="-1.0889970000"><ele>1324</ele><time>2026-04-09T10:07:15Z</time></trkpt>
<trkpt lat="43.0584620000" lon="-1.0889720000"><ele>1324</ele><time>2026-04-09T10:07:17Z</time></trkpt>
<trkpt lat="43.0584670000" lon="-1.0889470000"><ele>1323</ele><time>2026-04-09T10:07:19Z</time></trkpt>
<trkpt lat="43.0584770000" lon="-1.0889250000"><ele>1323</ele><time>2026-04-09T10:07:21Z</time></trkpt>
<trkpt lat="43.0584920000" lon="-1.0889000000"><ele>1323</ele><time>2026-04-09T10:07:23Z</time></trkpt>
<trkpt lat="43.0585020000" lon="-1.0888720000"><ele>1323</ele><time>2026-04-09T10:07:26Z</time></trkpt>
<trkpt lat="43.0585020000" lon="-1.0888350000"><ele>1323</ele><time>2026-04-09T10:07:29Z</time></trkpt>
<trkpt lat="43.0585000000" lon="-1.0888070000"><ele>1323</ele><time>2026-04-09T10:07:33Z</time></trkpt>
<trkpt lat="43.0585200000" lon="-1.0888070000"><ele>1323</ele><time>2026-04-09T10:07:39Z</time></trkpt>
<trkpt lat="43.0585470000" lon="-1.0888020000"><ele>1323</ele><time>2026-04-09T10:07:42Z</time></trkpt>
<trkpt lat="43.0585700000" lon="-1.0887920000"><ele>1323</ele><time>2026-04-09T10:07:45Z</time></trkpt>
<trkpt lat="43.0585920000" lon="-1.0887820000"><ele>1322</ele><time>2026-04-09T10:07:48Z</time></trkpt>
<trkpt lat="43.0586120000" lon="-1.0887670000"><ele>1322</ele><time>2026-04-09T10:07:50Z</time></trkpt>
<trkpt lat="43.0586220000" lon="-1.0887450000"><ele>1322</ele><time>2026-04-09T10:07:52Z</time></trkpt>
<trkpt lat="43.0586350000" lon="-1.0887220000"><ele>1322</ele><time>2026-04-09T10:07:55Z</time></trkpt>
<trkpt lat="43.0586520000" lon="-1.0887100000"><ele>1321</ele><time>2026-04-09T10:07:58Z</time></trkpt>
<trkpt lat="43.0586670000" lon="-1.0886950000"><ele>1321</ele><time>2026-04-09T10:08:01Z</time></trkpt>
<trkpt lat="43.0586870000" lon="-1.0887270000"><ele>1321</ele><time>2026-04-09T10:08:15Z</time></trkpt>
<trkpt lat="43.0587070000" lon="-1.0887420000"><ele>1321</ele><time>2026-04-09T10:08:17Z</time></trkpt>
<trkpt lat="43.0587270000" lon="-1.0887320000"><ele>1320</ele><time>2026-04-09T10:08:19Z</time></trkpt>
<trkpt lat="43.0587420000" lon="-1.0887120000"><ele>1320</ele><time>2026-04-09T10:08:21Z</time></trkpt>
<trkpt lat="43.0587500000" lon="-1.0886870000"><ele>1320</ele><time>2026-04-09T10:08:24Z</time></trkpt>
<trkpt lat="43.0587670000" lon="-1.0886970000"><ele>1319</ele><time>2026-04-09T10:09:03Z</time></trkpt>
<trkpt lat="43.0587730000" lon="-1.0887270000"><ele>1319</ele><time>2026-04-09T10:09:44Z</time></trkpt>
<trkpt lat="43.0587820000" lon="-1.0887600000"><ele>1319</ele><time>2026-04-09T10:09:46Z</time></trkpt>
<trkpt lat="43.0587850000" lon="-1.0887870000"><ele>1318</ele><time>2026-04-09T10:09:48Z</time></trkpt>
<trkpt lat="43.0587870000" lon="-1.0888120000"><ele>1318</ele><time>2026-04-09T10:09:50Z</time></trkpt>
<trkpt lat="43.0587900000" lon="-1.0888450000"><ele>1318</ele><time>2026-04-09T10:09:53Z</time></trkpt>
<trkpt lat="43.0587920000" lon="-1.0888700000"><ele>1317</ele><time>2026-04-09T10:09:55Z</time></trkpt>
<trkpt lat="43.0587970000" lon="-1.0889020000"><ele>1317</ele><time>2026-04-09T10:09:58Z</time></trkpt>
<trkpt lat="43.0588070000" lon="-1.0889370000"><ele>1316</ele><time>2026-04-09T10:10:01Z</time></trkpt>
<trkpt lat="43.0588120000" lon="-1.0889620000"><ele>1315</ele><time>2026-04-09T10:10:04Z</time></trkpt>
<trkpt lat="43.0588270000" lon="-1.0889870000"><ele>1314</ele><time>2026-04-09T10:10:08Z</time></trkpt>
<trkpt lat="43.0588320000" lon="-1.0890150000"><ele>1313</ele><time>2026-04-09T10:10:11Z</time></trkpt>
<trkpt lat="43.0588320000" lon="-1.0890420000"><ele>1312</ele><time>2026-04-09T10:10:14Z</time></trkpt>
<trkpt lat="43.0588350000" lon="-1.0890720000"><ele>1311</ele><time>2026-04-09T10:10:24Z</time></trkpt>
<trkpt lat="43.0588470000" lon="-1.0890970000"><ele>1310</ele><time>2026-04-09T10:10:26Z</time></trkpt>
<trkpt lat="43.0588620000" lon="-1.0891220000"><ele>1310</ele><time>2026-04-09T10:10:28Z</time></trkpt>
<trkpt lat="43.0588820000" lon="-1.0891300000"><ele>1309</ele><time>2026-04-09T10:10:30Z</time></trkpt>
<trkpt lat="43.0589050000" lon="-1.0891270000"><ele>1308</ele><time>2026-04-09T10:10:33Z</time></trkpt>
<trkpt lat="43.0589250000" lon="-1.0891220000"><ele>1307</ele><time>2026-04-09T10:10:36Z</time></trkpt>
<trkpt lat="43.0589450000" lon="-1.0891370000"><ele>1306</ele><time>2026-04-09T10:10:40Z</time></trkpt>
<trkpt lat="43.0589520000" lon="-1.0891620000"><ele>1305</ele><time>2026-04-09T10:10:43Z</time></trkpt>
<trkpt lat="43.0589650000" lon="-1.0891870000"><ele>1304</ele><time>2026-04-09T10:10:46Z</time></trkpt>
<trkpt lat="43.0589720000" lon="-1.0892150000"><ele>1304</ele><time>2026-04-09T10:10:49Z</time></trkpt>
<trkpt lat="43.0589870000" lon="-1.0892420000"><ele>1303</ele><time>2026-04-09T10:10:52Z</time></trkpt>
<trkpt lat="43.0589950000" lon="-1.0892720000"><ele>1302</ele><time>2026-04-09T10:10:55Z</time></trkpt>
<trkpt lat="43.0590150000" lon="-1.0892850000"><ele>1300</ele><time>2026-04-09T10:10:59Z</time></trkpt>
<trkpt lat="43.0590370000" lon="-1.0892820000"><ele>1299</ele><time>2026-04-09T10:11:02Z</time></trkpt>
<trkpt lat="43.0590570000" lon="-1.0892750000"><ele>1299</ele><time>2026-04-09T10:11:04Z</time></trkpt>
<trkpt lat="43.0590750000" lon="-1.0892870000"><ele>1297</ele><time>2026-04-09T10:11:08Z</time></trkpt>
<trkpt lat="43.0590770000" lon="-1.0893220000"><ele>1296</ele><time>2026-04-09T10:11:12Z</time></trkpt>
<trkpt lat="43.0590820000" lon="-1.0893520000"><ele>1295</ele><time>2026-04-09T10:11:15Z</time></trkpt>
<trkpt lat="43.0590870000" lon="-1.0893770000"><ele>1294</ele><time>2026-04-09T10:11:18Z</time></trkpt>
<trkpt lat="43.0590920000" lon="-1.0894020000"><ele>1294</ele><time>2026-04-09T10:11:21Z</time></trkpt>
<trkpt lat="43.0591100000" lon="-1.0894020000"><ele>1293</ele><time>2026-04-09T10:11:24Z</time></trkpt>
<trkpt lat="43.0591320000" lon="-1.0894170000"><ele>1292</ele><time>2026-04-09T10:11:27Z</time></trkpt>
<trkpt lat="43.0591400000" lon="-1.0894500000"><ele>1291</ele><time>2026-04-09T10:11:30Z</time></trkpt>
<trkpt lat="43.0591500000" lon="-1.0894750000"><ele>1290</ele><time>2026-04-09T10:11:32Z</time></trkpt>
<trkpt lat="43.0591700000" lon="-1.0894870000"><ele>1290</ele><time>2026-04-09T10:11:35Z</time></trkpt>
<trkpt lat="43.0591820000" lon="-1.0895070000"><ele>1288</ele><time>2026-04-09T10:11:39Z</time></trkpt>
<trkpt lat="43.0591950000" lon="-1.0895350000"><ele>1287</ele><time>2026-04-09T10:11:43Z</time></trkpt>
<trkpt lat="43.0592070000" lon="-1.0895570000"><ele>1285</ele><time>2026-04-09T10:11:47Z</time></trkpt>
<trkpt lat="43.0592070000" lon="-1.0895870000"><ele>1285</ele><time>2026-04-09T10:11:50Z</time></trkpt>
<trkpt lat="43.0592150000" lon="-1.0896150000"><ele>1284</ele><time>2026-04-09T10:11:53Z</time></trkpt>
<trkpt lat="43.0592320000" lon="-1.0896520000"><ele>1283</ele><time>2026-04-09T10:11:57Z</time></trkpt>
<trkpt lat="43.0592400000" lon="-1.0896670000"><ele>1282</ele><time>2026-04-09T10:11:59Z</time></trkpt>
<trkpt lat="43.0592470000" lon="-1.0897020000"><ele>1281</ele><time>2026-04-09T10:12:03Z</time></trkpt>
<trkpt lat="43.0592500000" lon="-1.0897320000"><ele>1280</ele><time>2026-04-09T10:12:05Z</time></trkpt>
<trkpt lat="43.0592520000" lon="-1.0897620000"><ele>1280</ele><time>2026-04-09T10:12:08Z</time></trkpt>
<trkpt lat="43.0592570000" lon="-1.0897870000"><ele>1279</ele><time>2026-04-09T10:12:10Z</time></trkpt>
<trkpt lat="43.0592720000" lon="-1.0898070000"><ele>1278</ele><time>2026-04-09T10:12:12Z</time></trkpt>
<trkpt lat="43.0592900000" lon="-1.0898250000"><ele>1277</ele><time>2026-04-09T10:12:15Z</time></trkpt>
<trkpt lat="43.0593070000" lon="-1.0898220000"><ele>1274</ele><time>2026-04-09T10:12:28Z</time></trkpt>
<trkpt lat="43.0593250000" lon="-1.0897900000"><ele>1274</ele><time>2026-04-09T10:12:32Z</time></trkpt>
<trkpt lat="43.0593420000" lon="-1.0897680000"><ele>1273</ele><time>2026-04-09T10:12:34Z</time></trkpt>
<trkpt lat="43.0593720000" lon="-1.0897670000"><ele>1273</ele><time>2026-04-09T10:12:37Z</time></trkpt>
<trkpt lat="43.0593870000" lon="-1.0897770000"><ele>1272</ele><time>2026-04-09T10:12:38Z</time></trkpt>
<trkpt lat="43.0594000000" lon="-1.0897970000"><ele>1272</ele><time>2026-04-09T10:12:40Z</time></trkpt>
<trkpt lat="43.0594070000" lon="-1.0898320000"><ele>1271</ele><time>2026-04-09T10:12:43Z</time></trkpt>
<trkpt lat="43.0594120000" lon="-1.0898670000"><ele>1270</ele><time>2026-04-09T10:12:46Z</time></trkpt>
<trkpt lat="43.0594220000" lon="-1.0898850000"><ele>1269</ele><time>2026-04-09T10:12:48Z</time></trkpt>
<trkpt lat="43.0594420000" lon="-1.0899070000"><ele>1269</ele><time>2026-04-09T10:12:51Z</time></trkpt>
<trkpt lat="43.0594670000" lon="-1.0899170000"><ele>1267</ele><time>2026-04-09T10:12:56Z</time></trkpt>
<trkpt lat="43.0594800000" lon="-1.0899300000"><ele>1266</ele><time>2026-04-09T10:12:59Z</time></trkpt>
<trkpt lat="43.0594970000" lon="-1.0899470000"><ele>1265</ele><time>2026-04-09T10:13:02Z</time></trkpt>
<trkpt lat="43.0595170000" lon="-1.0899600000"><ele>1264</ele><time>2026-04-09T10:13:05Z</time></trkpt>
<trkpt lat="43.0595320000" lon="-1.0899720000"><ele>1263</ele><time>2026-04-09T10:13:08Z</time></trkpt>
<trkpt lat="43.0595470000" lon="-1.0900000000"><ele>1262</ele><time>2026-04-09T10:13:12Z</time></trkpt>
<trkpt lat="43.0595570000" lon="-1.0900270000"><ele>1261</ele><time>2026-04-09T10:13:15Z</time></trkpt>
<trkpt lat="43.0595620000" lon="-1.0900570000"><ele>1260</ele><time>2026-04-09T10:13:18Z</time></trkpt>
<trkpt lat="43.0595720000" lon="-1.0900870000"><ele>1259</ele><time>2026-04-09T10:13:21Z</time></trkpt>
<trkpt lat="43.0595870000" lon="-1.0901170000"><ele>1258</ele><time>2026-04-09T10:13:24Z</time></trkpt>
<trkpt lat="43.0596020000" lon="-1.0901420000"><ele>1257</ele><time>2026-04-09T10:13:28Z</time></trkpt>
<trkpt lat="43.0596070000" lon="-1.0901600000"><ele>1257</ele><time>2026-04-09T10:13:30Z</time></trkpt>
<trkpt lat="43.0596170000" lon="-1.0901820000"><ele>1256</ele><time>2026-04-09T10:13:34Z</time></trkpt>
<trkpt lat="43.0596300000" lon="-1.0902170000"><ele>1254</ele><time>2026-04-09T10:15:58Z</time></trkpt>
<trkpt lat="43.0596420000" lon="-1.0902350000"><ele>1253</ele><time>2026-04-09T10:16:00Z</time></trkpt>
<trkpt lat="43.0596520000" lon="-1.0902570000"><ele>1252</ele><time>2026-04-09T10:16:02Z</time></trkpt>
<trkpt lat="43.0596600000" lon="-1.0902820000"><ele>1252</ele><time>2026-04-09T10:16:04Z</time></trkpt>
<trkpt lat="43.0596720000" lon="-1.0903120000"><ele>1251</ele><time>2026-04-09T10:16:07Z</time></trkpt>
<trkpt lat="43.0596850000" lon="-1.0903370000"><ele>1250</ele><time>2026-04-09T10:16:10Z</time></trkpt>
<trkpt lat="43.0597020000" lon="-1.0903600000"><ele>1249</ele><time>2026-04-09T10:16:13Z</time></trkpt>
<trkpt lat="43.0597170000" lon="-1.0903870000"><ele>1248</ele><time>2026-04-09T10:16:16Z</time></trkpt>
<trkpt lat="43.0597200000" lon="-1.0904170000"><ele>1247</ele><time>2026-04-09T10:16:19Z</time></trkpt>
<trkpt lat="43.0597350000" lon="-1.0904370000"><ele>1246</ele><time>2026-04-09T10:16:22Z</time></trkpt>
<trkpt lat="43.0597580000" lon="-1.0904470000"><ele>1245</ele><time>2026-04-09T10:16:25Z</time></trkpt>
<trkpt lat="43.0597820000" lon="-1.0904670000"><ele>1244</ele><time>2026-04-09T10:16:28Z</time></trkpt>
<trkpt lat="43.0597970000" lon="-1.0904920000"><ele>1243</ele><time>2026-04-09T10:16:30Z</time></trkpt>
<trkpt lat="43.0598170000" lon="-1.0905020000"><ele>1242</ele><time>2026-04-09T10:16:32Z</time></trkpt>
<trkpt lat="43.0598320000" lon="-1.0904870000"><ele>1241</ele><time>2026-04-09T10:16:34Z</time></trkpt>
<trkpt lat="43.0598470000" lon="-1.0904700000"><ele>1241</ele><time>2026-04-09T10:16:36Z</time></trkpt>
<trkpt lat="43.0598650000" lon="-1.0904570000"><ele>1240</ele><time>2026-04-09T10:16:39Z</time></trkpt>
<trkpt lat="43.0598870000" lon="-1.0904570000"><ele>1239</ele><time>2026-04-09T10:16:42Z</time></trkpt>
<trkpt lat="43.0599070000" lon="-1.0904720000"><ele>1239</ele><time>2026-04-09T10:16:45Z</time></trkpt>
<trkpt lat="43.0599170000" lon="-1.0905000000"><ele>1238</ele><time>2026-04-09T10:16:48Z</time></trkpt>
<trkpt lat="43.0599320000" lon="-1.0905250000"><ele>1237</ele><time>2026-04-09T10:16:51Z</time></trkpt>
<trkpt lat="43.0599500000" lon="-1.0905270000"><ele>1236</ele><time>2026-04-09T10:16:53Z</time></trkpt>
<trkpt lat="43.0599720000" lon="-1.0905220000"><ele>1236</ele><time>2026-04-09T10:16:56Z</time></trkpt>
<trkpt lat="43.0599830000" lon="-1.0905020000"><ele>1234</ele><time>2026-04-09T10:17:05Z</time></trkpt>
<trkpt lat="43.0600070000" lon="-1.0905270000"><ele>1233</ele><time>2026-04-09T10:17:25Z</time></trkpt>
<trkpt lat="43.0600320000" lon="-1.0905520000"><ele>1233</ele><time>2026-04-09T10:17:27Z</time></trkpt>
<trkpt lat="43.0600500000" lon="-1.0905770000"><ele>1232</ele><time>2026-04-09T10:17:29Z</time></trkpt>
<trkpt lat="43.0600670000" lon="-1.0905870000"><ele>1232</ele><time>2026-04-09T10:17:31Z</time></trkpt>
<trkpt lat="43.0600850000" lon="-1.0905800000"><ele>1231</ele><time>2026-04-09T10:17:34Z</time></trkpt>
<trkpt lat="43.0601020000" lon="-1.0905920000"><ele>1230</ele><time>2026-04-09T10:17:37Z</time></trkpt>
<trkpt lat="43.0601170000" lon="-1.0906220000"><ele>1230</ele><time>2026-04-09T10:17:40Z</time></trkpt>
<trkpt lat="43.0601300000" lon="-1.0906450000"><ele>1229</ele><time>2026-04-09T10:17:42Z</time></trkpt>
<trkpt lat="43.0601470000" lon="-1.0906670000"><ele>1228</ele><time>2026-04-09T10:17:45Z</time></trkpt>
<trkpt lat="43.0601700000" lon="-1.0906720000"><ele>1227</ele><time>2026-04-09T10:17:48Z</time></trkpt>
<trkpt lat="43.0601920000" lon="-1.0906700000"><ele>1226</ele><time>2026-04-09T10:17:51Z</time></trkpt>
<trkpt lat="43.0602120000" lon="-1.0906600000"><ele>1225</ele><time>2026-04-09T10:17:54Z</time></trkpt>
<trkpt lat="43.0602350000" lon="-1.0906420000"><ele>1224</ele><time>2026-04-09T10:17:57Z</time></trkpt>
<trkpt lat="43.0602520000" lon="-1.0906220000"><ele>1223</ele><time>2026-04-09T10:18:00Z</time></trkpt>
<trkpt lat="43.0602720000" lon="-1.0906220000"><ele>1222</ele><time>2026-04-09T10:18:03Z</time></trkpt>
<trkpt lat="43.0602950000" lon="-1.0906250000"><ele>1221</ele><time>2026-04-09T10:18:06Z</time></trkpt>
<trkpt lat="43.0603070000" lon="-1.0906550000"><ele>1220</ele><time>2026-04-09T10:18:10Z</time></trkpt>
<trkpt lat="43.0603250000" lon="-1.0906770000"><ele>1219</ele><time>2026-04-09T10:18:13Z</time></trkpt>
<trkpt lat="43.0603400000" lon="-1.0907000000"><ele>1218</ele><time>2026-04-09T10:18:16Z</time></trkpt>
<trkpt lat="43.0603520000" lon="-1.0907250000"><ele>1217</ele><time>2026-04-09T10:18:19Z</time></trkpt>
<trkpt lat="43.0603670000" lon="-1.0907420000"><ele>1217</ele><time>2026-04-09T10:18:21Z</time></trkpt>
<trkpt lat="43.0603850000" lon="-1.0907570000"><ele>1216</ele><time>2026-04-09T10:18:24Z</time></trkpt>
<trkpt lat="43.0604020000" lon="-1.0907720000"><ele>1215</ele><time>2026-04-09T10:18:27Z</time></trkpt>
<trkpt lat="43.0604200000" lon="-1.0907820000"><ele>1214</ele><time>2026-04-09T10:18:29Z</time></trkpt>
<trkpt lat="43.0604420000" lon="-1.0907920000"><ele>1213</ele><time>2026-04-09T10:18:32Z</time></trkpt>
<trkpt lat="43.0604620000" lon="-1.0908020000"><ele>1212</ele><time>2026-04-09T10:18:35Z</time></trkpt>
<trkpt lat="43.0604820000" lon="-1.0908020000"><ele>1211</ele><time>2026-04-09T10:18:39Z</time></trkpt>
<trkpt lat="43.0605020000" lon="-1.0908200000"><ele>1209</ele><time>2026-04-09T10:18:43Z</time></trkpt>
<trkpt lat="43.0605170000" lon="-1.0908420000"><ele>1208</ele><time>2026-04-09T10:18:47Z</time></trkpt>
<trkpt lat="43.0605370000" lon="-1.0908600000"><ele>1207</ele><time>2026-04-09T10:18:50Z</time></trkpt>
<trkpt lat="43.0605570000" lon="-1.0908820000"><ele>1206</ele><time>2026-04-09T10:18:53Z</time></trkpt>
<trkpt lat="43.0605750000" lon="-1.0909020000"><ele>1205</ele><time>2026-04-09T10:18:56Z</time></trkpt>
<trkpt lat="43.0605870000" lon="-1.0909220000"><ele>1204</ele><time>2026-04-09T10:18:59Z</time></trkpt>
<trkpt lat="43.0606020000" lon="-1.0909370000"><ele>1203</ele><time>2026-04-09T10:19:02Z</time></trkpt>
<trkpt lat="43.0606020000" lon="-1.0909650000"><ele>1203</ele><time>2026-04-09T10:19:05Z</time></trkpt>
<trkpt lat="43.0606200000" lon="-1.0909770000"><ele>1200</ele><time>2026-04-09T10:19:23Z</time></trkpt>
<trkpt lat="43.0606370000" lon="-1.0909950000"><ele>1200</ele><time>2026-04-09T10:19:25Z</time></trkpt>
<trkpt lat="43.0606520000" lon="-1.0910170000"><ele>1200</ele><time>2026-04-09T10:19:27Z</time></trkpt>
<trkpt lat="43.0606670000" lon="-1.0910370000"><ele>1199</ele><time>2026-04-09T10:19:29Z</time></trkpt>
<trkpt lat="43.0606820000" lon="-1.0910470000"><ele>1199</ele><time>2026-04-09T10:19:31Z</time></trkpt>
<trkpt lat="43.0607020000" lon="-1.0910300000"><ele>1198</ele><time>2026-04-09T10:19:34Z</time></trkpt>
<trkpt lat="43.0607170000" lon="-1.0909870000"><ele>1197</ele><time>2026-04-09T10:19:38Z</time></trkpt>
<trkpt lat="43.0607220000" lon="-1.0909670000"><ele>1196</ele><time>2026-04-09T10:19:40Z</time></trkpt>
<trkpt lat="43.0607370000" lon="-1.0909520000"><ele>1195</ele><time>2026-04-09T10:19:43Z</time></trkpt>
<trkpt lat="43.0607500000" lon="-1.0909750000"><ele>1194</ele><time>2026-04-09T10:19:47Z</time></trkpt>
<trkpt lat="43.0607620000" lon="-1.0909970000"><ele>1193</ele><time>2026-04-09T10:19:50Z</time></trkpt>
<trkpt lat="43.0607720000" lon="-1.0910200000"><ele>1193</ele><time>2026-04-09T10:19:52Z</time></trkpt>
<trkpt lat="43.0607920000" lon="-1.0910350000"><ele>1193</ele><time>2026-04-09T10:19:55Z</time></trkpt>
<trkpt lat="43.0608120000" lon="-1.0910370000"><ele>1192</ele><time>2026-04-09T10:19:58Z</time></trkpt>
<trkpt lat="43.0608320000" lon="-1.0910420000"><ele>1191</ele><time>2026-04-09T10:20:00Z</time></trkpt>
<trkpt lat="43.0608570000" lon="-1.0910420000"><ele>1190</ele><time>2026-04-09T10:20:03Z</time></trkpt>
<trkpt lat="43.0608800000" lon="-1.0910520000"><ele>1189</ele><time>2026-04-09T10:20:06Z</time></trkpt>
<trkpt lat="43.0608970000" lon="-1.0910720000"><ele>1189</ele><time>2026-04-09T10:20:09Z</time></trkpt>
<trkpt lat="43.0609220000" lon="-1.0910620000"><ele>1188</ele><time>2026-04-09T10:20:12Z</time></trkpt>
<trkpt lat="43.0609400000" lon="-1.0910620000"><ele>1187</ele><time>2026-04-09T10:20:14Z</time></trkpt>
<trkpt lat="43.0609670000" lon="-1.0910630000"><ele>1186</ele><time>2026-04-09T10:20:17Z</time></trkpt>
<trkpt lat="43.0609920000" lon="-1.0910720000"><ele>1185</ele><time>2026-04-09T10:20:20Z</time></trkpt>
<trkpt lat="43.0610120000" lon="-1.0910820000"><ele>1185</ele><time>2026-04-09T10:20:23Z</time></trkpt>
<trkpt lat="43.0610370000" lon="-1.0910900000"><ele>1184</ele><time>2026-04-09T10:20:26Z</time></trkpt>
<trkpt lat="43.0610570000" lon="-1.0911020000"><ele>1183</ele><time>2026-04-09T10:20:28Z</time></trkpt>
<trkpt lat="43.0610770000" lon="-1.0911100000"><ele>1183</ele><time>2026-04-09T10:20:30Z</time></trkpt>
<trkpt lat="43.0611070000" lon="-1.0910820000"><ele>1182</ele><time>2026-04-09T10:20:34Z</time></trkpt>
<trkpt lat="43.0611070000" lon="-1.0910670000"><ele>1182</ele><time>2026-04-09T10:20:35Z</time></trkpt>
<trkpt lat="43.0611070000" lon="-1.0910400000"><ele>1182</ele><time>2026-04-09T10:20:37Z</time></trkpt>
<trkpt lat="43.0611170000" lon="-1.0910120000"><ele>1181</ele><time>2026-04-09T10:20:40Z</time></trkpt>
<trkpt lat="43.0611370000" lon="-1.0910150000"><ele>1180</ele><time>2026-04-09T10:20:42Z</time></trkpt>
<trkpt lat="43.0611670000" lon="-1.0910120000"><ele>1180</ele><time>2026-04-09T10:20:45Z</time></trkpt>
<trkpt lat="43.0611770000" lon="-1.0910020000"><ele>1179</ele><time>2026-04-09T10:20:47Z</time></trkpt>
<trkpt lat="43.0611870000" lon="-1.0909750000"><ele>1178</ele><time>2026-04-09T10:20:54Z</time></trkpt>
<trkpt lat="43.0612150000" lon="-1.0909670000"><ele>1178</ele><time>2026-04-09T10:20:57Z</time></trkpt>
<trkpt lat="43.0612420000" lon="-1.0909570000"><ele>1178</ele><time>2026-04-09T10:21:00Z</time></trkpt>
<trkpt lat="43.0612620000" lon="-1.0909500000"><ele>1178</ele><time>2026-04-09T10:21:02Z</time></trkpt>
<trkpt lat="43.0612850000" lon="-1.0909450000"><ele>1177</ele><time>2026-04-09T10:21:04Z</time></trkpt>
<trkpt lat="43.0613050000" lon="-1.0909320000"><ele>1177</ele><time>2026-04-09T10:21:06Z</time></trkpt>
<trkpt lat="43.0613270000" lon="-1.0909220000"><ele>1177</ele><time>2026-04-09T10:21:09Z</time></trkpt>
<trkpt lat="43.0613520000" lon="-1.0909200000"><ele>1177</ele><time>2026-04-09T10:21:12Z</time></trkpt>
<trkpt lat="43.0613750000" lon="-1.0909220000"><ele>1177</ele><time>2026-04-09T10:21:15Z</time></trkpt>
<trkpt lat="43.0613950000" lon="-1.0909270000"><ele>1177</ele><time>2026-04-09T10:21:17Z</time></trkpt>
<trkpt lat="43.0614150000" lon="-1.0909270000"><ele>1177</ele><time>2026-04-09T10:21:19Z</time></trkpt>
<trkpt lat="43.0614350000" lon="-1.0909220000"><ele>1178</ele><time>2026-04-09T10:21:21Z</time></trkpt>
<trkpt lat="43.0614520000" lon="-1.0909100000"><ele>1178</ele><time>2026-04-09T10:21:23Z</time></trkpt>
<trkpt lat="43.0614670000" lon="-1.0909000000"><ele>1178</ele><time>2026-04-09T10:21:25Z</time></trkpt>
<trkpt lat="43.0614870000" lon="-1.0908920000"><ele>1178</ele><time>2026-04-09T10:21:27Z</time></trkpt>
<trkpt lat="43.0615030000" lon="-1.0908870000"><ele>1178</ele><time>2026-04-09T10:21:29Z</time></trkpt>
<trkpt lat="43.0615270000" lon="-1.0908770000"><ele>1178</ele><time>2026-04-09T10:21:31Z</time></trkpt>
<trkpt lat="43.0615450000" lon="-1.0908620000"><ele>1178</ele><time>2026-04-09T10:21:33Z</time></trkpt>
<trkpt lat="43.0615650000" lon="-1.0908470000"><ele>1178</ele><time>2026-04-09T10:21:35Z</time></trkpt>
<trkpt lat="43.0615820000" lon="-1.0908320000"><ele>1178</ele><time>2026-04-09T10:21:37Z</time></trkpt>
<trkpt lat="43.0616020000" lon="-1.0908220000"><ele>1178</ele><time>2026-04-09T10:21:40Z</time></trkpt>
<trkpt lat="43.0616220000" lon="-1.0908070000"><ele>1178</ele><time>2026-04-09T10:21:43Z</time></trkpt>
<trkpt lat="43.0616470000" lon="-1.0907970000"><ele>1178</ele><time>2026-04-09T10:21:46Z</time></trkpt>
<trkpt lat="43.0616700000" lon="-1.0907900000"><ele>1178</ele><time>2026-04-09T10:21:49Z</time></trkpt>
<trkpt lat="43.0616870000" lon="-1.0907770000"><ele>1178</ele><time>2026-04-09T10:21:51Z</time></trkpt>
<trkpt lat="43.0616870000" lon="-1.0907470000"><ele>1177</ele><time>2026-04-09T10:25:26Z</time></trkpt>
<trkpt lat="43.0616820000" lon="-1.0907170000"><ele>1177</ele><time>2026-04-09T10:25:31Z</time></trkpt>
<trkpt lat="43.0616970000" lon="-1.0906870000"><ele>1176</ele><time>2026-04-09T10:25:34Z</time></trkpt>
<trkpt lat="43.0617100000" lon="-1.0906570000"><ele>1176</ele><time>2026-04-09T10:25:37Z</time></trkpt>
<trkpt lat="43.0617170000" lon="-1.0906320000"><ele>1176</ele><time>2026-04-09T10:25:39Z</time></trkpt>
<trkpt lat="43.0617270000" lon="-1.0905970000"><ele>1175</ele><time>2026-04-09T10:25:42Z</time></trkpt>
<trkpt lat="43.0617270000" lon="-1.0905850000"><ele>1175</ele><time>2026-04-09T10:25:43Z</time></trkpt>
<trkpt lat="43.0617350000" lon="-1.0905620000"><ele>1174</ele><time>2026-04-09T10:25:45Z</time></trkpt>
<trkpt lat="43.0617420000" lon="-1.0905270000"><ele>1174</ele><time>2026-04-09T10:25:48Z</time></trkpt>
<trkpt lat="43.0617600000" lon="-1.0905000000"><ele>1173</ele><time>2026-04-09T10:25:51Z</time></trkpt>
<trkpt lat="43.0617770000" lon="-1.0904670000"><ele>1173</ele><time>2026-04-09T10:25:57Z</time></trkpt>
<trkpt lat="43.0617820000" lon="-1.0904520000"><ele>1172</ele><time>2026-04-09T10:25:58Z</time></trkpt>
<trkpt lat="43.0617920000" lon="-1.0904320000"><ele>1172</ele><time>2026-04-09T10:26:00Z</time></trkpt>
<trkpt lat="43.0618100000" lon="-1.0903920000"><ele>1172</ele><time>2026-04-09T10:26:03Z</time></trkpt>
<trkpt lat="43.0618120000" lon="-1.0903800000"><ele>1172</ele><time>2026-04-09T10:26:04Z</time></trkpt>
<trkpt lat="43.0618150000" lon="-1.0903520000"><ele>1172</ele><time>2026-04-09T10:26:06Z</time></trkpt>
<trkpt lat="43.0618170000" lon="-1.0903170000"><ele>1171</ele><time>2026-04-09T10:26:09Z</time></trkpt>
<trkpt lat="43.0618250000" lon="-1.0902820000"><ele>1171</ele><time>2026-04-09T10:26:12Z</time></trkpt>
<trkpt lat="43.0618270000" lon="-1.0902720000"><ele>1170</ele><time>2026-04-09T10:26:13Z</time></trkpt>
<trkpt lat="43.0618320000" lon="-1.0902470000"><ele>1170</ele><time>2026-04-09T10:26:15Z</time></trkpt>
<trkpt lat="43.0618370000" lon="-1.0902050000"><ele>1169</ele><time>2026-04-09T10:26:18Z</time></trkpt>
<trkpt lat="43.0618420000" lon="-1.0901900000"><ele>1169</ele><time>2026-04-09T10:26:19Z</time></trkpt>
<trkpt lat="43.0618400000" lon="-1.0901620000"><ele>1169</ele><time>2026-04-09T10:26:21Z</time></trkpt>
<trkpt lat="43.0618470000" lon="-1.0901220000"><ele>1168</ele><time>2026-04-09T10:26:24Z</time></trkpt>
<trkpt lat="43.0618570000" lon="-1.0900780000"><ele>1168</ele><time>2026-04-09T10:26:27Z</time></trkpt>
<trkpt lat="43.0618600000" lon="-1.0900670000"><ele>1167</ele><time>2026-04-09T10:26:28Z</time></trkpt>
<trkpt lat="43.0618670000" lon="-1.0900350000"><ele>1167</ele><time>2026-04-09T10:26:31Z</time></trkpt>
<trkpt lat="43.0618800000" lon="-1.0900020000"><ele>1166</ele><time>2026-04-09T10:26:34Z</time></trkpt>
<trkpt lat="43.0618830000" lon="-1.0899750000"><ele>1166</ele><time>2026-04-09T10:26:36Z</time></trkpt>
<trkpt lat="43.0618920000" lon="-1.0899370000"><ele>1165</ele><time>2026-04-09T10:26:39Z</time></trkpt>
<trkpt lat="43.0619020000" lon="-1.0898970000"><ele>1165</ele><time>2026-04-09T10:26:42Z</time></trkpt>
<trkpt lat="43.0619070000" lon="-1.0898850000"><ele>1165</ele><time>2026-04-09T10:26:43Z</time></trkpt>
<trkpt lat="43.0619120000" lon="-1.0898570000"><ele>1164</ele><time>2026-04-09T10:26:45Z</time></trkpt>
<trkpt lat="43.0619170000" lon="-1.0898170000"><ele>1163</ele><time>2026-04-09T10:26:48Z</time></trkpt>
<trkpt lat="43.0619220000" lon="-1.0898020000"><ele>1163</ele><time>2026-04-09T10:26:49Z</time></trkpt>
<trkpt lat="43.0619270000" lon="-1.0897770000"><ele>1163</ele><time>2026-04-09T10:26:51Z</time></trkpt>
<trkpt lat="43.0619320000" lon="-1.0897470000"><ele>1162</ele><time>2026-04-09T10:26:54Z</time></trkpt>
<trkpt lat="43.0619400000" lon="-1.0897070000"><ele>1162</ele><time>2026-04-09T10:26:57Z</time></trkpt>
<trkpt lat="43.0619450000" lon="-1.0896720000"><ele>1161</ele><time>2026-04-09T10:27:00Z</time></trkpt>
<trkpt lat="43.0619470000" lon="-1.0896570000"><ele>1161</ele><time>2026-04-09T10:27:01Z</time></trkpt>
<trkpt lat="43.0619520000" lon="-1.0896300000"><ele>1161</ele><time>2026-04-09T10:27:03Z</time></trkpt>
<trkpt lat="43.0619600000" lon="-1.0895900000"><ele>1161</ele><time>2026-04-09T10:27:06Z</time></trkpt>
<trkpt lat="43.0619620000" lon="-1.0895770000"><ele>1161</ele><time>2026-04-09T10:27:07Z</time></trkpt>
<trkpt lat="43.0619720000" lon="-1.0895470000"><ele>1160</ele><time>2026-04-09T10:27:09Z</time></trkpt>
<trkpt lat="43.0619800000" lon="-1.0895170000"><ele>1160</ele><time>2026-04-09T10:27:11Z</time></trkpt>
<trkpt lat="43.0619900000" lon="-1.0894720000"><ele>1160</ele><time>2026-04-09T10:27:15Z</time></trkpt>
<trkpt lat="43.0619920000" lon="-1.0894600000"><ele>1159</ele><time>2026-04-09T10:27:16Z</time></trkpt>
<trkpt lat="43.0619920000" lon="-1.0894350000"><ele>1159</ele><time>2026-04-09T10:27:18Z</time></trkpt>
<trkpt lat="43.0619920000" lon="-1.0893970000"><ele>1158</ele><time>2026-04-09T10:27:21Z</time></trkpt>
<trkpt lat="43.0619950000" lon="-1.0893850000"><ele>1158</ele><time>2026-04-09T10:27:22Z</time></trkpt>
<trkpt lat="43.0619970000" lon="-1.0893570000"><ele>1158</ele><time>2026-04-09T10:27:25Z</time></trkpt>
<trkpt lat="43.0620020000" lon="-1.0893170000"><ele>1157</ele><time>2026-04-09T10:27:28Z</time></trkpt>
<trkpt lat="43.0620100000" lon="-1.0892820000"><ele>1157</ele><time>2026-04-09T10:27:31Z</time></trkpt>
<trkpt lat="43.0620150000" lon="-1.0892550000"><ele>1156</ele><time>2026-04-09T10:27:33Z</time></trkpt>
<trkpt lat="43.0620170000" lon="-1.0892120000"><ele>1156</ele><time>2026-04-09T10:27:36Z</time></trkpt>
<trkpt lat="43.0620170000" lon="-1.0892000000"><ele>1155</ele><time>2026-04-09T10:27:37Z</time></trkpt>
<trkpt lat="43.0620170000" lon="-1.0891720000"><ele>1155</ele><time>2026-04-09T10:27:39Z</time></trkpt>
<trkpt lat="43.0620300000" lon="-1.0891350000"><ele>1154</ele><time>2026-04-09T10:27:42Z</time></trkpt>
<trkpt lat="43.0620320000" lon="-1.0891200000"><ele>1154</ele><time>2026-04-09T10:27:43Z</time></trkpt>
<trkpt lat="43.0620370000" lon="-1.0890920000"><ele>1154</ele><time>2026-04-09T10:27:45Z</time></trkpt>
<trkpt lat="43.0620370000" lon="-1.0890520000"><ele>1153</ele><time>2026-04-09T10:27:48Z</time></trkpt>
<trkpt lat="43.0620420000" lon="-1.0890370000"><ele>1153</ele><time>2026-04-09T10:27:49Z</time></trkpt>
<trkpt lat="43.0620420000" lon="-1.0890070000"><ele>1153</ele><time>2026-04-09T10:27:51Z</time></trkpt>
<trkpt lat="43.0620470000" lon="-1.0889720000"><ele>1152</ele><time>2026-04-09T10:27:54Z</time></trkpt>
<trkpt lat="43.0620470000" lon="-1.0889570000"><ele>1152</ele><time>2026-04-09T10:27:55Z</time></trkpt>
<trkpt lat="43.0620500000" lon="-1.0889270000"><ele>1151</ele><time>2026-04-09T10:27:57Z</time></trkpt>
<trkpt lat="43.0620470000" lon="-1.0888850000"><ele>1151</ele><time>2026-04-09T10:28:00Z</time></trkpt>
<trkpt lat="43.0620500000" lon="-1.0888720000"><ele>1151</ele><time>2026-04-09T10:28:01Z</time></trkpt>
<trkpt lat="43.0620520000" lon="-1.0888450000"><ele>1150</ele><time>2026-04-09T10:28:03Z</time></trkpt>
<trkpt lat="43.0620550000" lon="-1.0888020000"><ele>1150</ele><time>2026-04-09T10:28:06Z</time></trkpt>
<trkpt lat="43.0620570000" lon="-1.0887870000"><ele>1150</ele><time>2026-04-09T10:28:07Z</time></trkpt>
<trkpt lat="43.0620700000" lon="-1.0887570000"><ele>1149</ele><time>2026-04-09T10:28:10Z</time></trkpt>
<trkpt lat="43.0620720000" lon="-1.0887320000"><ele>1149</ele><time>2026-04-09T10:28:12Z</time></trkpt>
<trkpt lat="43.0620720000" lon="-1.0887050000"><ele>1149</ele><time>2026-04-09T10:28:14Z</time></trkpt>
<trkpt lat="43.0620770000" lon="-1.0886770000"><ele>1149</ele><time>2026-04-09T10:28:16Z</time></trkpt>
<trkpt lat="43.0620850000" lon="-1.0886520000"><ele>1149</ele><time>2026-04-09T10:28:18Z</time></trkpt>
<trkpt lat="43.0620970000" lon="-1.0886220000"><ele>1149</ele><time>2026-04-09T10:28:20Z</time></trkpt>
<trkpt lat="43.0621080000" lon="-1.0885920000"><ele>1149</ele><time>2026-04-09T10:28:22Z</time></trkpt>
<trkpt lat="43.0621170000" lon="-1.0885600000"><ele>1149</ele><time>2026-04-09T10:28:24Z</time></trkpt>
<trkpt lat="43.0621270000" lon="-1.0885370000"><ele>1148</ele><time>2026-04-09T10:28:26Z</time></trkpt>
<trkpt lat="43.0621350000" lon="-1.0885120000"><ele>1148</ele><time>2026-04-09T10:28:28Z</time></trkpt>
<trkpt lat="43.0621470000" lon="-1.0884800000"><ele>1148</ele><time>2026-04-09T10:28:31Z</time></trkpt>
<trkpt lat="43.0621500000" lon="-1.0884500000"><ele>1147</ele><time>2026-04-09T10:28:34Z</time></trkpt>
<trkpt lat="43.0621570000" lon="-1.0884150000"><ele>1146</ele><time>2026-04-09T10:28:45Z</time></trkpt>
<trkpt lat="43.0621670000" lon="-1.0883870000"><ele>1145</ele><time>2026-04-09T10:28:47Z</time></trkpt>
<trkpt lat="43.0621780000" lon="-1.0883620000"><ele>1145</ele><time>2026-04-09T10:28:49Z</time></trkpt>
<trkpt lat="43.0622000000" lon="-1.0883470000"><ele>1145</ele><time>2026-04-09T10:28:51Z</time></trkpt>
<trkpt lat="43.0622100000" lon="-1.0883220000"><ele>1145</ele><time>2026-04-09T10:28:53Z</time></trkpt>
<trkpt lat="43.0622250000" lon="-1.0883070000"><ele>1144</ele><time>2026-04-09T10:28:55Z</time></trkpt>
<trkpt lat="43.0622420000" lon="-1.0882900000"><ele>1144</ele><time>2026-04-09T10:28:57Z</time></trkpt>
<trkpt lat="43.0622470000" lon="-1.0882570000"><ele>1144</ele><time>2026-04-09T10:29:00Z</time></trkpt>
<trkpt lat="43.0622520000" lon="-1.0882320000"><ele>1143</ele><time>2026-04-09T10:29:02Z</time></trkpt>
<trkpt lat="43.0622620000" lon="-1.0882100000"><ele>1143</ele><time>2026-04-09T10:29:04Z</time></trkpt>
<trkpt lat="43.0622720000" lon="-1.0881870000"><ele>1142</ele><time>2026-04-09T10:29:06Z</time></trkpt>
<trkpt lat="43.0622820000" lon="-1.0881670000"><ele>1142</ele><time>2026-04-09T10:29:08Z</time></trkpt>
<trkpt lat="43.0622950000" lon="-1.0881420000"><ele>1142</ele><time>2026-04-09T10:29:10Z</time></trkpt>
<trkpt lat="43.0623070000" lon="-1.0881170000"><ele>1142</ele><time>2026-04-09T10:29:12Z</time></trkpt>
<trkpt lat="43.0623220000" lon="-1.0880950000"><ele>1142</ele><time>2026-04-09T10:29:14Z</time></trkpt>
<trkpt lat="43.0623330000" lon="-1.0880670000"><ele>1142</ele><time>2026-04-09T10:29:16Z</time></trkpt>
<trkpt lat="43.0623470000" lon="-1.0880420000"><ele>1142</ele><time>2026-04-09T10:29:18Z</time></trkpt>
<trkpt lat="43.0623600000" lon="-1.0880220000"><ele>1141</ele><time>2026-04-09T10:29:20Z</time></trkpt>
<trkpt lat="43.0623670000" lon="-1.0879970000"><ele>1141</ele><time>2026-04-09T10:29:22Z</time></trkpt>
<trkpt lat="43.0623770000" lon="-1.0879650000"><ele>1141</ele><time>2026-04-09T10:29:25Z</time></trkpt>
<trkpt lat="43.0623850000" lon="-1.0879420000"><ele>1140</ele><time>2026-04-09T10:29:27Z</time></trkpt>
<trkpt lat="43.0623900000" lon="-1.0879120000"><ele>1140</ele><time>2026-04-09T10:29:29Z</time></trkpt>
<trkpt lat="43.0623950000" lon="-1.0878870000"><ele>1140</ele><time>2026-04-09T10:29:31Z</time></trkpt>
<trkpt lat="43.0624070000" lon="-1.0878570000"><ele>1140</ele><time>2026-04-09T10:29:33Z</time></trkpt>
<trkpt lat="43.0624170000" lon="-1.0878320000"><ele>1140</ele><time>2026-04-09T10:29:35Z</time></trkpt>
<trkpt lat="43.0624250000" lon="-1.0878020000"><ele>1140</ele><time>2026-04-09T10:29:37Z</time></trkpt>
<trkpt lat="43.0624300000" lon="-1.0877720000"><ele>1140</ele><time>2026-04-09T10:29:39Z</time></trkpt>
<trkpt lat="43.0624320000" lon="-1.0877420000"><ele>1140</ele><time>2026-04-09T10:29:41Z</time></trkpt>
<trkpt lat="43.0624420000" lon="-1.0877120000"><ele>1140</ele><time>2026-04-09T10:29:43Z</time></trkpt>
<trkpt lat="43.0624520000" lon="-1.0876800000"><ele>1140</ele><time>2026-04-09T10:29:45Z</time></trkpt>
<trkpt lat="43.0624670000" lon="-1.0876470000"><ele>1140</ele><time>2026-04-09T10:29:47Z</time></trkpt>
<trkpt lat="43.0624720000" lon="-1.0876150000"><ele>1140</ele><time>2026-04-09T10:29:49Z</time></trkpt>
<trkpt lat="43.0624720000" lon="-1.0875870000"><ele>1140</ele><time>2026-04-09T10:29:51Z</time></trkpt>
<trkpt lat="43.0624770000" lon="-1.0875620000"><ele>1140</ele><time>2026-04-09T10:29:53Z</time></trkpt>
<trkpt lat="43.0624820000" lon="-1.0875320000"><ele>1140</ele><time>2026-04-09T10:29:55Z</time></trkpt>
<trkpt lat="43.0624800000" lon="-1.0875050000"><ele>1139</ele><time>2026-04-09T10:29:59Z</time></trkpt>
<trkpt lat="43.0624820000" lon="-1.0874770000"><ele>1139</ele><time>2026-04-09T10:30:01Z</time></trkpt>
<trkpt lat="43.0624850000" lon="-1.0874470000"><ele>1140</ele><time>2026-04-09T10:30:03Z</time></trkpt>
<trkpt lat="43.0624870000" lon="-1.0874200000"><ele>1140</ele><time>2026-04-09T10:30:05Z</time></trkpt>
<trkpt lat="43.0624850000" lon="-1.0873920000"><ele>1140</ele><time>2026-04-09T10:30:07Z</time></trkpt>
<trkpt lat="43.0624870000" lon="-1.0873670000"><ele>1140</ele><time>2026-04-09T10:30:09Z</time></trkpt>
<trkpt lat="43.0624870000" lon="-1.0873370000"><ele>1139</ele><time>2026-04-09T10:30:11Z</time></trkpt>
<trkpt lat="43.0624850000" lon="-1.0873120000"><ele>1139</ele><time>2026-04-09T10:30:13Z</time></trkpt>
<trkpt lat="43.0624770000" lon="-1.0872870000"><ele>1139</ele><time>2026-04-09T10:30:15Z</time></trkpt>
<trkpt lat="43.0624670000" lon="-1.0872670000"><ele>1139</ele><time>2026-04-09T10:30:17Z</time></trkpt>
<trkpt lat="43.0624550000" lon="-1.0872450000"><ele>1138</ele><time>2026-04-09T10:30:19Z</time></trkpt>
<trkpt lat="43.0624420000" lon="-1.0872250000"><ele>1138</ele><time>2026-04-09T10:30:21Z</time></trkpt>
<trkpt lat="43.0624300000" lon="-1.0872000000"><ele>1138</ele><time>2026-04-09T10:30:23Z</time></trkpt>
<trkpt lat="43.0624220000" lon="-1.0871720000"><ele>1138</ele><time>2026-04-09T10:30:25Z</time></trkpt>
<trkpt lat="43.0624170000" lon="-1.0871470000"><ele>1138</ele><time>2026-04-09T10:30:27Z</time></trkpt>
<trkpt lat="43.0624100000" lon="-1.0871220000"><ele>1137</ele><time>2026-04-09T10:30:29Z</time></trkpt>
<trkpt lat="43.0624030000" lon="-1.0870970000"><ele>1137</ele><time>2026-04-09T10:30:33Z</time></trkpt>
<trkpt lat="43.0624250000" lon="-1.0870800000"><ele>1137</ele><time>2026-04-09T10:30:47Z</time></trkpt>
<trkpt lat="43.0624450000" lon="-1.0870600000"><ele>1137</ele><time>2026-04-09T10:30:50Z</time></trkpt>
<trkpt lat="43.0624620000" lon="-1.0870470000"><ele>1137</ele><time>2026-04-09T10:30:53Z</time></trkpt>
<trkpt lat="43.0624800000" lon="-1.0870450000"><ele>1137</ele><time>2026-04-09T10:30:57Z</time></trkpt>
<trkpt lat="43.0624970000" lon="-1.0870320000"><ele>1137</ele><time>2026-04-09T10:30:59Z</time></trkpt>
<trkpt lat="43.0625120000" lon="-1.0870120000"><ele>1137</ele><time>2026-04-09T10:31:01Z</time></trkpt>
<trkpt lat="43.0625220000" lon="-1.0869850000"><ele>1137</ele><time>2026-04-09T10:31:03Z</time></trkpt>
<trkpt lat="43.0625220000" lon="-1.0869570000"><ele>1137</ele><time>2026-04-09T10:31:05Z</time></trkpt>
<trkpt lat="43.0625220000" lon="-1.0869320000"><ele>1137</ele><time>2026-04-09T10:31:07Z</time></trkpt>
<trkpt lat="43.0625170000" lon="-1.0869020000"><ele>1137</ele><time>2026-04-09T10:31:09Z</time></trkpt>
<trkpt lat="43.0625150000" lon="-1.0868720000"><ele>1137</ele><time>2026-04-09T10:31:11Z</time></trkpt>
<trkpt lat="43.0625150000" lon="-1.0868450000"><ele>1137</ele><time>2026-04-09T10:31:13Z</time></trkpt>
<trkpt lat="43.0625100000" lon="-1.0868100000"><ele>1137</ele><time>2026-04-09T10:31:16Z</time></trkpt>
<trkpt lat="43.0625020000" lon="-1.0867850000"><ele>1137</ele><time>2026-04-09T10:31:18Z</time></trkpt>
<trkpt lat="43.0625000000" lon="-1.0867580000"><ele>1137</ele><time>2026-04-09T10:31:20Z</time></trkpt>
<trkpt lat="43.0624970000" lon="-1.0867350000"><ele>1137</ele><time>2026-04-09T10:31:22Z</time></trkpt>
<trkpt lat="43.0624880000" lon="-1.0867020000"><ele>1137</ele><time>2026-04-09T10:31:25Z</time></trkpt>
<trkpt lat="43.0624870000" lon="-1.0866670000"><ele>1137</ele><time>2026-04-09T10:31:28Z</time></trkpt>
<trkpt lat="43.0624850000" lon="-1.0866350000"><ele>1137</ele><time>2026-04-09T10:31:31Z</time></trkpt>
<trkpt lat="43.0624870000" lon="-1.0866020000"><ele>1137</ele><time>2026-04-09T10:31:34Z</time></trkpt>
<trkpt lat="43.0625020000" lon="-1.0865770000"><ele>1137</ele><time>2026-04-09T10:31:37Z</time></trkpt>
<trkpt lat="43.0624770000" lon="-1.0865830000"><ele>1136</ele><time>2026-04-09T10:32:27Z</time></trkpt>
<trkpt lat="43.0624650000" lon="-1.0866020000"><ele>1136</ele><time>2026-04-09T10:32:31Z</time></trkpt>
<trkpt lat="43.0624650000" lon="-1.0866270000"><ele>1136</ele><time>2026-04-09T10:32:34Z</time></trkpt>
<trkpt lat="43.0624770000" lon="-1.0866550000"><ele>1136</ele><time>2026-04-09T10:32:36Z</time></trkpt>
<trkpt lat="43.0624870000" lon="-1.0866820000"><ele>1136</ele><time>2026-04-09T10:32:38Z</time></trkpt>
<trkpt lat="43.0624970000" lon="-1.0867070000"><ele>1136</ele><time>2026-04-09T10:32:40Z</time></trkpt>
<trkpt lat="43.0625070000" lon="-1.0867320000"><ele>1136</ele><time>2026-04-09T10:32:42Z</time></trkpt>
<trkpt lat="43.0625150000" lon="-1.0867570000"><ele>1136</ele><time>2026-04-09T10:32:44Z</time></trkpt>
<trkpt lat="43.0625220000" lon="-1.0867820000"><ele>1136</ele><time>2026-04-09T10:32:46Z</time></trkpt>
<trkpt lat="43.0625320000" lon="-1.0868070000"><ele>1136</ele><time>2026-04-09T10:32:48Z</time></trkpt>
<trkpt lat="43.0625420000" lon="-1.0868420000"><ele>1136</ele><time>2026-04-09T10:32:51Z</time></trkpt>
<trkpt lat="43.0625470000" lon="-1.0868720000"><ele>1136</ele><time>2026-04-09T10:32:53Z</time></trkpt>
<trkpt lat="43.0625520000" lon="-1.0868970000"><ele>1136</ele><time>2026-04-09T10:32:55Z</time></trkpt>
<trkpt lat="43.0625520000" lon="-1.0869270000"><ele>1136</ele><time>2026-04-09T10:32:57Z</time></trkpt>
<trkpt lat="43.0625470000" lon="-1.0869550000"><ele>1137</ele><time>2026-04-09T10:32:59Z</time></trkpt>
<trkpt lat="43.0625500000" lon="-1.0869800000"><ele>1136</ele><time>2026-04-09T10:33:01Z</time></trkpt>
<trkpt lat="43.0625520000" lon="-1.0870070000"><ele>1136</ele><time>2026-04-09T10:33:03Z</time></trkpt>
<trkpt lat="43.0625570000" lon="-1.0870370000"><ele>1136</ele><time>2026-04-09T10:33:05Z</time></trkpt>
<trkpt lat="43.0625670000" lon="-1.0870670000"><ele>1136</ele><time>2026-04-09T10:33:07Z</time></trkpt>
<trkpt lat="43.0625820000" lon="-1.0870970000"><ele>1136</ele><time>2026-04-09T10:33:09Z</time></trkpt>
<trkpt lat="43.0625950000" lon="-1.0871270000"><ele>1136</ele><time>2026-04-09T10:33:11Z</time></trkpt>
<trkpt lat="43.0625970000" lon="-1.0871520000"><ele>1136</ele><time>2026-04-09T10:33:14Z</time></trkpt>
<trkpt lat="43.0625920000" lon="-1.0871820000"><ele>1135</ele><time>2026-04-09T10:33:17Z</time></trkpt>
<trkpt lat="43.0626070000" lon="-1.0872050000"><ele>1135</ele><time>2026-04-09T10:33:40Z</time></trkpt>
<trkpt lat="43.0626120000" lon="-1.0872320000"><ele>1135</ele><time>2026-04-09T10:33:43Z</time></trkpt>
<trkpt lat="43.0626300000" lon="-1.0872620000"><ele>1135</ele><time>2026-04-09T10:33:45Z</time></trkpt>
<trkpt lat="43.0626420000" lon="-1.0872870000"><ele>1135</ele><time>2026-04-09T10:33:47Z</time></trkpt>
<trkpt lat="43.0626500000" lon="-1.0873170000"><ele>1135</ele><time>2026-04-09T10:33:49Z</time></trkpt>
<trkpt lat="43.0626620000" lon="-1.0873420000"><ele>1135</ele><time>2026-04-09T10:33:51Z</time></trkpt>
<trkpt lat="43.0626770000" lon="-1.0873750000"><ele>1135</ele><time>2026-04-09T10:33:54Z</time></trkpt>
<trkpt lat="43.0626900000" lon="-1.0874000000"><ele>1135</ele><time>2026-04-09T10:33:56Z</time></trkpt>
<trkpt lat="43.0627000000" lon="-1.0874270000"><ele>1135</ele><time>2026-04-09T10:33:58Z</time></trkpt>
<trkpt lat="43.0627070000" lon="-1.0874500000"><ele>1134</ele><time>2026-04-09T10:34:00Z</time></trkpt>
<trkpt lat="43.0627200000" lon="-1.0874770000"><ele>1134</ele><time>2026-04-09T10:34:02Z</time></trkpt>
<trkpt lat="43.0627320000" lon="-1.0875020000"><ele>1134</ele><time>2026-04-09T10:34:04Z</time></trkpt>
<trkpt lat="43.0627420000" lon="-1.0875320000"><ele>1134</ele><time>2026-04-09T10:34:06Z</time></trkpt>
<trkpt lat="43.0627570000" lon="-1.0875550000"><ele>1134</ele><time>2026-04-09T10:34:08Z</time></trkpt>
<trkpt lat="43.0627670000" lon="-1.0875770000"><ele>1133</ele><time>2026-04-09T10:34:10Z</time></trkpt>
<trkpt lat="43.0627720000" lon="-1.0876020000"><ele>1133</ele><time>2026-04-09T10:34:13Z</time></trkpt>
<trkpt lat="43.0627720000" lon="-1.0876270000"><ele>1133</ele><time>2026-04-09T10:34:21Z</time></trkpt>
<trkpt lat="43.0627770000" lon="-1.0876620000"><ele>1132</ele><time>2026-04-09T10:34:31Z</time></trkpt>
<trkpt lat="43.0627830000" lon="-1.0877030000"><ele>1132</ele><time>2026-04-09T10:34:33Z</time></trkpt>
<trkpt lat="43.0627900000" lon="-1.0877550000"><ele>1132</ele><time>2026-04-09T10:34:35Z</time></trkpt>
<trkpt lat="43.0627870000" lon="-1.0878000000"><ele>1132</ele><time>2026-04-09T10:34:37Z</time></trkpt>
<trkpt lat="43.0627870000" lon="-1.0878320000"><ele>1132</ele><time>2026-04-09T10:34:39Z</time></trkpt>
<trkpt lat="43.0627820000" lon="-1.0878570000"><ele>1132</ele><time>2026-04-09T10:34:42Z</time></trkpt>
<trkpt lat="43.0627870000" lon="-1.0878320000"><ele>1130</ele><time>2026-04-09T10:36:01Z</time></trkpt>
<trkpt lat="43.0627720000" lon="-1.0878070000"><ele>1130</ele><time>2026-04-09T10:38:20Z</time></trkpt>
<trkpt lat="43.0627470000" lon="-1.0877920000"><ele>1130</ele><time>2026-04-09T10:38:22Z</time></trkpt>
<trkpt lat="43.0627420000" lon="-1.0878170000"><ele>1130</ele><time>2026-04-09T10:39:50Z</time></trkpt>
<trkpt lat="43.0627600000" lon="-1.0878450000"><ele>1131</ele><time>2026-04-09T10:39:54Z</time></trkpt>
<trkpt lat="43.0627720000" lon="-1.0878620000"><ele>1130</ele><time>2026-04-09T10:40:38Z</time></trkpt>
<trkpt lat="43.0627870000" lon="-1.0879050000"><ele>1130</ele><time>2026-04-09T10:40:40Z</time></trkpt>
<trkpt lat="43.0628020000" lon="-1.0879470000"><ele>1130</ele><time>2026-04-09T10:40:42Z</time></trkpt>
<trkpt lat="43.0628120000" lon="-1.0879870000"><ele>1130</ele><time>2026-04-09T10:40:44Z</time></trkpt>
<trkpt lat="43.0628220000" lon="-1.0880200000"><ele>1130</ele><time>2026-04-09T10:40:46Z</time></trkpt>
<trkpt lat="43.0628300000" lon="-1.0880450000"><ele>1130</ele><time>2026-04-09T10:40:48Z</time></trkpt>
<trkpt lat="43.0628370000" lon="-1.0880670000"><ele>1130</ele><time>2026-04-09T10:40:50Z</time></trkpt>
<trkpt lat="43.0628520000" lon="-1.0880950000"><ele>1129</ele><time>2026-04-09T10:40:52Z</time></trkpt>
<trkpt lat="43.0628620000" lon="-1.0881270000"><ele>1129</ele><time>2026-04-09T10:40:54Z</time></trkpt>
<trkpt lat="43.0628670000" lon="-1.0881570000"><ele>1129</ele><time>2026-04-09T10:40:56Z</time></trkpt>
<trkpt lat="43.0628770000" lon="-1.0881900000"><ele>1129</ele><time>2026-04-09T10:40:58Z</time></trkpt>
<trkpt lat="43.0628800000" lon="-1.0882270000"><ele>1129</ele><time>2026-04-09T10:41:00Z</time></trkpt>
<trkpt lat="43.0628850000" lon="-1.0882720000"><ele>1128</ele><time>2026-04-09T10:41:02Z</time></trkpt>
<trkpt lat="43.0628970000" lon="-1.0883020000"><ele>1128</ele><time>2026-04-09T10:41:04Z</time></trkpt>
<trkpt lat="43.0629120000" lon="-1.0883270000"><ele>1128</ele><time>2026-04-09T10:41:06Z</time></trkpt>
<trkpt lat="43.0629300000" lon="-1.0883520000"><ele>1128</ele><time>2026-04-09T10:41:08Z</time></trkpt>
<trkpt lat="43.0629470000" lon="-1.0883750000"><ele>1128</ele><time>2026-04-09T10:41:10Z</time></trkpt>
<trkpt lat="43.0629600000" lon="-1.0883970000"><ele>1128</ele><time>2026-04-09T10:41:12Z</time></trkpt>
<trkpt lat="43.0629720000" lon="-1.0884250000"><ele>1127</ele><time>2026-04-09T10:41:14Z</time></trkpt>
<trkpt lat="43.0629920000" lon="-1.0884370000"><ele>1127</ele><time>2026-04-09T10:41:16Z</time></trkpt>
<trkpt lat="43.0630150000" lon="-1.0884520000"><ele>1127</ele><time>2026-04-09T10:41:18Z</time></trkpt>
<trkpt lat="43.0630350000" lon="-1.0884720000"><ele>1127</ele><time>2026-04-09T10:41:20Z</time></trkpt>
<trkpt lat="43.0630550000" lon="-1.0884850000"><ele>1127</ele><time>2026-04-09T10:41:22Z</time></trkpt>
<trkpt lat="43.0630750000" lon="-1.0884970000"><ele>1127</ele><time>2026-04-09T10:41:24Z</time></trkpt>
<trkpt lat="43.0631020000" lon="-1.0884920000"><ele>1126</ele><time>2026-04-09T10:41:26Z</time></trkpt>
<trkpt lat="43.0631250000" lon="-1.0884950000"><ele>1126</ele><time>2026-04-09T10:41:28Z</time></trkpt>
<trkpt lat="43.0631470000" lon="-1.0884970000"><ele>1126</ele><time>2026-04-09T10:41:30Z</time></trkpt>
<trkpt lat="43.0631670000" lon="-1.0884970000"><ele>1126</ele><time>2026-04-09T10:41:32Z</time></trkpt>
<trkpt lat="43.0631870000" lon="-1.0885120000"><ele>1125</ele><time>2026-04-09T10:41:34Z</time></trkpt>
<trkpt lat="43.0632120000" lon="-1.0885270000"><ele>1125</ele><time>2026-04-09T10:41:36Z</time></trkpt>
<trkpt lat="43.0632350000" lon="-1.0885400000"><ele>1125</ele><time>2026-04-09T10:41:38Z</time></trkpt>
<trkpt lat="43.0632550000" lon="-1.0885520000"><ele>1125</ele><time>2026-04-09T10:41:40Z</time></trkpt>
<trkpt lat="43.0632770000" lon="-1.0885670000"><ele>1125</ele><time>2026-04-09T10:41:42Z</time></trkpt>
<trkpt lat="43.0633000000" lon="-1.0885820000"><ele>1125</ele><time>2026-04-09T10:41:44Z</time></trkpt>
<trkpt lat="43.0633180000" lon="-1.0886020000"><ele>1125</ele><time>2026-04-09T10:41:46Z</time></trkpt>
<trkpt lat="43.0633420000" lon="-1.0886170000"><ele>1124</ele><time>2026-04-09T10:41:48Z</time></trkpt>
<trkpt lat="43.0633620000" lon="-1.0886400000"><ele>1124</ele><time>2026-04-09T10:41:50Z</time></trkpt>
<trkpt lat="43.0633800000" lon="-1.0886600000"><ele>1124</ele><time>2026-04-09T10:41:52Z</time></trkpt>
<trkpt lat="43.0634150000" lon="-1.0886800000"><ele>1124</ele><time>2026-04-09T10:41:55Z</time></trkpt>
<trkpt lat="43.0634270000" lon="-1.0886870000"><ele>1124</ele><time>2026-04-09T10:41:56Z</time></trkpt>
<trkpt lat="43.0634470000" lon="-1.0887000000"><ele>1124</ele><time>2026-04-09T10:41:58Z</time></trkpt>
<trkpt lat="43.0634700000" lon="-1.0887120000"><ele>1124</ele><time>2026-04-09T10:42:00Z</time></trkpt>
<trkpt lat="43.0634870000" lon="-1.0887300000"><ele>1124</ele><time>2026-04-09T10:42:02Z</time></trkpt>
<trkpt lat="43.0635070000" lon="-1.0887450000"><ele>1123</ele><time>2026-04-09T10:42:04Z</time></trkpt>
<trkpt lat="43.0635300000" lon="-1.0887570000"><ele>1123</ele><time>2026-04-09T10:42:06Z</time></trkpt>
<trkpt lat="43.0635550000" lon="-1.0887650000"><ele>1123</ele><time>2026-04-09T10:42:08Z</time></trkpt>
<trkpt lat="43.0635750000" lon="-1.0887820000"><ele>1123</ele><time>2026-04-09T10:42:10Z</time></trkpt>
<trkpt lat="43.0635920000" lon="-1.0888070000"><ele>1123</ele><time>2026-04-09T10:42:12Z</time></trkpt>
<trkpt lat="43.0636100000" lon="-1.0888270000"><ele>1123</ele><time>2026-04-09T10:42:14Z</time></trkpt>
<trkpt lat="43.0636220000" lon="-1.0888470000"><ele>1123</ele><time>2026-04-09T10:42:15Z</time></trkpt>
<trkpt lat="43.0636400000" lon="-1.0888620000"><ele>1123</ele><time>2026-04-09T10:42:17Z</time></trkpt>
<trkpt lat="43.0636650000" lon="-1.0888720000"><ele>1122</ele><time>2026-04-09T10:42:19Z</time></trkpt>
<trkpt lat="43.0636870000" lon="-1.0888770000"><ele>1122</ele><time>2026-04-09T10:42:21Z</time></trkpt>
<trkpt lat="43.0637170000" lon="-1.0888770000"><ele>1122</ele><time>2026-04-09T10:42:23Z</time></trkpt>
<trkpt lat="43.0637420000" lon="-1.0888770000"><ele>1122</ele><time>2026-04-09T10:42:25Z</time></trkpt>
<trkpt lat="43.0637680000" lon="-1.0888750000"><ele>1122</ele><time>2026-04-09T10:42:27Z</time></trkpt>
<trkpt lat="43.0637920000" lon="-1.0888720000"><ele>1122</ele><time>2026-04-09T10:42:29Z</time></trkpt>
<trkpt lat="43.0638120000" lon="-1.0888670000"><ele>1122</ele><time>2026-04-09T10:42:31Z</time></trkpt>
<trkpt lat="43.0638320000" lon="-1.0888600000"><ele>1122</ele><time>2026-04-09T10:42:33Z</time></trkpt>
<trkpt lat="43.0638600000" lon="-1.0888500000"><ele>1122</ele><time>2026-04-09T10:42:35Z</time></trkpt>
<trkpt lat="43.0638820000" lon="-1.0888470000"><ele>1122</ele><time>2026-04-09T10:42:37Z</time></trkpt>
<trkpt lat="43.0639050000" lon="-1.0888370000"><ele>1122</ele><time>2026-04-09T10:42:39Z</time></trkpt>
<trkpt lat="43.0639270000" lon="-1.0888320000"><ele>1122</ele><time>2026-04-09T10:42:41Z</time></trkpt>
<trkpt lat="43.0639500000" lon="-1.0888270000"><ele>1121</ele><time>2026-04-09T10:42:43Z</time></trkpt>
<trkpt lat="43.0639720000" lon="-1.0888200000"><ele>1121</ele><time>2026-04-09T10:42:45Z</time></trkpt>
<trkpt lat="43.0639920000" lon="-1.0888150000"><ele>1121</ele><time>2026-04-09T10:42:47Z</time></trkpt>
<trkpt lat="43.0640120000" lon="-1.0888070000"><ele>1121</ele><time>2026-04-09T10:42:49Z</time></trkpt>
<trkpt lat="43.0640400000" lon="-1.0888020000"><ele>1121</ele><time>2026-04-09T10:42:51Z</time></trkpt>
<trkpt lat="43.0640620000" lon="-1.0888020000"><ele>1121</ele><time>2026-04-09T10:42:53Z</time></trkpt>
<trkpt lat="43.0640870000" lon="-1.0888000000"><ele>1121</ele><time>2026-04-09T10:42:55Z</time></trkpt>
<trkpt lat="43.0641120000" lon="-1.0888020000"><ele>1121</ele><time>2026-04-09T10:42:57Z</time></trkpt>
<trkpt lat="43.0641370000" lon="-1.0888050000"><ele>1121</ele><time>2026-04-09T10:42:59Z</time></trkpt>
<trkpt lat="43.0641620000" lon="-1.0888070000"><ele>1120</ele><time>2026-04-09T10:43:01Z</time></trkpt>
<trkpt lat="43.0641870000" lon="-1.0888100000"><ele>1120</ele><time>2026-04-09T10:43:03Z</time></trkpt>
<trkpt lat="43.0642100000" lon="-1.0888150000"><ele>1120</ele><time>2026-04-09T10:43:05Z</time></trkpt>
<trkpt lat="43.0642400000" lon="-1.0888150000"><ele>1120</ele><time>2026-04-09T10:43:07Z</time></trkpt>
<trkpt lat="43.0642670000" lon="-1.0888220000"><ele>1120</ele><time>2026-04-09T10:43:09Z</time></trkpt>
<trkpt lat="43.0642920000" lon="-1.0888300000"><ele>1120</ele><time>2026-04-09T10:43:11Z</time></trkpt>
<trkpt lat="43.0643220000" lon="-1.0888300000"><ele>1120</ele><time>2026-04-09T10:43:13Z</time></trkpt>
<trkpt lat="43.0643500000" lon="-1.0888320000"><ele>1120</ele><time>2026-04-09T10:43:15Z</time></trkpt>
<trkpt lat="43.0643730000" lon="-1.0888400000"><ele>1120</ele><time>2026-04-09T10:43:17Z</time></trkpt>
<trkpt lat="43.0644000000" lon="-1.0888520000"><ele>1120</ele><time>2026-04-09T10:43:19Z</time></trkpt>
<trkpt lat="43.0644220000" lon="-1.0888620000"><ele>1119</ele><time>2026-04-09T10:43:21Z</time></trkpt>
<trkpt lat="43.0644420000" lon="-1.0888750000"><ele>1119</ele><time>2026-04-09T10:43:23Z</time></trkpt>
<trkpt lat="43.0644670000" lon="-1.0888820000"><ele>1119</ele><time>2026-04-09T10:43:25Z</time></trkpt>
<trkpt lat="43.0644900000" lon="-1.0888950000"><ele>1119</ele><time>2026-04-09T10:43:27Z</time></trkpt>
<trkpt lat="43.0645150000" lon="-1.0889020000"><ele>1119</ele><time>2026-04-09T10:43:29Z</time></trkpt>
<trkpt lat="43.0645400000" lon="-1.0889120000"><ele>1119</ele><time>2026-04-09T10:43:31Z</time></trkpt>
<trkpt lat="43.0645670000" lon="-1.0889120000"><ele>1119</ele><time>2026-04-09T10:43:33Z</time></trkpt>
<trkpt lat="43.0645920000" lon="-1.0889070000"><ele>1119</ele><time>2026-04-09T10:43:35Z</time></trkpt>
<trkpt lat="43.0646170000" lon="-1.0889050000"><ele>1119</ele><time>2026-04-09T10:43:37Z</time></trkpt>
<trkpt lat="43.0646470000" lon="-1.0889000000"><ele>1119</ele><time>2026-04-09T10:43:39Z</time></trkpt>
<trkpt lat="43.0646720000" lon="-1.0888920000"><ele>1119</ele><time>2026-04-09T10:43:41Z</time></trkpt>
<trkpt lat="43.0647000000" lon="-1.0888820000"><ele>1119</ele><time>2026-04-09T10:43:43Z</time></trkpt>
<trkpt lat="43.0647220000" lon="-1.0888720000"><ele>1119</ele><time>2026-04-09T10:43:45Z</time></trkpt>
<trkpt lat="43.0647470000" lon="-1.0888570000"><ele>1119</ele><time>2026-04-09T10:43:47Z</time></trkpt>
<trkpt lat="43.0647720000" lon="-1.0888420000"><ele>1119</ele><time>2026-04-09T10:43:49Z</time></trkpt>
<trkpt lat="43.0647970000" lon="-1.0888270000"><ele>1119</ele><time>2026-04-09T10:43:51Z</time></trkpt>
<trkpt lat="43.0648220000" lon="-1.0888100000"><ele>1119</ele><time>2026-04-09T10:43:53Z</time></trkpt>
<trkpt lat="43.0648450000" lon="-1.0887970000"><ele>1119</ele><time>2026-04-09T10:43:55Z</time></trkpt>
<trkpt lat="43.0648620000" lon="-1.0887870000"><ele>1119</ele><time>2026-04-09T10:43:57Z</time></trkpt>
<trkpt lat="43.0648820000" lon="-1.0887750000"><ele>1119</ele><time>2026-04-09T10:43:59Z</time></trkpt>
<trkpt lat="43.0649070000" lon="-1.0887650000"><ele>1119</ele><time>2026-04-09T10:44:01Z</time></trkpt>
<trkpt lat="43.0649300000" lon="-1.0887550000"><ele>1119</ele><time>2026-04-09T10:44:03Z</time></trkpt>
<trkpt lat="43.0649520000" lon="-1.0887450000"><ele>1119</ele><time>2026-04-09T10:44:05Z</time></trkpt>
<trkpt lat="43.0649770000" lon="-1.0887320000"><ele>1119</ele><time>2026-04-09T10:44:07Z</time></trkpt>
<trkpt lat="43.0650020000" lon="-1.0887250000"><ele>1119</ele><time>2026-04-09T10:44:09Z</time></trkpt>
<trkpt lat="43.0650270000" lon="-1.0887170000"><ele>1119</ele><time>2026-04-09T10:44:11Z</time></trkpt>
<trkpt lat="43.0650500000" lon="-1.0887100000"><ele>1119</ele><time>2026-04-09T10:44:13Z</time></trkpt>
<trkpt lat="43.0650770000" lon="-1.0887020000"><ele>1119</ele><time>2026-04-09T10:44:15Z</time></trkpt>
<trkpt lat="43.0651020000" lon="-1.0886920000"><ele>1119</ele><time>2026-04-09T10:44:17Z</time></trkpt>
<trkpt lat="43.0651250000" lon="-1.0886850000"><ele>1119</ele><time>2026-04-09T10:44:19Z</time></trkpt>
<trkpt lat="43.0651470000" lon="-1.0886770000"><ele>1119</ele><time>2026-04-09T10:44:21Z</time></trkpt>
<trkpt lat="43.0651720000" lon="-1.0886700000"><ele>1119</ele><time>2026-04-09T10:44:23Z</time></trkpt>
<trkpt lat="43.0651950000" lon="-1.0886620000"><ele>1119</ele><time>2026-04-09T10:44:25Z</time></trkpt>
<trkpt lat="43.0652170000" lon="-1.0886520000"><ele>1119</ele><time>2026-04-09T10:44:27Z</time></trkpt>
<trkpt lat="43.0652420000" lon="-1.0886420000"><ele>1119</ele><time>2026-04-09T10:44:29Z</time></trkpt>
<trkpt lat="43.0652820000" lon="-1.0886350000"><ele>1119</ele><time>2026-04-09T10:44:32Z</time></trkpt>
<trkpt lat="43.0652920000" lon="-1.0886320000"><ele>1119</ele><time>2026-04-09T10:44:33Z</time></trkpt>
<trkpt lat="43.0653200000" lon="-1.0886320000"><ele>1119</ele><time>2026-04-09T10:44:35Z</time></trkpt>
<trkpt lat="43.0653420000" lon="-1.0886320000"><ele>1119</ele><time>2026-04-09T10:44:37Z</time></trkpt>
<trkpt lat="43.0653620000" lon="-1.0886320000"><ele>1119</ele><time>2026-04-09T10:44:39Z</time></trkpt>
<trkpt lat="43.0653820000" lon="-1.0886370000"><ele>1119</ele><time>2026-04-09T10:44:41Z</time></trkpt>
<trkpt lat="43.0654170000" lon="-1.0886420000"><ele>1119</ele><time>2026-04-09T10:44:44Z</time></trkpt>
<trkpt lat="43.0654300000" lon="-1.0886470000"><ele>1119</ele><time>2026-04-09T10:44:45Z</time></trkpt>
<trkpt lat="43.0654520000" lon="-1.0886770000"><ele>1119</ele><time>2026-04-09T10:44:47Z</time></trkpt>
<trkpt lat="43.0654700000" lon="-1.0887020000"><ele>1119</ele><time>2026-04-09T10:44:49Z</time></trkpt>
<trkpt lat="43.0654820000" lon="-1.0887270000"><ele>1119</ele><time>2026-04-09T10:44:51Z</time></trkpt>
<trkpt lat="43.0654970000" lon="-1.0887470000"><ele>1119</ele><time>2026-04-09T10:44:53Z</time></trkpt>
<trkpt lat="43.0655130000" lon="-1.0887570000"><ele>1119</ele><time>2026-04-09T10:44:58Z</time></trkpt>
<trkpt lat="43.0655250000" lon="-1.0887830000"><ele>1119</ele><time>2026-04-09T10:45:00Z</time></trkpt>
<trkpt lat="43.0655420000" lon="-1.0888020000"><ele>1119</ele><time>2026-04-09T10:45:02Z</time></trkpt>
<trkpt lat="43.0655550000" lon="-1.0888300000"><ele>1119</ele><time>2026-04-09T10:45:04Z</time></trkpt>
<trkpt lat="43.0655650000" lon="-1.0888600000"><ele>1119</ele><time>2026-04-09T10:45:06Z</time></trkpt>
<trkpt lat="43.0655770000" lon="-1.0888900000"><ele>1118</ele><time>2026-04-09T10:45:08Z</time></trkpt>
<trkpt lat="43.0655850000" lon="-1.0889170000"><ele>1118</ele><time>2026-04-09T10:45:10Z</time></trkpt>
<trkpt lat="43.0655920000" lon="-1.0889450000"><ele>1118</ele><time>2026-04-09T10:45:12Z</time></trkpt>
<trkpt lat="43.0656000000" lon="-1.0889720000"><ele>1118</ele><time>2026-04-09T10:45:14Z</time></trkpt>
<trkpt lat="43.0656100000" lon="-1.0890020000"><ele>1118</ele><time>2026-04-09T10:45:16Z</time></trkpt>
<trkpt lat="43.0656220000" lon="-1.0890320000"><ele>1118</ele><time>2026-04-09T10:45:18Z</time></trkpt>
<trkpt lat="43.0656320000" lon="-1.0890620000"><ele>1118</ele><time>2026-04-09T10:45:20Z</time></trkpt>
<trkpt lat="43.0656420000" lon="-1.0890920000"><ele>1118</ele><time>2026-04-09T10:45:22Z</time></trkpt>
<trkpt lat="43.0656520000" lon="-1.0891170000"><ele>1117</ele><time>2026-04-09T10:45:24Z</time></trkpt>
<trkpt lat="43.0656620000" lon="-1.0891470000"><ele>1117</ele><time>2026-04-09T10:45:26Z</time></trkpt>
<trkpt lat="43.0656750000" lon="-1.0891770000"><ele>1117</ele><time>2026-04-09T10:45:28Z</time></trkpt>
<trkpt lat="43.0656870000" lon="-1.0892120000"><ele>1117</ele><time>2026-04-09T10:45:30Z</time></trkpt>
<trkpt lat="43.0657020000" lon="-1.0892420000"><ele>1117</ele><time>2026-04-09T10:45:32Z</time></trkpt>
<trkpt lat="43.0657150000" lon="-1.0892720000"><ele>1116</ele><time>2026-04-09T10:45:34Z</time></trkpt>
<trkpt lat="43.0657320000" lon="-1.0892970000"><ele>1116</ele><time>2026-04-09T10:45:36Z</time></trkpt>
<trkpt lat="43.0657420000" lon="-1.0893250000"><ele>1116</ele><time>2026-04-09T10:45:38Z</time></trkpt>
<trkpt lat="43.0657570000" lon="-1.0893470000"><ele>1116</ele><time>2026-04-09T10:45:40Z</time></trkpt>
<trkpt lat="43.0657750000" lon="-1.0893670000"><ele>1116</ele><time>2026-04-09T10:45:42Z</time></trkpt>
<trkpt lat="43.0657870000" lon="-1.0893900000"><ele>1115</ele><time>2026-04-09T10:45:44Z</time></trkpt>
<trkpt lat="43.0658020000" lon="-1.0894120000"><ele>1115</ele><time>2026-04-09T10:45:46Z</time></trkpt>
<trkpt lat="43.0658200000" lon="-1.0894350000"><ele>1115</ele><time>2026-04-09T10:45:48Z</time></trkpt>
<trkpt lat="43.0658470000" lon="-1.0894470000"><ele>1115</ele><time>2026-04-09T10:45:50Z</time></trkpt>
<trkpt lat="43.0658720000" lon="-1.0894570000"><ele>1115</ele><time>2026-04-09T10:45:52Z</time></trkpt>
<trkpt lat="43.0658920000" lon="-1.0894620000"><ele>1115</ele><time>2026-04-09T10:45:54Z</time></trkpt>
<trkpt lat="43.0659070000" lon="-1.0894420000"><ele>1115</ele><time>2026-04-09T10:45:57Z</time></trkpt>
<trkpt lat="43.0659270000" lon="-1.0894400000"><ele>1114</ele><time>2026-04-09T10:46:05Z</time></trkpt>
<trkpt lat="43.0659400000" lon="-1.0894570000"><ele>1114</ele><time>2026-04-09T10:46:08Z</time></trkpt>
<trkpt lat="43.0659570000" lon="-1.0894770000"><ele>1114</ele><time>2026-04-09T10:46:10Z</time></trkpt>
<trkpt lat="43.0659820000" lon="-1.0894920000"><ele>1114</ele><time>2026-04-09T10:46:12Z</time></trkpt>
<trkpt lat="43.0660070000" lon="-1.0895050000"><ele>1114</ele><time>2026-04-09T10:46:14Z</time></trkpt>
<trkpt lat="43.0660270000" lon="-1.0895170000"><ele>1114</ele><time>2026-04-09T10:46:16Z</time></trkpt>
<trkpt lat="43.0660480000" lon="-1.0895350000"><ele>1114</ele><time>2026-04-09T10:46:18Z</time></trkpt>
<trkpt lat="43.0660700000" lon="-1.0895520000"><ele>1114</ele><time>2026-04-09T10:46:20Z</time></trkpt>
<trkpt lat="43.0660920000" lon="-1.0895670000"><ele>1114</ele><time>2026-04-09T10:46:22Z</time></trkpt>
<trkpt lat="43.0661120000" lon="-1.0895820000"><ele>1114</ele><time>2026-04-09T10:46:24Z</time></trkpt>
<trkpt lat="43.0661320000" lon="-1.0896000000"><ele>1113</ele><time>2026-04-09T10:46:26Z</time></trkpt>
<trkpt lat="43.0661520000" lon="-1.0896170000"><ele>1113</ele><time>2026-04-09T10:46:28Z</time></trkpt>
<trkpt lat="43.0661670000" lon="-1.0896330000"><ele>1113</ele><time>2026-04-09T10:46:30Z</time></trkpt>
<trkpt lat="43.0661900000" lon="-1.0896520000"><ele>1112</ele><time>2026-04-09T10:46:32Z</time></trkpt>
<trkpt lat="43.0662120000" lon="-1.0896670000"><ele>1112</ele><time>2026-04-09T10:46:34Z</time></trkpt>
<trkpt lat="43.0662320000" lon="-1.0896850000"><ele>1112</ele><time>2026-04-09T10:46:36Z</time></trkpt>
<trkpt lat="43.0662520000" lon="-1.0896970000"><ele>1112</ele><time>2026-04-09T10:46:38Z</time></trkpt>
<trkpt lat="43.0662720000" lon="-1.0897120000"><ele>1112</ele><time>2026-04-09T10:46:40Z</time></trkpt>
<trkpt lat="43.0662950000" lon="-1.0897220000"><ele>1112</ele><time>2026-04-09T10:46:42Z</time></trkpt>
<trkpt lat="43.0663170000" lon="-1.0897370000"><ele>1111</ele><time>2026-04-09T10:46:44Z</time></trkpt>
<trkpt lat="43.0663370000" lon="-1.0897520000"><ele>1111</ele><time>2026-04-09T10:46:46Z</time></trkpt>
<trkpt lat="43.0663620000" lon="-1.0897650000"><ele>1111</ele><time>2026-04-09T10:46:48Z</time></trkpt>
<trkpt lat="43.0663800000" lon="-1.0897820000"><ele>1111</ele><time>2026-04-09T10:46:50Z</time></trkpt>
<trkpt lat="43.0664020000" lon="-1.0898000000"><ele>1111</ele><time>2026-04-09T10:46:52Z</time></trkpt>
<trkpt lat="43.0664220000" lon="-1.0898170000"><ele>1110</ele><time>2026-04-09T10:46:54Z</time></trkpt>
<trkpt lat="43.0664470000" lon="-1.0898270000"><ele>1110</ele><time>2026-04-09T10:46:56Z</time></trkpt>
<trkpt lat="43.0664670000" lon="-1.0898400000"><ele>1110</ele><time>2026-04-09T10:46:58Z</time></trkpt>
<trkpt lat="43.0664920000" lon="-1.0898570000"><ele>1110</ele><time>2026-04-09T10:47:00Z</time></trkpt>
<trkpt lat="43.0665150000" lon="-1.0898720000"><ele>1110</ele><time>2026-04-09T10:47:02Z</time></trkpt>
<trkpt lat="43.0665400000" lon="-1.0898870000"><ele>1110</ele><time>2026-04-09T10:47:04Z</time></trkpt>
<trkpt lat="43.0665650000" lon="-1.0898970000"><ele>1109</ele><time>2026-04-09T10:47:06Z</time></trkpt>
<trkpt lat="43.0665870000" lon="-1.0899070000"><ele>1109</ele><time>2026-04-09T10:47:08Z</time></trkpt>
<trkpt lat="43.0666100000" lon="-1.0899170000"><ele>1108</ele><time>2026-04-09T10:47:10Z</time></trkpt>
<trkpt lat="43.0666320000" lon="-1.0899270000"><ele>1108</ele><time>2026-04-09T10:47:12Z</time></trkpt>
<trkpt lat="43.0666520000" lon="-1.0899350000"><ele>1108</ele><time>2026-04-09T10:47:14Z</time></trkpt>
<trkpt lat="43.0666700000" lon="-1.0899470000"><ele>1108</ele><time>2026-04-09T10:47:16Z</time></trkpt>
<trkpt lat="43.0666920000" lon="-1.0899570000"><ele>1108</ele><time>2026-04-09T10:47:18Z</time></trkpt>
<trkpt lat="43.0667150000" lon="-1.0899650000"><ele>1108</ele><time>2026-04-09T10:47:20Z</time></trkpt>
<trkpt lat="43.0667320000" lon="-1.0899700000"><ele>1107</ele><time>2026-04-09T10:47:22Z</time></trkpt>
<trkpt lat="43.0667570000" lon="-1.0899650000"><ele>1107</ele><time>2026-04-09T10:47:25Z</time></trkpt>
<trkpt lat="43.0667820000" lon="-1.0899650000"><ele>1107</ele><time>2026-04-09T10:47:28Z</time></trkpt>
<trkpt lat="43.0668020000" lon="-1.0899600000"><ele>1107</ele><time>2026-04-09T10:47:30Z</time></trkpt>
<trkpt lat="43.0668300000" lon="-1.0899600000"><ele>1107</ele><time>2026-04-09T10:47:32Z</time></trkpt>
<trkpt lat="43.0668550000" lon="-1.0899600000"><ele>1107</ele><time>2026-04-09T10:47:34Z</time></trkpt>
<trkpt lat="43.0668770000" lon="-1.0899670000"><ele>1107</ele><time>2026-04-09T10:47:36Z</time></trkpt>
<trkpt lat="43.0669000000" lon="-1.0899720000"><ele>1106</ele><time>2026-04-09T10:47:38Z</time></trkpt>
<trkpt lat="43.0669220000" lon="-1.0899800000"><ele>1106</ele><time>2026-04-09T10:47:40Z</time></trkpt>
<trkpt lat="43.0669450000" lon="-1.0899870000"><ele>1106</ele><time>2026-04-09T10:47:42Z</time></trkpt>
<trkpt lat="43.0669700000" lon="-1.0899900000"><ele>1106</ele><time>2026-04-09T10:47:44Z</time></trkpt>
<trkpt lat="43.0669950000" lon="-1.0899920000"><ele>1106</ele><time>2026-04-09T10:47:46Z</time></trkpt>
<trkpt lat="43.0670170000" lon="-1.0900000000"><ele>1105</ele><time>2026-04-09T10:47:48Z</time></trkpt>
<trkpt lat="43.0670400000" lon="-1.0900000000"><ele>1105</ele><time>2026-04-09T10:47:50Z</time></trkpt>
<trkpt lat="43.0670670000" lon="-1.0900020000"><ele>1105</ele><time>2026-04-09T10:47:52Z</time></trkpt>
<trkpt lat="43.0670950000" lon="-1.0900020000"><ele>1105</ele><time>2026-04-09T10:47:54Z</time></trkpt>
<trkpt lat="43.0671170000" lon="-1.0900020000"><ele>1105</ele><time>2026-04-09T10:47:56Z</time></trkpt>
<trkpt lat="43.0671420000" lon="-1.0900050000"><ele>1105</ele><time>2026-04-09T10:47:58Z</time></trkpt>
<trkpt lat="43.0671650000" lon="-1.0900070000"><ele>1104</ele><time>2026-04-09T10:48:00Z</time></trkpt>
<trkpt lat="43.0671850000" lon="-1.0900070000"><ele>1104</ele><time>2026-04-09T10:48:02Z</time></trkpt>
<trkpt lat="43.0672070000" lon="-1.0900020000"><ele>1104</ele><time>2026-04-09T10:48:04Z</time></trkpt>
<trkpt lat="43.0672270000" lon="-1.0900000000"><ele>1104</ele><time>2026-04-09T10:48:06Z</time></trkpt>
<trkpt lat="43.0672470000" lon="-1.0899950000"><ele>1104</ele><time>2026-04-09T10:48:08Z</time></trkpt>
<trkpt lat="43.0672670000" lon="-1.0899820000"><ele>1104</ele><time>2026-04-09T10:48:10Z</time></trkpt>
<trkpt lat="43.0672900000" lon="-1.0899720000"><ele>1103</ele><time>2026-04-09T10:48:12Z</time></trkpt>
<trkpt lat="43.0673120000" lon="-1.0899620000"><ele>1103</ele><time>2026-04-09T10:48:14Z</time></trkpt>
<trkpt lat="43.0673370000" lon="-1.0899570000"><ele>1103</ele><time>2026-04-09T10:48:16Z</time></trkpt>
<trkpt lat="43.0673570000" lon="-1.0899420000"><ele>1103</ele><time>2026-04-09T10:48:18Z</time></trkpt>
<trkpt lat="43.0673800000" lon="-1.0899320000"><ele>1103</ele><time>2026-04-09T10:48:20Z</time></trkpt>
<trkpt lat="43.0674070000" lon="-1.0899220000"><ele>1103</ele><time>2026-04-09T10:48:22Z</time></trkpt>
<trkpt lat="43.0674370000" lon="-1.0899120000"><ele>1102</ele><time>2026-04-09T10:48:24Z</time></trkpt>
<trkpt lat="43.0674670000" lon="-1.0898920000"><ele>1102</ele><time>2026-04-09T10:48:26Z</time></trkpt>
<trkpt lat="43.0674900000" lon="-1.0898700000"><ele>1102</ele><time>2026-04-09T10:48:28Z</time></trkpt>
<trkpt lat="43.0675150000" lon="-1.0898570000"><ele>1102</ele><time>2026-04-09T10:48:30Z</time></trkpt>
<trkpt lat="43.0675400000" lon="-1.0898470000"><ele>1102</ele><time>2026-04-09T10:48:32Z</time></trkpt>
<trkpt lat="43.0675620000" lon="-1.0898370000"><ele>1102</ele><time>2026-04-09T10:48:34Z</time></trkpt>
<trkpt lat="43.0675850000" lon="-1.0898270000"><ele>1102</ele><time>2026-04-09T10:48:36Z</time></trkpt>
<trkpt lat="43.0676070000" lon="-1.0898170000"><ele>1102</ele><time>2026-04-09T10:48:38Z</time></trkpt>
<trkpt lat="43.0676320000" lon="-1.0898080000"><ele>1102</ele><time>2026-04-09T10:48:40Z</time></trkpt>
<trkpt lat="43.0676550000" lon="-1.0898070000"><ele>1102</ele><time>2026-04-09T10:48:42Z</time></trkpt>
<trkpt lat="43.0676770000" lon="-1.0898070000"><ele>1101</ele><time>2026-04-09T10:48:44Z</time></trkpt>
<trkpt lat="43.0677020000" lon="-1.0898070000"><ele>1101</ele><time>2026-04-09T10:48:46Z</time></trkpt>
<trkpt lat="43.0677270000" lon="-1.0898070000"><ele>1101</ele><time>2026-04-09T10:48:48Z</time></trkpt>
<trkpt lat="43.0677520000" lon="-1.0898120000"><ele>1101</ele><time>2026-04-09T10:48:50Z</time></trkpt>
<trkpt lat="43.0677770000" lon="-1.0898070000"><ele>1101</ele><time>2026-04-09T10:48:52Z</time></trkpt>
<trkpt lat="43.0678000000" lon="-1.0897920000"><ele>1101</ele><time>2026-04-09T10:48:55Z</time></trkpt>
<trkpt lat="43.0678170000" lon="-1.0897870000"><ele>1101</ele><time>2026-04-09T10:48:58Z</time></trkpt>
<trkpt lat="43.0678370000" lon="-1.0897870000"><ele>1100</ele><time>2026-04-09T10:49:12Z</time></trkpt>
<trkpt lat="43.0678520000" lon="-1.0897970000"><ele>1100</ele><time>2026-04-09T10:49:29Z</time></trkpt>
<trkpt lat="43.0678750000" lon="-1.0898020000"><ele>1100</ele><time>2026-04-09T10:49:31Z</time></trkpt>
<trkpt lat="43.0679050000" lon="-1.0898120000"><ele>1100</ele><time>2026-04-09T10:49:33Z</time></trkpt>
<trkpt lat="43.0679320000" lon="-1.0898220000"><ele>1100</ele><time>2026-04-09T10:49:35Z</time></trkpt>
<trkpt lat="43.0679550000" lon="-1.0898320000"><ele>1099</ele><time>2026-04-09T10:49:37Z</time></trkpt>
<trkpt lat="43.0679770000" lon="-1.0898470000"><ele>1099</ele><time>2026-04-09T10:49:39Z</time></trkpt>
<trkpt lat="43.0680000000" lon="-1.0898570000"><ele>1099</ele><time>2026-04-09T10:49:41Z</time></trkpt>
<trkpt lat="43.0680220000" lon="-1.0898700000"><ele>1099</ele><time>2026-04-09T10:49:43Z</time></trkpt>
<trkpt lat="43.0680450000" lon="-1.0898800000"><ele>1099</ele><time>2026-04-09T10:49:45Z</time></trkpt>
<trkpt lat="43.0680670000" lon="-1.0899020000"><ele>1099</ele><time>2026-04-09T10:49:47Z</time></trkpt>
<trkpt lat="43.0680820000" lon="-1.0899200000"><ele>1099</ele><time>2026-04-09T10:49:48Z</time></trkpt>
<trkpt lat="43.0681050000" lon="-1.0899550000"><ele>1098</ele><time>2026-04-09T10:49:50Z</time></trkpt>
<trkpt lat="43.0681250000" lon="-1.0899770000"><ele>1098</ele><time>2026-04-09T10:49:52Z</time></trkpt>
<trkpt lat="43.0681450000" lon="-1.0900000000"><ele>1098</ele><time>2026-04-09T10:49:54Z</time></trkpt>
<trkpt lat="43.0681670000" lon="-1.0900150000"><ele>1098</ele><time>2026-04-09T10:49:56Z</time></trkpt>
<trkpt lat="43.0681870000" lon="-1.0900270000"><ele>1097</ele><time>2026-04-09T10:49:58Z</time></trkpt>
<trkpt lat="43.0682050000" lon="-1.0900380000"><ele>1097</ele><time>2026-04-09T10:50:00Z</time></trkpt>
<trkpt lat="43.0682200000" lon="-1.0900550000"><ele>1097</ele><time>2026-04-09T10:50:02Z</time></trkpt>
<trkpt lat="43.0682370000" lon="-1.0900770000"><ele>1096</ele><time>2026-04-09T10:50:04Z</time></trkpt>
<trkpt lat="43.0682570000" lon="-1.0900950000"><ele>1096</ele><time>2026-04-09T10:50:06Z</time></trkpt>
<trkpt lat="43.0682770000" lon="-1.0901120000"><ele>1096</ele><time>2026-04-09T10:50:08Z</time></trkpt>
<trkpt lat="43.0682870000" lon="-1.0901420000"><ele>1096</ele><time>2026-04-09T10:50:10Z</time></trkpt>
<trkpt lat="43.0682970000" lon="-1.0901670000"><ele>1095</ele><time>2026-04-09T10:50:12Z</time></trkpt>
<trkpt lat="43.0683070000" lon="-1.0901920000"><ele>1095</ele><time>2026-04-09T10:50:14Z</time></trkpt>
<trkpt lat="43.0683120000" lon="-1.0902220000"><ele>1095</ele><time>2026-04-09T10:50:16Z</time></trkpt>
<trkpt lat="43.0683170000" lon="-1.0902570000"><ele>1095</ele><time>2026-04-09T10:50:18Z</time></trkpt>
<trkpt lat="43.0683130000" lon="-1.0902870000"><ele>1095</ele><time>2026-04-09T10:50:20Z</time></trkpt>
<trkpt lat="43.0683100000" lon="-1.0903220000"><ele>1094</ele><time>2026-04-09T10:50:22Z</time></trkpt>
<trkpt lat="43.0683050000" lon="-1.0903550000"><ele>1094</ele><time>2026-04-09T10:50:24Z</time></trkpt>
<trkpt lat="43.0683020000" lon="-1.0903800000"><ele>1094</ele><time>2026-04-09T10:50:26Z</time></trkpt>
<trkpt lat="43.0682970000" lon="-1.0904120000"><ele>1093</ele><time>2026-04-09T10:50:28Z</time></trkpt>
<trkpt lat="43.0682870000" lon="-1.0904420000"><ele>1093</ele><time>2026-04-09T10:50:30Z</time></trkpt>
<trkpt lat="43.0682820000" lon="-1.0904720000"><ele>1093</ele><time>2026-04-09T10:50:32Z</time></trkpt>
<trkpt lat="43.0682670000" lon="-1.0905150000"><ele>1092</ele><time>2026-04-09T10:50:35Z</time></trkpt>
<trkpt lat="43.0682620000" lon="-1.0905270000"><ele>1092</ele><time>2026-04-09T10:50:36Z</time></trkpt>
<trkpt lat="43.0682520000" lon="-1.0905550000"><ele>1092</ele><time>2026-04-09T10:50:38Z</time></trkpt>
<trkpt lat="43.0682420000" lon="-1.0905770000"><ele>1092</ele><time>2026-04-09T10:50:40Z</time></trkpt>
<trkpt lat="43.0682370000" lon="-1.0906020000"><ele>1091</ele><time>2026-04-09T10:50:42Z</time></trkpt>
<trkpt lat="43.0682270000" lon="-1.0906300000"><ele>1091</ele><time>2026-04-09T10:50:44Z</time></trkpt>
<trkpt lat="43.0682150000" lon="-1.0906570000"><ele>1091</ele><time>2026-04-09T10:50:46Z</time></trkpt>
<trkpt lat="43.0682000000" lon="-1.0906820000"><ele>1091</ele><time>2026-04-09T10:50:48Z</time></trkpt>
<trkpt lat="43.0681900000" lon="-1.0907100000"><ele>1090</ele><time>2026-04-09T10:50:50Z</time></trkpt>
<trkpt lat="43.0681820000" lon="-1.0907320000"><ele>1090</ele><time>2026-04-09T10:50:52Z</time></trkpt>
<trkpt lat="43.0681770000" lon="-1.0907620000"><ele>1090</ele><time>2026-04-09T10:50:54Z</time></trkpt>
<trkpt lat="43.0681670000" lon="-1.0907900000"><ele>1090</ele><time>2026-04-09T10:50:56Z</time></trkpt>
<trkpt lat="43.0681570000" lon="-1.0908200000"><ele>1090</ele><time>2026-04-09T10:50:58Z</time></trkpt>
<trkpt lat="43.0681470000" lon="-1.0908470000"><ele>1089</ele><time>2026-04-09T10:51:00Z</time></trkpt>
<trkpt lat="43.0681300000" lon="-1.0908700000"><ele>1089</ele><time>2026-04-09T10:51:02Z</time></trkpt>
<trkpt lat="43.0681120000" lon="-1.0908920000"><ele>1089</ele><time>2026-04-09T10:51:04Z</time></trkpt>
<trkpt lat="43.0680970000" lon="-1.0909200000"><ele>1089</ele><time>2026-04-09T10:51:06Z</time></trkpt>
<trkpt lat="43.0680820000" lon="-1.0909520000"><ele>1089</ele><time>2026-04-09T10:51:08Z</time></trkpt>
<trkpt lat="43.0680670000" lon="-1.0909800000"><ele>1088</ele><time>2026-04-09T10:51:10Z</time></trkpt>
<trkpt lat="43.0680520000" lon="-1.0910050000"><ele>1088</ele><time>2026-04-09T10:51:12Z</time></trkpt>
<trkpt lat="43.0680400000" lon="-1.0910300000"><ele>1088</ele><time>2026-04-09T10:51:14Z</time></trkpt>
<trkpt lat="43.0680320000" lon="-1.0910570000"><ele>1088</ele><time>2026-04-09T10:51:16Z</time></trkpt>
<trkpt lat="43.0680250000" lon="-1.0910870000"><ele>1088</ele><time>2026-04-09T10:51:18Z</time></trkpt>
<trkpt lat="43.0680120000" lon="-1.0911150000"><ele>1087</ele><time>2026-04-09T10:51:20Z</time></trkpt>
<trkpt lat="43.0679970000" lon="-1.0911450000"><ele>1087</ele><time>2026-04-09T10:51:22Z</time></trkpt>
<trkpt lat="43.0679870000" lon="-1.0911770000"><ele>1086</ele><time>2026-04-09T10:51:24Z</time></trkpt>
<trkpt lat="43.0679820000" lon="-1.0912070000"><ele>1086</ele><time>2026-04-09T10:51:26Z</time></trkpt>
<trkpt lat="43.0679720000" lon="-1.0912400000"><ele>1086</ele><time>2026-04-09T10:51:28Z</time></trkpt>
<trkpt lat="43.0679670000" lon="-1.0912700000"><ele>1086</ele><time>2026-04-09T10:51:30Z</time></trkpt>
<trkpt lat="43.0679700000" lon="-1.0913020000"><ele>1085</ele><time>2026-04-09T10:51:32Z</time></trkpt>
<trkpt lat="43.0679770000" lon="-1.0913320000"><ele>1085</ele><time>2026-04-09T10:51:34Z</time></trkpt>
<trkpt lat="43.0679820000" lon="-1.0913670000"><ele>1085</ele><time>2026-04-09T10:51:36Z</time></trkpt>
<trkpt lat="43.0679850000" lon="-1.0914000000"><ele>1085</ele><time>2026-04-09T10:51:38Z</time></trkpt>
<trkpt lat="43.0679900000" lon="-1.0914350000"><ele>1085</ele><time>2026-04-09T10:51:40Z</time></trkpt>
<trkpt lat="43.0680020000" lon="-1.0914600000"><ele>1084</ele><time>2026-04-09T10:51:42Z</time></trkpt>
<trkpt lat="43.0680070000" lon="-1.0914900000"><ele>1084</ele><time>2026-04-09T10:51:44Z</time></trkpt>
<trkpt lat="43.0680180000" lon="-1.0915150000"><ele>1084</ele><time>2026-04-09T10:51:46Z</time></trkpt>
<trkpt lat="43.0680370000" lon="-1.0915450000"><ele>1083</ele><time>2026-04-09T10:51:48Z</time></trkpt>
<trkpt lat="43.0680500000" lon="-1.0915720000"><ele>1083</ele><time>2026-04-09T10:51:50Z</time></trkpt>
<trkpt lat="43.0680650000" lon="-1.0915970000"><ele>1083</ele><time>2026-04-09T10:51:52Z</time></trkpt>
<trkpt lat="43.0680850000" lon="-1.0916200000"><ele>1083</ele><time>2026-04-09T10:51:54Z</time></trkpt>
<trkpt lat="43.0681000000" lon="-1.0916420000"><ele>1083</ele><time>2026-04-09T10:51:58Z</time></trkpt>
<trkpt lat="43.0681120000" lon="-1.0916650000"><ele>1083</ele><time>2026-04-09T10:52:00Z</time></trkpt>
<trkpt lat="43.0681220000" lon="-1.0916950000"><ele>1082</ele><time>2026-04-09T10:52:02Z</time></trkpt>
<trkpt lat="43.0681320000" lon="-1.0917250000"><ele>1082</ele><time>2026-04-09T10:52:04Z</time></trkpt>
<trkpt lat="43.0681450000" lon="-1.0917520000"><ele>1082</ele><time>2026-04-09T10:52:06Z</time></trkpt>
<trkpt lat="43.0681550000" lon="-1.0917770000"><ele>1082</ele><time>2026-04-09T10:52:08Z</time></trkpt>
<trkpt lat="43.0681650000" lon="-1.0918050000"><ele>1082</ele><time>2026-04-09T10:52:10Z</time></trkpt>
<trkpt lat="43.0681770000" lon="-1.0918300000"><ele>1082</ele><time>2026-04-09T10:52:12Z</time></trkpt>
<trkpt lat="43.0681870000" lon="-1.0918570000"><ele>1081</ele><time>2026-04-09T10:52:14Z</time></trkpt>
<trkpt lat="43.0681970000" lon="-1.0918900000"><ele>1081</ele><time>2026-04-09T10:52:16Z</time></trkpt>
<trkpt lat="43.0682150000" lon="-1.0919100000"><ele>1081</ele><time>2026-04-09T10:52:18Z</time></trkpt>
<trkpt lat="43.0682270000" lon="-1.0919300000"><ele>1081</ele><time>2026-04-09T10:52:20Z</time></trkpt>
<trkpt lat="43.0682430000" lon="-1.0919500000"><ele>1081</ele><time>2026-04-09T10:52:22Z</time></trkpt>
<trkpt lat="43.0682650000" lon="-1.0919820000"><ele>1081</ele><time>2026-04-09T10:52:25Z</time></trkpt>
<trkpt lat="43.0682750000" lon="-1.0919900000"><ele>1081</ele><time>2026-04-09T10:52:26Z</time></trkpt>
<trkpt lat="43.0682920000" lon="-1.0920070000"><ele>1081</ele><time>2026-04-09T10:52:28Z</time></trkpt>
<trkpt lat="43.0683050000" lon="-1.0920250000"><ele>1080</ele><time>2026-04-09T10:52:30Z</time></trkpt>
<trkpt lat="43.0683220000" lon="-1.0920370000"><ele>1080</ele><time>2026-04-09T10:52:32Z</time></trkpt>
<trkpt lat="43.0683400000" lon="-1.0920550000"><ele>1080</ele><time>2026-04-09T10:52:34Z</time></trkpt>
<trkpt lat="43.0683570000" lon="-1.0920620000"><ele>1080</ele><time>2026-04-09T10:52:36Z</time></trkpt>
<trkpt lat="43.0683820000" lon="-1.0920850000"><ele>1080</ele><time>2026-04-09T10:52:39Z</time></trkpt>
<trkpt lat="43.0683970000" lon="-1.0921020000"><ele>1079</ele><time>2026-04-09T10:52:41Z</time></trkpt>
<trkpt lat="43.0684120000" lon="-1.0921150000"><ele>1079</ele><time>2026-04-09T10:52:43Z</time></trkpt>
<trkpt lat="43.0684320000" lon="-1.0921320000"><ele>1079</ele><time>2026-04-09T10:52:45Z</time></trkpt>
<trkpt lat="43.0684520000" lon="-1.0921430000"><ele>1079</ele><time>2026-04-09T10:52:47Z</time></trkpt>
<trkpt lat="43.0684670000" lon="-1.0921650000"><ele>1079</ele><time>2026-04-09T10:52:49Z</time></trkpt>
<trkpt lat="43.0684820000" lon="-1.0921820000"><ele>1079</ele><time>2026-04-09T10:52:51Z</time></trkpt>
<trkpt lat="43.0685000000" lon="-1.0921970000"><ele>1078</ele><time>2026-04-09T10:52:53Z</time></trkpt>
<trkpt lat="43.0685170000" lon="-1.0922070000"><ele>1078</ele><time>2026-04-09T10:52:55Z</time></trkpt>
<trkpt lat="43.0685370000" lon="-1.0922270000"><ele>1078</ele><time>2026-04-09T10:52:58Z</time></trkpt>
<trkpt lat="43.0685600000" lon="-1.0922420000"><ele>1078</ele><time>2026-04-09T10:53:00Z</time></trkpt>
<trkpt lat="43.0685770000" lon="-1.0922620000"><ele>1078</ele><time>2026-04-09T10:53:02Z</time></trkpt>
<trkpt lat="43.0685970000" lon="-1.0922720000"><ele>1077</ele><time>2026-04-09T10:53:04Z</time></trkpt>
<trkpt lat="43.0686170000" lon="-1.0922850000"><ele>1077</ele><time>2026-04-09T10:53:06Z</time></trkpt>
<trkpt lat="43.0686370000" lon="-1.0922950000"><ele>1077</ele><time>2026-04-09T10:53:08Z</time></trkpt>
<trkpt lat="43.0686550000" lon="-1.0922970000"><ele>1077</ele><time>2026-04-09T10:53:11Z</time></trkpt>
<trkpt lat="43.0686820000" lon="-1.0923070000"><ele>1076</ele><time>2026-04-09T10:53:15Z</time></trkpt>
<trkpt lat="43.0687000000" lon="-1.0923120000"><ele>1076</ele><time>2026-04-09T10:53:17Z</time></trkpt>
<trkpt lat="43.0687170000" lon="-1.0923220000"><ele>1076</ele><time>2026-04-09T10:53:19Z</time></trkpt>
<trkpt lat="43.0687400000" lon="-1.0923350000"><ele>1076</ele><time>2026-04-09T10:53:22Z</time></trkpt>
<trkpt lat="43.0687720000" lon="-1.0923370000"><ele>1075</ele><time>2026-04-09T10:53:26Z</time></trkpt>
<trkpt lat="43.0687820000" lon="-1.0923350000"><ele>1075</ele><time>2026-04-09T10:53:27Z</time></trkpt>
<trkpt lat="43.0688020000" lon="-1.0923370000"><ele>1075</ele><time>2026-04-09T10:53:29Z</time></trkpt>
<trkpt lat="43.0688250000" lon="-1.0923420000"><ele>1074</ele><time>2026-04-09T10:53:31Z</time></trkpt>
<trkpt lat="43.0688420000" lon="-1.0923500000"><ele>1074</ele><time>2026-04-09T10:53:33Z</time></trkpt>
<trkpt lat="43.0688650000" lon="-1.0923720000"><ele>1074</ele><time>2026-04-09T10:53:36Z</time></trkpt>
<trkpt lat="43.0688850000" lon="-1.0923770000"><ele>1074</ele><time>2026-04-09T10:53:38Z</time></trkpt>
<trkpt lat="43.0689070000" lon="-1.0923870000"><ele>1073</ele><time>2026-04-09T10:53:41Z</time></trkpt>
<trkpt lat="43.0689320000" lon="-1.0923970000"><ele>1072</ele><time>2026-04-09T10:53:47Z</time></trkpt>
<trkpt lat="43.0689550000" lon="-1.0924100000"><ele>1072</ele><time>2026-04-09T10:53:50Z</time></trkpt>
<trkpt lat="43.0689750000" lon="-1.0924220000"><ele>1072</ele><time>2026-04-09T10:53:53Z</time></trkpt>
<trkpt lat="43.0689900000" lon="-1.0924470000"><ele>1072</ele><time>2026-04-09T10:53:58Z</time></trkpt>
<trkpt lat="43.0690120000" lon="-1.0924620000"><ele>1072</ele><time>2026-04-09T10:54:02Z</time></trkpt>
<trkpt lat="43.0690270000" lon="-1.0924470000"><ele>1071</ele><time>2026-04-09T10:54:05Z</time></trkpt>
<trkpt lat="43.0690520000" lon="-1.0924350000"><ele>1070</ele><time>2026-04-09T10:54:09Z</time></trkpt>
<trkpt lat="43.0690720000" lon="-1.0924270000"><ele>1069</ele><time>2026-04-09T10:54:13Z</time></trkpt>
<trkpt lat="43.0690950000" lon="-1.0924370000"><ele>1069</ele><time>2026-04-09T10:54:16Z</time></trkpt>
<trkpt lat="43.0691120000" lon="-1.0924370000"><ele>1068</ele><time>2026-04-09T10:54:18Z</time></trkpt>
<trkpt lat="43.0691370000" lon="-1.0924470000"><ele>1068</ele><time>2026-04-09T10:54:21Z</time></trkpt>
<trkpt lat="43.0691550000" lon="-1.0924620000"><ele>1067</ele><time>2026-04-09T10:54:24Z</time></trkpt>
<trkpt lat="43.0691820000" lon="-1.0924770000"><ele>1068</ele><time>2026-04-09T10:55:13Z</time></trkpt>
<trkpt lat="43.0692100000" lon="-1.0925000000"><ele>1068</ele><time>2026-04-09T10:55:15Z</time></trkpt>
<trkpt lat="43.0692270000" lon="-1.0925170000"><ele>1068</ele><time>2026-04-09T10:55:19Z</time></trkpt>
<trkpt lat="43.0692470000" lon="-1.0925450000"><ele>1068</ele><time>2026-04-09T10:55:21Z</time></trkpt>
<trkpt lat="43.0692670000" lon="-1.0925700000"><ele>1067</ele><time>2026-04-09T10:55:23Z</time></trkpt>
<trkpt lat="43.0692820000" lon="-1.0925870000"><ele>1068</ele><time>2026-04-09T10:55:25Z</time></trkpt>
<trkpt lat="43.0692920000" lon="-1.0926120000"><ele>1068</ele><time>2026-04-09T10:55:27Z</time></trkpt>
<trkpt lat="43.0693150000" lon="-1.0926470000"><ele>1068</ele><time>2026-04-09T10:55:31Z</time></trkpt>
<trkpt lat="43.0693250000" lon="-1.0926620000"><ele>1068</ele><time>2026-04-09T10:55:33Z</time></trkpt>
<trkpt lat="43.0693500000" lon="-1.0926820000"><ele>1068</ele><time>2026-04-09T10:55:37Z</time></trkpt>
<trkpt lat="43.0693620000" lon="-1.0926900000"><ele>1068</ele><time>2026-04-09T10:55:39Z</time></trkpt>
<trkpt lat="43.0693820000" lon="-1.0927100000"><ele>1068</ele><time>2026-04-09T10:55:42Z</time></trkpt>
<trkpt lat="43.0694020000" lon="-1.0927320000"><ele>1068</ele><time>2026-04-09T10:55:45Z</time></trkpt>
<trkpt lat="43.0694250000" lon="-1.0927600000"><ele>1067</ele><time>2026-04-09T10:55:49Z</time></trkpt>
<trkpt lat="43.0694370000" lon="-1.0927800000"><ele>1067</ele><time>2026-04-09T10:55:51Z</time></trkpt>
<trkpt lat="43.0694450000" lon="-1.0927920000"><ele>1067</ele><time>2026-04-09T10:55:52Z</time></trkpt>
<trkpt lat="43.0694670000" lon="-1.0927970000"><ele>1068</ele><time>2026-04-09T10:55:55Z</time></trkpt>
<trkpt lat="43.0694920000" lon="-1.0928120000"><ele>1068</ele><time>2026-04-09T10:55:59Z</time></trkpt>
<trkpt lat="43.0695070000" lon="-1.0928220000"><ele>1068</ele><time>2026-04-09T10:56:01Z</time></trkpt>
<trkpt lat="43.0695270000" lon="-1.0928370000"><ele>1068</ele><time>2026-04-09T10:56:04Z</time></trkpt>
<trkpt lat="43.0695470000" lon="-1.0928670000"><ele>1068</ele><time>2026-04-09T10:56:07Z</time></trkpt>
<trkpt lat="43.0695570000" lon="-1.0928850000"><ele>1067</ele><time>2026-04-09T10:56:09Z</time></trkpt>
<trkpt lat="43.0695720000" lon="-1.0929120000"><ele>1067</ele><time>2026-04-09T10:56:12Z</time></trkpt>
<trkpt lat="43.0695870000" lon="-1.0929350000"><ele>1066</ele><time>2026-04-09T10:56:15Z</time></trkpt>
<trkpt lat="43.0696050000" lon="-1.0929720000"><ele>1065</ele><time>2026-04-09T10:56:19Z</time></trkpt>
<trkpt lat="43.0696170000" lon="-1.0929870000"><ele>1065</ele><time>2026-04-09T10:56:21Z</time></trkpt>
<trkpt lat="43.0696400000" lon="-1.0930320000"><ele>1064</ele><time>2026-04-09T10:56:25Z</time></trkpt>
<trkpt lat="43.0696520000" lon="-1.0930500000"><ele>1064</ele><time>2026-04-09T10:56:27Z</time></trkpt>
<trkpt lat="43.0696650000" lon="-1.0930700000"><ele>1064</ele><time>2026-04-09T10:56:29Z</time></trkpt>
<trkpt lat="43.0696820000" lon="-1.0930850000"><ele>1063</ele><time>2026-04-09T10:56:31Z</time></trkpt>
<trkpt lat="43.0697000000" lon="-1.0930920000"><ele>1063</ele><time>2026-04-09T10:56:33Z</time></trkpt>
<trkpt lat="43.0697270000" lon="-1.0931000000"><ele>1063</ele><time>2026-04-09T10:56:36Z</time></trkpt>
<trkpt lat="43.0697470000" lon="-1.0931120000"><ele>1063</ele><time>2026-04-09T10:56:39Z</time></trkpt>
<trkpt lat="43.0697800000" lon="-1.0931270000"><ele>1062</ele><time>2026-04-09T10:56:43Z</time></trkpt>
<trkpt lat="43.0697970000" lon="-1.0931400000"><ele>1062</ele><time>2026-04-09T10:56:45Z</time></trkpt>
<trkpt lat="43.0698150000" lon="-1.0931550000"><ele>1061</ele><time>2026-04-09T10:56:47Z</time></trkpt>
<trkpt lat="43.0698320000" lon="-1.0931670000"><ele>1061</ele><time>2026-04-09T10:56:49Z</time></trkpt>
<trkpt lat="43.0698520000" lon="-1.0931750000"><ele>1061</ele><time>2026-04-09T10:56:51Z</time></trkpt>
<trkpt lat="43.0698720000" lon="-1.0931800000"><ele>1061</ele><time>2026-04-09T10:56:53Z</time></trkpt>
<trkpt lat="43.0698850000" lon="-1.0931820000"><ele>1061</ele><time>2026-04-09T10:56:54Z</time></trkpt>
<trkpt lat="43.0699150000" lon="-1.0931850000"><ele>1060</ele><time>2026-04-09T10:56:57Z</time></trkpt>
<trkpt lat="43.0699350000" lon="-1.0931870000"><ele>1060</ele><time>2026-04-09T10:56:59Z</time></trkpt>
<trkpt lat="43.0699520000" lon="-1.0931950000"><ele>1059</ele><time>2026-04-09T10:57:01Z</time></trkpt>
<trkpt lat="43.0699720000" lon="-1.0932020000"><ele>1059</ele><time>2026-04-09T10:57:03Z</time></trkpt>
<trkpt lat="43.0699870000" lon="-1.0932100000"><ele>1059</ele><time>2026-04-09T10:57:05Z</time></trkpt>
<trkpt lat="43.0700000000" lon="-1.0932150000"><ele>1059</ele><time>2026-04-09T10:57:07Z</time></trkpt>
<trkpt lat="43.0700170000" lon="-1.0932270000"><ele>1059</ele><time>2026-04-09T10:57:10Z</time></trkpt>
<trkpt lat="43.0700370000" lon="-1.0932350000"><ele>1058</ele><time>2026-04-09T10:57:13Z</time></trkpt>
<trkpt lat="43.0700700000" lon="-1.0932600000"><ele>1058</ele><time>2026-04-09T10:57:17Z</time></trkpt>
<trkpt lat="43.0700870000" lon="-1.0932820000"><ele>1058</ele><time>2026-04-09T10:57:19Z</time></trkpt>
<trkpt lat="43.0700950000" lon="-1.0932920000"><ele>1057</ele><time>2026-04-09T10:57:20Z</time></trkpt>
<trkpt lat="43.0701100000" lon="-1.0933100000"><ele>1057</ele><time>2026-04-09T10:57:22Z</time></trkpt>
<trkpt lat="43.0701420000" lon="-1.0933220000"><ele>1057</ele><time>2026-04-09T10:57:26Z</time></trkpt>
<trkpt lat="43.0701570000" lon="-1.0933220000"><ele>1056</ele><time>2026-04-09T10:57:28Z</time></trkpt>
<trkpt lat="43.0701820000" lon="-1.0933270000"><ele>1056</ele><time>2026-04-09T10:57:35Z</time></trkpt>
<trkpt lat="43.0702000000" lon="-1.0933300000"><ele>1056</ele><time>2026-04-09T10:57:37Z</time></trkpt>
<trkpt lat="43.0702200000" lon="-1.0933320000"><ele>1056</ele><time>2026-04-09T10:57:39Z</time></trkpt>
<trkpt lat="43.0702420000" lon="-1.0933470000"><ele>1056</ele><time>2026-04-09T10:57:42Z</time></trkpt>
<trkpt lat="43.0702570000" lon="-1.0933800000"><ele>1056</ele><time>2026-04-09T10:57:45Z</time></trkpt>
<trkpt lat="43.0702720000" lon="-1.0934020000"><ele>1056</ele><time>2026-04-09T10:57:48Z</time></trkpt>
<trkpt lat="43.0702920000" lon="-1.0934070000"><ele>1056</ele><time>2026-04-09T10:57:51Z</time></trkpt>
<trkpt lat="43.0703120000" lon="-1.0934220000"><ele>1056</ele><time>2026-04-09T10:57:55Z</time></trkpt>
<trkpt lat="43.0703320000" lon="-1.0934270000"><ele>1056</ele><time>2026-04-09T10:57:58Z</time></trkpt>
<trkpt lat="43.0703520000" lon="-1.0934320000"><ele>1056</ele><time>2026-04-09T10:58:01Z</time></trkpt>
<trkpt lat="43.0703920000" lon="-1.0934370000"><ele>1054</ele><time>2026-04-09T10:58:34Z</time></trkpt>
<trkpt lat="43.0704050000" lon="-1.0934420000"><ele>1054</ele><time>2026-04-09T10:58:35Z</time></trkpt>
<trkpt lat="43.0704270000" lon="-1.0934520000"><ele>1054</ele><time>2026-04-09T10:58:37Z</time></trkpt>
<trkpt lat="43.0704470000" lon="-1.0934620000"><ele>1053</ele><time>2026-04-09T10:58:39Z</time></trkpt>
<trkpt lat="43.0704670000" lon="-1.0934700000"><ele>1053</ele><time>2026-04-09T10:58:41Z</time></trkpt>
<trkpt lat="43.0704870000" lon="-1.0934800000"><ele>1053</ele><time>2026-04-09T10:58:43Z</time></trkpt>
<trkpt lat="43.0705050000" lon="-1.0934900000"><ele>1052</ele><time>2026-04-09T10:58:45Z</time></trkpt>
<trkpt lat="43.0705270000" lon="-1.0935000000"><ele>1052</ele><time>2026-04-09T10:58:48Z</time></trkpt>
<trkpt lat="43.0705470000" lon="-1.0935070000"><ele>1052</ele><time>2026-04-09T10:58:50Z</time></trkpt>
<trkpt lat="43.0705650000" lon="-1.0935170000"><ele>1052</ele><time>2026-04-09T10:58:52Z</time></trkpt>
<trkpt lat="43.0705820000" lon="-1.0935270000"><ele>1052</ele><time>2026-04-09T10:58:54Z</time></trkpt>
<trkpt lat="43.0706000000" lon="-1.0935420000"><ele>1052</ele><time>2026-04-09T10:58:56Z</time></trkpt>
<trkpt lat="43.0706120000" lon="-1.0935620000"><ele>1052</ele><time>2026-04-09T10:58:58Z</time></trkpt>
<trkpt lat="43.0706270000" lon="-1.0935920000"><ele>1051</ele><time>2026-04-09T10:59:01Z</time></trkpt>
<trkpt lat="43.0706520000" lon="-1.0936020000"><ele>1051</ele><time>2026-04-09T10:59:04Z</time></trkpt>
<trkpt lat="43.0706720000" lon="-1.0936070000"><ele>1051</ele><time>2026-04-09T10:59:06Z</time></trkpt>
<trkpt lat="43.0706900000" lon="-1.0936100000"><ele>1051</ele><time>2026-04-09T10:59:08Z</time></trkpt>
<trkpt lat="43.0707150000" lon="-1.0936120000"><ele>1051</ele><time>2026-04-09T10:59:11Z</time></trkpt>
<trkpt lat="43.0707370000" lon="-1.0936170000"><ele>1050</ele><time>2026-04-09T10:59:14Z</time></trkpt>
<trkpt lat="43.0707620000" lon="-1.0936320000"><ele>1050</ele><time>2026-04-09T10:59:17Z</time></trkpt>
<trkpt lat="43.0707470000" lon="-1.0936100000"><ele>1050</ele><time>2026-04-09T10:59:24Z</time></trkpt>
<trkpt lat="43.0707220000" lon="-1.0936020000"><ele>1050</ele><time>2026-04-09T10:59:28Z</time></trkpt>
<trkpt lat="43.0706970000" lon="-1.0936020000"><ele>1050</ele><time>2026-04-09T10:59:35Z</time></trkpt>
<trkpt lat="43.0706670000" lon="-1.0936020000"><ele>1050</ele><time>2026-04-09T10:59:37Z</time></trkpt>
<trkpt lat="43.0706470000" lon="-1.0935900000"><ele>1050</ele><time>2026-04-09T10:59:40Z</time></trkpt>
<trkpt lat="43.0706420000" lon="-1.0935650000"><ele>1050</ele><time>2026-04-09T10:59:44Z</time></trkpt>
<trkpt lat="43.0706370000" lon="-1.0935370000"><ele>1050</ele><time>2026-04-09T10:59:49Z</time></trkpt>
<trkpt lat="43.0706570000" lon="-1.0935220000"><ele>1042</ele><time>2026-04-09T11:01:02Z</time></trkpt>
<trkpt lat="43.0707020000" lon="-1.0934870000"><ele>1042</ele><time>2026-04-09T11:01:04Z</time></trkpt>
<trkpt lat="43.0707480000" lon="-1.0934520000"><ele>1041</ele><time>2026-04-09T11:01:06Z</time></trkpt>
<trkpt lat="43.0707670000" lon="-1.0934400000"><ele>1041</ele><time>2026-04-09T11:01:07Z</time></trkpt>
<trkpt lat="43.0707870000" lon="-1.0934270000"><ele>1041</ele><time>2026-04-09T11:01:10Z</time></trkpt>
<trkpt lat="43.0708050000" lon="-1.0934470000"><ele>1042</ele><time>2026-04-09T11:02:36Z</time></trkpt>
<trkpt lat="43.0708300000" lon="-1.0934670000"><ele>1042</ele><time>2026-04-09T11:02:38Z</time></trkpt>
<trkpt lat="43.0708520000" lon="-1.0934870000"><ele>1041</ele><time>2026-04-09T11:02:40Z</time></trkpt>
<trkpt lat="43.0708670000" lon="-1.0935050000"><ele>1041</ele><time>2026-04-09T11:02:42Z</time></trkpt>
<trkpt lat="43.0708970000" lon="-1.0935270000"><ele>1041</ele><time>2026-04-09T11:02:46Z</time></trkpt>
<trkpt lat="43.0709120000" lon="-1.0935270000"><ele>1041</ele><time>2026-04-09T11:02:48Z</time></trkpt>
<trkpt lat="43.0709450000" lon="-1.0935320000"><ele>1040</ele><time>2026-04-09T11:02:52Z</time></trkpt>
<trkpt lat="43.0709570000" lon="-1.0935370000"><ele>1040</ele><time>2026-04-09T11:02:54Z</time></trkpt>
<trkpt lat="43.0709770000" lon="-1.0935450000"><ele>1040</ele><time>2026-04-09T11:02:58Z</time></trkpt>
<trkpt lat="43.0709970000" lon="-1.0935470000"><ele>1039</ele><time>2026-04-09T11:03:02Z</time></trkpt>
<trkpt lat="43.0710200000" lon="-1.0935120000"><ele>1037</ele><time>2026-04-09T11:03:08Z</time></trkpt>
<trkpt lat="43.0710300000" lon="-1.0935120000"><ele>1037</ele><time>2026-04-09T11:03:09Z</time></trkpt>
<trkpt lat="43.0710470000" lon="-1.0935150000"><ele>1037</ele><time>2026-04-09T11:03:11Z</time></trkpt>
<trkpt lat="43.0710720000" lon="-1.0935300000"><ele>1036</ele><time>2026-04-09T11:03:14Z</time></trkpt>
<trkpt lat="43.0710850000" lon="-1.0935520000"><ele>1035</ele><time>2026-04-09T11:03:16Z</time></trkpt>
<trkpt lat="43.0711100000" lon="-1.0935950000"><ele>1035</ele><time>2026-04-09T11:03:20Z</time></trkpt>
<trkpt lat="43.0711170000" lon="-1.0936050000"><ele>1035</ele><time>2026-04-09T11:03:22Z</time></trkpt>
<trkpt lat="43.0711350000" lon="-1.0936370000"><ele>1035</ele><time>2026-04-09T11:03:34Z</time></trkpt>
<trkpt lat="43.0711470000" lon="-1.0936520000"><ele>1035</ele><time>2026-04-09T11:03:36Z</time></trkpt>
<trkpt lat="43.0711820000" lon="-1.0936720000"><ele>1034</ele><time>2026-04-09T11:03:42Z</time></trkpt>
<trkpt lat="43.0712020000" lon="-1.0936970000"><ele>1033</ele><time>2026-04-09T11:03:44Z</time></trkpt>
<trkpt lat="43.0712250000" lon="-1.0937120000"><ele>1033</ele><time>2026-04-09T11:03:46Z</time></trkpt>
<trkpt lat="43.0712320000" lon="-1.0937270000"><ele>1033</ele><time>2026-04-09T11:03:48Z</time></trkpt>
<trkpt lat="43.0712320000" lon="-1.0937550000"><ele>1032</ele><time>2026-04-09T11:03:50Z</time></trkpt>
<trkpt lat="43.0712450000" lon="-1.0937800000"><ele>1032</ele><time>2026-04-09T11:03:52Z</time></trkpt>
<trkpt lat="43.0712620000" lon="-1.0938020000"><ele>1031</ele><time>2026-04-09T11:03:55Z</time></trkpt>
<trkpt lat="43.0712770000" lon="-1.0938420000"><ele>1030</ele><time>2026-04-09T11:04:00Z</time></trkpt>
<trkpt lat="43.0712820000" lon="-1.0938650000"><ele>1030</ele><time>2026-04-09T11:04:02Z</time></trkpt>
<trkpt lat="43.0713020000" lon="-1.0938870000"><ele>1029</ele><time>2026-04-09T11:04:05Z</time></trkpt>
<trkpt lat="43.0713270000" lon="-1.0938850000"><ele>1028</ele><time>2026-04-09T11:04:08Z</time></trkpt>
<trkpt lat="43.0713520000" lon="-1.0938820000"><ele>1027</ele><time>2026-04-09T11:04:11Z</time></trkpt>
<trkpt lat="43.0713750000" lon="-1.0938670000"><ele>1026</ele><time>2026-04-09T11:04:14Z</time></trkpt>
<trkpt lat="43.0713950000" lon="-1.0938650000"><ele>1026</ele><time>2026-04-09T11:04:16Z</time></trkpt>
<trkpt lat="43.0714120000" lon="-1.0938820000"><ele>1025</ele><time>2026-04-09T11:04:19Z</time></trkpt>
<trkpt lat="43.0714120000" lon="-1.0939150000"><ele>1024</ele><time>2026-04-09T11:04:22Z</time></trkpt>
<trkpt lat="43.0714050000" lon="-1.0939450000"><ele>1023</ele><time>2026-04-09T11:04:25Z</time></trkpt>
<trkpt lat="43.0713970000" lon="-1.0939750000"><ele>1023</ele><time>2026-04-09T11:04:29Z</time></trkpt>
<trkpt lat="43.0714070000" lon="-1.0940050000"><ele>1022</ele><time>2026-04-09T11:04:32Z</time></trkpt>
<trkpt lat="43.0714170000" lon="-1.0940270000"><ele>1022</ele><time>2026-04-09T11:04:34Z</time></trkpt>
<trkpt lat="43.0714320000" lon="-1.0940520000"><ele>1021</ele><time>2026-04-09T11:04:37Z</time></trkpt>
<trkpt lat="43.0714470000" lon="-1.0940720000"><ele>1020</ele><time>2026-04-09T11:04:39Z</time></trkpt>
<trkpt lat="43.0714600000" lon="-1.0940920000"><ele>1019</ele><time>2026-04-09T11:04:41Z</time></trkpt>
<trkpt lat="43.0714770000" lon="-1.0941270000"><ele>1018</ele><time>2026-04-09T11:04:44Z</time></trkpt>
<trkpt lat="43.0714820000" lon="-1.0941370000"><ele>1018</ele><time>2026-04-09T11:04:45Z</time></trkpt>
<trkpt lat="43.0715020000" lon="-1.0941620000"><ele>1017</ele><time>2026-04-09T11:04:48Z</time></trkpt>
<trkpt lat="43.0715250000" lon="-1.0941920000"><ele>1015</ele><time>2026-04-09T11:04:52Z</time></trkpt>
<trkpt lat="43.0715320000" lon="-1.0942020000"><ele>1015</ele><time>2026-04-09T11:04:53Z</time></trkpt>
<trkpt lat="43.0715420000" lon="-1.0942250000"><ele>1015</ele><time>2026-04-09T11:04:55Z</time></trkpt>
<trkpt lat="43.0715570000" lon="-1.0942570000"><ele>1014</ele><time>2026-04-09T11:04:58Z</time></trkpt>
<trkpt lat="43.0715700000" lon="-1.0942750000"><ele>1013</ele><time>2026-04-09T11:05:00Z</time></trkpt>
<trkpt lat="43.0715900000" lon="-1.0943020000"><ele>1012</ele><time>2026-04-09T11:05:03Z</time></trkpt>
<trkpt lat="43.0715970000" lon="-1.0943120000"><ele>1012</ele><time>2026-04-09T11:05:04Z</time></trkpt>
<trkpt lat="43.0716120000" lon="-1.0943370000"><ele>1011</ele><time>2026-04-09T11:05:07Z</time></trkpt>
<trkpt lat="43.0716270000" lon="-1.0943550000"><ele>1010</ele><time>2026-04-09T11:05:09Z</time></trkpt>
<trkpt lat="43.0716520000" lon="-1.0943750000"><ele>1010</ele><time>2026-04-09T11:05:12Z</time></trkpt>
<trkpt lat="43.0716700000" lon="-1.0943920000"><ele>1009</ele><time>2026-04-09T11:05:14Z</time></trkpt>
<trkpt lat="43.0716850000" lon="-1.0944120000"><ele>1009</ele><time>2026-04-09T11:05:16Z</time></trkpt>
<trkpt lat="43.0717020000" lon="-1.0944300000"><ele>1008</ele><time>2026-04-09T11:05:18Z</time></trkpt>
<trkpt lat="43.0717100000" lon="-1.0944400000"><ele>1008</ele><time>2026-04-09T11:05:19Z</time></trkpt>
<trkpt lat="43.0717270000" lon="-1.0944600000"><ele>1007</ele><time>2026-04-09T11:05:21Z</time></trkpt>
<trkpt lat="43.0717420000" lon="-1.0944770000"><ele>1007</ele><time>2026-04-09T11:05:23Z</time></trkpt>
<trkpt lat="43.0717650000" lon="-1.0945070000"><ele>1006</ele><time>2026-04-09T11:05:26Z</time></trkpt>
<trkpt lat="43.0717770000" lon="-1.0945120000"><ele>1006</ele><time>2026-04-09T11:05:27Z</time></trkpt>
<trkpt lat="43.0718020000" lon="-1.0945220000"><ele>1005</ele><time>2026-04-09T11:05:30Z</time></trkpt>
<trkpt lat="43.0718170000" lon="-1.0945420000"><ele>1005</ele><time>2026-04-09T11:05:32Z</time></trkpt>
<trkpt lat="43.0718320000" lon="-1.0945620000"><ele>1005</ele><time>2026-04-09T11:05:34Z</time></trkpt>
<trkpt lat="43.0718600000" lon="-1.0945900000"><ele>1004</ele><time>2026-04-09T11:05:37Z</time></trkpt>
<trkpt lat="43.0718700000" lon="-1.0945870000"><ele>1004</ele><time>2026-04-09T11:05:39Z</time></trkpt>
<trkpt lat="43.0718920000" lon="-1.0945670000"><ele>1003</ele><time>2026-04-09T11:05:47Z</time></trkpt>
<trkpt lat="43.0719020000" lon="-1.0945870000"><ele>1003</ele><time>2026-04-09T11:06:30Z</time></trkpt>
<trkpt lat="43.0719200000" lon="-1.0946130000"><ele>1003</ele><time>2026-04-09T11:06:32Z</time></trkpt>
<trkpt lat="43.0719470000" lon="-1.0946470000"><ele>1002</ele><time>2026-04-09T11:06:35Z</time></trkpt>
<trkpt lat="43.0719570000" lon="-1.0946570000"><ele>1002</ele><time>2026-04-09T11:06:36Z</time></trkpt>
<trkpt lat="43.0719720000" lon="-1.0946770000"><ele>1001</ele><time>2026-04-09T11:06:38Z</time></trkpt>
<trkpt lat="43.0719920000" lon="-1.0946920000"><ele>1001</ele><time>2026-04-09T11:06:40Z</time></trkpt>
<trkpt lat="43.0720200000" lon="-1.0947270000"><ele>1001</ele><time>2026-04-09T11:06:43Z</time></trkpt>
<trkpt lat="43.0720270000" lon="-1.0947370000"><ele>1001</ele><time>2026-04-09T11:06:44Z</time></trkpt>
<trkpt lat="43.0720470000" lon="-1.0947570000"><ele>1001</ele><time>2026-04-09T11:06:46Z</time></trkpt>
<trkpt lat="43.0720670000" lon="-1.0947750000"><ele>1001</ele><time>2026-04-09T11:06:48Z</time></trkpt>
<trkpt lat="43.0720850000" lon="-1.0947920000"><ele>1001</ele><time>2026-04-09T11:06:50Z</time></trkpt>
<trkpt lat="43.0721020000" lon="-1.0948100000"><ele>1001</ele><time>2026-04-09T11:06:52Z</time></trkpt>
<trkpt lat="43.0721220000" lon="-1.0948300000"><ele>1001</ele><time>2026-04-09T11:06:54Z</time></trkpt>
<trkpt lat="43.0721420000" lon="-1.0948500000"><ele>1000</ele><time>2026-04-09T11:06:56Z</time></trkpt>
<trkpt lat="43.0721600000" lon="-1.0948720000"><ele>1000</ele><time>2026-04-09T11:06:58Z</time></trkpt>
<trkpt lat="43.0721770000" lon="-1.0948950000"><ele>1000</ele><time>2026-04-09T11:07:00Z</time></trkpt>
<trkpt lat="43.0721950000" lon="-1.0949170000"><ele>1001</ele><time>2026-04-09T11:07:02Z</time></trkpt>
<trkpt lat="43.0722120000" lon="-1.0949370000"><ele>1001</ele><time>2026-04-09T11:07:04Z</time></trkpt>
<trkpt lat="43.0722300000" lon="-1.0949520000"><ele>1001</ele><time>2026-04-09T11:07:06Z</time></trkpt>
<trkpt lat="43.0722530000" lon="-1.0949750000"><ele>1001</ele><time>2026-04-09T11:07:09Z</time></trkpt>
<trkpt lat="43.0722620000" lon="-1.0949870000"><ele>1001</ele><time>2026-04-09T11:07:10Z</time></trkpt>
<trkpt lat="43.0722770000" lon="-1.0950070000"><ele>1001</ele><time>2026-04-09T11:07:12Z</time></trkpt>
<trkpt lat="43.0723000000" lon="-1.0950270000"><ele>1001</ele><time>2026-04-09T11:07:15Z</time></trkpt>
<trkpt lat="43.0723170000" lon="-1.0950420000"><ele>1000</ele><time>2026-04-09T11:07:18Z</time></trkpt>
<trkpt lat="43.0723370000" lon="-1.0950620000"><ele>1000</ele><time>2026-04-09T11:07:21Z</time></trkpt>
<trkpt lat="43.0723550000" lon="-1.0950750000"><ele>999</ele><time>2026-04-09T11:07:24Z</time></trkpt>
<trkpt lat="43.0723720000" lon="-1.0950800000"><ele>999</ele><time>2026-04-09T11:07:26Z</time></trkpt>
<trkpt lat="43.0723900000" lon="-1.0951000000"><ele>999</ele><time>2026-04-09T11:07:29Z</time></trkpt>
<trkpt lat="43.0724070000" lon="-1.0951200000"><ele>998</ele><time>2026-04-09T11:07:32Z</time></trkpt>
<trkpt lat="43.0724250000" lon="-1.0951420000"><ele>998</ele><time>2026-04-09T11:07:35Z</time></trkpt>
<trkpt lat="43.0724420000" lon="-1.0951650000"><ele>997</ele><time>2026-04-09T11:07:39Z</time></trkpt>
<trkpt lat="43.0724620000" lon="-1.0951870000"><ele>996</ele><time>2026-04-09T11:07:42Z</time></trkpt>
<trkpt lat="43.0724750000" lon="-1.0952050000"><ele>996</ele><time>2026-04-09T11:07:44Z</time></trkpt>
<trkpt lat="43.0724950000" lon="-1.0952270000"><ele>995</ele><time>2026-04-09T11:07:47Z</time></trkpt>
<trkpt lat="43.0725150000" lon="-1.0952450000"><ele>994</ele><time>2026-04-09T11:07:50Z</time></trkpt>
<trkpt lat="43.0725320000" lon="-1.0952720000"><ele>993</ele><time>2026-04-09T11:07:53Z</time></trkpt>
<trkpt lat="43.0725500000" lon="-1.0952920000"><ele>992</ele><time>2026-04-09T11:07:56Z</time></trkpt>
<trkpt lat="43.0725670000" lon="-1.0953150000"><ele>991</ele><time>2026-04-09T11:07:59Z</time></trkpt>
<trkpt lat="43.0725770000" lon="-1.0953420000"><ele>990</ele><time>2026-04-09T11:08:02Z</time></trkpt>
<trkpt lat="43.0725770000" lon="-1.0953720000"><ele>990</ele><time>2026-04-09T11:08:05Z</time></trkpt>
<trkpt lat="43.0725800000" lon="-1.0954050000"><ele>989</ele><time>2026-04-09T11:08:08Z</time></trkpt>
<trkpt lat="43.0725970000" lon="-1.0954220000"><ele>988</ele><time>2026-04-09T11:08:11Z</time></trkpt>
<trkpt lat="43.0726200000" lon="-1.0954320000"><ele>987</ele><time>2026-04-09T11:08:14Z</time></trkpt>
<trkpt lat="43.0726420000" lon="-1.0954420000"><ele>986</ele><time>2026-04-09T11:08:17Z</time></trkpt>
<trkpt lat="43.0726620000" lon="-1.0954620000"><ele>985</ele><time>2026-04-09T11:08:20Z</time></trkpt>
<trkpt lat="43.0726770000" lon="-1.0954920000"><ele>984</ele><time>2026-04-09T11:08:23Z</time></trkpt>
<trkpt lat="43.0726970000" lon="-1.0955120000"><ele>983</ele><time>2026-04-09T11:08:26Z</time></trkpt>
<trkpt lat="43.0727180000" lon="-1.0955250000"><ele>983</ele><time>2026-04-09T11:08:29Z</time></trkpt>
<trkpt lat="43.0727370000" lon="-1.0955420000"><ele>982</ele><time>2026-04-09T11:08:32Z</time></trkpt>
<trkpt lat="43.0727600000" lon="-1.0955650000"><ele>981</ele><time>2026-04-09T11:08:35Z</time></trkpt>
<trkpt lat="43.0727770000" lon="-1.0955920000"><ele>980</ele><time>2026-04-09T11:08:38Z</time></trkpt>
<trkpt lat="43.0727970000" lon="-1.0956020000"><ele>979</ele><time>2026-04-09T11:08:41Z</time></trkpt>
<trkpt lat="43.0728220000" lon="-1.0956070000"><ele>978</ele><time>2026-04-09T11:08:44Z</time></trkpt>
<trkpt lat="43.0728400000" lon="-1.0956170000"><ele>977</ele><time>2026-04-09T11:08:47Z</time></trkpt>
<trkpt lat="43.0728470000" lon="-1.0956270000"><ele>977</ele><time>2026-04-09T11:08:48Z</time></trkpt>
<trkpt lat="43.0728620000" lon="-1.0956420000"><ele>976</ele><time>2026-04-09T11:08:50Z</time></trkpt>
<trkpt lat="43.0728850000" lon="-1.0956620000"><ele>975</ele><time>2026-04-09T11:08:53Z</time></trkpt>
<trkpt lat="43.0729050000" lon="-1.0956820000"><ele>974</ele><time>2026-04-09T11:08:56Z</time></trkpt>
<trkpt lat="43.0729120000" lon="-1.0956920000"><ele>974</ele><time>2026-04-09T11:08:57Z</time></trkpt>
<trkpt lat="43.0729270000" lon="-1.0957070000"><ele>974</ele><time>2026-04-09T11:08:59Z</time></trkpt>
<trkpt lat="43.0729550000" lon="-1.0957150000"><ele>973</ele><time>2026-04-09T11:09:02Z</time></trkpt>
<trkpt lat="43.0729770000" lon="-1.0957370000"><ele>972</ele><time>2026-04-09T11:09:05Z</time></trkpt>
<trkpt lat="43.0729950000" lon="-1.0957670000"><ele>971</ele><time>2026-04-09T11:09:08Z</time></trkpt>
<trkpt lat="43.0730020000" lon="-1.0957770000"><ele>971</ele><time>2026-04-09T11:09:09Z</time></trkpt>
<trkpt lat="43.0730170000" lon="-1.0957900000"><ele>970</ele><time>2026-04-09T11:09:11Z</time></trkpt>
<trkpt lat="43.0730420000" lon="-1.0958020000"><ele>970</ele><time>2026-04-09T11:09:14Z</time></trkpt>
<trkpt lat="43.0730650000" lon="-1.0958170000"><ele>969</ele><time>2026-04-09T11:09:17Z</time></trkpt>
<trkpt lat="43.0730870000" lon="-1.0958370000"><ele>968</ele><time>2026-04-09T11:09:20Z</time></trkpt>
<trkpt lat="43.0731150000" lon="-1.0958520000"><ele>967</ele><time>2026-04-09T11:09:23Z</time></trkpt>
<trkpt lat="43.0731220000" lon="-1.0958570000"><ele>967</ele><time>2026-04-09T11:09:24Z</time></trkpt>
<trkpt lat="43.0731420000" lon="-1.0958770000"><ele>966</ele><time>2026-04-09T11:09:27Z</time></trkpt>
<trkpt lat="43.0731570000" lon="-1.0958920000"><ele>966</ele><time>2026-04-09T11:09:29Z</time></trkpt>
<trkpt lat="43.0731820000" lon="-1.0959170000"><ele>965</ele><time>2026-04-09T11:09:32Z</time></trkpt>
<trkpt lat="43.0731900000" lon="-1.0959270000"><ele>965</ele><time>2026-04-09T11:09:33Z</time></trkpt>
<trkpt lat="43.0732070000" lon="-1.0959400000"><ele>964</ele><time>2026-04-09T11:09:35Z</time></trkpt>
<trkpt lat="43.0732270000" lon="-1.0959720000"><ele>963</ele><time>2026-04-09T11:09:38Z</time></trkpt>
<trkpt lat="43.0732370000" lon="-1.0959770000"><ele>963</ele><time>2026-04-09T11:09:39Z</time></trkpt>
<trkpt lat="43.0732600000" lon="-1.0959970000"><ele>962</ele><time>2026-04-09T11:09:42Z</time></trkpt>
<trkpt lat="43.0732870000" lon="-1.0960070000"><ele>962</ele><time>2026-04-09T11:09:45Z</time></trkpt>
<trkpt lat="43.0733020000" lon="-1.0960200000"><ele>961</ele><time>2026-04-09T11:09:47Z</time></trkpt>
<trkpt lat="43.0733300000" lon="-1.0960370000"><ele>960</ele><time>2026-04-09T11:09:50Z</time></trkpt>
<trkpt lat="43.0733370000" lon="-1.0960470000"><ele>960</ele><time>2026-04-09T11:09:51Z</time></trkpt>
<trkpt lat="43.0733550000" lon="-1.0960600000"><ele>959</ele><time>2026-04-09T11:09:53Z</time></trkpt>
<trkpt lat="43.0733820000" lon="-1.0960670000"><ele>959</ele><time>2026-04-09T11:09:56Z</time></trkpt>
<trkpt lat="43.0733900000" lon="-1.0960750000"><ele>958</ele><time>2026-04-09T11:09:57Z</time></trkpt>
<trkpt lat="43.0734100000" lon="-1.0960870000"><ele>958</ele><time>2026-04-09T11:09:59Z</time></trkpt>
<trkpt lat="43.0734350000" lon="-1.0961020000"><ele>957</ele><time>2026-04-09T11:10:02Z</time></trkpt>
<trkpt lat="43.0734420000" lon="-1.0961120000"><ele>957</ele><time>2026-04-09T11:10:03Z</time></trkpt>
<trkpt lat="43.0734620000" lon="-1.0961200000"><ele>956</ele><time>2026-04-09T11:10:05Z</time></trkpt>
<trkpt lat="43.0734850000" lon="-1.0961420000"><ele>956</ele><time>2026-04-09T11:10:08Z</time></trkpt>
<trkpt lat="43.0734920000" lon="-1.0961500000"><ele>955</ele><time>2026-04-09T11:10:09Z</time></trkpt>
<trkpt lat="43.0735050000" lon="-1.0961700000"><ele>955</ele><time>2026-04-09T11:10:11Z</time></trkpt>
<trkpt lat="43.0735320000" lon="-1.0961920000"><ele>955</ele><time>2026-04-09T11:10:14Z</time></trkpt>
<trkpt lat="43.0735420000" lon="-1.0961970000"><ele>954</ele><time>2026-04-09T11:10:15Z</time></trkpt>
<trkpt lat="43.0735670000" lon="-1.0962120000"><ele>954</ele><time>2026-04-09T11:10:18Z</time></trkpt>
<trkpt lat="43.0735850000" lon="-1.0962220000"><ele>953</ele><time>2026-04-09T11:10:20Z</time></trkpt>
<trkpt lat="43.0736100000" lon="-1.0962450000"><ele>953</ele><time>2026-04-09T11:10:23Z</time></trkpt>
<trkpt lat="43.0736180000" lon="-1.0962470000"><ele>952</ele><time>2026-04-09T11:10:24Z</time></trkpt>
<trkpt lat="43.0736400000" lon="-1.0962400000"><ele>952</ele><time>2026-04-09T11:10:26Z</time></trkpt>
<trkpt lat="43.0736670000" lon="-1.0962400000"><ele>951</ele><time>2026-04-09T11:10:29Z</time></trkpt>
<trkpt lat="43.0736770000" lon="-1.0962420000"><ele>951</ele><time>2026-04-09T11:10:30Z</time></trkpt>
<trkpt lat="43.0736970000" lon="-1.0962570000"><ele>951</ele><time>2026-04-09T11:10:32Z</time></trkpt>
<trkpt lat="43.0737270000" lon="-1.0962770000"><ele>950</ele><time>2026-04-09T11:10:35Z</time></trkpt>
<trkpt lat="43.0737370000" lon="-1.0962870000"><ele>950</ele><time>2026-04-09T11:10:36Z</time></trkpt>
<trkpt lat="43.0737600000" lon="-1.0963070000"><ele>950</ele><time>2026-04-09T11:10:39Z</time></trkpt>
<trkpt lat="43.0737770000" lon="-1.0963170000"><ele>949</ele><time>2026-04-09T11:10:41Z</time></trkpt>
<trkpt lat="43.0737970000" lon="-1.0963220000"><ele>949</ele><time>2026-04-09T11:10:43Z</time></trkpt>
<trkpt lat="43.0738150000" lon="-1.0963350000"><ele>948</ele><time>2026-04-09T11:10:45Z</time></trkpt>
<trkpt lat="43.0738320000" lon="-1.0963520000"><ele>948</ele><time>2026-04-09T11:10:47Z</time></trkpt>
<trkpt lat="43.0738600000" lon="-1.0963770000"><ele>947</ele><time>2026-04-09T11:10:50Z</time></trkpt>
<trkpt lat="43.0738700000" lon="-1.0963870000"><ele>947</ele><time>2026-04-09T11:10:51Z</time></trkpt>
<trkpt lat="43.0738850000" lon="-1.0964020000"><ele>947</ele><time>2026-04-09T11:10:53Z</time></trkpt>
<trkpt lat="43.0739070000" lon="-1.0964320000"><ele>946</ele><time>2026-04-09T11:10:56Z</time></trkpt>
<trkpt lat="43.0739170000" lon="-1.0964420000"><ele>946</ele><time>2026-04-09T11:10:57Z</time></trkpt>
<trkpt lat="43.0739370000" lon="-1.0964570000"><ele>946</ele><time>2026-04-09T11:10:59Z</time></trkpt>
<trkpt lat="43.0739670000" lon="-1.0964720000"><ele>945</ele><time>2026-04-09T11:11:02Z</time></trkpt>
<trkpt lat="43.0739770000" lon="-1.0964650000"><ele>945</ele><time>2026-04-09T11:11:03Z</time></trkpt>
<trkpt lat="43.0739950000" lon="-1.0964470000"><ele>945</ele><time>2026-04-09T11:11:06Z</time></trkpt>
<trkpt lat="43.0740220000" lon="-1.0964770000"><ele>944</ele><time>2026-04-09T11:11:11Z</time></trkpt>
<trkpt lat="43.0740370000" lon="-1.0965070000"><ele>944</ele><time>2026-04-09T11:11:14Z</time></trkpt>
<trkpt lat="43.0740450000" lon="-1.0965170000"><ele>944</ele><time>2026-04-09T11:11:15Z</time></trkpt>
<trkpt lat="43.0740620000" lon="-1.0965320000"><ele>943</ele><time>2026-04-09T11:11:17Z</time></trkpt>
<trkpt lat="43.0740900000" lon="-1.0965470000"><ele>943</ele><time>2026-04-09T11:11:20Z</time></trkpt>
<trkpt lat="43.0741000000" lon="-1.0965520000"><ele>943</ele><time>2026-04-09T11:11:21Z</time></trkpt>
<trkpt lat="43.0741220000" lon="-1.0965570000"><ele>943</ele><time>2026-04-09T11:11:23Z</time></trkpt>
<trkpt lat="43.0741470000" lon="-1.0965820000"><ele>942</ele><time>2026-04-09T11:11:26Z</time></trkpt>
<trkpt lat="43.0741520000" lon="-1.0965900000"><ele>942</ele><time>2026-04-09T11:11:27Z</time></trkpt>
<trkpt lat="43.0741720000" lon="-1.0966100000"><ele>942</ele><time>2026-04-09T11:11:29Z</time></trkpt>
<trkpt lat="43.0741970000" lon="-1.0966350000"><ele>941</ele><time>2026-04-09T11:11:32Z</time></trkpt>
<trkpt lat="43.0742070000" lon="-1.0966450000"><ele>941</ele><time>2026-04-09T11:11:33Z</time></trkpt>
<trkpt lat="43.0742220000" lon="-1.0966650000"><ele>941</ele><time>2026-04-09T11:11:35Z</time></trkpt>
<trkpt lat="43.0742520000" lon="-1.0966920000"><ele>941</ele><time>2026-04-09T11:11:38Z</time></trkpt>
<trkpt lat="43.0742620000" lon="-1.0967000000"><ele>941</ele><time>2026-04-09T11:11:39Z</time></trkpt>
<trkpt lat="43.0742820000" lon="-1.0967170000"><ele>940</ele><time>2026-04-09T11:11:41Z</time></trkpt>
<trkpt lat="43.0743080000" lon="-1.0967420000"><ele>940</ele><time>2026-04-09T11:11:44Z</time></trkpt>
<trkpt lat="43.0743200000" lon="-1.0967520000"><ele>940</ele><time>2026-04-09T11:11:45Z</time></trkpt>
<trkpt lat="43.0743370000" lon="-1.0967670000"><ele>940</ele><time>2026-04-09T11:11:47Z</time></trkpt>
<trkpt lat="43.0743670000" lon="-1.0967950000"><ele>940</ele><time>2026-04-09T11:11:50Z</time></trkpt>
<trkpt lat="43.0743770000" lon="-1.0968020000"><ele>940</ele><time>2026-04-09T11:11:51Z</time></trkpt>
<trkpt lat="43.0743970000" lon="-1.0968200000"><ele>939</ele><time>2026-04-09T11:11:53Z</time></trkpt>
<trkpt lat="43.0744270000" lon="-1.0968450000"><ele>939</ele><time>2026-04-09T11:11:56Z</time></trkpt>
<trkpt lat="43.0744370000" lon="-1.0968520000"><ele>939</ele><time>2026-04-09T11:11:57Z</time></trkpt>
<trkpt lat="43.0744570000" lon="-1.0968670000"><ele>939</ele><time>2026-04-09T11:11:59Z</time></trkpt>
<trkpt lat="43.0744820000" lon="-1.0968850000"><ele>939</ele><time>2026-04-09T11:12:02Z</time></trkpt>
<trkpt lat="43.0744920000" lon="-1.0968920000"><ele>939</ele><time>2026-04-09T11:12:03Z</time></trkpt>
<trkpt lat="43.0745120000" lon="-1.0968970000"><ele>939</ele><time>2026-04-09T11:12:05Z</time></trkpt>
<trkpt lat="43.0745420000" lon="-1.0969170000"><ele>938</ele><time>2026-04-09T11:12:08Z</time></trkpt>
<trkpt lat="43.0745520000" lon="-1.0969270000"><ele>938</ele><time>2026-04-09T11:12:09Z</time></trkpt>
<trkpt lat="43.0745720000" lon="-1.0969420000"><ele>938</ele><time>2026-04-09T11:12:11Z</time></trkpt>
<trkpt lat="43.0746020000" lon="-1.0969870000"><ele>938</ele><time>2026-04-09T11:12:14Z</time></trkpt>
<trkpt lat="43.0746100000" lon="-1.0970070000"><ele>938</ele><time>2026-04-09T11:12:15Z</time></trkpt>
<trkpt lat="43.0746270000" lon="-1.0970320000"><ele>938</ele><time>2026-04-09T11:12:17Z</time></trkpt>
<trkpt lat="43.0746520000" lon="-1.0970620000"><ele>938</ele><time>2026-04-09T11:12:20Z</time></trkpt>
<trkpt lat="43.0746600000" lon="-1.0970720000"><ele>937</ele><time>2026-04-09T11:12:21Z</time></trkpt>
<trkpt lat="43.0746750000" lon="-1.0970920000"><ele>937</ele><time>2026-04-09T11:12:23Z</time></trkpt>
<trkpt lat="43.0747020000" lon="-1.0971200000"><ele>937</ele><time>2026-04-09T11:12:26Z</time></trkpt>
<trkpt lat="43.0747100000" lon="-1.0971270000"><ele>937</ele><time>2026-04-09T11:12:27Z</time></trkpt>
<trkpt lat="43.0747270000" lon="-1.0971470000"><ele>937</ele><time>2026-04-09T11:12:29Z</time></trkpt>
<trkpt lat="43.0747520000" lon="-1.0971720000"><ele>937</ele><time>2026-04-09T11:12:32Z</time></trkpt>
<trkpt lat="43.0747620000" lon="-1.0971800000"><ele>936</ele><time>2026-04-09T11:12:33Z</time></trkpt>
<trkpt lat="43.0747770000" lon="-1.0971950000"><ele>936</ele><time>2026-04-09T11:12:35Z</time></trkpt>
<trkpt lat="43.0748020000" lon="-1.0972220000"><ele>936</ele><time>2026-04-09T11:12:38Z</time></trkpt>
<trkpt lat="43.0748100000" lon="-1.0972300000"><ele>936</ele><time>2026-04-09T11:12:39Z</time></trkpt>
<trkpt lat="43.0748270000" lon="-1.0972470000"><ele>935</ele><time>2026-04-09T11:12:41Z</time></trkpt>
<trkpt lat="43.0748550000" lon="-1.0972670000"><ele>935</ele><time>2026-04-09T11:12:44Z</time></trkpt>
<trkpt lat="43.0748620000" lon="-1.0972770000"><ele>935</ele><time>2026-04-09T11:12:45Z</time></trkpt>
<trkpt lat="43.0748820000" lon="-1.0972920000"><ele>935</ele><time>2026-04-09T11:12:47Z</time></trkpt>
<trkpt lat="43.0749100000" lon="-1.0973150000"><ele>935</ele><time>2026-04-09T11:12:50Z</time></trkpt>
<trkpt lat="43.0749200000" lon="-1.0973220000"><ele>935</ele><time>2026-04-09T11:12:51Z</time></trkpt>
<trkpt lat="43.0749370000" lon="-1.0973370000"><ele>934</ele><time>2026-04-09T11:12:53Z</time></trkpt>
<trkpt lat="43.0749670000" lon="-1.0973570000"><ele>934</ele><time>2026-04-09T11:12:56Z</time></trkpt>
<trkpt lat="43.0749770000" lon="-1.0973670000"><ele>934</ele><time>2026-04-09T11:12:57Z</time></trkpt>
<trkpt lat="43.0749920000" lon="-1.0973820000"><ele>933</ele><time>2026-04-09T11:12:59Z</time></trkpt>
<trkpt lat="43.0750170000" lon="-1.0974100000"><ele>933</ele><time>2026-04-09T11:13:02Z</time></trkpt>
<trkpt lat="43.0750270000" lon="-1.0974170000"><ele>933</ele><time>2026-04-09T11:13:03Z</time></trkpt>
<trkpt lat="43.0750420000" lon="-1.0974370000"><ele>932</ele><time>2026-04-09T11:13:05Z</time></trkpt>
<trkpt lat="43.0750570000" lon="-1.0974750000"><ele>932</ele><time>2026-04-09T11:13:08Z</time></trkpt>
<trkpt lat="43.0750620000" lon="-1.0974850000"><ele>932</ele><time>2026-04-09T11:13:09Z</time></trkpt>
<trkpt lat="43.0750720000" lon="-1.0975070000"><ele>932</ele><time>2026-04-09T11:13:11Z</time></trkpt>
<trkpt lat="43.0750850000" lon="-1.0975270000"><ele>932</ele><time>2026-04-09T11:13:13Z</time></trkpt>
<trkpt lat="43.0750920000" lon="-1.0975670000"><ele>932</ele><time>2026-04-09T11:13:17Z</time></trkpt>
<trkpt lat="43.0750850000" lon="-1.0975950000"><ele>931</ele><time>2026-04-09T11:13:20Z</time></trkpt>
<trkpt lat="43.0750800000" lon="-1.0976270000"><ele>931</ele><time>2026-04-09T11:13:23Z</time></trkpt>
<trkpt lat="43.0750970000" lon="-1.0976320000"><ele>930</ele><time>2026-04-09T11:16:20Z</time></trkpt>
<trkpt lat="43.0751270000" lon="-1.0976420000"><ele>930</ele><time>2026-04-09T11:16:22Z</time></trkpt>
<trkpt lat="43.0751570000" lon="-1.0976520000"><ele>929</ele><time>2026-04-09T11:16:24Z</time></trkpt>
<trkpt lat="43.0751920000" lon="-1.0976620000"><ele>929</ele><time>2026-04-09T11:16:27Z</time></trkpt>
<trkpt lat="43.0752020000" lon="-1.0976670000"><ele>929</ele><time>2026-04-09T11:16:28Z</time></trkpt>
<trkpt lat="43.0752220000" lon="-1.0976670000"><ele>929</ele><time>2026-04-09T11:16:30Z</time></trkpt>
<trkpt lat="43.0752400000" lon="-1.0976670000"><ele>929</ele><time>2026-04-09T11:16:32Z</time></trkpt>
<trkpt lat="43.0752670000" lon="-1.0976670000"><ele>929</ele><time>2026-04-09T11:16:35Z</time></trkpt>
<trkpt lat="43.0752850000" lon="-1.0976770000"><ele>928</ele><time>2026-04-09T11:16:37Z</time></trkpt>
<trkpt lat="43.0753100000" lon="-1.0976920000"><ele>928</ele><time>2026-04-09T11:16:40Z</time></trkpt>
<trkpt lat="43.0753170000" lon="-1.0977000000"><ele>928</ele><time>2026-04-09T11:16:41Z</time></trkpt>
<trkpt lat="43.0753420000" lon="-1.0977170000"><ele>927</ele><time>2026-04-09T11:16:44Z</time></trkpt>
<trkpt lat="43.0753600000" lon="-1.0977320000"><ele>927</ele><time>2026-04-09T11:16:46Z</time></trkpt>
<trkpt lat="43.0753870000" lon="-1.0977470000"><ele>926</ele><time>2026-04-09T11:16:49Z</time></trkpt>
<trkpt lat="43.0754070000" lon="-1.0977600000"><ele>925</ele><time>2026-04-09T11:16:52Z</time></trkpt>
<trkpt lat="43.0754320000" lon="-1.0977750000"><ele>925</ele><time>2026-04-09T11:16:55Z</time></trkpt>
<trkpt lat="43.0754420000" lon="-1.0977770000"><ele>925</ele><time>2026-04-09T11:16:56Z</time></trkpt>
<trkpt lat="43.0754620000" lon="-1.0977900000"><ele>924</ele><time>2026-04-09T11:16:58Z</time></trkpt>
<trkpt lat="43.0754870000" lon="-1.0978050000"><ele>924</ele><time>2026-04-09T11:17:01Z</time></trkpt>
<trkpt lat="43.0754970000" lon="-1.0978100000"><ele>924</ele><time>2026-04-09T11:17:02Z</time></trkpt>
<trkpt lat="43.0755170000" lon="-1.0978170000"><ele>923</ele><time>2026-04-09T11:17:04Z</time></trkpt>
<trkpt lat="43.0755350000" lon="-1.0978220000"><ele>923</ele><time>2026-04-09T11:17:06Z</time></trkpt>
<trkpt lat="43.0755600000" lon="-1.0978220000"><ele>922</ele><time>2026-04-09T11:17:09Z</time></trkpt>
<trkpt lat="43.0755770000" lon="-1.0978270000"><ele>922</ele><time>2026-04-09T11:17:11Z</time></trkpt>
<trkpt lat="43.0756070000" lon="-1.0978370000"><ele>921</ele><time>2026-04-09T11:17:14Z</time></trkpt>
<trkpt lat="43.0756170000" lon="-1.0978380000"><ele>921</ele><time>2026-04-09T11:17:15Z</time></trkpt>
<trkpt lat="43.0756370000" lon="-1.0978420000"><ele>921</ele><time>2026-04-09T11:17:17Z</time></trkpt>
<trkpt lat="43.0756620000" lon="-1.0978670000"><ele>920</ele><time>2026-04-09T11:17:20Z</time></trkpt>
<trkpt lat="43.0756720000" lon="-1.0978720000"><ele>920</ele><time>2026-04-09T11:17:21Z</time></trkpt>
<trkpt lat="43.0756920000" lon="-1.0978850000"><ele>919</ele><time>2026-04-09T11:17:23Z</time></trkpt>
<trkpt lat="43.0757170000" lon="-1.0978870000"><ele>918</ele><time>2026-04-09T11:17:26Z</time></trkpt>
<trkpt lat="43.0757420000" lon="-1.0978920000"><ele>918</ele><time>2026-04-09T11:17:29Z</time></trkpt>
<trkpt lat="43.0757700000" lon="-1.0978800000"><ele>917</ele><time>2026-04-09T11:17:32Z</time></trkpt>
<trkpt lat="43.0757770000" lon="-1.0978750000"><ele>917</ele><time>2026-04-09T11:17:33Z</time></trkpt>
<trkpt lat="43.0757970000" lon="-1.0978700000"><ele>916</ele><time>2026-04-09T11:17:35Z</time></trkpt>
<trkpt lat="43.0758250000" lon="-1.0978700000"><ele>916</ele><time>2026-04-09T11:17:38Z</time></trkpt>
<trkpt lat="43.0758520000" lon="-1.0978650000"><ele>915</ele><time>2026-04-09T11:17:41Z</time></trkpt>
<trkpt lat="43.0758800000" lon="-1.0978670000"><ele>914</ele><time>2026-04-09T11:17:44Z</time></trkpt>
<trkpt lat="43.0758900000" lon="-1.0978700000"><ele>914</ele><time>2026-04-09T11:17:45Z</time></trkpt>
<trkpt lat="43.0759070000" lon="-1.0978770000"><ele>913</ele><time>2026-04-09T11:17:47Z</time></trkpt>
<trkpt lat="43.0759320000" lon="-1.0978870000"><ele>913</ele><time>2026-04-09T11:17:50Z</time></trkpt>
<trkpt lat="43.0759620000" lon="-1.0978970000"><ele>912</ele><time>2026-04-09T11:17:53Z</time></trkpt>
<trkpt lat="43.0759720000" lon="-1.0978970000"><ele>912</ele><time>2026-04-09T11:17:54Z</time></trkpt>
<trkpt lat="43.0759900000" lon="-1.0979070000"><ele>911</ele><time>2026-04-09T11:17:56Z</time></trkpt>
<trkpt lat="43.0760200000" lon="-1.0979200000"><ele>911</ele><time>2026-04-09T11:17:59Z</time></trkpt>
<trkpt lat="43.0760270000" lon="-1.0979220000"><ele>911</ele><time>2026-04-09T11:18:00Z</time></trkpt>
<trkpt lat="43.0760500000" lon="-1.0979250000"><ele>910</ele><time>2026-04-09T11:18:02Z</time></trkpt>
<trkpt lat="43.0760670000" lon="-1.0979320000"><ele>910</ele><time>2026-04-09T11:18:04Z</time></trkpt>
<trkpt lat="43.0761020000" lon="-1.0979370000"><ele>909</ele><time>2026-04-09T11:18:07Z</time></trkpt>
<trkpt lat="43.0761120000" lon="-1.0979350000"><ele>909</ele><time>2026-04-09T11:18:08Z</time></trkpt>
<trkpt lat="43.0761350000" lon="-1.0979370000"><ele>909</ele><time>2026-04-09T11:18:10Z</time></trkpt>
<trkpt lat="43.0761670000" lon="-1.0979420000"><ele>908</ele><time>2026-04-09T11:18:13Z</time></trkpt>
<trkpt lat="43.0761770000" lon="-1.0979370000"><ele>908</ele><time>2026-04-09T11:18:14Z</time></trkpt>
<trkpt lat="43.0761970000" lon="-1.0979320000"><ele>908</ele><time>2026-04-09T11:18:16Z</time></trkpt>
<trkpt lat="43.0762250000" lon="-1.0979270000"><ele>907</ele><time>2026-04-09T11:18:19Z</time></trkpt>
<trkpt lat="43.0762350000" lon="-1.0979270000"><ele>907</ele><time>2026-04-09T11:18:20Z</time></trkpt>
<trkpt lat="43.0762570000" lon="-1.0979250000"><ele>906</ele><time>2026-04-09T11:18:22Z</time></trkpt>
<trkpt lat="43.0762850000" lon="-1.0979250000"><ele>906</ele><time>2026-04-09T11:18:25Z</time></trkpt>
<trkpt lat="43.0762950000" lon="-1.0979250000"><ele>906</ele><time>2026-04-09T11:18:26Z</time></trkpt>
<trkpt lat="43.0763150000" lon="-1.0979320000"><ele>905</ele><time>2026-04-09T11:18:28Z</time></trkpt>
<trkpt lat="43.0763480000" lon="-1.0979550000"><ele>905</ele><time>2026-04-09T11:18:31Z</time></trkpt>
<trkpt lat="43.0763620000" lon="-1.0979650000"><ele>905</ele><time>2026-04-09T11:18:32Z</time></trkpt>
<trkpt lat="43.0763900000" lon="-1.0979850000"><ele>904</ele><time>2026-04-09T11:18:34Z</time></trkpt>
<trkpt lat="43.0764220000" lon="-1.0979970000"><ele>904</ele><time>2026-04-09T11:18:37Z</time></trkpt>
<trkpt lat="43.0764300000" lon="-1.0979950000"><ele>904</ele><time>2026-04-09T11:18:38Z</time></trkpt>
<trkpt lat="43.0764520000" lon="-1.0979920000"><ele>903</ele><time>2026-04-09T11:18:40Z</time></trkpt>
<trkpt lat="43.0764800000" lon="-1.0979970000"><ele>903</ele><time>2026-04-09T11:18:43Z</time></trkpt>
<trkpt lat="43.0765020000" lon="-1.0980020000"><ele>903</ele><time>2026-04-09T11:18:45Z</time></trkpt>
<trkpt lat="43.0765250000" lon="-1.0980100000"><ele>903</ele><time>2026-04-09T11:18:47Z</time></trkpt>
<trkpt lat="43.0765570000" lon="-1.0980170000"><ele>903</ele><time>2026-04-09T11:18:50Z</time></trkpt>
<trkpt lat="43.0765700000" lon="-1.0980170000"><ele>903</ele><time>2026-04-09T11:18:51Z</time></trkpt>
<trkpt lat="43.0766050000" lon="-1.0980200000"><ele>903</ele><time>2026-04-09T11:18:53Z</time></trkpt>
<trkpt lat="43.0766270000" lon="-1.0980270000"><ele>902</ele><time>2026-04-09T11:18:55Z</time></trkpt>
<trkpt lat="43.0766620000" lon="-1.0980320000"><ele>902</ele><time>2026-04-09T11:18:58Z</time></trkpt>
<trkpt lat="43.0766720000" lon="-1.0980370000"><ele>902</ele><time>2026-04-09T11:18:59Z</time></trkpt>
<trkpt lat="43.0766920000" lon="-1.0980420000"><ele>902</ele><time>2026-04-09T11:19:01Z</time></trkpt>
<trkpt lat="43.0767170000" lon="-1.0980470000"><ele>902</ele><time>2026-04-09T11:19:03Z</time></trkpt>
<trkpt lat="43.0767550000" lon="-1.0980550000"><ele>902</ele><time>2026-04-09T11:19:06Z</time></trkpt>
<trkpt lat="43.0767670000" lon="-1.0980600000"><ele>902</ele><time>2026-04-09T11:19:07Z</time></trkpt>
<trkpt lat="43.0767900000" lon="-1.0980670000"><ele>901</ele><time>2026-04-09T11:19:09Z</time></trkpt>
<trkpt lat="43.0768120000" lon="-1.0980720000"><ele>901</ele><time>2026-04-09T11:19:11Z</time></trkpt>
<trkpt lat="43.0768470000" lon="-1.0980770000"><ele>901</ele><time>2026-04-09T11:19:14Z</time></trkpt>
<trkpt lat="43.0768600000" lon="-1.0980770000"><ele>901</ele><time>2026-04-09T11:19:15Z</time></trkpt>
<trkpt lat="43.0768820000" lon="-1.0980820000"><ele>901</ele><time>2026-04-09T11:19:17Z</time></trkpt>
<trkpt lat="43.0769170000" lon="-1.0980820000"><ele>901</ele><time>2026-04-09T11:19:20Z</time></trkpt>
<trkpt lat="43.0769270000" lon="-1.0980850000"><ele>901</ele><time>2026-04-09T11:19:21Z</time></trkpt>
<trkpt lat="43.0769470000" lon="-1.0980920000"><ele>901</ele><time>2026-04-09T11:19:23Z</time></trkpt>
<trkpt lat="43.0769670000" lon="-1.0980970000"><ele>900</ele><time>2026-04-09T11:19:25Z</time></trkpt>
<trkpt lat="43.0769970000" lon="-1.0981120000"><ele>900</ele><time>2026-04-09T11:19:28Z</time></trkpt>
<trkpt lat="43.0770100000" lon="-1.0981150000"><ele>900</ele><time>2026-04-09T11:19:29Z</time></trkpt>
<trkpt lat="43.0770320000" lon="-1.0981170000"><ele>900</ele><time>2026-04-09T11:19:31Z</time></trkpt>
<trkpt lat="43.0770650000" lon="-1.0981170000"><ele>900</ele><time>2026-04-09T11:19:34Z</time></trkpt>
<trkpt lat="43.0770800000" lon="-1.0981080000"><ele>899</ele><time>2026-04-09T11:19:37Z</time></trkpt>
<trkpt lat="43.0770950000" lon="-1.0981150000"><ele>899</ele><time>2026-04-09T11:19:43Z</time></trkpt>
<trkpt lat="43.0771170000" lon="-1.0981250000"><ele>899</ele><time>2026-04-09T11:19:46Z</time></trkpt>
<trkpt lat="43.0771420000" lon="-1.0981370000"><ele>899</ele><time>2026-04-09T11:19:48Z</time></trkpt>
<trkpt lat="43.0771780000" lon="-1.0981420000"><ele>899</ele><time>2026-04-09T11:19:51Z</time></trkpt>
<trkpt lat="43.0771900000" lon="-1.0981420000"><ele>899</ele><time>2026-04-09T11:19:52Z</time></trkpt>
<trkpt lat="43.0772100000" lon="-1.0981470000"><ele>899</ele><time>2026-04-09T11:19:54Z</time></trkpt>
<trkpt lat="43.0772450000" lon="-1.0981620000"><ele>899</ele><time>2026-04-09T11:19:57Z</time></trkpt>
<trkpt lat="43.0772570000" lon="-1.0981620000"><ele>898</ele><time>2026-04-09T11:19:58Z</time></trkpt>
<trkpt lat="43.0772770000" lon="-1.0981570000"><ele>898</ele><time>2026-04-09T11:20:00Z</time></trkpt>
<trkpt lat="43.0773020000" lon="-1.0981570000"><ele>898</ele><time>2026-04-09T11:20:03Z</time></trkpt>
<trkpt lat="43.0773270000" lon="-1.0981650000"><ele>897</ele><time>2026-04-09T11:20:14Z</time></trkpt>
<trkpt lat="43.0773520000" lon="-1.0981720000"><ele>897</ele><time>2026-04-09T11:20:16Z</time></trkpt>
<trkpt lat="43.0774000000" lon="-1.0981970000"><ele>897</ele><time>2026-04-09T11:20:19Z</time></trkpt>
<trkpt lat="43.0774170000" lon="-1.0982050000"><ele>897</ele><time>2026-04-09T11:20:20Z</time></trkpt>
<trkpt lat="43.0774420000" lon="-1.0982120000"><ele>897</ele><time>2026-04-09T11:20:22Z</time></trkpt>
<trkpt lat="43.0774670000" lon="-1.0982170000"><ele>897</ele><time>2026-04-09T11:20:24Z</time></trkpt>
<trkpt lat="43.0775000000" lon="-1.0982370000"><ele>896</ele><time>2026-04-09T11:20:27Z</time></trkpt>
<trkpt lat="43.0775100000" lon="-1.0982420000"><ele>896</ele><time>2026-04-09T11:20:28Z</time></trkpt>
<trkpt lat="43.0775320000" lon="-1.0982550000"><ele>896</ele><time>2026-04-09T11:20:30Z</time></trkpt>
<trkpt lat="43.0775500000" lon="-1.0982670000"><ele>896</ele><time>2026-04-09T11:20:32Z</time></trkpt>
<trkpt lat="43.0775720000" lon="-1.0982700000"><ele>896</ele><time>2026-04-09T11:20:35Z</time></trkpt>
<trkpt lat="43.0775920000" lon="-1.0982920000"><ele>896</ele><time>2026-04-09T11:20:51Z</time></trkpt>
<trkpt lat="43.0776320000" lon="-1.0983200000"><ele>895</ele><time>2026-04-09T11:20:54Z</time></trkpt>
<trkpt lat="43.0776470000" lon="-1.0983270000"><ele>895</ele><time>2026-04-09T11:20:55Z</time></trkpt>
<trkpt lat="43.0776700000" lon="-1.0983420000"><ele>895</ele><time>2026-04-09T11:20:57Z</time></trkpt>
<trkpt lat="43.0776920000" lon="-1.0983600000"><ele>895</ele><time>2026-04-09T11:20:59Z</time></trkpt>
<trkpt lat="43.0777270000" lon="-1.0983820000"><ele>894</ele><time>2026-04-09T11:21:02Z</time></trkpt>
<trkpt lat="43.0777370000" lon="-1.0983870000"><ele>894</ele><time>2026-04-09T11:21:03Z</time></trkpt>
<trkpt lat="43.0777570000" lon="-1.0984050000"><ele>894</ele><time>2026-04-09T11:21:05Z</time></trkpt>
<trkpt lat="43.0777920000" lon="-1.0984250000"><ele>893</ele><time>2026-04-09T11:21:08Z</time></trkpt>
<trkpt lat="43.0778050000" lon="-1.0984320000"><ele>893</ele><time>2026-04-09T11:21:09Z</time></trkpt>
<trkpt lat="43.0778270000" lon="-1.0984520000"><ele>893</ele><time>2026-04-09T11:21:11Z</time></trkpt>
<trkpt lat="43.0778520000" lon="-1.0984720000"><ele>893</ele><time>2026-04-09T11:21:13Z</time></trkpt>
<trkpt lat="43.0778720000" lon="-1.0984850000"><ele>893</ele><time>2026-04-09T11:21:15Z</time></trkpt>
<trkpt lat="43.0778950000" lon="-1.0985000000"><ele>893</ele><time>2026-04-09T11:21:17Z</time></trkpt>
<trkpt lat="43.0779270000" lon="-1.0985170000"><ele>892</ele><time>2026-04-09T11:21:20Z</time></trkpt>
<trkpt lat="43.0779420000" lon="-1.0985320000"><ele>892</ele><time>2026-04-09T11:21:22Z</time></trkpt>
<trkpt lat="43.0779520000" lon="-1.0985400000"><ele>892</ele><time>2026-04-09T11:21:23Z</time></trkpt>
<trkpt lat="43.0779820000" lon="-1.0985600000"><ele>891</ele><time>2026-04-09T11:21:26Z</time></trkpt>
<trkpt lat="43.0779920000" lon="-1.0985670000"><ele>891</ele><time>2026-04-09T11:21:27Z</time></trkpt>
<trkpt lat="43.0780100000" lon="-1.0985820000"><ele>891</ele><time>2026-04-09T11:21:29Z</time></trkpt>
<trkpt lat="43.0780300000" lon="-1.0985970000"><ele>891</ele><time>2026-04-09T11:21:31Z</time></trkpt>
<trkpt lat="43.0780500000" lon="-1.0986120000"><ele>891</ele><time>2026-04-09T11:21:33Z</time></trkpt>
<trkpt lat="43.0780720000" lon="-1.0986270000"><ele>890</ele><time>2026-04-09T11:21:35Z</time></trkpt>
<trkpt lat="43.0781020000" lon="-1.0986570000"><ele>890</ele><time>2026-04-09T11:21:38Z</time></trkpt>
<trkpt lat="43.0781120000" lon="-1.0986650000"><ele>890</ele><time>2026-04-09T11:21:39Z</time></trkpt>
<trkpt lat="43.0781350000" lon="-1.0986800000"><ele>890</ele><time>2026-04-09T11:21:41Z</time></trkpt>
<trkpt lat="43.0781670000" lon="-1.0986970000"><ele>890</ele><time>2026-04-09T11:21:44Z</time></trkpt>
<trkpt lat="43.0781770000" lon="-1.0987020000"><ele>890</ele><time>2026-04-09T11:21:45Z</time></trkpt>
<trkpt lat="43.0782000000" lon="-1.0987200000"><ele>890</ele><time>2026-04-09T11:21:47Z</time></trkpt>
<trkpt lat="43.0782220000" lon="-1.0987320000"><ele>890</ele><time>2026-04-09T11:21:49Z</time></trkpt>
<trkpt lat="43.0782420000" lon="-1.0987570000"><ele>890</ele><time>2026-04-09T11:21:53Z</time></trkpt>
<trkpt lat="43.0782750000" lon="-1.0987770000"><ele>889</ele><time>2026-04-09T11:21:56Z</time></trkpt>
<trkpt lat="43.0782870000" lon="-1.0987870000"><ele>889</ele><time>2026-04-09T11:21:57Z</time></trkpt>
<trkpt lat="43.0783100000" lon="-1.0988050000"><ele>889</ele><time>2026-04-09T11:21:59Z</time></trkpt>
<trkpt lat="43.0783420000" lon="-1.0988320000"><ele>889</ele><time>2026-04-09T11:22:02Z</time></trkpt>
<trkpt lat="43.0783520000" lon="-1.0988420000"><ele>889</ele><time>2026-04-09T11:22:03Z</time></trkpt>
<trkpt lat="43.0783720000" lon="-1.0988570000"><ele>889</ele><time>2026-04-09T11:22:05Z</time></trkpt>
<trkpt lat="43.0783970000" lon="-1.0988720000"><ele>888</ele><time>2026-04-09T11:22:07Z</time></trkpt>
<trkpt lat="43.0784170000" lon="-1.0988870000"><ele>888</ele><time>2026-04-09T11:22:09Z</time></trkpt>
<trkpt lat="43.0784400000" lon="-1.0989050000"><ele>888</ele><time>2026-04-09T11:22:11Z</time></trkpt>
<trkpt lat="43.0784700000" lon="-1.0989250000"><ele>888</ele><time>2026-04-09T11:22:14Z</time></trkpt>
<trkpt lat="43.0784800000" lon="-1.0989320000"><ele>888</ele><time>2026-04-09T11:22:15Z</time></trkpt>
<trkpt lat="43.0785000000" lon="-1.0989470000"><ele>887</ele><time>2026-04-09T11:22:17Z</time></trkpt>
<trkpt lat="43.0785320000" lon="-1.0989720000"><ele>887</ele><time>2026-04-09T11:22:20Z</time></trkpt>
<trkpt lat="43.0785420000" lon="-1.0989850000"><ele>887</ele><time>2026-04-09T11:22:21Z</time></trkpt>
<trkpt lat="43.0785600000" lon="-1.0990070000"><ele>887</ele><time>2026-04-09T11:22:23Z</time></trkpt>
<trkpt lat="43.0785820000" lon="-1.0990220000"><ele>887</ele><time>2026-04-09T11:22:25Z</time></trkpt>
<trkpt lat="43.0786050000" lon="-1.0990370000"><ele>886</ele><time>2026-04-09T11:22:27Z</time></trkpt>
<trkpt lat="43.0786270000" lon="-1.0990520000"><ele>886</ele><time>2026-04-09T11:22:29Z</time></trkpt>
<trkpt lat="43.0786470000" lon="-1.0990700000"><ele>886</ele><time>2026-04-09T11:22:31Z</time></trkpt>
<trkpt lat="43.0786670000" lon="-1.0990770000"><ele>886</ele><time>2026-04-09T11:22:33Z</time></trkpt>
<trkpt lat="43.0787020000" lon="-1.0990900000"><ele>885</ele><time>2026-04-09T11:22:36Z</time></trkpt>
<trkpt lat="43.0787120000" lon="-1.0990970000"><ele>885</ele><time>2026-04-09T11:22:37Z</time></trkpt>
<trkpt lat="43.0787370000" lon="-1.0991100000"><ele>885</ele><time>2026-04-09T11:22:39Z</time></trkpt>
<trkpt lat="43.0787670000" lon="-1.0991300000"><ele>885</ele><time>2026-04-09T11:22:42Z</time></trkpt>
<trkpt lat="43.0787770000" lon="-1.0991350000"><ele>885</ele><time>2026-04-09T11:22:43Z</time></trkpt>
<trkpt lat="43.0788020000" lon="-1.0991470000"><ele>885</ele><time>2026-04-09T11:22:45Z</time></trkpt>
<trkpt lat="43.0788320000" lon="-1.0991700000"><ele>884</ele><time>2026-04-09T11:22:48Z</time></trkpt>
<trkpt lat="43.0788420000" lon="-1.0991770000"><ele>884</ele><time>2026-04-09T11:22:49Z</time></trkpt>
<trkpt lat="43.0788650000" lon="-1.0991920000"><ele>884</ele><time>2026-04-09T11:22:51Z</time></trkpt>
<trkpt lat="43.0788900000" lon="-1.0992070000"><ele>884</ele><time>2026-04-09T11:22:54Z</time></trkpt>
<trkpt lat="43.0788970000" lon="-1.0992170000"><ele>884</ele><time>2026-04-09T11:22:55Z</time></trkpt>
<trkpt lat="43.0789200000" lon="-1.0992320000"><ele>884</ele><time>2026-04-09T11:22:57Z</time></trkpt>
<trkpt lat="43.0789520000" lon="-1.0992520000"><ele>883</ele><time>2026-04-09T11:23:00Z</time></trkpt>
<trkpt lat="43.0789620000" lon="-1.0992600000"><ele>883</ele><time>2026-04-09T11:23:01Z</time></trkpt>
<trkpt lat="43.0789850000" lon="-1.0992720000"><ele>883</ele><time>2026-04-09T11:23:03Z</time></trkpt>
<trkpt lat="43.0790170000" lon="-1.0992870000"><ele>883</ele><time>2026-04-09T11:23:06Z</time></trkpt>
<trkpt lat="43.0790270000" lon="-1.0992900000"><ele>883</ele><time>2026-04-09T11:23:07Z</time></trkpt>
<trkpt lat="43.0790470000" lon="-1.0993050000"><ele>883</ele><time>2026-04-09T11:23:09Z</time></trkpt>
<trkpt lat="43.0790770000" lon="-1.0993170000"><ele>882</ele><time>2026-04-09T11:23:12Z</time></trkpt>
<trkpt lat="43.0790900000" lon="-1.0993220000"><ele>882</ele><time>2026-04-09T11:23:13Z</time></trkpt>
<trkpt lat="43.0791100000" lon="-1.0993320000"><ele>882</ele><time>2026-04-09T11:23:15Z</time></trkpt>
<trkpt lat="43.0791450000" lon="-1.0993520000"><ele>882</ele><time>2026-04-09T11:23:18Z</time></trkpt>
<trkpt lat="43.0791570000" lon="-1.0993550000"><ele>881</ele><time>2026-04-09T11:23:19Z</time></trkpt>
<trkpt lat="43.0791800000" lon="-1.0993630000"><ele>881</ele><time>2026-04-09T11:23:21Z</time></trkpt>
<trkpt lat="43.0792120000" lon="-1.0993770000"><ele>881</ele><time>2026-04-09T11:23:24Z</time></trkpt>
<trkpt lat="43.0792220000" lon="-1.0993800000"><ele>881</ele><time>2026-04-09T11:23:25Z</time></trkpt>
<trkpt lat="43.0792470000" lon="-1.0993870000"><ele>881</ele><time>2026-04-09T11:23:27Z</time></trkpt>
<trkpt lat="43.0792770000" lon="-1.0993920000"><ele>880</ele><time>2026-04-09T11:23:30Z</time></trkpt>
<trkpt lat="43.0792900000" lon="-1.0993970000"><ele>880</ele><time>2026-04-09T11:23:31Z</time></trkpt>
<trkpt lat="43.0793120000" lon="-1.0994070000"><ele>880</ele><time>2026-04-09T11:23:33Z</time></trkpt>
<trkpt lat="43.0793520000" lon="-1.0994320000"><ele>880</ele><time>2026-04-09T11:23:36Z</time></trkpt>
<trkpt lat="43.0793670000" lon="-1.0994320000"><ele>880</ele><time>2026-04-09T11:23:37Z</time></trkpt>
<trkpt lat="43.0793950000" lon="-1.0994420000"><ele>880</ele><time>2026-04-09T11:23:39Z</time></trkpt>
<trkpt lat="43.0794170000" lon="-1.0994420000"><ele>879</ele><time>2026-04-09T11:23:41Z</time></trkpt>
<trkpt lat="43.0794420000" lon="-1.0994420000"><ele>879</ele><time>2026-04-09T11:23:43Z</time></trkpt>
<trkpt lat="43.0794670000" lon="-1.0994400000"><ele>879</ele><time>2026-04-09T11:23:45Z</time></trkpt>
<trkpt lat="43.0795050000" lon="-1.0994370000"><ele>879</ele><time>2026-04-09T11:23:48Z</time></trkpt>
<trkpt lat="43.0795170000" lon="-1.0994350000"><ele>879</ele><time>2026-04-09T11:23:49Z</time></trkpt>
<trkpt lat="43.0795400000" lon="-1.0994270000"><ele>879</ele><time>2026-04-09T11:23:51Z</time></trkpt>
<trkpt lat="43.0795770000" lon="-1.0994200000"><ele>878</ele><time>2026-04-09T11:23:54Z</time></trkpt>
<trkpt lat="43.0795870000" lon="-1.0994150000"><ele>878</ele><time>2026-04-09T11:23:55Z</time></trkpt>
<trkpt lat="43.0796120000" lon="-1.0994070000"><ele>878</ele><time>2026-04-09T11:23:57Z</time></trkpt>
<trkpt lat="43.0796520000" lon="-1.0993950000"><ele>877</ele><time>2026-04-09T11:24:00Z</time></trkpt>
<trkpt lat="43.0796620000" lon="-1.0993920000"><ele>877</ele><time>2026-04-09T11:24:01Z</time></trkpt>
<trkpt lat="43.0796870000" lon="-1.0993870000"><ele>877</ele><time>2026-04-09T11:24:03Z</time></trkpt>
<trkpt lat="43.0797220000" lon="-1.0993720000"><ele>877</ele><time>2026-04-09T11:24:06Z</time></trkpt>
<trkpt lat="43.0797320000" lon="-1.0993720000"><ele>877</ele><time>2026-04-09T11:24:07Z</time></trkpt>
<trkpt lat="43.0797570000" lon="-1.0993620000"><ele>876</ele><time>2026-04-09T11:24:09Z</time></trkpt>
<trkpt lat="43.0797900000" lon="-1.0993470000"><ele>876</ele><time>2026-04-09T11:24:12Z</time></trkpt>
<trkpt lat="43.0798020000" lon="-1.0993400000"><ele>876</ele><time>2026-04-09T11:24:13Z</time></trkpt>
<trkpt lat="43.0798220000" lon="-1.0993300000"><ele>876</ele><time>2026-04-09T11:24:15Z</time></trkpt>
<trkpt lat="43.0798550000" lon="-1.0993150000"><ele>876</ele><time>2026-04-09T11:24:18Z</time></trkpt>
<trkpt lat="43.0798670000" lon="-1.0993070000"><ele>876</ele><time>2026-04-09T11:24:19Z</time></trkpt>
<trkpt lat="43.0798920000" lon="-1.0992970000"><ele>876</ele><time>2026-04-09T11:24:21Z</time></trkpt>
<trkpt lat="43.0799320000" lon="-1.0992770000"><ele>875</ele><time>2026-04-09T11:24:24Z</time></trkpt>
<trkpt lat="43.0799400000" lon="-1.0992720000"><ele>875</ele><time>2026-04-09T11:24:25Z</time></trkpt>
<trkpt lat="43.0799570000" lon="-1.0992570000"><ele>875</ele><time>2026-04-09T11:24:27Z</time></trkpt>
<trkpt lat="43.0799900000" lon="-1.0992350000"><ele>875</ele><time>2026-04-09T11:24:30Z</time></trkpt>
<trkpt lat="43.0800020000" lon="-1.0992270000"><ele>875</ele><time>2026-04-09T11:24:31Z</time></trkpt>
<trkpt lat="43.0800220000" lon="-1.0992070000"><ele>875</ele><time>2026-04-09T11:24:33Z</time></trkpt>
<trkpt lat="43.0800500000" lon="-1.0991650000"><ele>875</ele><time>2026-04-09T11:24:36Z</time></trkpt>
<trkpt lat="43.0800720000" lon="-1.0991320000"><ele>874</ele><time>2026-04-09T11:24:39Z</time></trkpt>
<trkpt lat="43.0800820000" lon="-1.0991170000"><ele>874</ele><time>2026-04-09T11:24:40Z</time></trkpt>
<trkpt lat="43.0800970000" lon="-1.0991020000"><ele>874</ele><time>2026-04-09T11:24:42Z</time></trkpt>
<trkpt lat="43.0801170000" lon="-1.0990670000"><ele>874</ele><time>2026-04-09T11:24:45Z</time></trkpt>
<trkpt lat="43.0801250000" lon="-1.0990570000"><ele>874</ele><time>2026-04-09T11:24:46Z</time></trkpt>
<trkpt lat="43.0801470000" lon="-1.0990520000"><ele>874</ele><time>2026-04-09T11:24:54Z</time></trkpt>
<trkpt lat="43.0801800000" lon="-1.0990170000"><ele>874</ele><time>2026-04-09T11:24:57Z</time></trkpt>
<trkpt lat="43.0801920000" lon="-1.0990070000"><ele>874</ele><time>2026-04-09T11:24:58Z</time></trkpt>
<trkpt lat="43.0802170000" lon="-1.0989920000"><ele>873</ele><time>2026-04-09T11:25:00Z</time></trkpt>
<trkpt lat="43.0802550000" lon="-1.0989750000"><ele>873</ele><time>2026-04-09T11:25:03Z</time></trkpt>
<trkpt lat="43.0802650000" lon="-1.0989670000"><ele>873</ele><time>2026-04-09T11:25:04Z</time></trkpt>
<trkpt lat="43.0802870000" lon="-1.0989570000"><ele>873</ele><time>2026-04-09T11:25:06Z</time></trkpt>
<trkpt lat="43.0803150000" lon="-1.0989550000"><ele>872</ele><time>2026-04-09T11:25:09Z</time></trkpt>
<trkpt lat="43.0803270000" lon="-1.0989520000"><ele>872</ele><time>2026-04-09T11:25:10Z</time></trkpt>
<trkpt lat="43.0803520000" lon="-1.0989500000"><ele>872</ele><time>2026-04-09T11:25:12Z</time></trkpt>
<trkpt lat="43.0803870000" lon="-1.0989470000"><ele>872</ele><time>2026-04-09T11:25:15Z</time></trkpt>
<trkpt lat="43.0803970000" lon="-1.0989520000"><ele>872</ele><time>2026-04-09T11:25:16Z</time></trkpt>
<trkpt lat="43.0804170000" lon="-1.0989550000"><ele>872</ele><time>2026-04-09T11:25:18Z</time></trkpt>
<trkpt lat="43.0804500000" lon="-1.0989650000"><ele>871</ele><time>2026-04-09T11:25:21Z</time></trkpt>
<trkpt lat="43.0804620000" lon="-1.0989670000"><ele>871</ele><time>2026-04-09T11:25:22Z</time></trkpt>
<trkpt lat="43.0804850000" lon="-1.0989720000"><ele>871</ele><time>2026-04-09T11:25:24Z</time></trkpt>
<trkpt lat="43.0805130000" lon="-1.0989870000"><ele>871</ele><time>2026-04-09T11:25:27Z</time></trkpt>
<trkpt lat="43.0805250000" lon="-1.0989920000"><ele>871</ele><time>2026-04-09T11:25:28Z</time></trkpt>
<trkpt lat="43.0805470000" lon="-1.0990020000"><ele>871</ele><time>2026-04-09T11:25:30Z</time></trkpt>
<trkpt lat="43.0805820000" lon="-1.0990170000"><ele>870</ele><time>2026-04-09T11:25:33Z</time></trkpt>
<trkpt lat="43.0805900000" lon="-1.0990300000"><ele>870</ele><time>2026-04-09T11:25:34Z</time></trkpt>
<trkpt lat="43.0806150000" lon="-1.0990500000"><ele>870</ele><time>2026-04-09T11:25:36Z</time></trkpt>
<trkpt lat="43.0806520000" lon="-1.0990770000"><ele>870</ele><time>2026-04-09T11:25:39Z</time></trkpt>
<trkpt lat="43.0806620000" lon="-1.0990850000"><ele>870</ele><time>2026-04-09T11:25:40Z</time></trkpt>
<trkpt lat="43.0806770000" lon="-1.0991070000"><ele>869</ele><time>2026-04-09T11:25:42Z</time></trkpt>
<trkpt lat="43.0807050000" lon="-1.0991400000"><ele>869</ele><time>2026-04-09T11:25:45Z</time></trkpt>
<trkpt lat="43.0807150000" lon="-1.0991520000"><ele>869</ele><time>2026-04-09T11:25:46Z</time></trkpt>
<trkpt lat="43.0807350000" lon="-1.0991670000"><ele>869</ele><time>2026-04-09T11:25:48Z</time></trkpt>
<trkpt lat="43.0807550000" lon="-1.0991920000"><ele>869</ele><time>2026-04-09T11:25:51Z</time></trkpt>
<trkpt lat="43.0807750000" lon="-1.0992170000"><ele>868</ele><time>2026-04-09T11:25:54Z</time></trkpt>
<trkpt lat="43.0807870000" lon="-1.0992250000"><ele>868</ele><time>2026-04-09T11:25:55Z</time></trkpt>
<trkpt lat="43.0808100000" lon="-1.0992470000"><ele>868</ele><time>2026-04-09T11:25:57Z</time></trkpt>
<trkpt lat="43.0808370000" lon="-1.0993220000"><ele>868</ele><time>2026-04-09T11:26:00Z</time></trkpt>
<trkpt lat="43.0808470000" lon="-1.0993450000"><ele>867</ele><time>2026-04-09T11:26:01Z</time></trkpt>
<trkpt lat="43.0808650000" lon="-1.0993620000"><ele>867</ele><time>2026-04-09T11:26:03Z</time></trkpt>
<trkpt lat="43.0808850000" lon="-1.0994050000"><ele>867</ele><time>2026-04-09T11:26:06Z</time></trkpt>
<trkpt lat="43.0808920000" lon="-1.0994170000"><ele>867</ele><time>2026-04-09T11:26:07Z</time></trkpt>
<trkpt lat="43.0809120000" lon="-1.0994470000"><ele>867</ele><time>2026-04-09T11:26:09Z</time></trkpt>
<trkpt lat="43.0809420000" lon="-1.0994870000"><ele>866</ele><time>2026-04-09T11:26:12Z</time></trkpt>
<trkpt lat="43.0809520000" lon="-1.0994950000"><ele>866</ele><time>2026-04-09T11:26:13Z</time></trkpt>
<trkpt lat="43.0809720000" lon="-1.0995120000"><ele>866</ele><time>2026-04-09T11:26:15Z</time></trkpt>
<trkpt lat="43.0809970000" lon="-1.0995320000"><ele>866</ele><time>2026-04-09T11:26:18Z</time></trkpt>
<trkpt lat="43.0810100000" lon="-1.0995400000"><ele>866</ele><time>2026-04-09T11:26:19Z</time></trkpt>
<trkpt lat="43.0810270000" lon="-1.0995550000"><ele>865</ele><time>2026-04-09T11:26:21Z</time></trkpt>
<trkpt lat="43.0810520000" lon="-1.0995800000"><ele>865</ele><time>2026-04-09T11:26:24Z</time></trkpt>
<trkpt lat="43.0810620000" lon="-1.0995900000"><ele>865</ele><time>2026-04-09T11:26:25Z</time></trkpt>
<trkpt lat="43.0810820000" lon="-1.0996070000"><ele>865</ele><time>2026-04-09T11:26:27Z</time></trkpt>
<trkpt lat="43.0811120000" lon="-1.0996330000"><ele>864</ele><time>2026-04-09T11:26:30Z</time></trkpt>
<trkpt lat="43.0811180000" lon="-1.0996420000"><ele>864</ele><time>2026-04-09T11:26:31Z</time></trkpt>
<trkpt lat="43.0811370000" lon="-1.0996650000"><ele>864</ele><time>2026-04-09T11:26:33Z</time></trkpt>
<trkpt lat="43.0811620000" lon="-1.0996950000"><ele>864</ele><time>2026-04-09T11:26:36Z</time></trkpt>
<trkpt lat="43.0811720000" lon="-1.0997020000"><ele>864</ele><time>2026-04-09T11:26:37Z</time></trkpt>
<trkpt lat="43.0811870000" lon="-1.0997250000"><ele>863</ele><time>2026-04-09T11:26:39Z</time></trkpt>
<trkpt lat="43.0812120000" lon="-1.0997570000"><ele>863</ele><time>2026-04-09T11:26:42Z</time></trkpt>
<trkpt lat="43.0812220000" lon="-1.0997670000"><ele>863</ele><time>2026-04-09T11:26:43Z</time></trkpt>
<trkpt lat="43.0812400000" lon="-1.0997820000"><ele>863</ele><time>2026-04-09T11:26:45Z</time></trkpt>
<trkpt lat="43.0812570000" lon="-1.0998020000"><ele>862</ele><time>2026-04-09T11:26:47Z</time></trkpt>
<trkpt lat="43.0812730000" lon="-1.0998200000"><ele>862</ele><time>2026-04-09T11:26:49Z</time></trkpt>
<trkpt lat="43.0812920000" lon="-1.0998420000"><ele>862</ele><time>2026-04-09T11:26:51Z</time></trkpt>
<trkpt lat="43.0813170000" lon="-1.0998750000"><ele>862</ele><time>2026-04-09T11:26:54Z</time></trkpt>
<trkpt lat="43.0813270000" lon="-1.0998850000"><ele>862</ele><time>2026-04-09T11:26:55Z</time></trkpt>
<trkpt lat="43.0813420000" lon="-1.0999070000"><ele>861</ele><time>2026-04-09T11:26:57Z</time></trkpt>
<trkpt lat="43.0813670000" lon="-1.0999420000"><ele>861</ele><time>2026-04-09T11:27:00Z</time></trkpt>
<trkpt lat="43.0813770000" lon="-1.0999520000"><ele>861</ele><time>2026-04-09T11:27:01Z</time></trkpt>
<trkpt lat="43.0813920000" lon="-1.0999770000"><ele>861</ele><time>2026-04-09T11:27:03Z</time></trkpt>
<trkpt lat="43.0814120000" lon="-1.1000120000"><ele>860</ele><time>2026-04-09T11:27:06Z</time></trkpt>
<trkpt lat="43.0814200000" lon="-1.1000250000"><ele>860</ele><time>2026-04-09T11:27:07Z</time></trkpt>
<trkpt lat="43.0814350000" lon="-1.1000470000"><ele>860</ele><time>2026-04-09T11:27:09Z</time></trkpt>
<trkpt lat="43.0814550000" lon="-1.1000780000"><ele>860</ele><time>2026-04-09T11:27:12Z</time></trkpt>
<trkpt lat="43.0814650000" lon="-1.1000920000"><ele>860</ele><time>2026-04-09T11:27:13Z</time></trkpt>
<trkpt lat="43.0814800000" lon="-1.1001150000"><ele>859</ele><time>2026-04-09T11:27:15Z</time></trkpt>
<trkpt lat="43.0815020000" lon="-1.1001470000"><ele>859</ele><time>2026-04-09T11:27:18Z</time></trkpt>
<trkpt lat="43.0815120000" lon="-1.1001570000"><ele>859</ele><time>2026-04-09T11:27:19Z</time></trkpt>
<trkpt lat="43.0815220000" lon="-1.1001870000"><ele>858</ele><time>2026-04-09T11:27:21Z</time></trkpt>
<trkpt lat="43.0815400000" lon="-1.1002320000"><ele>858</ele><time>2026-04-09T11:27:24Z</time></trkpt>
<trkpt lat="43.0815470000" lon="-1.1002470000"><ele>858</ele><time>2026-04-09T11:27:25Z</time></trkpt>
<trkpt lat="43.0815620000" lon="-1.1002700000"><ele>858</ele><time>2026-04-09T11:27:27Z</time></trkpt>
<trkpt lat="43.0815820000" lon="-1.1003050000"><ele>857</ele><time>2026-04-09T11:27:30Z</time></trkpt>
<trkpt lat="43.0815920000" lon="-1.1003150000"><ele>857</ele><time>2026-04-09T11:27:31Z</time></trkpt>
<trkpt lat="43.0816070000" lon="-1.1003350000"><ele>857</ele><time>2026-04-09T11:27:33Z</time></trkpt>
<trkpt lat="43.0816270000" lon="-1.1003600000"><ele>856</ele><time>2026-04-09T11:27:36Z</time></trkpt>
<trkpt lat="43.0816520000" lon="-1.1003800000"><ele>856</ele><time>2026-04-09T11:27:39Z</time></trkpt>
<trkpt lat="43.0816600000" lon="-1.1003900000"><ele>856</ele><time>2026-04-09T11:27:40Z</time></trkpt>
<trkpt lat="43.0816770000" lon="-1.1004120000"><ele>856</ele><time>2026-04-09T11:27:42Z</time></trkpt>
<trkpt lat="43.0817020000" lon="-1.1004470000"><ele>855</ele><time>2026-04-09T11:27:45Z</time></trkpt>
<trkpt lat="43.0817100000" lon="-1.1004570000"><ele>855</ele><time>2026-04-09T11:27:46Z</time></trkpt>
<trkpt lat="43.0817300000" lon="-1.1004820000"><ele>855</ele><time>2026-04-09T11:27:48Z</time></trkpt>
<trkpt lat="43.0817570000" lon="-1.1005150000"><ele>855</ele><time>2026-04-09T11:27:51Z</time></trkpt>
<trkpt lat="43.0817670000" lon="-1.1005270000"><ele>855</ele><time>2026-04-09T11:27:52Z</time></trkpt>
<trkpt lat="43.0817820000" lon="-1.1005500000"><ele>854</ele><time>2026-04-09T11:27:54Z</time></trkpt>
<trkpt lat="43.0818150000" lon="-1.1005720000"><ele>854</ele><time>2026-04-09T11:27:57Z</time></trkpt>
<trkpt lat="43.0818220000" lon="-1.1005820000"><ele>854</ele><time>2026-04-09T11:27:58Z</time></trkpt>
<trkpt lat="43.0818420000" lon="-1.1006000000"><ele>854</ele><time>2026-04-09T11:28:00Z</time></trkpt>
<trkpt lat="43.0818700000" lon="-1.1006270000"><ele>853</ele><time>2026-04-09T11:28:03Z</time></trkpt>
<trkpt lat="43.0818770000" lon="-1.1006370000"><ele>853</ele><time>2026-04-09T11:28:04Z</time></trkpt>
<trkpt lat="43.0818950000" lon="-1.1006620000"><ele>853</ele><time>2026-04-09T11:28:06Z</time></trkpt>
<trkpt lat="43.0819170000" lon="-1.1006970000"><ele>853</ele><time>2026-04-09T11:28:09Z</time></trkpt>
<trkpt lat="43.0819250000" lon="-1.1007100000"><ele>853</ele><time>2026-04-09T11:28:10Z</time></trkpt>
<trkpt lat="43.0819370000" lon="-1.1007300000"><ele>852</ele><time>2026-04-09T11:28:12Z</time></trkpt>
<trkpt lat="43.0819570000" lon="-1.1007720000"><ele>852</ele><time>2026-04-09T11:28:15Z</time></trkpt>
<trkpt lat="43.0819600000" lon="-1.1007870000"><ele>851</ele><time>2026-04-09T11:28:16Z</time></trkpt>
<trkpt lat="43.0819630000" lon="-1.1008170000"><ele>851</ele><time>2026-04-09T11:28:18Z</time></trkpt>
<trkpt lat="43.0819670000" lon="-1.1008570000"><ele>851</ele><time>2026-04-09T11:28:30Z</time></trkpt>
<trkpt lat="43.0819700000" lon="-1.1008750000"><ele>851</ele><time>2026-04-09T11:28:31Z</time></trkpt>
<trkpt lat="43.0819750000" lon="-1.1009200000"><ele>850</ele><time>2026-04-09T11:28:33Z</time></trkpt>
<trkpt lat="43.0819720000" lon="-1.1009720000"><ele>850</ele><time>2026-04-09T11:28:36Z</time></trkpt>
<trkpt lat="43.0819720000" lon="-1.1009850000"><ele>850</ele><time>2026-04-09T11:28:37Z</time></trkpt>
<trkpt lat="43.0819720000" lon="-1.1010170000"><ele>849</ele><time>2026-04-09T11:28:42Z</time></trkpt>
<trkpt lat="43.0819900000" lon="-1.1010350000"><ele>849</ele><time>2026-04-09T11:28:48Z</time></trkpt>
<trkpt lat="43.0819900000" lon="-1.1010720000"><ele>849</ele><time>2026-04-09T11:29:24Z</time></trkpt>
<trkpt lat="43.0819920000" lon="-1.1011370000"><ele>849</ele><time>2026-04-09T11:29:27Z</time></trkpt>
<trkpt lat="43.0819970000" lon="-1.1011570000"><ele>849</ele><time>2026-04-09T11:29:28Z</time></trkpt>
<trkpt lat="43.0820070000" lon="-1.1011870000"><ele>849</ele><time>2026-04-09T11:29:30Z</time></trkpt>
<trkpt lat="43.0820220000" lon="-1.1012220000"><ele>848</ele><time>2026-04-09T11:29:33Z</time></trkpt>
<trkpt lat="43.0820300000" lon="-1.1012320000"><ele>848</ele><time>2026-04-09T11:29:34Z</time></trkpt>
<trkpt lat="43.0820450000" lon="-1.1012570000"><ele>848</ele><time>2026-04-09T11:29:36Z</time></trkpt>
<trkpt lat="43.0820670000" lon="-1.1012920000"><ele>847</ele><time>2026-04-09T11:29:39Z</time></trkpt>
<trkpt lat="43.0820750000" lon="-1.1013020000"><ele>847</ele><time>2026-04-09T11:29:40Z</time></trkpt>
<trkpt lat="43.0820900000" lon="-1.1013220000"><ele>847</ele><time>2026-04-09T11:29:42Z</time></trkpt>
<trkpt lat="43.0821070000" lon="-1.1013400000"><ele>846</ele><time>2026-04-09T11:29:44Z</time></trkpt>
<trkpt lat="43.0821220000" lon="-1.1013650000"><ele>846</ele><time>2026-04-09T11:29:46Z</time></trkpt>
<trkpt lat="43.0821420000" lon="-1.1014020000"><ele>845</ele><time>2026-04-09T11:29:49Z</time></trkpt>
<trkpt lat="43.0821520000" lon="-1.1014120000"><ele>845</ele><time>2026-04-09T11:29:50Z</time></trkpt>
<trkpt lat="43.0821670000" lon="-1.1014270000"><ele>845</ele><time>2026-04-09T11:29:52Z</time></trkpt>
<trkpt lat="43.0821920000" lon="-1.1014570000"><ele>845</ele><time>2026-04-09T11:29:55Z</time></trkpt>
<trkpt lat="43.0822020000" lon="-1.1014670000"><ele>844</ele><time>2026-04-09T11:29:56Z</time></trkpt>
<trkpt lat="43.0822220000" lon="-1.1014900000"><ele>844</ele><time>2026-04-09T11:29:58Z</time></trkpt>
<trkpt lat="43.0822520000" lon="-1.1015200000"><ele>843</ele><time>2026-04-09T11:30:01Z</time></trkpt>
<trkpt lat="43.0822580000" lon="-1.1015270000"><ele>843</ele><time>2026-04-09T11:30:02Z</time></trkpt>
<trkpt lat="43.0822800000" lon="-1.1015470000"><ele>843</ele><time>2026-04-09T11:30:04Z</time></trkpt>
<trkpt lat="43.0822970000" lon="-1.1015630000"><ele>843</ele><time>2026-04-09T11:30:06Z</time></trkpt>
<trkpt lat="43.0823170000" lon="-1.1015820000"><ele>842</ele><time>2026-04-09T11:30:08Z</time></trkpt>
<trkpt lat="43.0823370000" lon="-1.1016000000"><ele>842</ele><time>2026-04-09T11:30:10Z</time></trkpt>
<trkpt lat="43.0823670000" lon="-1.1016270000"><ele>842</ele><time>2026-04-09T11:30:13Z</time></trkpt>
<trkpt lat="43.0823800000" lon="-1.1016400000"><ele>841</ele><time>2026-04-09T11:30:14Z</time></trkpt>
<trkpt lat="43.0824020000" lon="-1.1016670000"><ele>841</ele><time>2026-04-09T11:30:16Z</time></trkpt>
<trkpt lat="43.0824220000" lon="-1.1016950000"><ele>841</ele><time>2026-04-09T11:30:18Z</time></trkpt>
<trkpt lat="43.0824370000" lon="-1.1017150000"><ele>841</ele><time>2026-04-09T11:30:20Z</time></trkpt>
<trkpt lat="43.0824520000" lon="-1.1017320000"><ele>840</ele><time>2026-04-09T11:30:22Z</time></trkpt>
<trkpt lat="43.0824670000" lon="-1.1017500000"><ele>840</ele><time>2026-04-09T11:30:24Z</time></trkpt>
<trkpt lat="43.0824820000" lon="-1.1017670000"><ele>840</ele><time>2026-04-09T11:30:26Z</time></trkpt>
<trkpt lat="43.0825120000" lon="-1.1017950000"><ele>840</ele><time>2026-04-09T11:30:29Z</time></trkpt>
<trkpt lat="43.0825200000" lon="-1.1018050000"><ele>840</ele><time>2026-04-09T11:30:30Z</time></trkpt>
<trkpt lat="43.0825370000" lon="-1.1018250000"><ele>839</ele><time>2026-04-09T11:30:32Z</time></trkpt>
<trkpt lat="43.0825620000" lon="-1.1018550000"><ele>839</ele><time>2026-04-09T11:30:35Z</time></trkpt>
<trkpt lat="43.0825720000" lon="-1.1018650000"><ele>839</ele><time>2026-04-09T11:30:36Z</time></trkpt>
<trkpt lat="43.0825870000" lon="-1.1018850000"><ele>839</ele><time>2026-04-09T11:30:38Z</time></trkpt>
<trkpt lat="43.0826170000" lon="-1.1019200000"><ele>838</ele><time>2026-04-09T11:30:41Z</time></trkpt>
<trkpt lat="43.0826270000" lon="-1.1019350000"><ele>838</ele><time>2026-04-09T11:30:42Z</time></trkpt>
<trkpt lat="43.0826420000" lon="-1.1019570000"><ele>838</ele><time>2026-04-09T11:30:44Z</time></trkpt>
<trkpt lat="43.0826720000" lon="-1.1019870000"><ele>838</ele><time>2026-04-09T11:30:47Z</time></trkpt>
<trkpt lat="43.0826800000" lon="-1.1019950000"><ele>837</ele><time>2026-04-09T11:30:48Z</time></trkpt>
<trkpt lat="43.0826970000" lon="-1.1020120000"><ele>837</ele><time>2026-04-09T11:30:50Z</time></trkpt>
<trkpt lat="43.0827220000" lon="-1.1020420000"><ele>837</ele><time>2026-04-09T11:30:53Z</time></trkpt>
<trkpt lat="43.0827300000" lon="-1.1020550000"><ele>837</ele><time>2026-04-09T11:30:54Z</time></trkpt>
<trkpt lat="43.0827470000" lon="-1.1020750000"><ele>836</ele><time>2026-04-09T11:30:56Z</time></trkpt>
<trkpt lat="43.0827720000" lon="-1.1021120000"><ele>836</ele><time>2026-04-09T11:30:59Z</time></trkpt>
<trkpt lat="43.0827820000" lon="-1.1021220000"><ele>836</ele><time>2026-04-09T11:31:00Z</time></trkpt>
<trkpt lat="43.0827930000" lon="-1.1021420000"><ele>836</ele><time>2026-04-09T11:31:02Z</time></trkpt>
<trkpt lat="43.0828170000" lon="-1.1021800000"><ele>835</ele><time>2026-04-09T11:31:05Z</time></trkpt>
<trkpt lat="43.0828250000" lon="-1.1021920000"><ele>835</ele><time>2026-04-09T11:31:06Z</time></trkpt>
<trkpt lat="43.0828400000" lon="-1.1022200000"><ele>835</ele><time>2026-04-09T11:31:08Z</time></trkpt>
<trkpt lat="43.0828600000" lon="-1.1022700000"><ele>834</ele><time>2026-04-09T11:31:11Z</time></trkpt>
<trkpt lat="43.0828670000" lon="-1.1022820000"><ele>834</ele><time>2026-04-09T11:31:12Z</time></trkpt>
<trkpt lat="43.0828770000" lon="-1.1023070000"><ele>834</ele><time>2026-04-09T11:31:14Z</time></trkpt>
<trkpt lat="43.0828950000" lon="-1.1023400000"><ele>834</ele><time>2026-04-09T11:31:17Z</time></trkpt>
<trkpt lat="43.0829000000" lon="-1.1023520000"><ele>834</ele><time>2026-04-09T11:31:18Z</time></trkpt>
<trkpt lat="43.0829120000" lon="-1.1023800000"><ele>833</ele><time>2026-04-09T11:31:20Z</time></trkpt>
<trkpt lat="43.0829270000" lon="-1.1024270000"><ele>833</ele><time>2026-04-09T11:31:23Z</time></trkpt>
<trkpt lat="43.0829350000" lon="-1.1024370000"><ele>833</ele><time>2026-04-09T11:31:24Z</time></trkpt>
<trkpt lat="43.0829420000" lon="-1.1024620000"><ele>833</ele><time>2026-04-09T11:31:26Z</time></trkpt>
<trkpt lat="43.0829550000" lon="-1.1025070000"><ele>832</ele><time>2026-04-09T11:31:29Z</time></trkpt>
<trkpt lat="43.0829570000" lon="-1.1025220000"><ele>832</ele><time>2026-04-09T11:31:30Z</time></trkpt>
<trkpt lat="43.0829620000" lon="-1.1025520000"><ele>832</ele><time>2026-04-09T11:31:32Z</time></trkpt>
<trkpt lat="43.0829700000" lon="-1.1025970000"><ele>831</ele><time>2026-04-09T11:31:35Z</time></trkpt>
<trkpt lat="43.0829720000" lon="-1.1026120000"><ele>831</ele><time>2026-04-09T11:31:36Z</time></trkpt>
<trkpt lat="43.0829720000" lon="-1.1026470000"><ele>831</ele><time>2026-04-09T11:31:38Z</time></trkpt>
<trkpt lat="43.0829720000" lon="-1.1026950000"><ele>831</ele><time>2026-04-09T11:31:41Z</time></trkpt>
<trkpt lat="43.0829700000" lon="-1.1027100000"><ele>831</ele><time>2026-04-09T11:31:42Z</time></trkpt>
<trkpt lat="43.0829700000" lon="-1.1027400000"><ele>830</ele><time>2026-04-09T11:31:44Z</time></trkpt>
<trkpt lat="43.0829720000" lon="-1.1027870000"><ele>830</ele><time>2026-04-09T11:31:47Z</time></trkpt>
<trkpt lat="43.0829720000" lon="-1.1028050000"><ele>830</ele><time>2026-04-09T11:31:48Z</time></trkpt>
<trkpt lat="43.0829750000" lon="-1.1028400000"><ele>830</ele><time>2026-04-09T11:31:50Z</time></trkpt>
<trkpt lat="43.0829770000" lon="-1.1028870000"><ele>829</ele><time>2026-04-09T11:31:53Z</time></trkpt>
<trkpt lat="43.0829770000" lon="-1.1029020000"><ele>829</ele><time>2026-04-09T11:31:54Z</time></trkpt>
<trkpt lat="43.0829820000" lon="-1.1029350000"><ele>829</ele><time>2026-04-09T11:31:56Z</time></trkpt>
<trkpt lat="43.0829950000" lon="-1.1029770000"><ele>829</ele><time>2026-04-09T11:31:59Z</time></trkpt>
<trkpt lat="43.0830000000" lon="-1.1029900000"><ele>828</ele><time>2026-04-09T11:32:00Z</time></trkpt>
<trkpt lat="43.0830120000" lon="-1.1030170000"><ele>828</ele><time>2026-04-09T11:32:02Z</time></trkpt>
<trkpt lat="43.0830250000" lon="-1.1030570000"><ele>828</ele><time>2026-04-09T11:32:05Z</time></trkpt>
<trkpt lat="43.0830300000" lon="-1.1030750000"><ele>828</ele><time>2026-04-09T11:32:06Z</time></trkpt>
<trkpt lat="43.0830370000" lon="-1.1031050000"><ele>828</ele><time>2026-04-09T11:32:08Z</time></trkpt>
<trkpt lat="43.0830520000" lon="-1.1031470000"><ele>827</ele><time>2026-04-09T11:32:11Z</time></trkpt>
<trkpt lat="43.0830570000" lon="-1.1031620000"><ele>827</ele><time>2026-04-09T11:32:12Z</time></trkpt>
<trkpt lat="43.0830720000" lon="-1.1031900000"><ele>827</ele><time>2026-04-09T11:32:14Z</time></trkpt>
<trkpt lat="43.0830920000" lon="-1.1032300000"><ele>826</ele><time>2026-04-09T11:32:17Z</time></trkpt>
<trkpt lat="43.0831000000" lon="-1.1032450000"><ele>826</ele><time>2026-04-09T11:32:18Z</time></trkpt>
<trkpt lat="43.0831150000" lon="-1.1032700000"><ele>826</ele><time>2026-04-09T11:32:20Z</time></trkpt>
<trkpt lat="43.0831250000" lon="-1.1033020000"><ele>825</ele><time>2026-04-09T11:32:22Z</time></trkpt>
<trkpt lat="43.0831370000" lon="-1.1033320000"><ele>825</ele><time>2026-04-09T11:32:24Z</time></trkpt>
<trkpt lat="43.0831500000" lon="-1.1033570000"><ele>825</ele><time>2026-04-09T11:32:26Z</time></trkpt>
<trkpt lat="43.0831700000" lon="-1.1033870000"><ele>824</ele><time>2026-04-09T11:32:29Z</time></trkpt>
<trkpt lat="43.0831770000" lon="-1.1033970000"><ele>824</ele><time>2026-04-09T11:32:30Z</time></trkpt>
<trkpt lat="43.0831920000" lon="-1.1034170000"><ele>824</ele><time>2026-04-09T11:32:32Z</time></trkpt>
<trkpt lat="43.0832170000" lon="-1.1034420000"><ele>824</ele><time>2026-04-09T11:32:35Z</time></trkpt>
<trkpt lat="43.0832250000" lon="-1.1034520000"><ele>823</ele><time>2026-04-09T11:32:36Z</time></trkpt>
<trkpt lat="43.0832420000" lon="-1.1034720000"><ele>823</ele><time>2026-04-09T11:32:38Z</time></trkpt>
<trkpt lat="43.0832650000" lon="-1.1035100000"><ele>823</ele><time>2026-04-09T11:32:41Z</time></trkpt>
<trkpt lat="43.0832700000" lon="-1.1035220000"><ele>823</ele><time>2026-04-09T11:32:42Z</time></trkpt>
<trkpt lat="43.0832870000" lon="-1.1035470000"><ele>822</ele><time>2026-04-09T11:32:44Z</time></trkpt>
<trkpt lat="43.0833070000" lon="-1.1035770000"><ele>822</ele><time>2026-04-09T11:32:47Z</time></trkpt>
<trkpt lat="43.0833150000" lon="-1.1035920000"><ele>822</ele><time>2026-04-09T11:32:48Z</time></trkpt>
<trkpt lat="43.0833320000" lon="-1.1036170000"><ele>822</ele><time>2026-04-09T11:32:50Z</time></trkpt>
<trkpt lat="43.0833570000" lon="-1.1036520000"><ele>821</ele><time>2026-04-09T11:32:53Z</time></trkpt>
<trkpt lat="43.0833650000" lon="-1.1036620000"><ele>821</ele><time>2026-04-09T11:32:54Z</time></trkpt>
<trkpt lat="43.0833770000" lon="-1.1036870000"><ele>821</ele><time>2026-04-09T11:32:56Z</time></trkpt>
<trkpt lat="43.0834020000" lon="-1.1037220000"><ele>821</ele><time>2026-04-09T11:32:59Z</time></trkpt>
<trkpt lat="43.0834120000" lon="-1.1037320000"><ele>820</ele><time>2026-04-09T11:33:00Z</time></trkpt>
<trkpt lat="43.0834270000" lon="-1.1037520000"><ele>820</ele><time>2026-04-09T11:33:02Z</time></trkpt>
<trkpt lat="43.0834520000" lon="-1.1037870000"><ele>820</ele><time>2026-04-09T11:33:05Z</time></trkpt>
<trkpt lat="43.0834570000" lon="-1.1038000000"><ele>820</ele><time>2026-04-09T11:33:06Z</time></trkpt>
<trkpt lat="43.0834750000" lon="-1.1038220000"><ele>819</ele><time>2026-04-09T11:33:08Z</time></trkpt>
<trkpt lat="43.0834970000" lon="-1.1038600000"><ele>819</ele><time>2026-04-09T11:33:11Z</time></trkpt>
<trkpt lat="43.0835050000" lon="-1.1038720000"><ele>819</ele><time>2026-04-09T11:33:12Z</time></trkpt>
<trkpt lat="43.0835220000" lon="-1.1038970000"><ele>819</ele><time>2026-04-09T11:33:14Z</time></trkpt>
<trkpt lat="43.0835450000" lon="-1.1039250000"><ele>818</ele><time>2026-04-09T11:33:17Z</time></trkpt>
<trkpt lat="43.0835520000" lon="-1.1039370000"><ele>818</ele><time>2026-04-09T11:33:18Z</time></trkpt>
<trkpt lat="43.0835670000" lon="-1.1039600000"><ele>818</ele><time>2026-04-09T11:33:20Z</time></trkpt>
<trkpt lat="43.0835920000" lon="-1.1039970000"><ele>818</ele><time>2026-04-09T11:33:23Z</time></trkpt>
<trkpt lat="43.0836000000" lon="-1.1040100000"><ele>818</ele><time>2026-04-09T11:33:24Z</time></trkpt>
<trkpt lat="43.0836150000" lon="-1.1040270000"><ele>817</ele><time>2026-04-09T11:33:26Z</time></trkpt>
<trkpt lat="43.0836420000" lon="-1.1040570000"><ele>817</ele><time>2026-04-09T11:33:29Z</time></trkpt>
<trkpt lat="43.0836470000" lon="-1.1040700000"><ele>817</ele><time>2026-04-09T11:33:30Z</time></trkpt>
<trkpt lat="43.0836620000" lon="-1.1040870000"><ele>817</ele><time>2026-04-09T11:33:32Z</time></trkpt>
<trkpt lat="43.0836870000" lon="-1.1041270000"><ele>816</ele><time>2026-04-09T11:33:35Z</time></trkpt>
<trkpt lat="43.0836970000" lon="-1.1041420000"><ele>816</ele><time>2026-04-09T11:33:36Z</time></trkpt>
<trkpt lat="43.0837120000" lon="-1.1041670000"><ele>816</ele><time>2026-04-09T11:33:38Z</time></trkpt>
<trkpt lat="43.0837370000" lon="-1.1042050000"><ele>815</ele><time>2026-04-09T11:33:41Z</time></trkpt>
<trkpt lat="43.0837470000" lon="-1.1042170000"><ele>815</ele><time>2026-04-09T11:33:42Z</time></trkpt>
<trkpt lat="43.0837670000" lon="-1.1042370000"><ele>815</ele><time>2026-04-09T11:33:44Z</time></trkpt>
<trkpt lat="43.0837950000" lon="-1.1042670000"><ele>815</ele><time>2026-04-09T11:33:47Z</time></trkpt>
<trkpt lat="43.0838020000" lon="-1.1042770000"><ele>815</ele><time>2026-04-09T11:33:48Z</time></trkpt>
<trkpt lat="43.0838220000" lon="-1.1042970000"><ele>814</ele><time>2026-04-09T11:33:50Z</time></trkpt>
<trkpt lat="43.0838470000" lon="-1.1043220000"><ele>814</ele><time>2026-04-09T11:33:53Z</time></trkpt>
<trkpt lat="43.0838570000" lon="-1.1043300000"><ele>814</ele><time>2026-04-09T11:33:54Z</time></trkpt>
<trkpt lat="43.0838750000" lon="-1.1043500000"><ele>814</ele><time>2026-04-09T11:33:56Z</time></trkpt>
<trkpt lat="43.0838970000" lon="-1.1043770000"><ele>813</ele><time>2026-04-09T11:33:59Z</time></trkpt>
<trkpt lat="43.0839020000" lon="-1.1043920000"><ele>813</ele><time>2026-04-09T11:34:00Z</time></trkpt>
<trkpt lat="43.0839220000" lon="-1.1044100000"><ele>813</ele><time>2026-04-09T11:34:02Z</time></trkpt>
<trkpt lat="43.0839500000" lon="-1.1044370000"><ele>813</ele><time>2026-04-09T11:34:05Z</time></trkpt>
<trkpt lat="43.0839570000" lon="-1.1044470000"><ele>812</ele><time>2026-04-09T11:34:06Z</time></trkpt>
<trkpt lat="43.0839770000" lon="-1.1044620000"><ele>812</ele><time>2026-04-09T11:34:08Z</time></trkpt>
<trkpt lat="43.0840020000" lon="-1.1044900000"><ele>812</ele><time>2026-04-09T11:34:11Z</time></trkpt>
<trkpt lat="43.0840120000" lon="-1.1044970000"><ele>812</ele><time>2026-04-09T11:34:12Z</time></trkpt>
<trkpt lat="43.0840350000" lon="-1.1045100000"><ele>811</ele><time>2026-04-09T11:34:14Z</time></trkpt>
<trkpt lat="43.0840670000" lon="-1.1045320000"><ele>811</ele><time>2026-04-09T11:34:17Z</time></trkpt>
<trkpt lat="43.0840770000" lon="-1.1045400000"><ele>811</ele><time>2026-04-09T11:34:18Z</time></trkpt>
<trkpt lat="43.0840970000" lon="-1.1045570000"><ele>810</ele><time>2026-04-09T11:34:20Z</time></trkpt>
<trkpt lat="43.0841200000" lon="-1.1045700000"><ele>810</ele><time>2026-04-09T11:34:22Z</time></trkpt>
<trkpt lat="43.0841420000" lon="-1.1045820000"><ele>810</ele><time>2026-04-09T11:34:24Z</time></trkpt>
<trkpt lat="43.0841650000" lon="-1.1045950000"><ele>810</ele><time>2026-04-09T11:34:26Z</time></trkpt>
<trkpt lat="43.0841870000" lon="-1.1046020000"><ele>809</ele><time>2026-04-09T11:34:28Z</time></trkpt>
<trkpt lat="43.0842100000" lon="-1.1046130000"><ele>809</ele><time>2026-04-09T11:34:30Z</time></trkpt>
<trkpt lat="43.0842320000" lon="-1.1046220000"><ele>809</ele><time>2026-04-09T11:34:32Z</time></trkpt>
<trkpt lat="43.0842550000" lon="-1.1046300000"><ele>809</ele><time>2026-04-09T11:34:34Z</time></trkpt>
<trkpt lat="43.0842750000" lon="-1.1046370000"><ele>808</ele><time>2026-04-09T11:34:36Z</time></trkpt>
<trkpt lat="43.0842970000" lon="-1.1046470000"><ele>808</ele><time>2026-04-09T11:34:38Z</time></trkpt>
<trkpt lat="43.0843170000" lon="-1.1046530000"><ele>808</ele><time>2026-04-09T11:34:40Z</time></trkpt>
<trkpt lat="43.0843420000" lon="-1.1046600000"><ele>807</ele><time>2026-04-09T11:34:42Z</time></trkpt>
<trkpt lat="43.0843620000" lon="-1.1046720000"><ele>807</ele><time>2026-04-09T11:34:44Z</time></trkpt>
<trkpt lat="43.0843870000" lon="-1.1046870000"><ele>807</ele><time>2026-04-09T11:34:46Z</time></trkpt>
<trkpt lat="43.0844150000" lon="-1.1047020000"><ele>807</ele><time>2026-04-09T11:34:48Z</time></trkpt>
<trkpt lat="43.0844400000" lon="-1.1047120000"><ele>806</ele><time>2026-04-09T11:34:50Z</time></trkpt>
<trkpt lat="43.0844650000" lon="-1.1047200000"><ele>806</ele><time>2026-04-09T11:34:52Z</time></trkpt>
<trkpt lat="43.0844870000" lon="-1.1047250000"><ele>806</ele><time>2026-04-09T11:34:54Z</time></trkpt>
<trkpt lat="43.0845120000" lon="-1.1047320000"><ele>806</ele><time>2026-04-09T11:34:56Z</time></trkpt>
<trkpt lat="43.0845350000" lon="-1.1047300000"><ele>805</ele><time>2026-04-09T11:34:58Z</time></trkpt>
<trkpt lat="43.0845570000" lon="-1.1047320000"><ele>805</ele><time>2026-04-09T11:35:00Z</time></trkpt>
<trkpt lat="43.0845770000" lon="-1.1047350000"><ele>804</ele><time>2026-04-09T11:35:02Z</time></trkpt>
<trkpt lat="43.0846000000" lon="-1.1047370000"><ele>804</ele><time>2026-04-09T11:35:04Z</time></trkpt>
<trkpt lat="43.0846200000" lon="-1.1047420000"><ele>804</ele><time>2026-04-09T11:35:06Z</time></trkpt>
<trkpt lat="43.0846420000" lon="-1.1047480000"><ele>804</ele><time>2026-04-09T11:35:08Z</time></trkpt>
<trkpt lat="43.0846650000" lon="-1.1047570000"><ele>804</ele><time>2026-04-09T11:35:10Z</time></trkpt>
<trkpt lat="43.0846850000" lon="-1.1047620000"><ele>803</ele><time>2026-04-09T11:35:12Z</time></trkpt>
<trkpt lat="43.0847170000" lon="-1.1047720000"><ele>803</ele><time>2026-04-09T11:35:15Z</time></trkpt>
<trkpt lat="43.0847270000" lon="-1.1047770000"><ele>803</ele><time>2026-04-09T11:35:16Z</time></trkpt>
<trkpt lat="43.0847470000" lon="-1.1047880000"><ele>803</ele><time>2026-04-09T11:35:18Z</time></trkpt>
<trkpt lat="43.0847670000" lon="-1.1048000000"><ele>802</ele><time>2026-04-09T11:35:20Z</time></trkpt>
<trkpt lat="43.0847870000" lon="-1.1048050000"><ele>802</ele><time>2026-04-09T11:35:27Z</time></trkpt>
<trkpt lat="43.0848120000" lon="-1.1048150000"><ele>802</ele><time>2026-04-09T11:35:29Z</time></trkpt>
<trkpt lat="43.0848400000" lon="-1.1048270000"><ele>802</ele><time>2026-04-09T11:35:31Z</time></trkpt>
<trkpt lat="43.0848650000" lon="-1.1048400000"><ele>802</ele><time>2026-04-09T11:35:33Z</time></trkpt>
<trkpt lat="43.0848900000" lon="-1.1048420000"><ele>801</ele><time>2026-04-09T11:35:35Z</time></trkpt>
<trkpt lat="43.0849120000" lon="-1.1048470000"><ele>801</ele><time>2026-04-09T11:35:37Z</time></trkpt>
<trkpt lat="43.0849370000" lon="-1.1048620000"><ele>801</ele><time>2026-04-09T11:35:39Z</time></trkpt>
<trkpt lat="43.0849570000" lon="-1.1048770000"><ele>801</ele><time>2026-04-09T11:35:41Z</time></trkpt>
<trkpt lat="43.0849770000" lon="-1.1048920000"><ele>800</ele><time>2026-04-09T11:35:43Z</time></trkpt>
<trkpt lat="43.0849970000" lon="-1.1049100000"><ele>800</ele><time>2026-04-09T11:35:45Z</time></trkpt>
<trkpt lat="43.0850220000" lon="-1.1049230000"><ele>800</ele><time>2026-04-09T11:35:47Z</time></trkpt>
<trkpt lat="43.0850420000" lon="-1.1049350000"><ele>799</ele><time>2026-04-09T11:35:49Z</time></trkpt>
<trkpt lat="43.0850620000" lon="-1.1049420000"><ele>799</ele><time>2026-04-09T11:35:51Z</time></trkpt>
<trkpt lat="43.0850820000" lon="-1.1049500000"><ele>799</ele><time>2026-04-09T11:35:53Z</time></trkpt>
<trkpt lat="43.0851020000" lon="-1.1049570000"><ele>799</ele><time>2026-04-09T11:35:55Z</time></trkpt>
<trkpt lat="43.0851220000" lon="-1.1049700000"><ele>798</ele><time>2026-04-09T11:35:57Z</time></trkpt>
<trkpt lat="43.0851420000" lon="-1.1049870000"><ele>798</ele><time>2026-04-09T11:35:59Z</time></trkpt>
<trkpt lat="43.0851650000" lon="-1.1050070000"><ele>798</ele><time>2026-04-09T11:36:01Z</time></trkpt>
<trkpt lat="43.0851870000" lon="-1.1050250000"><ele>798</ele><time>2026-04-09T11:36:03Z</time></trkpt>
<trkpt lat="43.0852100000" lon="-1.1050350000"><ele>797</ele><time>2026-04-09T11:36:05Z</time></trkpt>
<trkpt lat="43.0852320000" lon="-1.1050500000"><ele>797</ele><time>2026-04-09T11:36:07Z</time></trkpt>
<trkpt lat="43.0852520000" lon="-1.1050670000"><ele>797</ele><time>2026-04-09T11:36:09Z</time></trkpt>
<trkpt lat="43.0852720000" lon="-1.1050870000"><ele>797</ele><time>2026-04-09T11:36:11Z</time></trkpt>
<trkpt lat="43.0852870000" lon="-1.1051150000"><ele>796</ele><time>2026-04-09T11:36:13Z</time></trkpt>
<trkpt lat="43.0853050000" lon="-1.1051320000"><ele>796</ele><time>2026-04-09T11:36:15Z</time></trkpt>
<trkpt lat="43.0853250000" lon="-1.1051470000"><ele>796</ele><time>2026-04-09T11:36:17Z</time></trkpt>
<trkpt lat="43.0853420000" lon="-1.1051650000"><ele>795</ele><time>2026-04-09T11:36:19Z</time></trkpt>
<trkpt lat="43.0853650000" lon="-1.1051820000"><ele>795</ele><time>2026-04-09T11:36:21Z</time></trkpt>
<trkpt lat="43.0853870000" lon="-1.1051970000"><ele>795</ele><time>2026-04-09T11:36:23Z</time></trkpt>
<trkpt lat="43.0854070000" lon="-1.1052070000"><ele>794</ele><time>2026-04-09T11:36:25Z</time></trkpt>
<trkpt lat="43.0854320000" lon="-1.1052120000"><ele>794</ele><time>2026-04-09T11:36:27Z</time></trkpt>
<trkpt lat="43.0854570000" lon="-1.1052270000"><ele>794</ele><time>2026-04-09T11:36:32Z</time></trkpt>
<trkpt lat="43.0854770000" lon="-1.1052450000"><ele>793</ele><time>2026-04-09T11:36:34Z</time></trkpt>
<trkpt lat="43.0854970000" lon="-1.1052620000"><ele>793</ele><time>2026-04-09T11:36:36Z</time></trkpt>
<trkpt lat="43.0855170000" lon="-1.1052800000"><ele>793</ele><time>2026-04-09T11:36:38Z</time></trkpt>
<trkpt lat="43.0855370000" lon="-1.1052920000"><ele>793</ele><time>2026-04-09T11:36:40Z</time></trkpt>
<trkpt lat="43.0855550000" lon="-1.1053120000"><ele>792</ele><time>2026-04-09T11:36:42Z</time></trkpt>
<trkpt lat="43.0855720000" lon="-1.1053280000"><ele>792</ele><time>2026-04-09T11:36:44Z</time></trkpt>
<trkpt lat="43.0855920000" lon="-1.1053500000"><ele>792</ele><time>2026-04-09T11:36:46Z</time></trkpt>
<trkpt lat="43.0856100000" lon="-1.1053720000"><ele>792</ele><time>2026-04-09T11:36:48Z</time></trkpt>
<trkpt lat="43.0856270000" lon="-1.1053920000"><ele>791</ele><time>2026-04-09T11:36:50Z</time></trkpt>
<trkpt lat="43.0856550000" lon="-1.1054220000"><ele>791</ele><time>2026-04-09T11:36:53Z</time></trkpt>
<trkpt lat="43.0856620000" lon="-1.1054320000"><ele>791</ele><time>2026-04-09T11:36:54Z</time></trkpt>
<trkpt lat="43.0856820000" lon="-1.1054520000"><ele>790</ele><time>2026-04-09T11:36:56Z</time></trkpt>
<trkpt lat="43.0857070000" lon="-1.1054800000"><ele>790</ele><time>2026-04-09T11:36:59Z</time></trkpt>
<trkpt lat="43.0857120000" lon="-1.1054950000"><ele>789</ele><time>2026-04-09T11:37:00Z</time></trkpt>
<trkpt lat="43.0857270000" lon="-1.1055170000"><ele>789</ele><time>2026-04-09T11:37:02Z</time></trkpt>
<trkpt lat="43.0857550000" lon="-1.1055500000"><ele>789</ele><time>2026-04-09T11:37:05Z</time></trkpt>
<trkpt lat="43.0857650000" lon="-1.1055620000"><ele>789</ele><time>2026-04-09T11:37:06Z</time></trkpt>
<trkpt lat="43.0857820000" lon="-1.1055800000"><ele>788</ele><time>2026-04-09T11:37:08Z</time></trkpt>
<trkpt lat="43.0858100000" lon="-1.1056070000"><ele>788</ele><time>2026-04-09T11:37:11Z</time></trkpt>
<trkpt lat="43.0858170000" lon="-1.1056150000"><ele>788</ele><time>2026-04-09T11:37:12Z</time></trkpt>
<trkpt lat="43.0858370000" lon="-1.1056300000"><ele>787</ele><time>2026-04-09T11:37:14Z</time></trkpt>
<trkpt lat="43.0858520000" lon="-1.1056470000"><ele>787</ele><time>2026-04-09T11:37:16Z</time></trkpt>
<trkpt lat="43.0858720000" lon="-1.1056670000"><ele>787</ele><time>2026-04-09T11:37:18Z</time></trkpt>
<trkpt lat="43.0859020000" lon="-1.1056920000"><ele>787</ele><time>2026-04-09T11:37:21Z</time></trkpt>
<trkpt lat="43.0859120000" lon="-1.1057020000"><ele>786</ele><time>2026-04-09T11:37:22Z</time></trkpt>
<trkpt lat="43.0859320000" lon="-1.1057270000"><ele>786</ele><time>2026-04-09T11:37:24Z</time></trkpt>
<trkpt lat="43.0859520000" lon="-1.1057570000"><ele>786</ele><time>2026-04-09T11:37:26Z</time></trkpt>
<trkpt lat="43.0859720000" lon="-1.1057820000"><ele>786</ele><time>2026-04-09T11:37:28Z</time></trkpt>
<trkpt lat="43.0859920000" lon="-1.1058000000"><ele>786</ele><time>2026-04-09T11:37:30Z</time></trkpt>
<trkpt lat="43.0860220000" lon="-1.1058300000"><ele>786</ele><time>2026-04-09T11:37:33Z</time></trkpt>
<trkpt lat="43.0860320000" lon="-1.1058370000"><ele>785</ele><time>2026-04-09T11:37:34Z</time></trkpt>
<trkpt lat="43.0860500000" lon="-1.1058600000"><ele>785</ele><time>2026-04-09T11:37:36Z</time></trkpt>
<trkpt lat="43.0860770000" lon="-1.1058870000"><ele>785</ele><time>2026-04-09T11:37:39Z</time></trkpt>
<trkpt lat="43.0860870000" lon="-1.1058970000"><ele>785</ele><time>2026-04-09T11:37:40Z</time></trkpt>
<trkpt lat="43.0861050000" lon="-1.1059150000"><ele>785</ele><time>2026-04-09T11:37:42Z</time></trkpt>
<trkpt lat="43.0861350000" lon="-1.1059450000"><ele>785</ele><time>2026-04-09T11:37:45Z</time></trkpt>
<trkpt lat="43.0861450000" lon="-1.1059570000"><ele>785</ele><time>2026-04-09T11:37:46Z</time></trkpt>
<trkpt lat="43.0861620000" lon="-1.1059820000"><ele>785</ele><time>2026-04-09T11:37:48Z</time></trkpt>
<trkpt lat="43.0861820000" lon="-1.1060020000"><ele>785</ele><time>2026-04-09T11:37:50Z</time></trkpt>
<trkpt lat="43.0862100000" lon="-1.1060370000"><ele>784</ele><time>2026-04-09T11:37:53Z</time></trkpt>
<trkpt lat="43.0862200000" lon="-1.1060470000"><ele>784</ele><time>2026-04-09T11:37:54Z</time></trkpt>
<trkpt lat="43.0862370000" lon="-1.1060670000"><ele>784</ele><time>2026-04-09T11:37:56Z</time></trkpt>
<trkpt lat="43.0862670000" lon="-1.1061070000"><ele>784</ele><time>2026-04-09T11:37:59Z</time></trkpt>
<trkpt lat="43.0862770000" lon="-1.1061200000"><ele>784</ele><time>2026-04-09T11:38:00Z</time></trkpt>
<trkpt lat="43.0862950000" lon="-1.1061450000"><ele>784</ele><time>2026-04-09T11:38:02Z</time></trkpt>
<trkpt lat="43.0863200000" lon="-1.1061780000"><ele>784</ele><time>2026-04-09T11:38:05Z</time></trkpt>
<trkpt lat="43.0863300000" lon="-1.1061920000"><ele>784</ele><time>2026-04-09T11:38:06Z</time></trkpt>
<trkpt lat="43.0863470000" lon="-1.1062170000"><ele>784</ele><time>2026-04-09T11:38:08Z</time></trkpt>
<trkpt lat="43.0863750000" lon="-1.1062620000"><ele>784</ele><time>2026-04-09T11:38:11Z</time></trkpt>
<trkpt lat="43.0863820000" lon="-1.1062730000"><ele>784</ele><time>2026-04-09T11:38:12Z</time></trkpt>
<trkpt lat="43.0864000000" lon="-1.1062970000"><ele>784</ele><time>2026-04-09T11:38:14Z</time></trkpt>
<trkpt lat="43.0864220000" lon="-1.1063320000"><ele>784</ele><time>2026-04-09T11:38:17Z</time></trkpt>
<trkpt lat="43.0864320000" lon="-1.1063550000"><ele>784</ele><time>2026-04-09T11:38:20Z</time></trkpt>
<trkpt lat="43.0864550000" lon="-1.1063820000"><ele>784</ele><time>2026-04-09T11:38:23Z</time></trkpt>
<trkpt lat="43.0864620000" lon="-1.1063920000"><ele>784</ele><time>2026-04-09T11:38:24Z</time></trkpt>
<trkpt lat="43.0864800000" lon="-1.1064150000"><ele>784</ele><time>2026-04-09T11:38:26Z</time></trkpt>
<trkpt lat="43.0865050000" lon="-1.1064520000"><ele>784</ele><time>2026-04-09T11:38:29Z</time></trkpt>
<trkpt lat="43.0865070000" lon="-1.1064620000"><ele>784</ele><time>2026-04-09T11:38:30Z</time></trkpt>
<trkpt lat="43.0865200000" lon="-1.1064820000"><ele>784</ele><time>2026-04-09T11:38:50Z</time></trkpt>
<trkpt lat="43.0865470000" lon="-1.1065320000"><ele>784</ele><time>2026-04-09T11:38:53Z</time></trkpt>
<trkpt lat="43.0865550000" lon="-1.1065500000"><ele>784</ele><time>2026-04-09T11:38:54Z</time></trkpt>
<trkpt lat="43.0865720000" lon="-1.1065830000"><ele>784</ele><time>2026-04-09T11:38:56Z</time></trkpt>
<trkpt lat="43.0865920000" lon="-1.1066320000"><ele>784</ele><time>2026-04-09T11:38:59Z</time></trkpt>
<trkpt lat="43.0866000000" lon="-1.1066470000"><ele>784</ele><time>2026-04-09T11:39:00Z</time></trkpt>
<trkpt lat="43.0866120000" lon="-1.1066720000"><ele>784</ele><time>2026-04-09T11:39:02Z</time></trkpt>
<trkpt lat="43.0866270000" lon="-1.1067020000"><ele>784</ele><time>2026-04-09T11:39:09Z</time></trkpt>
<trkpt lat="43.0866400000" lon="-1.1067370000"><ele>784</ele><time>2026-04-09T11:39:11Z</time></trkpt>
<trkpt lat="43.0866600000" lon="-1.1067870000"><ele>784</ele><time>2026-04-09T11:39:14Z</time></trkpt>
<trkpt lat="43.0866650000" lon="-1.1068000000"><ele>785</ele><time>2026-04-09T11:39:15Z</time></trkpt>
<trkpt lat="43.0866770000" lon="-1.1068270000"><ele>784</ele><time>2026-04-09T11:39:17Z</time></trkpt>
<trkpt lat="43.0866950000" lon="-1.1068670000"><ele>784</ele><time>2026-04-09T11:39:20Z</time></trkpt>
<trkpt lat="43.0867000000" lon="-1.1068820000"><ele>784</ele><time>2026-04-09T11:39:21Z</time></trkpt>
<trkpt lat="43.0867120000" lon="-1.1069120000"><ele>785</ele><time>2026-04-09T11:39:23Z</time></trkpt>
<trkpt lat="43.0867320000" lon="-1.1069520000"><ele>785</ele><time>2026-04-09T11:39:26Z</time></trkpt>
<trkpt lat="43.0867370000" lon="-1.1069650000"><ele>785</ele><time>2026-04-09T11:39:27Z</time></trkpt>
<trkpt lat="43.0867520000" lon="-1.1069880000"><ele>784</ele><time>2026-04-09T11:39:29Z</time></trkpt>
<trkpt lat="43.0867720000" lon="-1.1070320000"><ele>784</ele><time>2026-04-09T11:39:32Z</time></trkpt>
<trkpt lat="43.0867800000" lon="-1.1070450000"><ele>784</ele><time>2026-04-09T11:39:33Z</time></trkpt>
<trkpt lat="43.0867920000" lon="-1.1070720000"><ele>785</ele><time>2026-04-09T11:39:35Z</time></trkpt>
<trkpt lat="43.0868070000" lon="-1.1071270000"><ele>784</ele><time>2026-04-09T11:39:38Z</time></trkpt>
<trkpt lat="43.0868120000" lon="-1.1071450000"><ele>784</ele><time>2026-04-09T11:39:39Z</time></trkpt>
<trkpt lat="43.0868270000" lon="-1.1071770000"><ele>784</ele><time>2026-04-09T11:39:41Z</time></trkpt>
<trkpt lat="43.0868520000" lon="-1.1072120000"><ele>784</ele><time>2026-04-09T11:39:44Z</time></trkpt>
<trkpt lat="43.0868570000" lon="-1.1072250000"><ele>784</ele><time>2026-04-09T11:39:45Z</time></trkpt>
<trkpt lat="43.0868720000" lon="-1.1072470000"><ele>784</ele><time>2026-04-09T11:39:47Z</time></trkpt>
<trkpt lat="43.0868920000" lon="-1.1073020000"><ele>784</ele><time>2026-04-09T11:39:50Z</time></trkpt>
<trkpt lat="43.0869020000" lon="-1.1073170000"><ele>784</ele><time>2026-04-09T11:39:51Z</time></trkpt>
<trkpt lat="43.0869170000" lon="-1.1073470000"><ele>784</ele><time>2026-04-09T11:39:53Z</time></trkpt>
<trkpt lat="43.0869450000" lon="-1.1073870000"><ele>784</ele><time>2026-04-09T11:39:56Z</time></trkpt>
<trkpt lat="43.0869520000" lon="-1.1074000000"><ele>784</ele><time>2026-04-09T11:39:57Z</time></trkpt>
<trkpt lat="43.0869700000" lon="-1.1074250000"><ele>784</ele><time>2026-04-09T11:39:59Z</time></trkpt>
<trkpt lat="43.0869970000" lon="-1.1074620000"><ele>783</ele><time>2026-04-09T11:40:02Z</time></trkpt>
<trkpt lat="43.0870050000" lon="-1.1074720000"><ele>783</ele><time>2026-04-09T11:40:03Z</time></trkpt>
<trkpt lat="43.0870220000" lon="-1.1074970000"><ele>783</ele><time>2026-04-09T11:40:05Z</time></trkpt>
<trkpt lat="43.0870450000" lon="-1.1075350000"><ele>783</ele><time>2026-04-09T11:40:08Z</time></trkpt>
<trkpt lat="43.0870520000" lon="-1.1075470000"><ele>783</ele><time>2026-04-09T11:40:09Z</time></trkpt>
<trkpt lat="43.0870700000" lon="-1.1075720000"><ele>783</ele><time>2026-04-09T11:40:11Z</time></trkpt>
<trkpt lat="43.0870870000" lon="-1.1076000000"><ele>783</ele><time>2026-04-09T11:40:13Z</time></trkpt>
<trkpt lat="43.0871100000" lon="-1.1076370000"><ele>783</ele><time>2026-04-09T11:40:16Z</time></trkpt>
<trkpt lat="43.0871170000" lon="-1.1076500000"><ele>783</ele><time>2026-04-09T11:40:17Z</time></trkpt>
<trkpt lat="43.0871320000" lon="-1.1076770000"><ele>783</ele><time>2026-04-09T11:40:19Z</time></trkpt>
<trkpt lat="43.0871520000" lon="-1.1077200000"><ele>783</ele><time>2026-04-09T11:40:22Z</time></trkpt>
<trkpt lat="43.0871570000" lon="-1.1077350000"><ele>783</ele><time>2026-04-09T11:40:23Z</time></trkpt>
<trkpt lat="43.0871750000" lon="-1.1077620000"><ele>783</ele><time>2026-04-09T11:40:25Z</time></trkpt>
<trkpt lat="43.0872000000" lon="-1.1078020000"><ele>783</ele><time>2026-04-09T11:40:28Z</time></trkpt>
<trkpt lat="43.0872070000" lon="-1.1078170000"><ele>783</ele><time>2026-04-09T11:40:29Z</time></trkpt>
<trkpt lat="43.0872220000" lon="-1.1078470000"><ele>783</ele><time>2026-04-09T11:40:31Z</time></trkpt>
<trkpt lat="43.0872470000" lon="-1.1078870000"><ele>783</ele><time>2026-04-09T11:40:34Z</time></trkpt>
<trkpt lat="43.0872550000" lon="-1.1079020000"><ele>783</ele><time>2026-04-09T11:40:35Z</time></trkpt>
<trkpt lat="43.0872680000" lon="-1.1079330000"><ele>783</ele><time>2026-04-09T11:40:37Z</time></trkpt>
<trkpt lat="43.0872920000" lon="-1.1079800000"><ele>783</ele><time>2026-04-09T11:40:40Z</time></trkpt>
<trkpt lat="43.0873000000" lon="-1.1079970000"><ele>783</ele><time>2026-04-09T11:40:41Z</time></trkpt>
<trkpt lat="43.0873150000" lon="-1.1080300000"><ele>783</ele><time>2026-04-09T11:40:43Z</time></trkpt>
<trkpt lat="43.0873350000" lon="-1.1080720000"><ele>783</ele><time>2026-04-09T11:40:46Z</time></trkpt>
<trkpt lat="43.0873420000" lon="-1.1080850000"><ele>783</ele><time>2026-04-09T11:40:47Z</time></trkpt>
<trkpt lat="43.0873570000" lon="-1.1081120000"><ele>784</ele><time>2026-04-09T11:40:49Z</time></trkpt>
<trkpt lat="43.0873820000" lon="-1.1081520000"><ele>784</ele><time>2026-04-09T11:40:52Z</time></trkpt>
<trkpt lat="43.0873870000" lon="-1.1081670000"><ele>784</ele><time>2026-04-09T11:40:53Z</time></trkpt>
<trkpt lat="43.0874020000" lon="-1.1081970000"><ele>784</ele><time>2026-04-09T11:40:55Z</time></trkpt>
<trkpt lat="43.0874170000" lon="-1.1082270000"><ele>784</ele><time>2026-04-09T11:40:57Z</time></trkpt>
<trkpt lat="43.0874320000" lon="-1.1082550000"><ele>784</ele><time>2026-04-09T11:40:59Z</time></trkpt>
<trkpt lat="43.0874520000" lon="-1.1083020000"><ele>784</ele><time>2026-04-09T11:41:02Z</time></trkpt>
<trkpt lat="43.0874570000" lon="-1.1083170000"><ele>784</ele><time>2026-04-09T11:41:03Z</time></trkpt>
<trkpt lat="43.0874750000" lon="-1.1083450000"><ele>784</ele><time>2026-04-09T11:41:05Z</time></trkpt>
<trkpt lat="43.0874970000" lon="-1.1083820000"><ele>785</ele><time>2026-04-09T11:41:08Z</time></trkpt>
<trkpt lat="43.0875070000" lon="-1.1083950000"><ele>785</ele><time>2026-04-09T11:41:09Z</time></trkpt>
<trkpt lat="43.0875250000" lon="-1.1084200000"><ele>785</ele><time>2026-04-09T11:41:11Z</time></trkpt>
<trkpt lat="43.0875470000" lon="-1.1084800000"><ele>785</ele><time>2026-04-09T11:41:14Z</time></trkpt>
<trkpt lat="43.0875550000" lon="-1.1084970000"><ele>785</ele><time>2026-04-09T11:41:15Z</time></trkpt>
<trkpt lat="43.0875720000" lon="-1.1085320000"><ele>785</ele><time>2026-04-09T11:41:17Z</time></trkpt>
<trkpt lat="43.0875970000" lon="-1.1085720000"><ele>785</ele><time>2026-04-09T11:41:20Z</time></trkpt>
<trkpt lat="43.0876070000" lon="-1.1085870000"><ele>785</ele><time>2026-04-09T11:41:21Z</time></trkpt>
<trkpt lat="43.0876250000" lon="-1.1086120000"><ele>786</ele><time>2026-04-09T11:41:23Z</time></trkpt>
<trkpt lat="43.0876470000" lon="-1.1086470000"><ele>785</ele><time>2026-04-09T11:41:26Z</time></trkpt>
<trkpt lat="43.0876570000" lon="-1.1086600000"><ele>785</ele><time>2026-04-09T11:41:27Z</time></trkpt>
<trkpt lat="43.0876750000" lon="-1.1086800000"><ele>785</ele><time>2026-04-09T11:41:29Z</time></trkpt>
<trkpt lat="43.0877020000" lon="-1.1087120000"><ele>785</ele><time>2026-04-09T11:41:32Z</time></trkpt>
<trkpt lat="43.0877180000" lon="-1.1087370000"><ele>785</ele><time>2026-04-09T11:41:34Z</time></trkpt>
<trkpt lat="43.0877300000" lon="-1.1087470000"><ele>786</ele><time>2026-04-09T11:41:35Z</time></trkpt>
<trkpt lat="43.0877550000" lon="-1.1087820000"><ele>785</ele><time>2026-04-09T11:41:38Z</time></trkpt>
<trkpt lat="43.0877620000" lon="-1.1087920000"><ele>785</ele><time>2026-04-09T11:41:39Z</time></trkpt>
<trkpt lat="43.0877820000" lon="-1.1088100000"><ele>785</ele><time>2026-04-09T11:41:41Z</time></trkpt>
<trkpt lat="43.0878120000" lon="-1.1088350000"><ele>785</ele><time>2026-04-09T11:41:44Z</time></trkpt>
<trkpt lat="43.0878220000" lon="-1.1088450000"><ele>785</ele><time>2026-04-09T11:41:45Z</time></trkpt>
<trkpt lat="43.0878450000" lon="-1.1088620000"><ele>785</ele><time>2026-04-09T11:41:47Z</time></trkpt>
<trkpt lat="43.0878770000" lon="-1.1088870000"><ele>785</ele><time>2026-04-09T11:41:50Z</time></trkpt>
<trkpt lat="43.0878870000" lon="-1.1088970000"><ele>785</ele><time>2026-04-09T11:41:51Z</time></trkpt>
<trkpt lat="43.0879100000" lon="-1.1089150000"><ele>785</ele><time>2026-04-09T11:41:53Z</time></trkpt>
<trkpt lat="43.0879420000" lon="-1.1089370000"><ele>785</ele><time>2026-04-09T11:41:56Z</time></trkpt>
<trkpt lat="43.0879520000" lon="-1.1089470000"><ele>785</ele><time>2026-04-09T11:41:57Z</time></trkpt>
<trkpt lat="43.0879770000" lon="-1.1089580000"><ele>785</ele><time>2026-04-09T11:41:59Z</time></trkpt>
<trkpt lat="43.0880070000" lon="-1.1089720000"><ele>785</ele><time>2026-04-09T11:42:02Z</time></trkpt>
<trkpt lat="43.0880170000" lon="-1.1089820000"><ele>785</ele><time>2026-04-09T11:42:03Z</time></trkpt>
<trkpt lat="43.0880370000" lon="-1.1089970000"><ele>785</ele><time>2026-04-09T11:42:05Z</time></trkpt>
<trkpt lat="43.0880670000" lon="-1.1090170000"><ele>785</ele><time>2026-04-09T11:42:08Z</time></trkpt>
<trkpt lat="43.0880800000" lon="-1.1090270000"><ele>785</ele><time>2026-04-09T11:42:09Z</time></trkpt>
<trkpt lat="43.0880980000" lon="-1.1090450000"><ele>785</ele><time>2026-04-09T11:42:11Z</time></trkpt>
<trkpt lat="43.0881320000" lon="-1.1090670000"><ele>785</ele><time>2026-04-09T11:42:14Z</time></trkpt>
<trkpt lat="43.0881420000" lon="-1.1090720000"><ele>785</ele><time>2026-04-09T11:42:15Z</time></trkpt>
<trkpt lat="43.0881620000" lon="-1.1090870000"><ele>785</ele><time>2026-04-09T11:42:17Z</time></trkpt>
<trkpt lat="43.0881970000" lon="-1.1091070000"><ele>784</ele><time>2026-04-09T11:42:20Z</time></trkpt>
<trkpt lat="43.0882070000" lon="-1.1091120000"><ele>784</ele><time>2026-04-09T11:42:21Z</time></trkpt>
<trkpt lat="43.0882270000" lon="-1.1091220000"><ele>784</ele><time>2026-04-09T11:42:23Z</time></trkpt>
<trkpt lat="43.0882620000" lon="-1.1091470000"><ele>784</ele><time>2026-04-09T11:42:26Z</time></trkpt>
<trkpt lat="43.0882720000" lon="-1.1091670000"><ele>784</ele><time>2026-04-09T11:42:27Z</time></trkpt>
<trkpt lat="43.0882970000" lon="-1.1091970000"><ele>784</ele><time>2026-04-09T11:42:29Z</time></trkpt>
<trkpt lat="43.0883320000" lon="-1.1092270000"><ele>784</ele><time>2026-04-09T11:42:32Z</time></trkpt>
<trkpt lat="43.0883450000" lon="-1.1092320000"><ele>784</ele><time>2026-04-09T11:42:33Z</time></trkpt>
<trkpt lat="43.0883670000" lon="-1.1092470000"><ele>784</ele><time>2026-04-09T11:42:35Z</time></trkpt>
<trkpt lat="43.0883870000" lon="-1.1092600000"><ele>784</ele><time>2026-04-09T11:42:37Z</time></trkpt>
<trkpt lat="43.0884170000" lon="-1.1092670000"><ele>784</ele><time>2026-04-09T11:42:39Z</time></trkpt>
<trkpt lat="43.0884420000" lon="-1.1092700000"><ele>784</ele><time>2026-04-09T11:42:41Z</time></trkpt>
<trkpt lat="43.0884620000" lon="-1.1092870000"><ele>784</ele><time>2026-04-09T11:42:46Z</time></trkpt>
<trkpt lat="43.0885000000" lon="-1.1093120000"><ele>784</ele><time>2026-04-09T11:42:50Z</time></trkpt>
<trkpt lat="43.0885070000" lon="-1.1093170000"><ele>784</ele><time>2026-04-09T11:42:51Z</time></trkpt>
<trkpt lat="43.0885270000" lon="-1.1093230000"><ele>784</ele><time>2026-04-09T11:42:53Z</time></trkpt>
<trkpt lat="43.0885620000" lon="-1.1093420000"><ele>784</ele><time>2026-04-09T11:42:56Z</time></trkpt>
<trkpt lat="43.0885720000" lon="-1.1093470000"><ele>783</ele><time>2026-04-09T11:42:57Z</time></trkpt>
<trkpt lat="43.0885970000" lon="-1.1093520000"><ele>783</ele><time>2026-04-09T11:42:59Z</time></trkpt>
<trkpt lat="43.0886320000" lon="-1.1093630000"><ele>783</ele><time>2026-04-09T11:43:02Z</time></trkpt>
<trkpt lat="43.0886450000" lon="-1.1093700000"><ele>783</ele><time>2026-04-09T11:43:03Z</time></trkpt>
<trkpt lat="43.0886650000" lon="-1.1093820000"><ele>783</ele><time>2026-04-09T11:43:05Z</time></trkpt>
<trkpt lat="43.0886970000" lon="-1.1093970000"><ele>783</ele><time>2026-04-09T11:43:08Z</time></trkpt>
<trkpt lat="43.0887100000" lon="-1.1094020000"><ele>783</ele><time>2026-04-09T11:43:09Z</time></trkpt>
<trkpt lat="43.0887320000" lon="-1.1094120000"><ele>783</ele><time>2026-04-09T11:43:11Z</time></trkpt>
<trkpt lat="43.0887670000" lon="-1.1094220000"><ele>783</ele><time>2026-04-09T11:43:14Z</time></trkpt>
<trkpt lat="43.0887770000" lon="-1.1094300000"><ele>782</ele><time>2026-04-09T11:43:15Z</time></trkpt>
<trkpt lat="43.0887970000" lon="-1.1094420000"><ele>782</ele><time>2026-04-09T11:43:17Z</time></trkpt>
<trkpt lat="43.0888350000" lon="-1.1094570000"><ele>782</ele><time>2026-04-09T11:43:20Z</time></trkpt>
<trkpt lat="43.0888470000" lon="-1.1094620000"><ele>782</ele><time>2026-04-09T11:43:21Z</time></trkpt>
<trkpt lat="43.0888720000" lon="-1.1094670000"><ele>782</ele><time>2026-04-09T11:43:23Z</time></trkpt>
<trkpt lat="43.0889070000" lon="-1.1094770000"><ele>782</ele><time>2026-04-09T11:43:26Z</time></trkpt>
<trkpt lat="43.0889150000" lon="-1.1094820000"><ele>782</ele><time>2026-04-09T11:43:27Z</time></trkpt>
<trkpt lat="43.0889270000" lon="-1.1095020000"><ele>782</ele><time>2026-04-09T11:43:30Z</time></trkpt>
<trkpt lat="43.0889370000" lon="-1.1095220000"><ele>781</ele><time>2026-04-09T11:43:32Z</time></trkpt>
<trkpt lat="43.0889450000" lon="-1.1095570000"><ele>781</ele><time>2026-04-09T11:43:35Z</time></trkpt>
<trkpt lat="43.0889420000" lon="-1.1095820000"><ele>781</ele><time>2026-04-09T11:43:39Z</time></trkpt>
</trkseg>
</trk>
</gpx>